<?xml version="1.0" encoding="UTF-8" standalone="no" ?>
<gpx xmlns="http://www.topografix.com/GPX/1/1" xmlns:xsi="http://www.w3.org/2001/XMLSchema-instance" xsi:schemaLocation="http://www.topografix.com/GPX/1/1 http://www.topografix.com/GPX/1/1/gpx.xsd" version="1.1" creator="VisuGPX - https://www.visugpx.com">
  <metadata>
    <name>Randonnée Tostes</name>
    <desc><![CDATA[Circuit au départ de Tostes essentiellement en forêt avec retour par Louviers]]></desc>
  </metadata>
  <wpt lat="49.23662" lon="1.13307">
    <ele>113.8</ele>
  </wpt>
  <wpt lat="49.23667" lon="1.13301">
    <ele>113.8</ele>
  </wpt>
  <wpt lat="49.23666" lon="1.13302">
    <ele>113.8</ele>
  </wpt>
  <wpt lat="49.2366" lon="1.13311">
    <ele>113.8</ele>
  </wpt>
  <wpt lat="49.23637" lon="1.13307">
    <ele>112.9</ele>
  </wpt>
  <wpt lat="49.23191" lon="1.13099">
    <ele>61.4</ele>
  </wpt>
  <wpt lat="49.21179" lon="1.12199">
    <ele>106.8</ele>
  </wpt>
  <wpt lat="49.21179" lon="1.12201">
    <ele>106.9</ele>
  </wpt>
  <wpt lat="49.20582" lon="1.1263">
    <ele>122.1</ele>
  </wpt>
  <wpt lat="49.20395" lon="1.12755">
    <ele>129.8</ele>
  </wpt>
  <wpt lat="49.2117" lon="1.16367">
    <ele>24</ele>
  </wpt>
  <wpt lat="49.21167" lon="1.16372">
    <ele>24</ele>
  </wpt>
  <wpt lat="49.2118" lon="1.16366">
    <ele>23.9</ele>
  </wpt>
  <wpt lat="49.21261" lon="1.16793">
    <ele>19.8</ele>
  </wpt>
  <wpt lat="49.21262" lon="1.16793">
    <ele>19.9</ele>
  </wpt>
  <wpt lat="49.21286" lon="1.16921">
    <ele>18.2</ele>
  </wpt>
  <wpt lat="49.21295" lon="1.16945">
    <ele>18</ele>
  </wpt>
  <wpt lat="49.21295" lon="1.16947">
    <ele>18</ele>
  </wpt>
  <wpt lat="49.21295" lon="1.16981">
    <ele>17.4</ele>
  </wpt>
  <wpt lat="49.21409" lon="1.16914">
    <ele>21</ele>
  </wpt>
  <wpt lat="49.26025" lon="1.1121">
    <ele>120.5</ele>
  </wpt>
  <trk>
    <name><![CDATA[Randonnée Tostes_1]]></name>
    <trkseg>
      <trkpt lat="49.25922" lon="1.11136">
        <ele>122.8</ele>
        <time>2014-08-07T09:16:19Z</time>
      </trkpt>
      <trkpt lat="49.25923" lon="1.11136">
        <ele>122.8</ele>
        <time>2014-08-07T09:16:24Z</time>
      </trkpt>
      <trkpt lat="49.25926" lon="1.1113">
        <ele>122.8</ele>
        <time>2014-08-07T09:16:29Z</time>
      </trkpt>
      <trkpt lat="49.25928" lon="1.11125">
        <ele>122.24036</ele>
        <time>2014-08-07T09:16:34Z</time>
      </trkpt>
      <trkpt lat="49.25929" lon="1.11124">
        <ele>122.24036</ele>
        <time>2014-08-07T09:16:39Z</time>
      </trkpt>
      <trkpt lat="49.25928" lon="1.11118">
        <ele>122.24036</ele>
        <time>2014-08-07T09:16:44Z</time>
      </trkpt>
      <trkpt lat="49.25919" lon="1.11112">
        <ele>122.35331</ele>
        <time>2014-08-07T09:16:49Z</time>
      </trkpt>
      <trkpt lat="49.25915" lon="1.11111">
        <ele>122.35331</ele>
        <time>2014-08-07T09:16:54Z</time>
      </trkpt>
      <trkpt lat="49.25911" lon="1.11109">
        <ele>122.35331</ele>
        <time>2014-08-07T09:16:59Z</time>
      </trkpt>
      <trkpt lat="49.25908" lon="1.11108">
        <ele>122.66528</ele>
        <time>2014-08-07T09:17:04Z</time>
      </trkpt>
      <trkpt lat="49.25901" lon="1.11104">
        <ele>122.66528</ele>
        <time>2014-08-07T09:17:09Z</time>
      </trkpt>
      <trkpt lat="49.25896" lon="1.11104">
        <ele>123.13783</ele>
        <time>2014-08-07T09:17:14Z</time>
      </trkpt>
      <trkpt lat="49.25891" lon="1.11104">
        <ele>123.13783</ele>
        <time>2014-08-07T09:17:19Z</time>
      </trkpt>
      <trkpt lat="49.25886" lon="1.11104">
        <ele>123.60787</ele>
        <time>2014-08-07T09:17:24Z</time>
      </trkpt>
      <trkpt lat="49.2588" lon="1.11108">
        <ele>123.60787</ele>
        <time>2014-08-07T09:17:29Z</time>
      </trkpt>
      <trkpt lat="49.25876" lon="1.11111">
        <ele>124.02104</ele>
        <time>2014-08-07T09:17:34Z</time>
      </trkpt>
      <trkpt lat="49.2587" lon="1.11117">
        <ele>124.02104</ele>
        <time>2014-08-07T09:17:39Z</time>
      </trkpt>
      <trkpt lat="49.25867" lon="1.11121">
        <ele>124.37473</ele>
        <time>2014-08-07T09:17:44Z</time>
      </trkpt>
      <trkpt lat="49.2586" lon="1.11125">
        <ele>124.37473</ele>
        <time>2014-08-07T09:17:49Z</time>
      </trkpt>
      <trkpt lat="49.25855" lon="1.1113">
        <ele>124.44334</ele>
        <time>2014-08-07T09:17:54Z</time>
      </trkpt>
      <trkpt lat="49.2585" lon="1.11134">
        <ele>124.44334</ele>
        <time>2014-08-07T09:17:59Z</time>
      </trkpt>
      <trkpt lat="49.25846" lon="1.11138">
        <ele>124.32806</ele>
        <time>2014-08-07T09:18:04Z</time>
      </trkpt>
      <trkpt lat="49.2584" lon="1.11144">
        <ele>124.32806</ele>
        <time>2014-08-07T09:18:09Z</time>
      </trkpt>
      <trkpt lat="49.25836" lon="1.11147">
        <ele>124.16563</ele>
        <time>2014-08-07T09:18:14Z</time>
      </trkpt>
      <trkpt lat="49.25831" lon="1.1115">
        <ele>124.16563</ele>
        <time>2014-08-07T09:18:19Z</time>
      </trkpt>
      <trkpt lat="49.25824" lon="1.11155">
        <ele>123.95446</ele>
        <time>2014-08-07T09:18:24Z</time>
      </trkpt>
      <trkpt lat="49.25818" lon="1.11159">
        <ele>123.95446</ele>
        <time>2014-08-07T09:18:29Z</time>
      </trkpt>
      <trkpt lat="49.25814" lon="1.11162">
        <ele>123.63468</ele>
        <time>2014-08-07T09:18:34Z</time>
      </trkpt>
      <trkpt lat="49.25808" lon="1.11166">
        <ele>123.63468</ele>
        <time>2014-08-07T09:18:39Z</time>
      </trkpt>
      <trkpt lat="49.25803" lon="1.1117">
        <ele>123.2565</ele>
        <time>2014-08-07T09:18:44Z</time>
      </trkpt>
      <trkpt lat="49.25799" lon="1.11174">
        <ele>123.2565</ele>
        <time>2014-08-07T09:18:49Z</time>
      </trkpt>
      <trkpt lat="49.25794" lon="1.11179">
        <ele>122.81848</ele>
        <time>2014-08-07T09:18:54Z</time>
      </trkpt>
      <trkpt lat="49.25792" lon="1.11179">
        <ele>122.81848</ele>
        <time>2014-08-07T09:18:59Z</time>
      </trkpt>
      <trkpt lat="49.25788" lon="1.11182">
        <ele>122.81848</ele>
        <time>2014-08-07T09:19:04Z</time>
      </trkpt>
      <trkpt lat="49.25784" lon="1.11188">
        <ele>122.32014</ele>
        <time>2014-08-07T09:19:09Z</time>
      </trkpt>
      <trkpt lat="49.2578" lon="1.11198">
        <ele>122.32014</ele>
        <time>2014-08-07T09:19:14Z</time>
      </trkpt>
      <trkpt lat="49.25778" lon="1.1121">
        <ele>121.876335</ele>
        <time>2014-08-07T09:19:19Z</time>
      </trkpt>
      <trkpt lat="49.25775" lon="1.11218">
        <ele>121.876335</ele>
        <time>2014-08-07T09:19:24Z</time>
      </trkpt>
      <trkpt lat="49.25773" lon="1.11225">
        <ele>121.40797</ele>
        <time>2014-08-07T09:19:29Z</time>
      </trkpt>
      <trkpt lat="49.25771" lon="1.11232">
        <ele>121.40797</ele>
        <time>2014-08-07T09:19:34Z</time>
      </trkpt>
      <trkpt lat="49.25768" lon="1.1124">
        <ele>120.972755</ele>
        <time>2014-08-07T09:19:39Z</time>
      </trkpt>
      <trkpt lat="49.25764" lon="1.11247">
        <ele>120.972755</ele>
        <time>2014-08-07T09:19:44Z</time>
      </trkpt>
      <trkpt lat="49.2576" lon="1.11255">
        <ele>120.60392</ele>
        <time>2014-08-07T09:19:49Z</time>
      </trkpt>
      <trkpt lat="49.25756" lon="1.11261">
        <ele>120.60392</ele>
        <time>2014-08-07T09:19:54Z</time>
      </trkpt>
      <trkpt lat="49.25755" lon="1.11268">
        <ele>120.23465</ele>
        <time>2014-08-07T09:19:59Z</time>
      </trkpt>
      <trkpt lat="49.25752" lon="1.1128">
        <ele>120.23465</ele>
        <time>2014-08-07T09:20:04Z</time>
      </trkpt>
      <trkpt lat="49.25749" lon="1.11287">
        <ele>119.83671</ele>
        <time>2014-08-07T09:20:09Z</time>
      </trkpt>
      <trkpt lat="49.25746" lon="1.11295">
        <ele>119.83671</ele>
        <time>2014-08-07T09:20:14Z</time>
      </trkpt>
      <trkpt lat="49.25743" lon="1.11303">
        <ele>119.46101</ele>
        <time>2014-08-07T09:20:19Z</time>
      </trkpt>
      <trkpt lat="49.25741" lon="1.11312">
        <ele>119.46101</ele>
        <time>2014-08-07T09:20:24Z</time>
      </trkpt>
      <trkpt lat="49.25737" lon="1.11326">
        <ele>119.13633</ele>
        <time>2014-08-07T09:20:29Z</time>
      </trkpt>
      <trkpt lat="49.25735" lon="1.11333">
        <ele>119.13633</ele>
        <time>2014-08-07T09:20:34Z</time>
      </trkpt>
      <trkpt lat="49.25732" lon="1.11343">
        <ele>118.82816</ele>
        <time>2014-08-07T09:20:39Z</time>
      </trkpt>
      <trkpt lat="49.25731" lon="1.11347">
        <ele>118.82816</ele>
        <time>2014-08-07T09:20:44Z</time>
      </trkpt>
      <trkpt lat="49.25729" lon="1.11357">
        <ele>118.43311</ele>
        <time>2014-08-07T09:20:49Z</time>
      </trkpt>
      <trkpt lat="49.25727" lon="1.11367">
        <ele>118.43311</ele>
        <time>2014-08-07T09:20:54Z</time>
      </trkpt>
      <trkpt lat="49.25725" lon="1.11378">
        <ele>118.061325</ele>
        <time>2014-08-07T09:20:59Z</time>
      </trkpt>
      <trkpt lat="49.25721" lon="1.11385">
        <ele>118.061325</ele>
        <time>2014-08-07T09:21:04Z</time>
      </trkpt>
      <trkpt lat="49.25716" lon="1.11391">
        <ele>117.73894</ele>
        <time>2014-08-07T09:21:09Z</time>
      </trkpt>
      <trkpt lat="49.25712" lon="1.11396">
        <ele>117.73894</ele>
        <time>2014-08-07T09:21:14Z</time>
      </trkpt>
      <trkpt lat="49.25707" lon="1.11404">
        <ele>117.33401</ele>
        <time>2014-08-07T09:21:19Z</time>
      </trkpt>
      <trkpt lat="49.25703" lon="1.11407">
        <ele>117.33401</ele>
        <time>2014-08-07T09:21:24Z</time>
      </trkpt>
      <trkpt lat="49.25698" lon="1.11416">
        <ele>116.85394</ele>
        <time>2014-08-07T09:21:29Z</time>
      </trkpt>
      <trkpt lat="49.25693" lon="1.11422">
        <ele>116.85394</ele>
        <time>2014-08-07T09:21:34Z</time>
      </trkpt>
      <trkpt lat="49.25687" lon="1.11431">
        <ele>116.31903</ele>
        <time>2014-08-07T09:21:39Z</time>
      </trkpt>
      <trkpt lat="49.25684" lon="1.11437">
        <ele>116.31903</ele>
        <time>2014-08-07T09:21:44Z</time>
      </trkpt>
      <trkpt lat="49.25678" lon="1.11445">
        <ele>115.733604</ele>
        <time>2014-08-07T09:21:49Z</time>
      </trkpt>
      <trkpt lat="49.25676" lon="1.1145">
        <ele>115.733604</ele>
        <time>2014-08-07T09:21:54Z</time>
      </trkpt>
      <trkpt lat="49.2567" lon="1.11457">
        <ele>115.1293</ele>
        <time>2014-08-07T09:21:59Z</time>
      </trkpt>
      <trkpt lat="49.25665" lon="1.11463">
        <ele>115.1293</ele>
        <time>2014-08-07T09:22:04Z</time>
      </trkpt>
      <trkpt lat="49.25659" lon="1.11473">
        <ele>114.466</ele>
        <time>2014-08-07T09:22:09Z</time>
      </trkpt>
      <trkpt lat="49.25654" lon="1.11477">
        <ele>114.466</ele>
        <time>2014-08-07T09:22:14Z</time>
      </trkpt>
      <trkpt lat="49.25652" lon="1.11486">
        <ele>113.8038</ele>
        <time>2014-08-07T09:22:19Z</time>
      </trkpt>
      <trkpt lat="49.25648" lon="1.11498">
        <ele>113.8038</ele>
        <time>2014-08-07T09:22:24Z</time>
      </trkpt>
      <trkpt lat="49.25645" lon="1.11505">
        <ele>113.073555</ele>
        <time>2014-08-07T09:22:29Z</time>
      </trkpt>
      <trkpt lat="49.25642" lon="1.11509">
        <ele>113.073555</ele>
        <time>2014-08-07T09:22:34Z</time>
      </trkpt>
      <trkpt lat="49.25637" lon="1.11516">
        <ele>112.32257</ele>
        <time>2014-08-07T09:22:39Z</time>
      </trkpt>
      <trkpt lat="49.25632" lon="1.11524">
        <ele>112.32257</ele>
        <time>2014-08-07T09:22:44Z</time>
      </trkpt>
      <trkpt lat="49.25626" lon="1.11531">
        <ele>111.58164</ele>
        <time>2014-08-07T09:22:49Z</time>
      </trkpt>
      <trkpt lat="49.2562" lon="1.11536">
        <ele>111.58164</ele>
        <time>2014-08-07T09:22:54Z</time>
      </trkpt>
      <trkpt lat="49.25617" lon="1.11541">
        <ele>110.865974</ele>
        <time>2014-08-07T09:22:59Z</time>
      </trkpt>
      <trkpt lat="49.25614" lon="1.11547">
        <ele>110.865974</ele>
        <time>2014-08-07T09:23:04Z</time>
      </trkpt>
      <trkpt lat="49.2561" lon="1.11556">
        <ele>110.20444</ele>
        <time>2014-08-07T09:23:09Z</time>
      </trkpt>
      <trkpt lat="49.25606" lon="1.11559">
        <ele>110.20444</ele>
        <time>2014-08-07T09:23:14Z</time>
      </trkpt>
      <trkpt lat="49.256" lon="1.11566">
        <ele>109.68193</ele>
        <time>2014-08-07T09:23:19Z</time>
      </trkpt>
      <trkpt lat="49.25596" lon="1.11571">
        <ele>109.68193</ele>
        <time>2014-08-07T09:23:24Z</time>
      </trkpt>
      <trkpt lat="49.25587" lon="1.11575">
        <ele>109.20504</ele>
        <time>2014-08-07T09:23:29Z</time>
      </trkpt>
      <trkpt lat="49.25585" lon="1.11583">
        <ele>109.20504</ele>
        <time>2014-08-07T09:23:34Z</time>
      </trkpt>
      <trkpt lat="49.25584" lon="1.11591">
        <ele>108.72853</ele>
        <time>2014-08-07T09:23:39Z</time>
      </trkpt>
      <trkpt lat="49.25585" lon="1.11599">
        <ele>108.72853</ele>
        <time>2014-08-07T09:23:44Z</time>
      </trkpt>
      <trkpt lat="49.25585" lon="1.11608">
        <ele>108.326706</ele>
        <time>2014-08-07T09:23:49Z</time>
      </trkpt>
      <trkpt lat="49.25585" lon="1.11618">
        <ele>108.326706</ele>
        <time>2014-08-07T09:23:54Z</time>
      </trkpt>
      <trkpt lat="49.25584" lon="1.11631">
        <ele>107.87773</ele>
        <time>2014-08-07T09:23:59Z</time>
      </trkpt>
      <trkpt lat="49.25582" lon="1.11639">
        <ele>107.87773</ele>
        <time>2014-08-07T09:24:04Z</time>
      </trkpt>
      <trkpt lat="49.25582" lon="1.11645">
        <ele>107.32595</ele>
        <time>2014-08-07T09:24:09Z</time>
      </trkpt>
      <trkpt lat="49.2558" lon="1.11653">
        <ele>107.32595</ele>
        <time>2014-08-07T09:24:14Z</time>
      </trkpt>
      <trkpt lat="49.25578" lon="1.11666">
        <ele>106.51513</ele>
        <time>2014-08-07T09:24:19Z</time>
      </trkpt>
      <trkpt lat="49.25577" lon="1.11677">
        <ele>106.51513</ele>
        <time>2014-08-07T09:24:24Z</time>
      </trkpt>
      <trkpt lat="49.25576" lon="1.11687">
        <ele>105.703766</ele>
        <time>2014-08-07T09:24:29Z</time>
      </trkpt>
      <trkpt lat="49.25575" lon="1.11698">
        <ele>105.703766</ele>
        <time>2014-08-07T09:24:34Z</time>
      </trkpt>
      <trkpt lat="49.25574" lon="1.11712">
        <ele>104.699036</ele>
        <time>2014-08-07T09:24:39Z</time>
      </trkpt>
      <trkpt lat="49.25573" lon="1.11724">
        <ele>104.699036</ele>
        <time>2014-08-07T09:24:44Z</time>
      </trkpt>
      <trkpt lat="49.25572" lon="1.11735">
        <ele>103.60755</ele>
        <time>2014-08-07T09:24:49Z</time>
      </trkpt>
      <trkpt lat="49.25571" lon="1.11742">
        <ele>103.60755</ele>
        <time>2014-08-07T09:24:54Z</time>
      </trkpt>
      <trkpt lat="49.25568" lon="1.11752">
        <ele>102.61954</ele>
        <time>2014-08-07T09:24:59Z</time>
      </trkpt>
      <trkpt lat="49.25564" lon="1.11761">
        <ele>102.61954</ele>
        <time>2014-08-07T09:25:04Z</time>
      </trkpt>
      <trkpt lat="49.25561" lon="1.11769">
        <ele>101.609314</ele>
        <time>2014-08-07T09:25:09Z</time>
      </trkpt>
      <trkpt lat="49.25559" lon="1.11781">
        <ele>101.609314</ele>
        <time>2014-08-07T09:25:14Z</time>
      </trkpt>
      <trkpt lat="49.25558" lon="1.11792">
        <ele>100.65651</ele>
        <time>2014-08-07T09:25:19Z</time>
      </trkpt>
      <trkpt lat="49.25557" lon="1.11803">
        <ele>100.65651</ele>
        <time>2014-08-07T09:25:24Z</time>
      </trkpt>
      <trkpt lat="49.25555" lon="1.11812">
        <ele>99.819244</ele>
        <time>2014-08-07T09:25:29Z</time>
      </trkpt>
      <trkpt lat="49.25556" lon="1.1182">
        <ele>99.819244</ele>
        <time>2014-08-07T09:25:34Z</time>
      </trkpt>
      <trkpt lat="49.25551" lon="1.1183">
        <ele>99.12024</ele>
        <time>2014-08-07T09:25:39Z</time>
      </trkpt>
      <trkpt lat="49.2555" lon="1.11837">
        <ele>99.12024</ele>
        <time>2014-08-07T09:25:44Z</time>
      </trkpt>
      <trkpt lat="49.25548" lon="1.11847">
        <ele>98.65504</ele>
        <time>2014-08-07T09:25:49Z</time>
      </trkpt>
      <trkpt lat="49.25545" lon="1.11858">
        <ele>98.65504</ele>
        <time>2014-08-07T09:25:54Z</time>
      </trkpt>
      <trkpt lat="49.25542" lon="1.11869">
        <ele>98.23942</ele>
        <time>2014-08-07T09:25:59Z</time>
      </trkpt>
      <trkpt lat="49.25538" lon="1.11878">
        <ele>98.23942</ele>
        <time>2014-08-07T09:26:04Z</time>
      </trkpt>
      <trkpt lat="49.25537" lon="1.11885">
        <ele>97.869194</ele>
        <time>2014-08-07T09:26:09Z</time>
      </trkpt>
      <trkpt lat="49.25535" lon="1.11892">
        <ele>97.869194</ele>
        <time>2014-08-07T09:26:14Z</time>
      </trkpt>
      <trkpt lat="49.25529" lon="1.11901">
        <ele>97.390366</ele>
        <time>2014-08-07T09:26:19Z</time>
      </trkpt>
      <trkpt lat="49.25525" lon="1.11905">
        <ele>97.390366</ele>
        <time>2014-08-07T09:26:24Z</time>
      </trkpt>
      <trkpt lat="49.25522" lon="1.1191">
        <ele>97.390366</ele>
        <time>2014-08-07T09:26:29Z</time>
      </trkpt>
      <trkpt lat="49.25518" lon="1.11917">
        <ele>96.91652</ele>
        <time>2014-08-07T09:26:34Z</time>
      </trkpt>
      <trkpt lat="49.25511" lon="1.11928">
        <ele>96.43231</ele>
        <time>2014-08-07T09:26:39Z</time>
      </trkpt>
      <trkpt lat="49.25508" lon="1.11932">
        <ele>96.43231</ele>
        <time>2014-08-07T09:26:44Z</time>
      </trkpt>
      <trkpt lat="49.255" lon="1.11941">
        <ele>95.96839</ele>
        <time>2014-08-07T09:26:49Z</time>
      </trkpt>
      <trkpt lat="49.25496" lon="1.11944">
        <ele>95.96839</ele>
        <time>2014-08-07T09:26:54Z</time>
      </trkpt>
      <trkpt lat="49.25488" lon="1.11944">
        <ele>95.49333</ele>
        <time>2014-08-07T09:26:59Z</time>
      </trkpt>
      <trkpt lat="49.25484" lon="1.11943">
        <ele>95.49333</ele>
        <time>2014-08-07T09:27:04Z</time>
      </trkpt>
      <trkpt lat="49.25475" lon="1.11945">
        <ele>94.978386</ele>
        <time>2014-08-07T09:27:09Z</time>
      </trkpt>
      <trkpt lat="49.2547" lon="1.11944">
        <ele>94.978386</ele>
        <time>2014-08-07T09:27:14Z</time>
      </trkpt>
      <trkpt lat="49.25466" lon="1.11946">
        <ele>94.47124</ele>
        <time>2014-08-07T09:27:19Z</time>
      </trkpt>
      <trkpt lat="49.25458" lon="1.11946">
        <ele>94.47124</ele>
        <time>2014-08-07T09:27:24Z</time>
      </trkpt>
      <trkpt lat="49.2545" lon="1.11947">
        <ele>94.11875</ele>
        <time>2014-08-07T09:27:29Z</time>
      </trkpt>
      <trkpt lat="49.25446" lon="1.11949">
        <ele>94.11875</ele>
        <time>2014-08-07T09:27:34Z</time>
      </trkpt>
      <trkpt lat="49.25437" lon="1.11953">
        <ele>93.83448</ele>
        <time>2014-08-07T09:27:39Z</time>
      </trkpt>
      <trkpt lat="49.25431" lon="1.11951">
        <ele>93.83448</ele>
        <time>2014-08-07T09:27:44Z</time>
      </trkpt>
      <trkpt lat="49.25425" lon="1.1195">
        <ele>93.68575</ele>
        <time>2014-08-07T09:27:49Z</time>
      </trkpt>
      <trkpt lat="49.2542" lon="1.11949">
        <ele>93.68575</ele>
        <time>2014-08-07T09:27:54Z</time>
      </trkpt>
      <trkpt lat="49.25412" lon="1.11947">
        <ele>93.616875</ele>
        <time>2014-08-07T09:27:59Z</time>
      </trkpt>
      <trkpt lat="49.25407" lon="1.11948">
        <ele>93.616875</ele>
        <time>2014-08-07T09:28:04Z</time>
      </trkpt>
      <trkpt lat="49.254" lon="1.1195">
        <ele>93.63499</ele>
        <time>2014-08-07T09:28:09Z</time>
      </trkpt>
      <trkpt lat="49.25395" lon="1.11949">
        <ele>93.63499</ele>
        <time>2014-08-07T09:28:14Z</time>
      </trkpt>
      <trkpt lat="49.25388" lon="1.11947">
        <ele>93.73189</ele>
        <time>2014-08-07T09:28:19Z</time>
      </trkpt>
      <trkpt lat="49.25384" lon="1.11947">
        <ele>93.73189</ele>
        <time>2014-08-07T09:28:24Z</time>
      </trkpt>
      <trkpt lat="49.25378" lon="1.11948">
        <ele>93.8416</ele>
        <time>2014-08-07T09:28:29Z</time>
      </trkpt>
      <trkpt lat="49.25371" lon="1.11948">
        <ele>93.8416</ele>
        <time>2014-08-07T09:28:34Z</time>
      </trkpt>
      <trkpt lat="49.25363" lon="1.11948">
        <ele>93.903404</ele>
        <time>2014-08-07T09:28:39Z</time>
      </trkpt>
      <trkpt lat="49.25358" lon="1.11949">
        <ele>93.903404</ele>
        <time>2014-08-07T09:28:44Z</time>
      </trkpt>
      <trkpt lat="49.25351" lon="1.1195">
        <ele>93.91959</ele>
        <time>2014-08-07T09:28:49Z</time>
      </trkpt>
      <trkpt lat="49.25346" lon="1.11953">
        <ele>93.91959</ele>
        <time>2014-08-07T09:28:54Z</time>
      </trkpt>
      <trkpt lat="49.25337" lon="1.11953">
        <ele>93.81988</ele>
        <time>2014-08-07T09:28:59Z</time>
      </trkpt>
      <trkpt lat="49.25333" lon="1.11955">
        <ele>93.81988</ele>
        <time>2014-08-07T09:29:04Z</time>
      </trkpt>
      <trkpt lat="49.25327" lon="1.11958">
        <ele>93.655594</ele>
        <time>2014-08-07T09:29:09Z</time>
      </trkpt>
      <trkpt lat="49.25323" lon="1.11959">
        <ele>93.655594</ele>
        <time>2014-08-07T09:29:14Z</time>
      </trkpt>
      <trkpt lat="49.25316" lon="1.11962">
        <ele>93.50319</ele>
        <time>2014-08-07T09:29:19Z</time>
      </trkpt>
      <trkpt lat="49.2531" lon="1.11963">
        <ele>93.50319</ele>
        <time>2014-08-07T09:29:24Z</time>
      </trkpt>
      <trkpt lat="49.25303" lon="1.11966">
        <ele>93.37534</ele>
        <time>2014-08-07T09:29:29Z</time>
      </trkpt>
      <trkpt lat="49.25296" lon="1.1197">
        <ele>93.37534</ele>
        <time>2014-08-07T09:29:34Z</time>
      </trkpt>
      <trkpt lat="49.25292" lon="1.11973">
        <ele>93.25481</ele>
        <time>2014-08-07T09:29:39Z</time>
      </trkpt>
      <trkpt lat="49.25287" lon="1.11979">
        <ele>93.25481</ele>
        <time>2014-08-07T09:29:44Z</time>
      </trkpt>
      <trkpt lat="49.25281" lon="1.11985">
        <ele>93.09676</ele>
        <time>2014-08-07T09:29:49Z</time>
      </trkpt>
      <trkpt lat="49.25276" lon="1.11989">
        <ele>93.09676</ele>
        <time>2014-08-07T09:29:54Z</time>
      </trkpt>
      <trkpt lat="49.25272" lon="1.11996">
        <ele>92.888756</ele>
        <time>2014-08-07T09:29:59Z</time>
      </trkpt>
      <trkpt lat="49.25266" lon="1.12001">
        <ele>92.888756</ele>
        <time>2014-08-07T09:30:04Z</time>
      </trkpt>
      <trkpt lat="49.25263" lon="1.12005">
        <ele>92.64827</ele>
        <time>2014-08-07T09:30:09Z</time>
      </trkpt>
      <trkpt lat="49.25263" lon="1.12004">
        <ele>92.64827</ele>
        <time>2014-08-07T09:30:14Z</time>
      </trkpt>
      <trkpt lat="49.25262" lon="1.12003">
        <ele>92.64827</ele>
        <time>2014-08-07T09:30:19Z</time>
      </trkpt>
      <trkpt lat="49.25262" lon="1.12004">
        <ele>92.64827</ele>
        <time>2014-08-07T09:30:24Z</time>
      </trkpt>
      <trkpt lat="49.25262" lon="1.12003">
        <ele>92.64827</ele>
        <time>2014-08-07T09:30:29Z</time>
      </trkpt>
      <trkpt lat="49.25263" lon="1.12003">
        <ele>92.64827</ele>
        <time>2014-08-07T09:30:34Z</time>
      </trkpt>
      <trkpt lat="49.25263" lon="1.12004">
        <ele>92.64827</ele>
        <time>2014-08-07T09:30:39Z</time>
      </trkpt>
      <trkpt lat="49.25262" lon="1.12003">
        <ele>92.64827</ele>
        <time>2014-08-07T09:30:44Z</time>
      </trkpt>
      <trkpt lat="49.25263" lon="1.12002">
        <ele>92.64827</ele>
        <time>2014-08-07T09:30:49Z</time>
      </trkpt>
      <trkpt lat="49.25263" lon="1.12002">
        <ele>92.64827</ele>
        <time>2014-08-07T09:30:54Z</time>
      </trkpt>
      <trkpt lat="49.25263" lon="1.12001">
        <ele>92.64827</ele>
        <time>2014-08-07T09:30:59Z</time>
      </trkpt>
      <trkpt lat="49.25262" lon="1.12002">
        <ele>92.64827</ele>
        <time>2014-08-07T09:31:04Z</time>
      </trkpt>
      <trkpt lat="49.25256" lon="1.12008">
        <ele>92.4637</ele>
        <time>2014-08-07T09:31:09Z</time>
      </trkpt>
      <trkpt lat="49.25251" lon="1.12014">
        <ele>92.4637</ele>
        <time>2014-08-07T09:31:14Z</time>
      </trkpt>
      <trkpt lat="49.25246" lon="1.12021">
        <ele>92.229225</ele>
        <time>2014-08-07T09:31:19Z</time>
      </trkpt>
      <trkpt lat="49.2524" lon="1.12027">
        <ele>92.229225</ele>
        <time>2014-08-07T09:31:24Z</time>
      </trkpt>
      <trkpt lat="49.25235" lon="1.12032">
        <ele>91.948</ele>
        <time>2014-08-07T09:31:29Z</time>
      </trkpt>
      <trkpt lat="49.25231" lon="1.12036">
        <ele>91.948</ele>
        <time>2014-08-07T09:31:34Z</time>
      </trkpt>
      <trkpt lat="49.25225" lon="1.12044">
        <ele>91.6519</ele>
        <time>2014-08-07T09:31:39Z</time>
      </trkpt>
      <trkpt lat="49.2522" lon="1.12047">
        <ele>91.6519</ele>
        <time>2014-08-07T09:31:44Z</time>
      </trkpt>
      <trkpt lat="49.25215" lon="1.12053">
        <ele>91.3417</ele>
        <time>2014-08-07T09:31:49Z</time>
      </trkpt>
      <trkpt lat="49.25211" lon="1.12057">
        <ele>91.3417</ele>
        <time>2014-08-07T09:31:54Z</time>
      </trkpt>
      <trkpt lat="49.25205" lon="1.12062">
        <ele>91.03257</ele>
        <time>2014-08-07T09:31:59Z</time>
      </trkpt>
      <trkpt lat="49.252" lon="1.12067">
        <ele>91.03257</ele>
        <time>2014-08-07T09:32:04Z</time>
      </trkpt>
      <trkpt lat="49.25194" lon="1.12072">
        <ele>90.724174</ele>
        <time>2014-08-07T09:32:09Z</time>
      </trkpt>
      <trkpt lat="49.25186" lon="1.12075">
        <ele>90.724174</ele>
        <time>2014-08-07T09:32:14Z</time>
      </trkpt>
      <trkpt lat="49.25183" lon="1.12078">
        <ele>90.43065</ele>
        <time>2014-08-07T09:32:19Z</time>
      </trkpt>
      <trkpt lat="49.25178" lon="1.12086">
        <ele>90.43065</ele>
        <time>2014-08-07T09:32:24Z</time>
      </trkpt>
      <trkpt lat="49.2517" lon="1.12091">
        <ele>90.10738</ele>
        <time>2014-08-07T09:32:29Z</time>
      </trkpt>
      <trkpt lat="49.25163" lon="1.12093">
        <ele>90.10738</ele>
        <time>2014-08-07T09:32:34Z</time>
      </trkpt>
      <trkpt lat="49.25158" lon="1.12097">
        <ele>89.75641</ele>
        <time>2014-08-07T09:32:39Z</time>
      </trkpt>
      <trkpt lat="49.25153" lon="1.12101">
        <ele>89.75641</ele>
        <time>2014-08-07T09:32:44Z</time>
      </trkpt>
      <trkpt lat="49.25144" lon="1.12106">
        <ele>89.43738</ele>
        <time>2014-08-07T09:32:49Z</time>
      </trkpt>
      <trkpt lat="49.25138" lon="1.12108">
        <ele>89.43738</ele>
        <time>2014-08-07T09:32:54Z</time>
      </trkpt>
      <trkpt lat="49.25131" lon="1.1211">
        <ele>89.147835</ele>
        <time>2014-08-07T09:32:59Z</time>
      </trkpt>
      <trkpt lat="49.25125" lon="1.12115">
        <ele>89.147835</ele>
        <time>2014-08-07T09:33:04Z</time>
      </trkpt>
      <trkpt lat="49.25119" lon="1.1212">
        <ele>88.84213</ele>
        <time>2014-08-07T09:33:09Z</time>
      </trkpt>
      <trkpt lat="49.25114" lon="1.12123">
        <ele>88.84213</ele>
        <time>2014-08-07T09:33:14Z</time>
      </trkpt>
      <trkpt lat="49.25106" lon="1.12125">
        <ele>88.4925</ele>
        <time>2014-08-07T09:33:19Z</time>
      </trkpt>
      <trkpt lat="49.25099" lon="1.12132">
        <ele>88.4925</ele>
        <time>2014-08-07T09:33:24Z</time>
      </trkpt>
      <trkpt lat="49.25092" lon="1.12136">
        <ele>88.18869</ele>
        <time>2014-08-07T09:33:29Z</time>
      </trkpt>
      <trkpt lat="49.25086" lon="1.12141">
        <ele>88.18869</ele>
        <time>2014-08-07T09:33:34Z</time>
      </trkpt>
      <trkpt lat="49.2508" lon="1.12147">
        <ele>87.91282</ele>
        <time>2014-08-07T09:33:39Z</time>
      </trkpt>
      <trkpt lat="49.25075" lon="1.12151">
        <ele>87.91282</ele>
        <time>2014-08-07T09:33:44Z</time>
      </trkpt>
      <trkpt lat="49.25069" lon="1.12157">
        <ele>87.633804</ele>
        <time>2014-08-07T09:33:49Z</time>
      </trkpt>
      <trkpt lat="49.25064" lon="1.1216">
        <ele>87.633804</ele>
        <time>2014-08-07T09:33:54Z</time>
      </trkpt>
      <trkpt lat="49.25057" lon="1.12169">
        <ele>87.322876</ele>
        <time>2014-08-07T09:33:59Z</time>
      </trkpt>
      <trkpt lat="49.25053" lon="1.12177">
        <ele>87.322876</ele>
        <time>2014-08-07T09:34:04Z</time>
      </trkpt>
      <trkpt lat="49.25049" lon="1.12183">
        <ele>86.98232</ele>
        <time>2014-08-07T09:34:09Z</time>
      </trkpt>
      <trkpt lat="49.25044" lon="1.12188">
        <ele>86.98232</ele>
        <time>2014-08-07T09:34:14Z</time>
      </trkpt>
      <trkpt lat="49.2504" lon="1.12194">
        <ele>86.6288</ele>
        <time>2014-08-07T09:34:19Z</time>
      </trkpt>
      <trkpt lat="49.25036" lon="1.12199">
        <ele>86.6288</ele>
        <time>2014-08-07T09:34:24Z</time>
      </trkpt>
      <trkpt lat="49.25031" lon="1.12204">
        <ele>86.33546</ele>
        <time>2014-08-07T09:34:29Z</time>
      </trkpt>
      <trkpt lat="49.25027" lon="1.12213">
        <ele>86.33546</ele>
        <time>2014-08-07T09:34:34Z</time>
      </trkpt>
      <trkpt lat="49.25022" lon="1.1222">
        <ele>86.054535</ele>
        <time>2014-08-07T09:34:39Z</time>
      </trkpt>
      <trkpt lat="49.2502" lon="1.12223">
        <ele>86.054535</ele>
        <time>2014-08-07T09:34:44Z</time>
      </trkpt>
      <trkpt lat="49.25014" lon="1.12232">
        <ele>85.741745</ele>
        <time>2014-08-07T09:34:49Z</time>
      </trkpt>
      <trkpt lat="49.2501" lon="1.12239">
        <ele>85.741745</ele>
        <time>2014-08-07T09:34:54Z</time>
      </trkpt>
      <trkpt lat="49.25004" lon="1.12247">
        <ele>85.42828</ele>
        <time>2014-08-07T09:34:59Z</time>
      </trkpt>
      <trkpt lat="49.25001" lon="1.12254">
        <ele>85.42828</ele>
        <time>2014-08-07T09:35:04Z</time>
      </trkpt>
      <trkpt lat="49.24996" lon="1.12263">
        <ele>85.0421</ele>
        <time>2014-08-07T09:35:09Z</time>
      </trkpt>
      <trkpt lat="49.24994" lon="1.12268">
        <ele>85.0421</ele>
        <time>2014-08-07T09:35:14Z</time>
      </trkpt>
      <trkpt lat="49.24991" lon="1.12277">
        <ele>84.63203</ele>
        <time>2014-08-07T09:35:19Z</time>
      </trkpt>
      <trkpt lat="49.24987" lon="1.12284">
        <ele>84.63203</ele>
        <time>2014-08-07T09:35:24Z</time>
      </trkpt>
      <trkpt lat="49.24985" lon="1.12294">
        <ele>84.243385</ele>
        <time>2014-08-07T09:35:29Z</time>
      </trkpt>
      <trkpt lat="49.24983" lon="1.12303">
        <ele>84.243385</ele>
        <time>2014-08-07T09:35:34Z</time>
      </trkpt>
      <trkpt lat="49.24982" lon="1.12311">
        <ele>83.90366</ele>
        <time>2014-08-07T09:35:39Z</time>
      </trkpt>
      <trkpt lat="49.24982" lon="1.12319">
        <ele>83.90366</ele>
        <time>2014-08-07T09:35:44Z</time>
      </trkpt>
      <trkpt lat="49.24981" lon="1.12331">
        <ele>83.43634</ele>
        <time>2014-08-07T09:35:49Z</time>
      </trkpt>
      <trkpt lat="49.24981" lon="1.12339">
        <ele>83.43634</ele>
        <time>2014-08-07T09:35:54Z</time>
      </trkpt>
      <trkpt lat="49.24983" lon="1.12352">
        <ele>82.90895</ele>
        <time>2014-08-07T09:35:59Z</time>
      </trkpt>
      <trkpt lat="49.24984" lon="1.12359">
        <ele>82.90895</ele>
        <time>2014-08-07T09:36:04Z</time>
      </trkpt>
      <trkpt lat="49.24985" lon="1.12357">
        <ele>82.90895</ele>
        <time>2014-08-07T09:36:09Z</time>
      </trkpt>
      <trkpt lat="49.24986" lon="1.12356">
        <ele>82.90895</ele>
        <time>2014-08-07T09:36:14Z</time>
      </trkpt>
      <trkpt lat="49.24987" lon="1.12353">
        <ele>82.26886</ele>
        <time>2014-08-07T09:36:19Z</time>
      </trkpt>
      <trkpt lat="49.24987" lon="1.12352">
        <ele>82.26886</ele>
        <time>2014-08-07T09:36:24Z</time>
      </trkpt>
      <trkpt lat="49.24987" lon="1.12351">
        <ele>82.26886</ele>
        <time>2014-08-07T09:36:29Z</time>
      </trkpt>
      <trkpt lat="49.24987" lon="1.12351">
        <ele>82.26886</ele>
        <time>2014-08-07T09:36:34Z</time>
      </trkpt>
      <trkpt lat="49.24988" lon="1.12352">
        <ele>82.26886</ele>
        <time>2014-08-07T09:36:39Z</time>
      </trkpt>
      <trkpt lat="49.2499" lon="1.12356">
        <ele>82.26886</ele>
        <time>2014-08-07T09:36:44Z</time>
      </trkpt>
      <trkpt lat="49.24995" lon="1.12364">
        <ele>81.71275</ele>
        <time>2014-08-07T09:36:49Z</time>
      </trkpt>
      <trkpt lat="49.24996" lon="1.12377">
        <ele>81.71275</ele>
        <time>2014-08-07T09:36:54Z</time>
      </trkpt>
      <trkpt lat="49.25001" lon="1.12388">
        <ele>81.2784</ele>
        <time>2014-08-07T09:36:59Z</time>
      </trkpt>
      <trkpt lat="49.25003" lon="1.12393">
        <ele>81.2784</ele>
        <time>2014-08-07T09:37:04Z</time>
      </trkpt>
      <trkpt lat="49.25003" lon="1.12409">
        <ele>80.92837</ele>
        <time>2014-08-07T09:37:09Z</time>
      </trkpt>
      <trkpt lat="49.25008" lon="1.12416">
        <ele>80.92837</ele>
        <time>2014-08-07T09:37:14Z</time>
      </trkpt>
      <trkpt lat="49.25011" lon="1.12422">
        <ele>80.65657</ele>
        <time>2014-08-07T09:37:19Z</time>
      </trkpt>
      <trkpt lat="49.25015" lon="1.12431">
        <ele>80.65657</ele>
        <time>2014-08-07T09:37:24Z</time>
      </trkpt>
      <trkpt lat="49.25017" lon="1.12442">
        <ele>80.38508</ele>
        <time>2014-08-07T09:37:29Z</time>
      </trkpt>
      <trkpt lat="49.2502" lon="1.12448">
        <ele>80.38508</ele>
        <time>2014-08-07T09:37:34Z</time>
      </trkpt>
      <trkpt lat="49.25022" lon="1.12457">
        <ele>80.30114</ele>
        <time>2014-08-07T09:37:39Z</time>
      </trkpt>
      <trkpt lat="49.25024" lon="1.12464">
        <ele>80.30114</ele>
        <time>2014-08-07T09:37:44Z</time>
      </trkpt>
      <trkpt lat="49.2503" lon="1.12474">
        <ele>80.40473</ele>
        <time>2014-08-07T09:37:49Z</time>
      </trkpt>
      <trkpt lat="49.25033" lon="1.12481">
        <ele>80.40473</ele>
        <time>2014-08-07T09:37:54Z</time>
      </trkpt>
      <trkpt lat="49.25033" lon="1.12492">
        <ele>80.637665</ele>
        <time>2014-08-07T09:37:59Z</time>
      </trkpt>
      <trkpt lat="49.25036" lon="1.12504">
        <ele>80.637665</ele>
        <time>2014-08-07T09:38:04Z</time>
      </trkpt>
      <trkpt lat="49.25038" lon="1.1251">
        <ele>81.00331</ele>
        <time>2014-08-07T09:38:09Z</time>
      </trkpt>
      <trkpt lat="49.25039" lon="1.12515">
        <ele>81.00331</ele>
        <time>2014-08-07T09:38:14Z</time>
      </trkpt>
      <trkpt lat="49.25044" lon="1.12524">
        <ele>81.49003</ele>
        <time>2014-08-07T09:38:19Z</time>
      </trkpt>
      <trkpt lat="49.25047" lon="1.12533">
        <ele>81.49003</ele>
        <time>2014-08-07T09:38:24Z</time>
      </trkpt>
      <trkpt lat="49.25051" lon="1.12547">
        <ele>82.24523</ele>
        <time>2014-08-07T09:38:29Z</time>
      </trkpt>
      <trkpt lat="49.25055" lon="1.12553">
        <ele>82.24523</ele>
        <time>2014-08-07T09:38:34Z</time>
      </trkpt>
      <trkpt lat="49.25058" lon="1.12568">
        <ele>83.217415</ele>
        <time>2014-08-07T09:38:39Z</time>
      </trkpt>
      <trkpt lat="49.25057" lon="1.12576">
        <ele>83.217415</ele>
        <time>2014-08-07T09:38:44Z</time>
      </trkpt>
      <trkpt lat="49.25057" lon="1.12586">
        <ele>84.34386</ele>
        <time>2014-08-07T09:38:49Z</time>
      </trkpt>
      <trkpt lat="49.25058" lon="1.12594">
        <ele>84.34386</ele>
        <time>2014-08-07T09:38:54Z</time>
      </trkpt>
      <trkpt lat="49.2506" lon="1.12599">
        <ele>85.407524</ele>
        <time>2014-08-07T09:38:59Z</time>
      </trkpt>
      <trkpt lat="49.25062" lon="1.12607">
        <ele>85.407524</ele>
        <time>2014-08-07T09:39:04Z</time>
      </trkpt>
      <trkpt lat="49.25062" lon="1.12618">
        <ele>86.3661</ele>
        <time>2014-08-07T09:39:09Z</time>
      </trkpt>
      <trkpt lat="49.25062" lon="1.12629">
        <ele>86.3661</ele>
        <time>2014-08-07T09:39:14Z</time>
      </trkpt>
      <trkpt lat="49.25062" lon="1.12639">
        <ele>87.31038</ele>
        <time>2014-08-07T09:39:19Z</time>
      </trkpt>
      <trkpt lat="49.25062" lon="1.12649">
        <ele>87.31038</ele>
        <time>2014-08-07T09:39:24Z</time>
      </trkpt>
      <trkpt lat="49.25063" lon="1.12657">
        <ele>88.411095</ele>
        <time>2014-08-07T09:39:29Z</time>
      </trkpt>
      <trkpt lat="49.25063" lon="1.12657">
        <ele>88.411095</ele>
        <time>2014-08-07T09:39:34Z</time>
      </trkpt>
      <trkpt lat="49.25063" lon="1.12665">
        <ele>88.411095</ele>
        <time>2014-08-07T09:39:39Z</time>
      </trkpt>
      <trkpt lat="49.25064" lon="1.12671">
        <ele>89.68192</ele>
        <time>2014-08-07T09:39:44Z</time>
      </trkpt>
      <trkpt lat="49.2507" lon="1.12683">
        <ele>90.803665</ele>
        <time>2014-08-07T09:39:49Z</time>
      </trkpt>
      <trkpt lat="49.25072" lon="1.12695">
        <ele>90.803665</ele>
        <time>2014-08-07T09:39:54Z</time>
      </trkpt>
      <trkpt lat="49.25069" lon="1.12714">
        <ele>91.855774</ele>
        <time>2014-08-07T09:39:59Z</time>
      </trkpt>
      <trkpt lat="49.25067" lon="1.12723">
        <ele>91.855774</ele>
        <time>2014-08-07T09:40:04Z</time>
      </trkpt>
      <trkpt lat="49.25068" lon="1.12727">
        <ele>91.855774</ele>
        <time>2014-08-07T09:40:09Z</time>
      </trkpt>
      <trkpt lat="49.25068" lon="1.12732">
        <ele>92.66714</ele>
        <time>2014-08-07T09:40:14Z</time>
      </trkpt>
      <trkpt lat="49.25069" lon="1.12743">
        <ele>92.66714</ele>
        <time>2014-08-07T09:40:19Z</time>
      </trkpt>
      <trkpt lat="49.25069" lon="1.12755">
        <ele>93.166435</ele>
        <time>2014-08-07T09:40:24Z</time>
      </trkpt>
      <trkpt lat="49.25066" lon="1.12763">
        <ele>93.166435</ele>
        <time>2014-08-07T09:40:29Z</time>
      </trkpt>
      <trkpt lat="49.25065" lon="1.12768">
        <ele>93.38943</ele>
        <time>2014-08-07T09:40:34Z</time>
      </trkpt>
      <trkpt lat="49.25064" lon="1.12776">
        <ele>93.38943</ele>
        <time>2014-08-07T09:40:39Z</time>
      </trkpt>
      <trkpt lat="49.25061" lon="1.1279">
        <ele>93.413345</ele>
        <time>2014-08-07T09:40:44Z</time>
      </trkpt>
      <trkpt lat="49.25059" lon="1.12795">
        <ele>93.413345</ele>
        <time>2014-08-07T09:40:49Z</time>
      </trkpt>
      <trkpt lat="49.25057" lon="1.12802">
        <ele>93.23832</ele>
        <time>2014-08-07T09:40:54Z</time>
      </trkpt>
      <trkpt lat="49.25054" lon="1.12814">
        <ele>93.23832</ele>
        <time>2014-08-07T09:40:59Z</time>
      </trkpt>
      <trkpt lat="49.25055" lon="1.12824">
        <ele>92.994804</ele>
        <time>2014-08-07T09:41:04Z</time>
      </trkpt>
      <trkpt lat="49.25052" lon="1.12834">
        <ele>92.994804</ele>
        <time>2014-08-07T09:41:09Z</time>
      </trkpt>
      <trkpt lat="49.25052" lon="1.12842">
        <ele>92.65982</ele>
        <time>2014-08-07T09:41:14Z</time>
      </trkpt>
      <trkpt lat="49.25053" lon="1.1285">
        <ele>92.65982</ele>
        <time>2014-08-07T09:41:19Z</time>
      </trkpt>
      <trkpt lat="49.25054" lon="1.12859">
        <ele>92.27003</ele>
        <time>2014-08-07T09:41:24Z</time>
      </trkpt>
      <trkpt lat="49.25056" lon="1.12871">
        <ele>92.27003</ele>
        <time>2014-08-07T09:41:29Z</time>
      </trkpt>
      <trkpt lat="49.25055" lon="1.12889">
        <ele>91.90285</ele>
        <time>2014-08-07T09:41:34Z</time>
      </trkpt>
      <trkpt lat="49.25055" lon="1.12898">
        <ele>91.90285</ele>
        <time>2014-08-07T09:41:39Z</time>
      </trkpt>
      <trkpt lat="49.25054" lon="1.12905">
        <ele>91.312935</ele>
        <time>2014-08-07T09:41:44Z</time>
      </trkpt>
      <trkpt lat="49.25052" lon="1.12919">
        <ele>90.64832</ele>
        <time>2014-08-07T09:41:49Z</time>
      </trkpt>
      <trkpt lat="49.25054" lon="1.12926">
        <ele>90.64832</ele>
        <time>2014-08-07T09:41:54Z</time>
      </trkpt>
      <trkpt lat="49.25055" lon="1.12929">
        <ele>90.64832</ele>
        <time>2014-08-07T09:41:59Z</time>
      </trkpt>
      <trkpt lat="49.25054" lon="1.12934">
        <ele>89.75819</ele>
        <time>2014-08-07T09:42:04Z</time>
      </trkpt>
      <trkpt lat="49.25051" lon="1.12947">
        <ele>89.75819</ele>
        <time>2014-08-07T09:42:09Z</time>
      </trkpt>
      <trkpt lat="49.25047" lon="1.12959">
        <ele>88.69076</ele>
        <time>2014-08-07T09:42:14Z</time>
      </trkpt>
      <trkpt lat="49.25043" lon="1.12964">
        <ele>88.69076</ele>
        <time>2014-08-07T09:42:19Z</time>
      </trkpt>
      <trkpt lat="49.25038" lon="1.12974">
        <ele>87.60655</ele>
        <time>2014-08-07T09:42:24Z</time>
      </trkpt>
      <trkpt lat="49.25034" lon="1.12985">
        <ele>87.60655</ele>
        <time>2014-08-07T09:42:29Z</time>
      </trkpt>
      <trkpt lat="49.25032" lon="1.12989">
        <ele>86.39492</ele>
        <time>2014-08-07T09:42:34Z</time>
      </trkpt>
      <trkpt lat="49.25031" lon="1.12993">
        <ele>86.39492</ele>
        <time>2014-08-07T09:42:39Z</time>
      </trkpt>
      <trkpt lat="49.25022" lon="1.13">
        <ele>85.04014</ele>
        <time>2014-08-07T09:42:44Z</time>
      </trkpt>
      <trkpt lat="49.25016" lon="1.13006">
        <ele>85.04014</ele>
        <time>2014-08-07T09:42:49Z</time>
      </trkpt>
      <trkpt lat="49.25013" lon="1.1301">
        <ele>83.585686</ele>
        <time>2014-08-07T09:42:54Z</time>
      </trkpt>
      <trkpt lat="49.25005" lon="1.13018">
        <ele>82.172966</ele>
        <time>2014-08-07T09:42:59Z</time>
      </trkpt>
      <trkpt lat="49.25001" lon="1.1302">
        <ele>82.172966</ele>
        <time>2014-08-07T09:43:04Z</time>
      </trkpt>
      <trkpt lat="49.24996" lon="1.13027">
        <ele>80.70225</ele>
        <time>2014-08-07T09:43:09Z</time>
      </trkpt>
      <trkpt lat="49.24991" lon="1.13032">
        <ele>80.70225</ele>
        <time>2014-08-07T09:43:14Z</time>
      </trkpt>
      <trkpt lat="49.24987" lon="1.13035">
        <ele>79.28299</ele>
        <time>2014-08-07T09:43:19Z</time>
      </trkpt>
      <trkpt lat="49.24984" lon="1.13039">
        <ele>79.28299</ele>
        <time>2014-08-07T09:43:24Z</time>
      </trkpt>
      <trkpt lat="49.24982" lon="1.13041">
        <ele>79.28299</ele>
        <time>2014-08-07T09:43:29Z</time>
      </trkpt>
      <trkpt lat="49.24976" lon="1.13049">
        <ele>77.72819</ele>
        <time>2014-08-07T09:43:34Z</time>
      </trkpt>
      <trkpt lat="49.24976" lon="1.13049">
        <ele>77.72819</ele>
        <time>2014-08-07T09:43:39Z</time>
      </trkpt>
      <trkpt lat="49.24976" lon="1.13053">
        <ele>77.72819</ele>
        <time>2014-08-07T09:43:44Z</time>
      </trkpt>
      <trkpt lat="49.24973" lon="1.13065">
        <ele>76.0234</ele>
        <time>2014-08-07T09:43:49Z</time>
      </trkpt>
      <trkpt lat="49.24959" lon="1.13083">
        <ele>74.44382</ele>
        <time>2014-08-07T09:43:54Z</time>
      </trkpt>
      <trkpt lat="49.24948" lon="1.13093">
        <ele>73.171936</ele>
        <time>2014-08-07T09:43:59Z</time>
      </trkpt>
      <trkpt lat="49.24941" lon="1.13101">
        <ele>72.1741</ele>
        <time>2014-08-07T09:44:04Z</time>
      </trkpt>
      <trkpt lat="49.24929" lon="1.13107">
        <ele>71.49036</ele>
        <time>2014-08-07T09:44:09Z</time>
      </trkpt>
      <trkpt lat="49.24927" lon="1.1311">
        <ele>71.49036</ele>
        <time>2014-08-07T09:44:14Z</time>
      </trkpt>
      <trkpt lat="49.24924" lon="1.13117">
        <ele>71.49036</ele>
        <time>2014-08-07T09:44:19Z</time>
      </trkpt>
      <trkpt lat="49.24923" lon="1.13121">
        <ele>71.17121</ele>
        <time>2014-08-07T09:44:24Z</time>
      </trkpt>
      <trkpt lat="49.24919" lon="1.13132">
        <ele>71.17121</ele>
        <time>2014-08-07T09:44:29Z</time>
      </trkpt>
      <trkpt lat="49.24915" lon="1.13142">
        <ele>70.930916</ele>
        <time>2014-08-07T09:44:34Z</time>
      </trkpt>
      <trkpt lat="49.24908" lon="1.13151">
        <ele>70.80703</ele>
        <time>2014-08-07T09:44:39Z</time>
      </trkpt>
      <trkpt lat="49.24904" lon="1.1316">
        <ele>70.80703</ele>
        <time>2014-08-07T09:44:44Z</time>
      </trkpt>
      <trkpt lat="49.24899" lon="1.1317">
        <ele>70.81953</ele>
        <time>2014-08-07T09:44:49Z</time>
      </trkpt>
      <trkpt lat="49.24897" lon="1.13176">
        <ele>70.81953</ele>
        <time>2014-08-07T09:44:54Z</time>
      </trkpt>
      <trkpt lat="49.24894" lon="1.13183">
        <ele>70.914406</ele>
        <time>2014-08-07T09:44:59Z</time>
      </trkpt>
      <trkpt lat="49.24891" lon="1.1319">
        <ele>70.914406</ele>
        <time>2014-08-07T09:45:04Z</time>
      </trkpt>
      <trkpt lat="49.24888" lon="1.13198">
        <ele>70.99811</ele>
        <time>2014-08-07T09:45:09Z</time>
      </trkpt>
      <trkpt lat="49.24887" lon="1.13209">
        <ele>70.99811</ele>
        <time>2014-08-07T09:45:14Z</time>
      </trkpt>
      <trkpt lat="49.24885" lon="1.13216">
        <ele>71.20009</ele>
        <time>2014-08-07T09:45:19Z</time>
      </trkpt>
      <trkpt lat="49.24884" lon="1.13226">
        <ele>71.20009</ele>
        <time>2014-08-07T09:45:24Z</time>
      </trkpt>
      <trkpt lat="49.24884" lon="1.13227">
        <ele>71.20009</ele>
        <time>2014-08-07T09:45:29Z</time>
      </trkpt>
      <trkpt lat="49.24885" lon="1.13228">
        <ele>71.20009</ele>
        <time>2014-08-07T09:45:34Z</time>
      </trkpt>
      <trkpt lat="49.24884" lon="1.13229">
        <ele>71.409325</ele>
        <time>2014-08-07T09:45:39Z</time>
      </trkpt>
      <trkpt lat="49.24885" lon="1.13229">
        <ele>71.409325</ele>
        <time>2014-08-07T09:45:44Z</time>
      </trkpt>
      <trkpt lat="49.24883" lon="1.1323">
        <ele>71.409325</ele>
        <time>2014-08-07T09:45:49Z</time>
      </trkpt>
      <trkpt lat="49.2488" lon="1.1323">
        <ele>71.409325</ele>
        <time>2014-08-07T09:45:54Z</time>
      </trkpt>
      <trkpt lat="49.24878" lon="1.1323">
        <ele>71.409325</ele>
        <time>2014-08-07T09:45:59Z</time>
      </trkpt>
      <trkpt lat="49.24878" lon="1.13231">
        <ele>71.409325</ele>
        <time>2014-08-07T09:46:04Z</time>
      </trkpt>
      <trkpt lat="49.24879" lon="1.13233">
        <ele>71.409325</ele>
        <time>2014-08-07T09:46:09Z</time>
      </trkpt>
      <trkpt lat="49.24878" lon="1.13233">
        <ele>71.46524</ele>
        <time>2014-08-07T09:46:14Z</time>
      </trkpt>
      <trkpt lat="49.24878" lon="1.13233">
        <ele>71.46524</ele>
        <time>2014-08-07T09:46:19Z</time>
      </trkpt>
      <trkpt lat="49.24878" lon="1.13233">
        <ele>71.46524</ele>
        <time>2014-08-07T09:46:24Z</time>
      </trkpt>
      <trkpt lat="49.24877" lon="1.13237">
        <ele>71.46524</ele>
        <time>2014-08-07T09:46:29Z</time>
      </trkpt>
      <trkpt lat="49.24878" lon="1.13239">
        <ele>71.46524</ele>
        <time>2014-08-07T09:46:34Z</time>
      </trkpt>
      <trkpt lat="49.24877" lon="1.13242">
        <ele>71.46524</ele>
        <time>2014-08-07T09:46:39Z</time>
      </trkpt>
      <trkpt lat="49.24877" lon="1.13242">
        <ele>71.46524</ele>
        <time>2014-08-07T09:46:44Z</time>
      </trkpt>
      <trkpt lat="49.24876" lon="1.13241">
        <ele>71.46524</ele>
        <time>2014-08-07T09:46:49Z</time>
      </trkpt>
      <trkpt lat="49.24877" lon="1.13241">
        <ele>71.46524</ele>
        <time>2014-08-07T09:46:54Z</time>
      </trkpt>
      <trkpt lat="49.24877" lon="1.1324">
        <ele>71.262695</ele>
        <time>2014-08-07T09:46:59Z</time>
      </trkpt>
      <trkpt lat="49.24877" lon="1.1324">
        <ele>71.262695</ele>
        <time>2014-08-07T09:47:04Z</time>
      </trkpt>
      <trkpt lat="49.24876" lon="1.13241">
        <ele>71.262695</ele>
        <time>2014-08-07T09:47:09Z</time>
      </trkpt>
      <trkpt lat="49.24876" lon="1.1324">
        <ele>71.262695</ele>
        <time>2014-08-07T09:47:14Z</time>
      </trkpt>
      <trkpt lat="49.24876" lon="1.13236">
        <ele>71.262695</ele>
        <time>2014-08-07T09:47:19Z</time>
      </trkpt>
      <trkpt lat="49.24877" lon="1.13235">
        <ele>71.262695</ele>
        <time>2014-08-07T09:47:24Z</time>
      </trkpt>
      <trkpt lat="49.24877" lon="1.13234">
        <ele>71.262695</ele>
        <time>2014-08-07T09:47:29Z</time>
      </trkpt>
      <trkpt lat="49.24877" lon="1.13232">
        <ele>71.262695</ele>
        <time>2014-08-07T09:47:34Z</time>
      </trkpt>
      <trkpt lat="49.24879" lon="1.13231">
        <ele>70.935524</ele>
        <time>2014-08-07T09:47:39Z</time>
      </trkpt>
      <trkpt lat="49.24878" lon="1.13229">
        <ele>70.935524</ele>
        <time>2014-08-07T09:47:44Z</time>
      </trkpt>
      <trkpt lat="49.24872" lon="1.13224">
        <ele>70.935524</ele>
        <time>2014-08-07T09:47:49Z</time>
      </trkpt>
      <trkpt lat="49.24868" lon="1.13218">
        <ele>70.3775</ele>
        <time>2014-08-07T09:47:54Z</time>
      </trkpt>
      <trkpt lat="49.24868" lon="1.13217">
        <ele>70.3775</ele>
        <time>2014-08-07T09:47:59Z</time>
      </trkpt>
      <trkpt lat="49.24864" lon="1.13216">
        <ele>70.3775</ele>
        <time>2014-08-07T09:48:04Z</time>
      </trkpt>
      <trkpt lat="49.24861" lon="1.13215">
        <ele>70.3775</ele>
        <time>2014-08-07T09:48:09Z</time>
      </trkpt>
      <trkpt lat="49.24857" lon="1.13212">
        <ele>69.89432</ele>
        <time>2014-08-07T09:48:14Z</time>
      </trkpt>
      <trkpt lat="49.24857" lon="1.1321">
        <ele>69.89432</ele>
        <time>2014-08-07T09:48:19Z</time>
      </trkpt>
      <trkpt lat="49.24857" lon="1.13209">
        <ele>69.89432</ele>
        <time>2014-08-07T09:48:24Z</time>
      </trkpt>
      <trkpt lat="49.24856" lon="1.13209">
        <ele>69.89432</ele>
        <time>2014-08-07T09:48:29Z</time>
      </trkpt>
      <trkpt lat="49.24856" lon="1.13209">
        <ele>69.89432</ele>
        <time>2014-08-07T09:48:34Z</time>
      </trkpt>
      <trkpt lat="49.24855" lon="1.13209">
        <ele>69.89432</ele>
        <time>2014-08-07T09:48:39Z</time>
      </trkpt>
      <trkpt lat="49.24855" lon="1.13208">
        <ele>69.89432</ele>
        <time>2014-08-07T09:48:44Z</time>
      </trkpt>
      <trkpt lat="49.24855" lon="1.13208">
        <ele>69.89432</ele>
        <time>2014-08-07T09:48:49Z</time>
      </trkpt>
      <trkpt lat="49.24853" lon="1.13207">
        <ele>69.89432</ele>
        <time>2014-08-07T09:48:59Z</time>
      </trkpt>
      <trkpt lat="49.24851" lon="1.13205">
        <ele>70.15809</ele>
        <time>2014-08-07T09:49:04Z</time>
      </trkpt>
      <trkpt lat="49.24847" lon="1.13201">
        <ele>70.15809</ele>
        <time>2014-08-07T09:49:09Z</time>
      </trkpt>
      <trkpt lat="49.24842" lon="1.13199">
        <ele>70.881546</ele>
        <time>2014-08-07T09:49:14Z</time>
      </trkpt>
      <trkpt lat="49.24839" lon="1.13196">
        <ele>70.881546</ele>
        <time>2014-08-07T09:49:19Z</time>
      </trkpt>
      <trkpt lat="49.24835" lon="1.13194">
        <ele>70.881546</ele>
        <time>2014-08-07T09:49:24Z</time>
      </trkpt>
      <trkpt lat="49.24821" lon="1.13185">
        <ele>72.546585</ele>
        <time>2014-08-07T09:49:29Z</time>
      </trkpt>
      <trkpt lat="49.2482" lon="1.13185">
        <ele>72.546585</ele>
        <time>2014-08-07T09:49:34Z</time>
      </trkpt>
      <trkpt lat="49.2482" lon="1.13182">
        <ele>72.546585</ele>
        <time>2014-08-07T09:49:39Z</time>
      </trkpt>
      <trkpt lat="49.2482" lon="1.1318">
        <ele>72.546585</ele>
        <time>2014-08-07T09:49:44Z</time>
      </trkpt>
      <trkpt lat="49.24818" lon="1.13175">
        <ele>72.546585</ele>
        <time>2014-08-07T09:49:49Z</time>
      </trkpt>
      <trkpt lat="49.24816" lon="1.13171">
        <ele>74.22802</ele>
        <time>2014-08-07T09:49:54Z</time>
      </trkpt>
      <trkpt lat="49.24812" lon="1.13167">
        <ele>74.22802</ele>
        <time>2014-08-07T09:49:59Z</time>
      </trkpt>
      <trkpt lat="49.24808" lon="1.13167">
        <ele>74.22802</ele>
        <time>2014-08-07T09:50:04Z</time>
      </trkpt>
      <trkpt lat="49.24806" lon="1.13166">
        <ele>75.717094</ele>
        <time>2014-08-07T09:50:09Z</time>
      </trkpt>
      <trkpt lat="49.24806" lon="1.13166">
        <ele>75.717094</ele>
        <time>2014-08-07T09:50:14Z</time>
      </trkpt>
      <trkpt lat="49.24803" lon="1.13165">
        <ele>75.717094</ele>
        <time>2014-08-07T09:50:19Z</time>
      </trkpt>
      <trkpt lat="49.248" lon="1.13162">
        <ele>75.717094</ele>
        <time>2014-08-07T09:50:24Z</time>
      </trkpt>
      <trkpt lat="49.24796" lon="1.13161">
        <ele>76.93624</ele>
        <time>2014-08-07T09:50:29Z</time>
      </trkpt>
      <trkpt lat="49.24796" lon="1.13161">
        <ele>76.93624</ele>
        <time>2014-08-07T09:50:34Z</time>
      </trkpt>
      <trkpt lat="49.24794" lon="1.13162">
        <ele>76.93624</ele>
        <time>2014-08-07T09:50:39Z</time>
      </trkpt>
      <trkpt lat="49.24792" lon="1.13163">
        <ele>76.93624</ele>
        <time>2014-08-07T09:50:44Z</time>
      </trkpt>
      <trkpt lat="49.2479" lon="1.13165">
        <ele>76.93624</ele>
        <time>2014-08-07T09:50:49Z</time>
      </trkpt>
      <trkpt lat="49.24788" lon="1.13165">
        <ele>76.93624</ele>
        <time>2014-08-07T09:50:54Z</time>
      </trkpt>
      <trkpt lat="49.24787" lon="1.13163">
        <ele>77.92968</ele>
        <time>2014-08-07T09:50:59Z</time>
      </trkpt>
      <trkpt lat="49.24783" lon="1.13166">
        <ele>77.92968</ele>
        <time>2014-08-07T09:51:04Z</time>
      </trkpt>
      <trkpt lat="49.24779" lon="1.13163">
        <ele>77.92968</ele>
        <time>2014-08-07T09:51:09Z</time>
      </trkpt>
      <trkpt lat="49.24775" lon="1.13161">
        <ele>78.88317</ele>
        <time>2014-08-07T09:51:14Z</time>
      </trkpt>
      <trkpt lat="49.24774" lon="1.13157">
        <ele>78.88317</ele>
        <time>2014-08-07T09:51:19Z</time>
      </trkpt>
      <trkpt lat="49.24772" lon="1.13156">
        <ele>78.88317</ele>
        <time>2014-08-07T09:51:24Z</time>
      </trkpt>
      <trkpt lat="49.2477" lon="1.13154">
        <ele>78.88317</ele>
        <time>2014-08-07T09:51:29Z</time>
      </trkpt>
      <trkpt lat="49.2477" lon="1.13152">
        <ele>78.88317</ele>
        <time>2014-08-07T09:51:34Z</time>
      </trkpt>
      <trkpt lat="49.2477" lon="1.13149">
        <ele>79.752846</ele>
        <time>2014-08-07T09:51:39Z</time>
      </trkpt>
      <trkpt lat="49.2477" lon="1.13149">
        <ele>79.752846</ele>
        <time>2014-08-07T09:51:44Z</time>
      </trkpt>
      <trkpt lat="49.2477" lon="1.13149">
        <ele>79.752846</ele>
        <time>2014-08-07T09:51:59Z</time>
      </trkpt>
      <trkpt lat="49.2477" lon="1.1315">
        <ele>79.752846</ele>
        <time>2014-08-07T09:52:04Z</time>
      </trkpt>
      <trkpt lat="49.2477" lon="1.1315">
        <ele>79.752846</ele>
        <time>2014-08-07T09:52:09Z</time>
      </trkpt>
      <trkpt lat="49.24768" lon="1.13151">
        <ele>79.752846</ele>
        <time>2014-08-07T09:52:34Z</time>
      </trkpt>
      <trkpt lat="49.24766" lon="1.13153">
        <ele>79.752846</ele>
        <time>2014-08-07T09:52:39Z</time>
      </trkpt>
      <trkpt lat="49.24766" lon="1.13152">
        <ele>79.752846</ele>
        <time>2014-08-07T09:52:44Z</time>
      </trkpt>
      <trkpt lat="49.24766" lon="1.13149">
        <ele>79.752846</ele>
        <time>2014-08-07T09:52:49Z</time>
      </trkpt>
      <trkpt lat="49.24765" lon="1.13147">
        <ele>81.319786</ele>
        <time>2014-08-07T09:52:54Z</time>
      </trkpt>
      <trkpt lat="49.24766" lon="1.13146">
        <ele>81.319786</ele>
        <time>2014-08-07T09:52:59Z</time>
      </trkpt>
      <trkpt lat="49.24768" lon="1.13145">
        <ele>81.319786</ele>
        <time>2014-08-07T09:53:04Z</time>
      </trkpt>
      <trkpt lat="49.2477" lon="1.13145">
        <ele>81.319786</ele>
        <time>2014-08-07T09:53:09Z</time>
      </trkpt>
      <trkpt lat="49.24771" lon="1.13144">
        <ele>81.319786</ele>
        <time>2014-08-07T09:53:14Z</time>
      </trkpt>
      <trkpt lat="49.24772" lon="1.13145">
        <ele>81.319786</ele>
        <time>2014-08-07T09:53:19Z</time>
      </trkpt>
      <trkpt lat="49.24773" lon="1.13145">
        <ele>81.319786</ele>
        <time>2014-08-07T09:53:24Z</time>
      </trkpt>
      <trkpt lat="49.24774" lon="1.13145">
        <ele>82.79265</ele>
        <time>2014-08-07T09:53:29Z</time>
      </trkpt>
      <trkpt lat="49.24774" lon="1.13147">
        <ele>82.79265</ele>
        <time>2014-08-07T09:53:34Z</time>
      </trkpt>
      <trkpt lat="49.24774" lon="1.13148">
        <ele>82.79265</ele>
        <time>2014-08-07T09:53:39Z</time>
      </trkpt>
      <trkpt lat="49.24774" lon="1.1315">
        <ele>82.79265</ele>
        <time>2014-08-07T09:53:44Z</time>
      </trkpt>
      <trkpt lat="49.24772" lon="1.13153">
        <ele>82.79265</ele>
        <time>2014-08-07T09:53:49Z</time>
      </trkpt>
      <trkpt lat="49.2477" lon="1.13159">
        <ele>84.173546</ele>
        <time>2014-08-07T09:53:54Z</time>
      </trkpt>
      <trkpt lat="49.24768" lon="1.13161">
        <ele>84.173546</ele>
        <time>2014-08-07T09:53:59Z</time>
      </trkpt>
      <trkpt lat="49.24767" lon="1.13161">
        <ele>84.173546</ele>
        <time>2014-08-07T09:54:04Z</time>
      </trkpt>
      <trkpt lat="49.24765" lon="1.13161">
        <ele>84.173546</ele>
        <time>2014-08-07T09:54:09Z</time>
      </trkpt>
      <trkpt lat="49.24761" lon="1.13161">
        <ele>84.173546</ele>
        <time>2014-08-07T09:54:14Z</time>
      </trkpt>
      <trkpt lat="49.24757" lon="1.1316">
        <ele>85.47917</ele>
        <time>2014-08-07T09:54:19Z</time>
      </trkpt>
      <trkpt lat="49.24754" lon="1.13159">
        <ele>85.47917</ele>
        <time>2014-08-07T09:54:24Z</time>
      </trkpt>
      <trkpt lat="49.24754" lon="1.13157">
        <ele>85.47917</ele>
        <time>2014-08-07T09:54:29Z</time>
      </trkpt>
      <trkpt lat="49.24753" lon="1.13156">
        <ele>85.47917</ele>
        <time>2014-08-07T09:54:34Z</time>
      </trkpt>
      <trkpt lat="49.24752" lon="1.13155">
        <ele>85.47917</ele>
        <time>2014-08-07T09:54:39Z</time>
      </trkpt>
      <trkpt lat="49.24746" lon="1.13154">
        <ele>86.898254</ele>
        <time>2014-08-07T09:54:44Z</time>
      </trkpt>
      <trkpt lat="49.24742" lon="1.13153">
        <ele>86.898254</ele>
        <time>2014-08-07T09:54:49Z</time>
      </trkpt>
      <trkpt lat="49.2474" lon="1.13151">
        <ele>86.898254</ele>
        <time>2014-08-07T09:54:54Z</time>
      </trkpt>
      <trkpt lat="49.24739" lon="1.13147">
        <ele>88.50455</ele>
        <time>2014-08-07T09:54:59Z</time>
      </trkpt>
      <trkpt lat="49.24733" lon="1.13139">
        <ele>88.50455</ele>
        <time>2014-08-07T09:55:04Z</time>
      </trkpt>
      <trkpt lat="49.24732" lon="1.13137">
        <ele>90.02012</ele>
        <time>2014-08-07T09:55:09Z</time>
      </trkpt>
      <trkpt lat="49.24731" lon="1.13136">
        <ele>90.02012</ele>
        <time>2014-08-07T09:55:14Z</time>
      </trkpt>
      <trkpt lat="49.24728" lon="1.13134">
        <ele>90.02012</ele>
        <time>2014-08-07T09:55:19Z</time>
      </trkpt>
      <trkpt lat="49.24722" lon="1.13134">
        <ele>91.38957</ele>
        <time>2014-08-07T09:55:24Z</time>
      </trkpt>
      <trkpt lat="49.24721" lon="1.13135">
        <ele>91.38957</ele>
        <time>2014-08-07T09:55:29Z</time>
      </trkpt>
      <trkpt lat="49.24719" lon="1.13133">
        <ele>91.38957</ele>
        <time>2014-08-07T09:55:34Z</time>
      </trkpt>
      <trkpt lat="49.24715" lon="1.13129">
        <ele>91.38957</ele>
        <time>2014-08-07T09:55:39Z</time>
      </trkpt>
      <trkpt lat="49.24711" lon="1.13128">
        <ele>92.64856</ele>
        <time>2014-08-07T09:55:44Z</time>
      </trkpt>
      <trkpt lat="49.24705" lon="1.13123">
        <ele>92.64856</ele>
        <time>2014-08-07T09:55:49Z</time>
      </trkpt>
      <trkpt lat="49.24701" lon="1.13127">
        <ele>93.64323</ele>
        <time>2014-08-07T09:55:54Z</time>
      </trkpt>
      <trkpt lat="49.24698" lon="1.13128">
        <ele>93.64323</ele>
        <time>2014-08-07T09:55:59Z</time>
      </trkpt>
      <trkpt lat="49.24691" lon="1.13123">
        <ele>94.44803</ele>
        <time>2014-08-07T09:56:04Z</time>
      </trkpt>
      <trkpt lat="49.24684" lon="1.13125">
        <ele>94.44803</ele>
        <time>2014-08-07T09:56:09Z</time>
      </trkpt>
      <trkpt lat="49.2468" lon="1.13123">
        <ele>95.07496</ele>
        <time>2014-08-07T09:56:14Z</time>
      </trkpt>
      <trkpt lat="49.24672" lon="1.13117">
        <ele>95.07496</ele>
        <time>2014-08-07T09:56:19Z</time>
      </trkpt>
      <trkpt lat="49.24668" lon="1.13114">
        <ele>95.66545</ele>
        <time>2014-08-07T09:56:24Z</time>
      </trkpt>
      <trkpt lat="49.24662" lon="1.13109">
        <ele>95.66545</ele>
        <time>2014-08-07T09:56:29Z</time>
      </trkpt>
      <trkpt lat="49.24656" lon="1.13106">
        <ele>96.336365</ele>
        <time>2014-08-07T09:56:34Z</time>
      </trkpt>
      <trkpt lat="49.24647" lon="1.13101">
        <ele>97.12379</ele>
        <time>2014-08-07T09:56:39Z</time>
      </trkpt>
      <trkpt lat="49.2464" lon="1.13099">
        <ele>97.12379</ele>
        <time>2014-08-07T09:56:44Z</time>
      </trkpt>
      <trkpt lat="49.24635" lon="1.13096">
        <ele>98.435616</ele>
        <time>2014-08-07T09:56:49Z</time>
      </trkpt>
      <trkpt lat="49.24634" lon="1.13095">
        <ele>98.435616</ele>
        <time>2014-08-07T09:56:54Z</time>
      </trkpt>
      <trkpt lat="49.24631" lon="1.13095">
        <ele>98.435616</ele>
        <time>2014-08-07T09:56:59Z</time>
      </trkpt>
      <trkpt lat="49.24626" lon="1.13091">
        <ele>99.97111</ele>
        <time>2014-08-07T09:57:04Z</time>
      </trkpt>
      <trkpt lat="49.24622" lon="1.13091">
        <ele>99.97111</ele>
        <time>2014-08-07T09:57:09Z</time>
      </trkpt>
      <trkpt lat="49.24617" lon="1.13087">
        <ele>101.55196</ele>
        <time>2014-08-07T09:57:14Z</time>
      </trkpt>
      <trkpt lat="49.24613" lon="1.13082">
        <ele>101.55196</ele>
        <time>2014-08-07T09:57:19Z</time>
      </trkpt>
      <trkpt lat="49.24611" lon="1.1308">
        <ele>101.55196</ele>
        <time>2014-08-07T09:57:24Z</time>
      </trkpt>
      <trkpt lat="49.24608" lon="1.13078">
        <ele>103.142654</ele>
        <time>2014-08-07T09:57:29Z</time>
      </trkpt>
      <trkpt lat="49.24606" lon="1.13078">
        <ele>103.142654</ele>
        <time>2014-08-07T09:57:34Z</time>
      </trkpt>
      <trkpt lat="49.24604" lon="1.13078">
        <ele>103.142654</ele>
        <time>2014-08-07T09:57:39Z</time>
      </trkpt>
      <trkpt lat="49.24598" lon="1.13074">
        <ele>104.47975</ele>
        <time>2014-08-07T09:57:44Z</time>
      </trkpt>
      <trkpt lat="49.2459" lon="1.13065">
        <ele>105.70911</ele>
        <time>2014-08-07T09:57:49Z</time>
      </trkpt>
      <trkpt lat="49.24588" lon="1.13064">
        <ele>105.70911</ele>
        <time>2014-08-07T09:57:54Z</time>
      </trkpt>
      <trkpt lat="49.24588" lon="1.13064">
        <ele>105.70911</ele>
        <time>2014-08-07T09:57:59Z</time>
      </trkpt>
      <trkpt lat="49.24586" lon="1.13064">
        <ele>105.70911</ele>
        <time>2014-08-07T09:58:04Z</time>
      </trkpt>
      <trkpt lat="49.24585" lon="1.13063">
        <ele>105.70911</ele>
        <time>2014-08-07T09:58:09Z</time>
      </trkpt>
      <trkpt lat="49.24581" lon="1.13062">
        <ele>107.0095</ele>
        <time>2014-08-07T09:58:14Z</time>
      </trkpt>
      <trkpt lat="49.2458" lon="1.13062">
        <ele>107.0095</ele>
        <time>2014-08-07T09:58:19Z</time>
      </trkpt>
      <trkpt lat="49.24578" lon="1.1306">
        <ele>107.0095</ele>
        <time>2014-08-07T09:58:24Z</time>
      </trkpt>
      <trkpt lat="49.24576" lon="1.1306">
        <ele>107.0095</ele>
        <time>2014-08-07T09:58:29Z</time>
      </trkpt>
      <trkpt lat="49.24574" lon="1.13062">
        <ele>107.0095</ele>
        <time>2014-08-07T09:58:34Z</time>
      </trkpt>
      <trkpt lat="49.24573" lon="1.13064">
        <ele>108.11414</ele>
        <time>2014-08-07T09:58:39Z</time>
      </trkpt>
      <trkpt lat="49.24573" lon="1.13064">
        <ele>108.11414</ele>
        <time>2014-08-07T09:58:44Z</time>
      </trkpt>
      <trkpt lat="49.24564" lon="1.13061">
        <ele>108.11414</ele>
        <time>2014-08-07T09:58:49Z</time>
      </trkpt>
      <trkpt lat="49.24562" lon="1.13061">
        <ele>109.32413</ele>
        <time>2014-08-07T09:58:54Z</time>
      </trkpt>
      <trkpt lat="49.24562" lon="1.13059">
        <ele>109.32413</ele>
        <time>2014-08-07T09:58:59Z</time>
      </trkpt>
      <trkpt lat="49.24564" lon="1.13058">
        <ele>109.32413</ele>
        <time>2014-08-07T09:59:04Z</time>
      </trkpt>
      <trkpt lat="49.24564" lon="1.13058">
        <ele>109.32413</ele>
        <time>2014-08-07T09:59:09Z</time>
      </trkpt>
      <trkpt lat="49.24563" lon="1.13056">
        <ele>109.32413</ele>
        <time>2014-08-07T09:59:14Z</time>
      </trkpt>
      <trkpt lat="49.2456" lon="1.13055">
        <ele>109.32413</ele>
        <time>2014-08-07T09:59:19Z</time>
      </trkpt>
      <trkpt lat="49.24554" lon="1.13054">
        <ele>110.11119</ele>
        <time>2014-08-07T09:59:24Z</time>
      </trkpt>
      <trkpt lat="49.24551" lon="1.13054">
        <ele>110.11119</ele>
        <time>2014-08-07T09:59:29Z</time>
      </trkpt>
      <trkpt lat="49.24548" lon="1.13054">
        <ele>110.11119</ele>
        <time>2014-08-07T09:59:34Z</time>
      </trkpt>
      <trkpt lat="49.24544" lon="1.13052">
        <ele>110.722145</ele>
        <time>2014-08-07T09:59:39Z</time>
      </trkpt>
      <trkpt lat="49.24539" lon="1.1305">
        <ele>110.722145</ele>
        <time>2014-08-07T09:59:44Z</time>
      </trkpt>
      <trkpt lat="49.24535" lon="1.13049">
        <ele>111.24214</ele>
        <time>2014-08-07T09:59:49Z</time>
      </trkpt>
      <trkpt lat="49.24529" lon="1.13045">
        <ele>111.24214</ele>
        <time>2014-08-07T09:59:54Z</time>
      </trkpt>
      <trkpt lat="49.24524" lon="1.13041">
        <ele>111.66394</ele>
        <time>2014-08-07T09:59:59Z</time>
      </trkpt>
      <trkpt lat="49.24518" lon="1.13038">
        <ele>111.66394</ele>
        <time>2014-08-07T10:00:04Z</time>
      </trkpt>
      <trkpt lat="49.24515" lon="1.13035">
        <ele>112.16853</ele>
        <time>2014-08-07T10:00:09Z</time>
      </trkpt>
      <trkpt lat="49.24511" lon="1.13033">
        <ele>112.16853</ele>
        <time>2014-08-07T10:00:14Z</time>
      </trkpt>
      <trkpt lat="49.24508" lon="1.13029">
        <ele>112.16853</ele>
        <time>2014-08-07T10:00:19Z</time>
      </trkpt>
      <trkpt lat="49.24506" lon="1.13029">
        <ele>112.736115</ele>
        <time>2014-08-07T10:00:24Z</time>
      </trkpt>
      <trkpt lat="49.24497" lon="1.13026">
        <ele>113.16085</ele>
        <time>2014-08-07T10:00:29Z</time>
      </trkpt>
      <trkpt lat="49.24494" lon="1.13027">
        <ele>113.16085</ele>
        <time>2014-08-07T10:00:34Z</time>
      </trkpt>
      <trkpt lat="49.24494" lon="1.13029">
        <ele>113.16085</ele>
        <time>2014-08-07T10:00:39Z</time>
      </trkpt>
      <trkpt lat="49.24493" lon="1.13032">
        <ele>113.16085</ele>
        <time>2014-08-07T10:00:44Z</time>
      </trkpt>
      <trkpt lat="49.24489" lon="1.13031">
        <ele>113.64161</ele>
        <time>2014-08-07T10:00:49Z</time>
      </trkpt>
      <trkpt lat="49.24487" lon="1.13031">
        <ele>113.64161</ele>
        <time>2014-08-07T10:00:54Z</time>
      </trkpt>
      <trkpt lat="49.24487" lon="1.13032">
        <ele>113.64161</ele>
        <time>2014-08-07T10:00:59Z</time>
      </trkpt>
      <trkpt lat="49.24488" lon="1.13034">
        <ele>113.64161</ele>
        <time>2014-08-07T10:01:04Z</time>
      </trkpt>
      <trkpt lat="49.24487" lon="1.13036">
        <ele>113.64161</ele>
        <time>2014-08-07T10:01:09Z</time>
      </trkpt>
      <trkpt lat="49.24487" lon="1.13035">
        <ele>113.64161</ele>
        <time>2014-08-07T10:01:14Z</time>
      </trkpt>
      <trkpt lat="49.24486" lon="1.13033">
        <ele>113.64161</ele>
        <time>2014-08-07T10:01:19Z</time>
      </trkpt>
      <trkpt lat="49.24484" lon="1.1303">
        <ele>114.14636</ele>
        <time>2014-08-07T10:01:24Z</time>
      </trkpt>
      <trkpt lat="49.24484" lon="1.13027">
        <ele>114.14636</ele>
        <time>2014-08-07T10:01:29Z</time>
      </trkpt>
      <trkpt lat="49.24484" lon="1.13026">
        <ele>114.14636</ele>
        <time>2014-08-07T10:01:34Z</time>
      </trkpt>
      <trkpt lat="49.24484" lon="1.13025">
        <ele>114.14636</ele>
        <time>2014-08-07T10:01:39Z</time>
      </trkpt>
      <trkpt lat="49.24484" lon="1.13025">
        <ele>114.14636</ele>
        <time>2014-08-07T10:01:44Z</time>
      </trkpt>
      <trkpt lat="49.24482" lon="1.13025">
        <ele>114.14636</ele>
        <time>2014-08-07T10:01:49Z</time>
      </trkpt>
      <trkpt lat="49.24479" lon="1.13022">
        <ele>114.70306</ele>
        <time>2014-08-07T10:01:54Z</time>
      </trkpt>
      <trkpt lat="49.24475" lon="1.13022">
        <ele>114.70306</ele>
        <time>2014-08-07T10:01:59Z</time>
      </trkpt>
      <trkpt lat="49.24471" lon="1.13021">
        <ele>114.70306</ele>
        <time>2014-08-07T10:02:04Z</time>
      </trkpt>
      <trkpt lat="49.24465" lon="1.1302">
        <ele>115.12129</ele>
        <time>2014-08-07T10:02:09Z</time>
      </trkpt>
      <trkpt lat="49.2446" lon="1.13017">
        <ele>115.12129</ele>
        <time>2014-08-07T10:02:14Z</time>
      </trkpt>
      <trkpt lat="49.24455" lon="1.13012">
        <ele>115.3548</ele>
        <time>2014-08-07T10:02:19Z</time>
      </trkpt>
      <trkpt lat="49.24453" lon="1.13009">
        <ele>115.3548</ele>
        <time>2014-08-07T10:02:24Z</time>
      </trkpt>
      <trkpt lat="49.24446" lon="1.13004">
        <ele>115.4477</ele>
        <time>2014-08-07T10:02:29Z</time>
      </trkpt>
      <trkpt lat="49.24439" lon="1.13002">
        <ele>115.4477</ele>
        <time>2014-08-07T10:02:34Z</time>
      </trkpt>
      <trkpt lat="49.24432" lon="1.13">
        <ele>115.31158</ele>
        <time>2014-08-07T10:02:39Z</time>
      </trkpt>
      <trkpt lat="49.24426" lon="1.12999">
        <ele>115.31158</ele>
        <time>2014-08-07T10:02:44Z</time>
      </trkpt>
      <trkpt lat="49.24421" lon="1.12998">
        <ele>115.03812</ele>
        <time>2014-08-07T10:02:49Z</time>
      </trkpt>
      <trkpt lat="49.24416" lon="1.12996">
        <ele>115.03812</ele>
        <time>2014-08-07T10:02:54Z</time>
      </trkpt>
      <trkpt lat="49.24412" lon="1.12992">
        <ele>114.77027</ele>
        <time>2014-08-07T10:02:59Z</time>
      </trkpt>
      <trkpt lat="49.24409" lon="1.12987">
        <ele>114.77027</ele>
        <time>2014-08-07T10:03:04Z</time>
      </trkpt>
      <trkpt lat="49.24405" lon="1.12985">
        <ele>114.77027</ele>
        <time>2014-08-07T10:03:09Z</time>
      </trkpt>
      <trkpt lat="49.24399" lon="1.12983">
        <ele>114.6549</ele>
        <time>2014-08-07T10:03:14Z</time>
      </trkpt>
      <trkpt lat="49.24391" lon="1.12978">
        <ele>114.6549</ele>
        <time>2014-08-07T10:03:19Z</time>
      </trkpt>
      <trkpt lat="49.24387" lon="1.12976">
        <ele>114.62586</ele>
        <time>2014-08-07T10:03:24Z</time>
      </trkpt>
      <trkpt lat="49.24383" lon="1.12975">
        <ele>114.62586</ele>
        <time>2014-08-07T10:03:29Z</time>
      </trkpt>
      <trkpt lat="49.24376" lon="1.12972">
        <ele>114.708084</ele>
        <time>2014-08-07T10:03:34Z</time>
      </trkpt>
      <trkpt lat="49.24371" lon="1.1297">
        <ele>114.708084</ele>
        <time>2014-08-07T10:03:39Z</time>
      </trkpt>
      <trkpt lat="49.24369" lon="1.12969">
        <ele>114.708084</ele>
        <time>2014-08-07T10:03:44Z</time>
      </trkpt>
      <trkpt lat="49.24363" lon="1.12966">
        <ele>114.7802</ele>
        <time>2014-08-07T10:03:49Z</time>
      </trkpt>
      <trkpt lat="49.24356" lon="1.12964">
        <ele>114.7802</ele>
        <time>2014-08-07T10:03:54Z</time>
      </trkpt>
      <trkpt lat="49.2435" lon="1.12965">
        <ele>114.91709</ele>
        <time>2014-08-07T10:03:59Z</time>
      </trkpt>
      <trkpt lat="49.24347" lon="1.12962">
        <ele>114.91709</ele>
        <time>2014-08-07T10:04:04Z</time>
      </trkpt>
      <trkpt lat="49.24344" lon="1.12959">
        <ele>114.91709</ele>
        <time>2014-08-07T10:04:09Z</time>
      </trkpt>
      <trkpt lat="49.2434" lon="1.12956">
        <ele>115.04383</ele>
        <time>2014-08-07T10:04:14Z</time>
      </trkpt>
      <trkpt lat="49.24332" lon="1.12954">
        <ele>115.04383</ele>
        <time>2014-08-07T10:04:19Z</time>
      </trkpt>
      <trkpt lat="49.24328" lon="1.12953">
        <ele>115.033325</ele>
        <time>2014-08-07T10:04:24Z</time>
      </trkpt>
      <trkpt lat="49.24323" lon="1.12952">
        <ele>115.033325</ele>
        <time>2014-08-07T10:04:29Z</time>
      </trkpt>
      <trkpt lat="49.24319" lon="1.12949">
        <ele>114.912254</ele>
        <time>2014-08-07T10:04:34Z</time>
      </trkpt>
      <trkpt lat="49.24314" lon="1.12946">
        <ele>114.912254</ele>
        <time>2014-08-07T10:04:39Z</time>
      </trkpt>
      <trkpt lat="49.24311" lon="1.12944">
        <ele>114.912254</ele>
        <time>2014-08-07T10:04:44Z</time>
      </trkpt>
      <trkpt lat="49.24306" lon="1.12941">
        <ele>114.90739</ele>
        <time>2014-08-07T10:04:49Z</time>
      </trkpt>
      <trkpt lat="49.243" lon="1.1294">
        <ele>114.90739</ele>
        <time>2014-08-07T10:04:54Z</time>
      </trkpt>
      <trkpt lat="49.24296" lon="1.12939">
        <ele>114.88257</ele>
        <time>2014-08-07T10:04:59Z</time>
      </trkpt>
      <trkpt lat="49.24293" lon="1.12939">
        <ele>114.88257</ele>
        <time>2014-08-07T10:05:04Z</time>
      </trkpt>
      <trkpt lat="49.24286" lon="1.12934">
        <ele>114.88459</ele>
        <time>2014-08-07T10:05:09Z</time>
      </trkpt>
      <trkpt lat="49.24282" lon="1.12931">
        <ele>114.88459</ele>
        <time>2014-08-07T10:05:14Z</time>
      </trkpt>
      <trkpt lat="49.2428" lon="1.12931">
        <ele>114.88459</ele>
        <time>2014-08-07T10:05:19Z</time>
      </trkpt>
      <trkpt lat="49.24272" lon="1.12928">
        <ele>115.07197</ele>
        <time>2014-08-07T10:05:24Z</time>
      </trkpt>
      <trkpt lat="49.24271" lon="1.12928">
        <ele>115.07197</ele>
        <time>2014-08-07T10:05:29Z</time>
      </trkpt>
      <trkpt lat="49.24266" lon="1.12925">
        <ele>115.07197</ele>
        <time>2014-08-07T10:05:34Z</time>
      </trkpt>
      <trkpt lat="49.2426" lon="1.12921">
        <ele>115.51893</ele>
        <time>2014-08-07T10:05:39Z</time>
      </trkpt>
      <trkpt lat="49.24254" lon="1.12916">
        <ele>115.51893</ele>
        <time>2014-08-07T10:05:44Z</time>
      </trkpt>
      <trkpt lat="49.24251" lon="1.12912">
        <ele>115.99084</ele>
        <time>2014-08-07T10:05:49Z</time>
      </trkpt>
      <trkpt lat="49.24247" lon="1.1291">
        <ele>115.99084</ele>
        <time>2014-08-07T10:05:54Z</time>
      </trkpt>
      <trkpt lat="49.24244" lon="1.1291">
        <ele>115.99084</ele>
        <time>2014-08-07T10:05:59Z</time>
      </trkpt>
      <trkpt lat="49.24238" lon="1.12906">
        <ele>116.500755</ele>
        <time>2014-08-07T10:06:04Z</time>
      </trkpt>
      <trkpt lat="49.24231" lon="1.12902">
        <ele>116.500755</ele>
        <time>2014-08-07T10:06:09Z</time>
      </trkpt>
      <trkpt lat="49.24226" lon="1.12902">
        <ele>116.9021</ele>
        <time>2014-08-07T10:06:14Z</time>
      </trkpt>
      <trkpt lat="49.24221" lon="1.12902">
        <ele>116.9021</ele>
        <time>2014-08-07T10:06:19Z</time>
      </trkpt>
      <trkpt lat="49.24218" lon="1.12902">
        <ele>116.9021</ele>
        <time>2014-08-07T10:06:24Z</time>
      </trkpt>
      <trkpt lat="49.24215" lon="1.12901">
        <ele>117.24665</ele>
        <time>2014-08-07T10:06:29Z</time>
      </trkpt>
      <trkpt lat="49.24211" lon="1.12898">
        <ele>117.24665</ele>
        <time>2014-08-07T10:06:34Z</time>
      </trkpt>
      <trkpt lat="49.2421" lon="1.12897">
        <ele>117.24665</ele>
        <time>2014-08-07T10:06:39Z</time>
      </trkpt>
      <trkpt lat="49.24209" lon="1.12892">
        <ele>117.24665</ele>
        <time>2014-08-07T10:06:44Z</time>
      </trkpt>
      <trkpt lat="49.24205" lon="1.1289">
        <ele>117.40956</ele>
        <time>2014-08-07T10:06:49Z</time>
      </trkpt>
      <trkpt lat="49.24206" lon="1.12887">
        <ele>117.40956</ele>
        <time>2014-08-07T10:06:54Z</time>
      </trkpt>
      <trkpt lat="49.24206" lon="1.12885">
        <ele>117.40956</ele>
        <time>2014-08-07T10:06:59Z</time>
      </trkpt>
      <trkpt lat="49.24204" lon="1.12884">
        <ele>117.40956</ele>
        <time>2014-08-07T10:07:04Z</time>
      </trkpt>
      <trkpt lat="49.24197" lon="1.12881">
        <ele>117.43416</ele>
        <time>2014-08-07T10:07:09Z</time>
      </trkpt>
      <trkpt lat="49.24193" lon="1.1288">
        <ele>117.43416</ele>
        <time>2014-08-07T10:07:14Z</time>
      </trkpt>
      <trkpt lat="49.24191" lon="1.12879">
        <ele>117.43416</ele>
        <time>2014-08-07T10:07:19Z</time>
      </trkpt>
      <trkpt lat="49.24183" lon="1.12872">
        <ele>117.40413</ele>
        <time>2014-08-07T10:07:24Z</time>
      </trkpt>
      <trkpt lat="49.24179" lon="1.12871">
        <ele>117.40413</ele>
        <time>2014-08-07T10:07:29Z</time>
      </trkpt>
      <trkpt lat="49.24176" lon="1.12868">
        <ele>117.40413</ele>
        <time>2014-08-07T10:07:34Z</time>
      </trkpt>
      <trkpt lat="49.24172" lon="1.12865">
        <ele>117.23863</ele>
        <time>2014-08-07T10:07:39Z</time>
      </trkpt>
      <trkpt lat="49.24169" lon="1.12861">
        <ele>117.23863</ele>
        <time>2014-08-07T10:07:44Z</time>
      </trkpt>
      <trkpt lat="49.24164" lon="1.12858">
        <ele>117.09365</ele>
        <time>2014-08-07T10:07:49Z</time>
      </trkpt>
      <trkpt lat="49.24162" lon="1.12859">
        <ele>117.09365</ele>
        <time>2014-08-07T10:07:54Z</time>
      </trkpt>
      <trkpt lat="49.24159" lon="1.12861">
        <ele>117.09365</ele>
        <time>2014-08-07T10:07:59Z</time>
      </trkpt>
      <trkpt lat="49.24157" lon="1.12865">
        <ele>117.099205</ele>
        <time>2014-08-07T10:08:04Z</time>
      </trkpt>
      <trkpt lat="49.24153" lon="1.12872">
        <ele>117.099205</ele>
        <time>2014-08-07T10:08:09Z</time>
      </trkpt>
      <trkpt lat="49.24149" lon="1.12875">
        <ele>117.18793</ele>
        <time>2014-08-07T10:08:14Z</time>
      </trkpt>
      <trkpt lat="49.24144" lon="1.12871">
        <ele>117.18793</ele>
        <time>2014-08-07T10:08:19Z</time>
      </trkpt>
      <trkpt lat="49.24141" lon="1.12866">
        <ele>117.35479</ele>
        <time>2014-08-07T10:08:24Z</time>
      </trkpt>
      <trkpt lat="49.24139" lon="1.12865">
        <ele>117.35479</ele>
        <time>2014-08-07T10:08:29Z</time>
      </trkpt>
      <trkpt lat="49.24137" lon="1.12863">
        <ele>117.35479</ele>
        <time>2014-08-07T10:08:34Z</time>
      </trkpt>
      <trkpt lat="49.24128" lon="1.12855">
        <ele>117.85423</ele>
        <time>2014-08-07T10:08:39Z</time>
      </trkpt>
      <trkpt lat="49.24119" lon="1.12851">
        <ele>118.43107</ele>
        <time>2014-08-07T10:08:44Z</time>
      </trkpt>
      <trkpt lat="49.24114" lon="1.1285">
        <ele>118.43107</ele>
        <time>2014-08-07T10:08:49Z</time>
      </trkpt>
      <trkpt lat="49.24113" lon="1.12848">
        <ele>118.43107</ele>
        <time>2014-08-07T10:08:54Z</time>
      </trkpt>
      <trkpt lat="49.24113" lon="1.12846">
        <ele>118.43107</ele>
        <time>2014-08-07T10:08:59Z</time>
      </trkpt>
      <trkpt lat="49.24109" lon="1.12849">
        <ele>119.19445</ele>
        <time>2014-08-07T10:09:04Z</time>
      </trkpt>
      <trkpt lat="49.24096" lon="1.12846">
        <ele>119.85586</ele>
        <time>2014-08-07T10:09:09Z</time>
      </trkpt>
      <trkpt lat="49.24091" lon="1.12841">
        <ele>119.85586</ele>
        <time>2014-08-07T10:09:14Z</time>
      </trkpt>
      <trkpt lat="49.24088" lon="1.12841">
        <ele>119.85586</ele>
        <time>2014-08-07T10:09:19Z</time>
      </trkpt>
      <trkpt lat="49.24084" lon="1.1284">
        <ele>120.23467</ele>
        <time>2014-08-07T10:09:24Z</time>
      </trkpt>
      <trkpt lat="49.24081" lon="1.12837">
        <ele>120.23467</ele>
        <time>2014-08-07T10:09:29Z</time>
      </trkpt>
      <trkpt lat="49.24079" lon="1.12835">
        <ele>120.23467</ele>
        <time>2014-08-07T10:09:34Z</time>
      </trkpt>
      <trkpt lat="49.24075" lon="1.12836">
        <ele>120.2796</ele>
        <time>2014-08-07T10:09:39Z</time>
      </trkpt>
      <trkpt lat="49.2407" lon="1.12833">
        <ele>120.2796</ele>
        <time>2014-08-07T10:09:44Z</time>
      </trkpt>
      <trkpt lat="49.24067" lon="1.12828">
        <ele>120.13137</ele>
        <time>2014-08-07T10:09:49Z</time>
      </trkpt>
      <trkpt lat="49.24059" lon="1.12821">
        <ele>120.13137</ele>
        <time>2014-08-07T10:09:54Z</time>
      </trkpt>
      <trkpt lat="49.24052" lon="1.12817">
        <ele>120.10823</ele>
        <time>2014-08-07T10:09:59Z</time>
      </trkpt>
      <trkpt lat="49.24049" lon="1.12816">
        <ele>120.10823</ele>
        <time>2014-08-07T10:10:04Z</time>
      </trkpt>
      <trkpt lat="49.24042" lon="1.12812">
        <ele>120.61994</ele>
        <time>2014-08-07T10:10:09Z</time>
      </trkpt>
      <trkpt lat="49.24037" lon="1.12808">
        <ele>120.61994</ele>
        <time>2014-08-07T10:10:14Z</time>
      </trkpt>
      <trkpt lat="49.24035" lon="1.12804">
        <ele>120.61994</ele>
        <time>2014-08-07T10:10:19Z</time>
      </trkpt>
      <trkpt lat="49.24034" lon="1.12804">
        <ele>121.51146</ele>
        <time>2014-08-07T10:10:24Z</time>
      </trkpt>
      <trkpt lat="49.24028" lon="1.12806">
        <ele>121.51146</ele>
        <time>2014-08-07T10:10:29Z</time>
      </trkpt>
      <trkpt lat="49.24023" lon="1.12806">
        <ele>122.30654</ele>
        <time>2014-08-07T10:10:34Z</time>
      </trkpt>
      <trkpt lat="49.24021" lon="1.12802">
        <ele>122.30654</ele>
        <time>2014-08-07T10:10:39Z</time>
      </trkpt>
      <trkpt lat="49.24017" lon="1.12799">
        <ele>122.30654</ele>
        <time>2014-08-07T10:10:44Z</time>
      </trkpt>
      <trkpt lat="49.24012" lon="1.12798">
        <ele>122.95332</ele>
        <time>2014-08-07T10:10:49Z</time>
      </trkpt>
      <trkpt lat="49.24004" lon="1.12795">
        <ele>122.95332</ele>
        <time>2014-08-07T10:10:54Z</time>
      </trkpt>
      <trkpt lat="49.23998" lon="1.12791">
        <ele>123.548225</ele>
        <time>2014-08-07T10:10:59Z</time>
      </trkpt>
      <trkpt lat="49.23993" lon="1.12789">
        <ele>123.548225</ele>
        <time>2014-08-07T10:11:04Z</time>
      </trkpt>
      <trkpt lat="49.23992" lon="1.12789">
        <ele>123.548225</ele>
        <time>2014-08-07T10:11:09Z</time>
      </trkpt>
      <trkpt lat="49.23988" lon="1.12786">
        <ele>124.32485</ele>
        <time>2014-08-07T10:11:14Z</time>
      </trkpt>
      <trkpt lat="49.23984" lon="1.12782">
        <ele>124.32485</ele>
        <time>2014-08-07T10:11:19Z</time>
      </trkpt>
      <trkpt lat="49.23978" lon="1.12775">
        <ele>125.369415</ele>
        <time>2014-08-07T10:11:24Z</time>
      </trkpt>
      <trkpt lat="49.23972" lon="1.12766">
        <ele>125.369415</ele>
        <time>2014-08-07T10:11:29Z</time>
      </trkpt>
      <trkpt lat="49.23963" lon="1.12762">
        <ele>126.63136</ele>
        <time>2014-08-07T10:11:34Z</time>
      </trkpt>
      <trkpt lat="49.23958" lon="1.12761">
        <ele>126.63136</ele>
        <time>2014-08-07T10:11:39Z</time>
      </trkpt>
      <trkpt lat="49.2395" lon="1.1276">
        <ele>127.99118</ele>
        <time>2014-08-07T10:11:44Z</time>
      </trkpt>
      <trkpt lat="49.23946" lon="1.12757">
        <ele>127.99118</ele>
        <time>2014-08-07T10:11:49Z</time>
      </trkpt>
      <trkpt lat="49.23938" lon="1.12757">
        <ele>129.23698</ele>
        <time>2014-08-07T10:11:54Z</time>
      </trkpt>
      <trkpt lat="49.23933" lon="1.12757">
        <ele>129.23698</ele>
        <time>2014-08-07T10:11:59Z</time>
      </trkpt>
      <trkpt lat="49.23928" lon="1.12757">
        <ele>130.41782</ele>
        <time>2014-08-07T10:12:04Z</time>
      </trkpt>
      <trkpt lat="49.23927" lon="1.12756">
        <ele>130.41782</ele>
        <time>2014-08-07T10:12:09Z</time>
      </trkpt>
      <trkpt lat="49.23923" lon="1.12753">
        <ele>130.41782</ele>
        <time>2014-08-07T10:12:14Z</time>
      </trkpt>
      <trkpt lat="49.23917" lon="1.12752">
        <ele>131.24782</ele>
        <time>2014-08-07T10:12:19Z</time>
      </trkpt>
      <trkpt lat="49.23912" lon="1.12753">
        <ele>131.24782</ele>
        <time>2014-08-07T10:12:24Z</time>
      </trkpt>
      <trkpt lat="49.23908" lon="1.12752">
        <ele>131.72256</ele>
        <time>2014-08-07T10:12:29Z</time>
      </trkpt>
      <trkpt lat="49.23901" lon="1.12753">
        <ele>131.72256</ele>
        <time>2014-08-07T10:12:34Z</time>
      </trkpt>
      <trkpt lat="49.23899" lon="1.12752">
        <ele>131.99754</ele>
        <time>2014-08-07T10:12:39Z</time>
      </trkpt>
      <trkpt lat="49.23893" lon="1.1275">
        <ele>131.99754</ele>
        <time>2014-08-07T10:12:44Z</time>
      </trkpt>
      <trkpt lat="49.23892" lon="1.12748">
        <ele>131.99754</ele>
        <time>2014-08-07T10:12:49Z</time>
      </trkpt>
      <trkpt lat="49.23889" lon="1.12748">
        <ele>132.08763</ele>
        <time>2014-08-07T10:12:54Z</time>
      </trkpt>
      <trkpt lat="49.23885" lon="1.12745">
        <ele>132.08763</ele>
        <time>2014-08-07T10:12:59Z</time>
      </trkpt>
      <trkpt lat="49.2388" lon="1.12743">
        <ele>132.56927</ele>
        <time>2014-08-07T10:13:04Z</time>
      </trkpt>
      <trkpt lat="49.23868" lon="1.1274">
        <ele>133.154</ele>
        <time>2014-08-07T10:13:09Z</time>
      </trkpt>
      <trkpt lat="49.23854" lon="1.1274">
        <ele>133.81929</ele>
        <time>2014-08-07T10:13:14Z</time>
      </trkpt>
      <trkpt lat="49.23849" lon="1.12736">
        <ele>133.81929</ele>
        <time>2014-08-07T10:13:19Z</time>
      </trkpt>
      <trkpt lat="49.23845" lon="1.12728">
        <ele>134.50084</ele>
        <time>2014-08-07T10:13:24Z</time>
      </trkpt>
      <trkpt lat="49.23844" lon="1.12727">
        <ele>134.50084</ele>
        <time>2014-08-07T10:13:29Z</time>
      </trkpt>
      <trkpt lat="49.23841" lon="1.12723">
        <ele>134.50084</ele>
        <time>2014-08-07T10:13:34Z</time>
      </trkpt>
      <trkpt lat="49.23836" lon="1.1272">
        <ele>135.02374</ele>
        <time>2014-08-07T10:13:39Z</time>
      </trkpt>
      <trkpt lat="49.23832" lon="1.12716">
        <ele>135.02374</ele>
        <time>2014-08-07T10:13:44Z</time>
      </trkpt>
      <trkpt lat="49.23827" lon="1.12714">
        <ele>135.34169</ele>
        <time>2014-08-07T10:13:49Z</time>
      </trkpt>
      <trkpt lat="49.2382" lon="1.12713">
        <ele>135.34169</ele>
        <time>2014-08-07T10:13:54Z</time>
      </trkpt>
      <trkpt lat="49.23816" lon="1.12712">
        <ele>135.64299</ele>
        <time>2014-08-07T10:13:59Z</time>
      </trkpt>
      <trkpt lat="49.23808" lon="1.12711">
        <ele>135.64299</ele>
        <time>2014-08-07T10:14:04Z</time>
      </trkpt>
      <trkpt lat="49.23804" lon="1.12706">
        <ele>135.90039</ele>
        <time>2014-08-07T10:14:09Z</time>
      </trkpt>
      <trkpt lat="49.23799" lon="1.12703">
        <ele>135.90039</ele>
        <time>2014-08-07T10:14:14Z</time>
      </trkpt>
      <trkpt lat="49.23793" lon="1.12696">
        <ele>136.01672</ele>
        <time>2014-08-07T10:14:19Z</time>
      </trkpt>
      <trkpt lat="49.23793" lon="1.12696">
        <ele>136.01672</ele>
        <time>2014-08-07T10:14:24Z</time>
      </trkpt>
      <trkpt lat="49.23791" lon="1.12698">
        <ele>136.01672</ele>
        <time>2014-08-07T10:14:29Z</time>
      </trkpt>
      <trkpt lat="49.23785" lon="1.12696">
        <ele>136.01672</ele>
        <time>2014-08-07T10:14:34Z</time>
      </trkpt>
      <trkpt lat="49.23782" lon="1.12698">
        <ele>135.7727</ele>
        <time>2014-08-07T10:14:39Z</time>
      </trkpt>
      <trkpt lat="49.2378" lon="1.12699">
        <ele>135.7727</ele>
        <time>2014-08-07T10:14:44Z</time>
      </trkpt>
      <trkpt lat="49.23772" lon="1.12697">
        <ele>134.98056</ele>
        <time>2014-08-07T10:14:49Z</time>
      </trkpt>
      <trkpt lat="49.23766" lon="1.12694">
        <ele>134.98056</ele>
        <time>2014-08-07T10:14:54Z</time>
      </trkpt>
      <trkpt lat="49.23765" lon="1.12693">
        <ele>134.98056</ele>
        <time>2014-08-07T10:14:59Z</time>
      </trkpt>
      <trkpt lat="49.23764" lon="1.12694">
        <ele>134.98056</ele>
        <time>2014-08-07T10:15:04Z</time>
      </trkpt>
      <trkpt lat="49.2376" lon="1.12692">
        <ele>134.24605</ele>
        <time>2014-08-07T10:15:09Z</time>
      </trkpt>
      <trkpt lat="49.23752" lon="1.12686">
        <ele>133.6403</ele>
        <time>2014-08-07T10:15:14Z</time>
      </trkpt>
      <trkpt lat="49.23747" lon="1.12683">
        <ele>133.6403</ele>
        <time>2014-08-07T10:15:19Z</time>
      </trkpt>
      <trkpt lat="49.23748" lon="1.12679">
        <ele>133.6403</ele>
        <time>2014-08-07T10:15:24Z</time>
      </trkpt>
      <trkpt lat="49.23744" lon="1.12677">
        <ele>133.14236</ele>
        <time>2014-08-07T10:15:29Z</time>
      </trkpt>
      <trkpt lat="49.23737" lon="1.12676">
        <ele>133.14236</ele>
        <time>2014-08-07T10:15:34Z</time>
      </trkpt>
      <trkpt lat="49.23733" lon="1.12672">
        <ele>132.66045</ele>
        <time>2014-08-07T10:15:39Z</time>
      </trkpt>
      <trkpt lat="49.23729" lon="1.12667">
        <ele>132.66045</ele>
        <time>2014-08-07T10:15:44Z</time>
      </trkpt>
      <trkpt lat="49.23728" lon="1.12669">
        <ele>132.66045</ele>
        <time>2014-08-07T10:15:49Z</time>
      </trkpt>
      <trkpt lat="49.23726" lon="1.12674">
        <ele>132.21031</ele>
        <time>2014-08-07T10:15:54Z</time>
      </trkpt>
      <trkpt lat="49.23722" lon="1.12681">
        <ele>132.21031</ele>
        <time>2014-08-07T10:15:59Z</time>
      </trkpt>
      <trkpt lat="49.23718" lon="1.12684">
        <ele>131.57585</ele>
        <time>2014-08-07T10:16:04Z</time>
      </trkpt>
      <trkpt lat="49.23715" lon="1.12691">
        <ele>131.57585</ele>
        <time>2014-08-07T10:16:09Z</time>
      </trkpt>
      <trkpt lat="49.23716" lon="1.12692">
        <ele>131.57585</ele>
        <time>2014-08-07T10:16:14Z</time>
      </trkpt>
      <trkpt lat="49.23714" lon="1.12698">
        <ele>130.58615</ele>
        <time>2014-08-07T10:16:19Z</time>
      </trkpt>
      <trkpt lat="49.23714" lon="1.12701">
        <ele>130.58615</ele>
        <time>2014-08-07T10:16:24Z</time>
      </trkpt>
      <trkpt lat="49.23713" lon="1.12701">
        <ele>130.58615</ele>
        <time>2014-08-07T10:16:29Z</time>
      </trkpt>
      <trkpt lat="49.23713" lon="1.127">
        <ele>130.58615</ele>
        <time>2014-08-07T10:16:34Z</time>
      </trkpt>
      <trkpt lat="49.23714" lon="1.12699">
        <ele>130.58615</ele>
        <time>2014-08-07T10:16:39Z</time>
      </trkpt>
      <trkpt lat="49.23713" lon="1.12698">
        <ele>130.58615</ele>
        <time>2014-08-07T10:16:44Z</time>
      </trkpt>
      <trkpt lat="49.23713" lon="1.12697">
        <ele>130.58615</ele>
        <time>2014-08-07T10:16:49Z</time>
      </trkpt>
      <trkpt lat="49.23712" lon="1.12697">
        <ele>130.58615</ele>
        <time>2014-08-07T10:16:54Z</time>
      </trkpt>
      <trkpt lat="49.2371" lon="1.12698">
        <ele>129.4008</ele>
        <time>2014-08-07T10:16:59Z</time>
      </trkpt>
      <trkpt lat="49.23708" lon="1.127">
        <ele>129.4008</ele>
        <time>2014-08-07T10:17:04Z</time>
      </trkpt>
      <trkpt lat="49.23707" lon="1.12702">
        <ele>129.4008</ele>
        <time>2014-08-07T10:17:09Z</time>
      </trkpt>
      <trkpt lat="49.23709" lon="1.12708">
        <ele>129.4008</ele>
        <time>2014-08-07T10:17:14Z</time>
      </trkpt>
      <trkpt lat="49.23708" lon="1.12719">
        <ele>127.93766</ele>
        <time>2014-08-07T10:17:19Z</time>
      </trkpt>
      <trkpt lat="49.23709" lon="1.12722">
        <ele>127.93766</ele>
        <time>2014-08-07T10:17:24Z</time>
      </trkpt>
      <trkpt lat="49.23711" lon="1.1273">
        <ele>127.93766</ele>
        <time>2014-08-07T10:17:29Z</time>
      </trkpt>
      <trkpt lat="49.23713" lon="1.12738">
        <ele>126.726524</ele>
        <time>2014-08-07T10:17:34Z</time>
      </trkpt>
      <trkpt lat="49.23716" lon="1.12749">
        <ele>126.726524</ele>
        <time>2014-08-07T10:17:39Z</time>
      </trkpt>
      <trkpt lat="49.23719" lon="1.12757">
        <ele>125.580215</ele>
        <time>2014-08-07T10:17:44Z</time>
      </trkpt>
      <trkpt lat="49.2372" lon="1.12764">
        <ele>125.580215</ele>
        <time>2014-08-07T10:17:49Z</time>
      </trkpt>
      <trkpt lat="49.23722" lon="1.12772">
        <ele>124.44032</ele>
        <time>2014-08-07T10:17:54Z</time>
      </trkpt>
      <trkpt lat="49.23724" lon="1.12781">
        <ele>124.44032</ele>
        <time>2014-08-07T10:17:59Z</time>
      </trkpt>
      <trkpt lat="49.23724" lon="1.12789">
        <ele>123.33909</ele>
        <time>2014-08-07T10:18:04Z</time>
      </trkpt>
      <trkpt lat="49.23725" lon="1.12797">
        <ele>123.33909</ele>
        <time>2014-08-07T10:18:09Z</time>
      </trkpt>
      <trkpt lat="49.23726" lon="1.12806">
        <ele>122.29178</ele>
        <time>2014-08-07T10:18:14Z</time>
      </trkpt>
      <trkpt lat="49.23725" lon="1.12815">
        <ele>122.29178</ele>
        <time>2014-08-07T10:18:19Z</time>
      </trkpt>
      <trkpt lat="49.23727" lon="1.12821">
        <ele>121.31229</ele>
        <time>2014-08-07T10:18:24Z</time>
      </trkpt>
      <trkpt lat="49.23727" lon="1.12827">
        <ele>121.31229</ele>
        <time>2014-08-07T10:18:29Z</time>
      </trkpt>
      <trkpt lat="49.23727" lon="1.12836">
        <ele>120.442024</ele>
        <time>2014-08-07T10:18:34Z</time>
      </trkpt>
      <trkpt lat="49.23727" lon="1.12844">
        <ele>120.442024</ele>
        <time>2014-08-07T10:18:39Z</time>
      </trkpt>
      <trkpt lat="49.23729" lon="1.12853">
        <ele>119.6469</ele>
        <time>2014-08-07T10:18:44Z</time>
      </trkpt>
      <trkpt lat="49.2373" lon="1.12863">
        <ele>119.6469</ele>
        <time>2014-08-07T10:18:49Z</time>
      </trkpt>
      <trkpt lat="49.23731" lon="1.12874">
        <ele>118.92383</ele>
        <time>2014-08-07T10:18:54Z</time>
      </trkpt>
      <trkpt lat="49.23731" lon="1.12883">
        <ele>118.92383</ele>
        <time>2014-08-07T10:18:59Z</time>
      </trkpt>
      <trkpt lat="49.23731" lon="1.12891">
        <ele>118.32731</ele>
        <time>2014-08-07T10:19:04Z</time>
      </trkpt>
      <trkpt lat="49.23731" lon="1.12901">
        <ele>118.32731</ele>
        <time>2014-08-07T10:19:09Z</time>
      </trkpt>
      <trkpt lat="49.23731" lon="1.12909">
        <ele>117.921776</ele>
        <time>2014-08-07T10:19:14Z</time>
      </trkpt>
      <trkpt lat="49.23732" lon="1.12916">
        <ele>117.921776</ele>
        <time>2014-08-07T10:19:19Z</time>
      </trkpt>
      <trkpt lat="49.23733" lon="1.12923">
        <ele>117.636604</ele>
        <time>2014-08-07T10:19:24Z</time>
      </trkpt>
      <trkpt lat="49.23732" lon="1.12933">
        <ele>117.636604</ele>
        <time>2014-08-07T10:19:29Z</time>
      </trkpt>
      <trkpt lat="49.23733" lon="1.12942">
        <ele>117.42036</ele>
        <time>2014-08-07T10:19:34Z</time>
      </trkpt>
      <trkpt lat="49.23731" lon="1.12951">
        <ele>117.42036</ele>
        <time>2014-08-07T10:19:39Z</time>
      </trkpt>
      <trkpt lat="49.2373" lon="1.12961">
        <ele>117.153015</ele>
        <time>2014-08-07T10:19:44Z</time>
      </trkpt>
      <trkpt lat="49.23733" lon="1.12971">
        <ele>117.153015</ele>
        <time>2014-08-07T10:19:49Z</time>
      </trkpt>
      <trkpt lat="49.23733" lon="1.12977">
        <ele>116.88196</ele>
        <time>2014-08-07T10:19:54Z</time>
      </trkpt>
      <trkpt lat="49.2373" lon="1.12987">
        <ele>116.88196</ele>
        <time>2014-08-07T10:19:59Z</time>
      </trkpt>
      <trkpt lat="49.23728" lon="1.12996">
        <ele>116.766335</ele>
        <time>2014-08-07T10:20:04Z</time>
      </trkpt>
      <trkpt lat="49.23724" lon="1.13007">
        <ele>116.766335</ele>
        <time>2014-08-07T10:20:09Z</time>
      </trkpt>
      <trkpt lat="49.23722" lon="1.13013">
        <ele>116.7369</ele>
        <time>2014-08-07T10:20:14Z</time>
      </trkpt>
      <trkpt lat="49.2372" lon="1.13021">
        <ele>116.7369</ele>
        <time>2014-08-07T10:20:19Z</time>
      </trkpt>
      <trkpt lat="49.23718" lon="1.13035">
        <ele>116.801254</ele>
        <time>2014-08-07T10:20:24Z</time>
      </trkpt>
      <trkpt lat="49.23717" lon="1.13038">
        <ele>116.801254</ele>
        <time>2014-08-07T10:20:29Z</time>
      </trkpt>
      <trkpt lat="49.23715" lon="1.13048">
        <ele>116.95171</ele>
        <time>2014-08-07T10:20:34Z</time>
      </trkpt>
      <trkpt lat="49.23712" lon="1.13057">
        <ele>116.95171</ele>
        <time>2014-08-07T10:20:39Z</time>
      </trkpt>
      <trkpt lat="49.23712" lon="1.13065">
        <ele>117.13761</ele>
        <time>2014-08-07T10:20:44Z</time>
      </trkpt>
      <trkpt lat="49.23711" lon="1.13075">
        <ele>117.13761</ele>
        <time>2014-08-07T10:20:49Z</time>
      </trkpt>
      <trkpt lat="49.23709" lon="1.13082">
        <ele>117.28306</ele>
        <time>2014-08-07T10:20:54Z</time>
      </trkpt>
      <trkpt lat="49.23707" lon="1.13091">
        <ele>117.28306</ele>
        <time>2014-08-07T10:20:59Z</time>
      </trkpt>
      <trkpt lat="49.23705" lon="1.13101">
        <ele>117.37545</ele>
        <time>2014-08-07T10:21:04Z</time>
      </trkpt>
      <trkpt lat="49.23703" lon="1.13108">
        <ele>117.37545</ele>
        <time>2014-08-07T10:21:09Z</time>
      </trkpt>
      <trkpt lat="49.23701" lon="1.1312">
        <ele>117.48968</ele>
        <time>2014-08-07T10:21:14Z</time>
      </trkpt>
      <trkpt lat="49.237" lon="1.13128">
        <ele>117.48968</ele>
        <time>2014-08-07T10:21:19Z</time>
      </trkpt>
      <trkpt lat="49.23698" lon="1.13136">
        <ele>117.56537</ele>
        <time>2014-08-07T10:21:24Z</time>
      </trkpt>
      <trkpt lat="49.23695" lon="1.13143">
        <ele>117.56537</ele>
        <time>2014-08-07T10:21:29Z</time>
      </trkpt>
      <trkpt lat="49.23693" lon="1.13149">
        <ele>117.633125</ele>
        <time>2014-08-07T10:21:34Z</time>
      </trkpt>
      <trkpt lat="49.2369" lon="1.13157">
        <ele>117.633125</ele>
        <time>2014-08-07T10:21:39Z</time>
      </trkpt>
      <trkpt lat="49.23687" lon="1.13166">
        <ele>117.63483</ele>
        <time>2014-08-07T10:21:44Z</time>
      </trkpt>
      <trkpt lat="49.23685" lon="1.13174">
        <ele>117.63483</ele>
        <time>2014-08-07T10:21:49Z</time>
      </trkpt>
      <trkpt lat="49.23683" lon="1.13184">
        <ele>117.48801</ele>
        <time>2014-08-07T10:21:54Z</time>
      </trkpt>
      <trkpt lat="49.23682" lon="1.13192">
        <ele>117.48801</ele>
        <time>2014-08-07T10:21:59Z</time>
      </trkpt>
      <trkpt lat="49.23681" lon="1.13204">
        <ele>117.39045</ele>
        <time>2014-08-07T10:22:04Z</time>
      </trkpt>
      <trkpt lat="49.2368" lon="1.13214">
        <ele>117.39045</ele>
        <time>2014-08-07T10:22:09Z</time>
      </trkpt>
      <trkpt lat="49.23678" lon="1.13221">
        <ele>117.33792</ele>
        <time>2014-08-07T10:22:14Z</time>
      </trkpt>
      <trkpt lat="49.23676" lon="1.13229">
        <ele>117.33792</ele>
        <time>2014-08-07T10:22:19Z</time>
      </trkpt>
      <trkpt lat="49.23675" lon="1.13238">
        <ele>117.28316</ele>
        <time>2014-08-07T10:22:24Z</time>
      </trkpt>
      <trkpt lat="49.23675" lon="1.13247">
        <ele>117.28316</ele>
        <time>2014-08-07T10:22:29Z</time>
      </trkpt>
      <trkpt lat="49.23673" lon="1.13258">
        <ele>117.28322</ele>
        <time>2014-08-07T10:22:34Z</time>
      </trkpt>
      <trkpt lat="49.23672" lon="1.13265">
        <ele>117.28322</ele>
        <time>2014-08-07T10:22:39Z</time>
      </trkpt>
      <trkpt lat="49.23669" lon="1.13275">
        <ele>117.318794</ele>
        <time>2014-08-07T10:22:44Z</time>
      </trkpt>
      <trkpt lat="49.23667" lon="1.13282">
        <ele>117.318794</ele>
        <time>2014-08-07T10:22:49Z</time>
      </trkpt>
      <trkpt lat="49.23668" lon="1.13288">
        <ele>117.34306</ele>
        <time>2014-08-07T10:22:54Z</time>
      </trkpt>
      <trkpt lat="49.23665" lon="1.13296">
        <ele>117.34306</ele>
        <time>2014-08-07T10:22:59Z</time>
      </trkpt>
      <trkpt lat="49.23661" lon="1.13304">
        <ele>117.25502</ele>
        <time>2014-08-07T10:23:04Z</time>
      </trkpt>
      <trkpt lat="49.2366" lon="1.13307">
        <ele>117.25502</ele>
        <time>2014-08-07T10:23:09Z</time>
      </trkpt>
      <trkpt lat="49.2366" lon="1.13307">
        <ele>117.25502</ele>
        <time>2014-08-07T10:23:14Z</time>
      </trkpt>
      <trkpt lat="49.23662" lon="1.13307">
        <ele>117.25502</ele>
        <time>2014-08-07T10:23:19Z</time>
      </trkpt>
      <trkpt lat="49.23662" lon="1.13307">
        <ele>117.25502</ele>
        <time>2014-08-07T10:23:24Z</time>
      </trkpt>
      <trkpt lat="49.23662" lon="1.13306">
        <ele>117.25502</ele>
        <time>2014-08-07T10:23:29Z</time>
      </trkpt>
      <trkpt lat="49.23664" lon="1.13304">
        <ele>117.25502</ele>
        <time>2014-08-07T10:23:34Z</time>
      </trkpt>
      <trkpt lat="49.23666" lon="1.13303">
        <ele>116.94702</ele>
        <time>2014-08-07T10:23:39Z</time>
      </trkpt>
      <trkpt lat="49.23667" lon="1.13301">
        <ele>116.94702</ele>
        <time>2014-08-07T10:23:44Z</time>
      </trkpt>
      <trkpt lat="49.23667" lon="1.13301">
        <ele>116.94702</ele>
        <time>2014-08-07T10:23:49Z</time>
      </trkpt>
      <trkpt lat="49.23666" lon="1.13302">
        <ele>116.94702</ele>
        <time>2014-08-07T10:24:04Z</time>
      </trkpt>
      <trkpt lat="49.23666" lon="1.13302">
        <ele>116.94702</ele>
        <time>2014-08-07T10:24:09Z</time>
      </trkpt>
      <trkpt lat="49.23666" lon="1.13303">
        <ele>116.94702</ele>
        <time>2014-08-07T10:24:14Z</time>
      </trkpt>
      <trkpt lat="49.23665" lon="1.13304">
        <ele>116.94702</ele>
        <time>2014-08-07T10:24:19Z</time>
      </trkpt>
      <trkpt lat="49.23665" lon="1.13304">
        <ele>116.94702</ele>
        <time>2014-08-07T10:24:24Z</time>
      </trkpt>
      <trkpt lat="49.23663" lon="1.13309">
        <ele>116.94702</ele>
        <time>2014-08-07T10:24:29Z</time>
      </trkpt>
      <trkpt lat="49.2366" lon="1.13311">
        <ele>116.83874</ele>
        <time>2014-08-07T10:24:34Z</time>
      </trkpt>
      <trkpt lat="49.2366" lon="1.13311">
        <ele>116.83874</ele>
        <time>2014-08-07T10:24:39Z</time>
      </trkpt>
      <trkpt lat="49.23657" lon="1.13312">
        <ele>116.83874</ele>
        <time>2014-08-07T10:24:49Z</time>
      </trkpt>
      <trkpt lat="49.23653" lon="1.13312">
        <ele>116.83874</ele>
        <time>2014-08-07T10:24:54Z</time>
      </trkpt>
      <trkpt lat="49.23651" lon="1.13311">
        <ele>116.83874</ele>
        <time>2014-08-07T10:24:59Z</time>
      </trkpt>
      <trkpt lat="49.23646" lon="1.1331">
        <ele>116.66996</ele>
        <time>2014-08-07T10:25:04Z</time>
      </trkpt>
      <trkpt lat="49.23638" lon="1.13308">
        <ele>116.66996</ele>
        <time>2014-08-07T10:25:09Z</time>
      </trkpt>
      <trkpt lat="49.23637" lon="1.13307">
        <ele>116.66996</ele>
        <time>2014-08-07T10:25:14Z</time>
      </trkpt>
      <trkpt lat="49.23635" lon="1.13305">
        <ele>116.43036</ele>
        <time>2014-08-07T10:25:19Z</time>
      </trkpt>
      <trkpt lat="49.23628" lon="1.13302">
        <ele>116.43036</ele>
        <time>2014-08-07T10:25:24Z</time>
      </trkpt>
      <trkpt lat="49.2362" lon="1.13301">
        <ele>116.11057</ele>
        <time>2014-08-07T10:25:29Z</time>
      </trkpt>
      <trkpt lat="49.23616" lon="1.13298">
        <ele>116.11057</ele>
        <time>2014-08-07T10:25:34Z</time>
      </trkpt>
      <trkpt lat="49.2361" lon="1.13295">
        <ele>115.83186</ele>
        <time>2014-08-07T10:25:39Z</time>
      </trkpt>
      <trkpt lat="49.23607" lon="1.13293">
        <ele>115.83186</ele>
        <time>2014-08-07T10:25:44Z</time>
      </trkpt>
      <trkpt lat="49.236" lon="1.13291">
        <ele>115.53353</ele>
        <time>2014-08-07T10:25:49Z</time>
      </trkpt>
      <trkpt lat="49.23594" lon="1.13286">
        <ele>115.53353</ele>
        <time>2014-08-07T10:25:54Z</time>
      </trkpt>
      <trkpt lat="49.23583" lon="1.13281">
        <ele>115.24588</ele>
        <time>2014-08-07T10:25:59Z</time>
      </trkpt>
      <trkpt lat="49.23574" lon="1.13278">
        <ele>115.02578</ele>
        <time>2014-08-07T10:26:04Z</time>
      </trkpt>
      <trkpt lat="49.23568" lon="1.13276">
        <ele>115.02578</ele>
        <time>2014-08-07T10:26:09Z</time>
      </trkpt>
      <trkpt lat="49.23563" lon="1.13275">
        <ele>114.91135</ele>
        <time>2014-08-07T10:26:14Z</time>
      </trkpt>
      <trkpt lat="49.23561" lon="1.13272">
        <ele>114.91135</ele>
        <time>2014-08-07T10:26:19Z</time>
      </trkpt>
      <trkpt lat="49.23553" lon="1.13266">
        <ele>114.92317</ele>
        <time>2014-08-07T10:26:24Z</time>
      </trkpt>
      <trkpt lat="49.23546" lon="1.13263">
        <ele>114.92317</ele>
        <time>2014-08-07T10:26:29Z</time>
      </trkpt>
      <trkpt lat="49.23539" lon="1.13262">
        <ele>115.03677</ele>
        <time>2014-08-07T10:26:34Z</time>
      </trkpt>
      <trkpt lat="49.2353" lon="1.13258">
        <ele>115.2436</ele>
        <time>2014-08-07T10:26:39Z</time>
      </trkpt>
      <trkpt lat="49.23523" lon="1.13253">
        <ele>115.2436</ele>
        <time>2014-08-07T10:26:44Z</time>
      </trkpt>
      <trkpt lat="49.23517" lon="1.13251">
        <ele>115.650764</ele>
        <time>2014-08-07T10:26:49Z</time>
      </trkpt>
      <trkpt lat="49.2351" lon="1.1325">
        <ele>115.650764</ele>
        <time>2014-08-07T10:26:54Z</time>
      </trkpt>
      <trkpt lat="49.23503" lon="1.13244">
        <ele>116.2705</ele>
        <time>2014-08-07T10:26:59Z</time>
      </trkpt>
      <trkpt lat="49.23498" lon="1.13239">
        <ele>116.2705</ele>
        <time>2014-08-07T10:27:04Z</time>
      </trkpt>
      <trkpt lat="49.23492" lon="1.13238">
        <ele>116.92622</ele>
        <time>2014-08-07T10:27:09Z</time>
      </trkpt>
      <trkpt lat="49.23486" lon="1.13236">
        <ele>116.92622</ele>
        <time>2014-08-07T10:27:14Z</time>
      </trkpt>
      <trkpt lat="49.23481" lon="1.13233">
        <ele>117.46866</ele>
        <time>2014-08-07T10:27:19Z</time>
      </trkpt>
      <trkpt lat="49.23474" lon="1.13228">
        <ele>117.46866</ele>
        <time>2014-08-07T10:27:24Z</time>
      </trkpt>
      <trkpt lat="49.23465" lon="1.13225">
        <ele>117.78867</ele>
        <time>2014-08-07T10:27:29Z</time>
      </trkpt>
      <trkpt lat="49.2346" lon="1.13226">
        <ele>117.78867</ele>
        <time>2014-08-07T10:27:34Z</time>
      </trkpt>
      <trkpt lat="49.23455" lon="1.13222">
        <ele>117.958725</ele>
        <time>2014-08-07T10:27:39Z</time>
      </trkpt>
      <trkpt lat="49.23451" lon="1.1322">
        <ele>117.958725</ele>
        <time>2014-08-07T10:27:44Z</time>
      </trkpt>
      <trkpt lat="49.23451" lon="1.13219">
        <ele>117.958725</ele>
        <time>2014-08-07T10:27:49Z</time>
      </trkpt>
      <trkpt lat="49.23451" lon="1.13219">
        <ele>117.958725</ele>
        <time>2014-08-07T10:27:54Z</time>
      </trkpt>
      <trkpt lat="49.23445" lon="1.13216">
        <ele>117.51321</ele>
        <time>2014-08-07T10:27:59Z</time>
      </trkpt>
      <trkpt lat="49.23442" lon="1.13216">
        <ele>117.51321</ele>
        <time>2014-08-07T10:28:04Z</time>
      </trkpt>
      <trkpt lat="49.23437" lon="1.13215">
        <ele>117.51321</ele>
        <time>2014-08-07T10:28:09Z</time>
      </trkpt>
      <trkpt lat="49.23433" lon="1.13212">
        <ele>116.78626</ele>
        <time>2014-08-07T10:28:14Z</time>
      </trkpt>
      <trkpt lat="49.2343" lon="1.1321">
        <ele>116.78626</ele>
        <time>2014-08-07T10:28:19Z</time>
      </trkpt>
      <trkpt lat="49.23427" lon="1.13209">
        <ele>116.78626</ele>
        <time>2014-08-07T10:28:24Z</time>
      </trkpt>
      <trkpt lat="49.23424" lon="1.13208">
        <ele>115.75686</ele>
        <time>2014-08-07T10:28:29Z</time>
      </trkpt>
      <trkpt lat="49.23419" lon="1.13209">
        <ele>115.75686</ele>
        <time>2014-08-07T10:28:34Z</time>
      </trkpt>
      <trkpt lat="49.23416" lon="1.13206">
        <ele>115.75686</ele>
        <time>2014-08-07T10:28:39Z</time>
      </trkpt>
      <trkpt lat="49.23413" lon="1.13203">
        <ele>114.4496</ele>
        <time>2014-08-07T10:28:44Z</time>
      </trkpt>
      <trkpt lat="49.23406" lon="1.13201">
        <ele>114.4496</ele>
        <time>2014-08-07T10:28:49Z</time>
      </trkpt>
      <trkpt lat="49.234" lon="1.13199">
        <ele>113.00337</ele>
        <time>2014-08-07T10:28:54Z</time>
      </trkpt>
      <trkpt lat="49.23398" lon="1.13198">
        <ele>113.00337</ele>
        <time>2014-08-07T10:28:59Z</time>
      </trkpt>
      <trkpt lat="49.23396" lon="1.13197">
        <ele>113.00337</ele>
        <time>2014-08-07T10:29:04Z</time>
      </trkpt>
      <trkpt lat="49.23392" lon="1.13197">
        <ele>113.00337</ele>
        <time>2014-08-07T10:29:09Z</time>
      </trkpt>
      <trkpt lat="49.23391" lon="1.13196">
        <ele>112.080765</ele>
        <time>2014-08-07T10:29:14Z</time>
      </trkpt>
      <trkpt lat="49.23389" lon="1.13195">
        <ele>111.158165</ele>
        <time>2014-08-07T10:29:19Z</time>
      </trkpt>
      <trkpt lat="49.23388" lon="1.13192">
        <ele>111.158165</ele>
        <time>2014-08-07T10:29:24Z</time>
      </trkpt>
      <trkpt lat="49.23386" lon="1.1319">
        <ele>111.158165</ele>
        <time>2014-08-07T10:29:29Z</time>
      </trkpt>
      <trkpt lat="49.23382" lon="1.13187">
        <ele>108.9912</ele>
        <time>2014-08-07T10:29:34Z</time>
      </trkpt>
      <trkpt lat="49.2338" lon="1.13185">
        <ele>108.9912</ele>
        <time>2014-08-07T10:29:39Z</time>
      </trkpt>
      <trkpt lat="49.23376" lon="1.13183">
        <ele>108.9912</ele>
        <time>2014-08-07T10:29:44Z</time>
      </trkpt>
      <trkpt lat="49.23372" lon="1.13182">
        <ele>106.502884</ele>
        <time>2014-08-07T10:29:49Z</time>
      </trkpt>
      <trkpt lat="49.23368" lon="1.13183">
        <ele>106.502884</ele>
        <time>2014-08-07T10:29:54Z</time>
      </trkpt>
      <trkpt lat="49.23362" lon="1.13184">
        <ele>103.939415</ele>
        <time>2014-08-07T10:29:59Z</time>
      </trkpt>
      <trkpt lat="49.23359" lon="1.1318">
        <ele>103.939415</ele>
        <time>2014-08-07T10:30:04Z</time>
      </trkpt>
      <trkpt lat="49.23354" lon="1.13177">
        <ele>101.1544</ele>
        <time>2014-08-07T10:30:09Z</time>
      </trkpt>
      <trkpt lat="49.23352" lon="1.13177">
        <ele>101.1544</ele>
        <time>2014-08-07T10:30:14Z</time>
      </trkpt>
      <trkpt lat="49.23351" lon="1.13174">
        <ele>101.1544</ele>
        <time>2014-08-07T10:30:19Z</time>
      </trkpt>
      <trkpt lat="49.23347" lon="1.13174">
        <ele>101.1544</ele>
        <time>2014-08-07T10:30:24Z</time>
      </trkpt>
      <trkpt lat="49.23342" lon="1.13174">
        <ele>98.18568</ele>
        <time>2014-08-07T10:30:29Z</time>
      </trkpt>
      <trkpt lat="49.23336" lon="1.13171">
        <ele>98.18568</ele>
        <time>2014-08-07T10:30:34Z</time>
      </trkpt>
      <trkpt lat="49.23329" lon="1.13165">
        <ele>95.2993</ele>
        <time>2014-08-07T10:30:39Z</time>
      </trkpt>
      <trkpt lat="49.23327" lon="1.13163">
        <ele>95.2993</ele>
        <time>2014-08-07T10:30:44Z</time>
      </trkpt>
      <trkpt lat="49.23324" lon="1.1316">
        <ele>95.2993</ele>
        <time>2014-08-07T10:30:49Z</time>
      </trkpt>
      <trkpt lat="49.23319" lon="1.13159">
        <ele>92.3812</ele>
        <time>2014-08-07T10:30:54Z</time>
      </trkpt>
      <trkpt lat="49.23312" lon="1.13156">
        <ele>92.3812</ele>
        <time>2014-08-07T10:30:59Z</time>
      </trkpt>
      <trkpt lat="49.23308" lon="1.13151">
        <ele>89.74357</ele>
        <time>2014-08-07T10:31:04Z</time>
      </trkpt>
      <trkpt lat="49.23302" lon="1.13148">
        <ele>89.74357</ele>
        <time>2014-08-07T10:31:09Z</time>
      </trkpt>
      <trkpt lat="49.23299" lon="1.13148">
        <ele>87.34329</ele>
        <time>2014-08-07T10:31:14Z</time>
      </trkpt>
      <trkpt lat="49.23299" lon="1.13149">
        <ele>87.34329</ele>
        <time>2014-08-07T10:31:19Z</time>
      </trkpt>
      <trkpt lat="49.23295" lon="1.13149">
        <ele>87.34329</ele>
        <time>2014-08-07T10:31:24Z</time>
      </trkpt>
      <trkpt lat="49.23294" lon="1.13149">
        <ele>87.34329</ele>
        <time>2014-08-07T10:31:29Z</time>
      </trkpt>
      <trkpt lat="49.23293" lon="1.13148">
        <ele>87.34329</ele>
        <time>2014-08-07T10:31:34Z</time>
      </trkpt>
      <trkpt lat="49.23291" lon="1.13145">
        <ele>84.93787</ele>
        <time>2014-08-07T10:31:39Z</time>
      </trkpt>
      <trkpt lat="49.2329" lon="1.13148">
        <ele>84.93787</ele>
        <time>2014-08-07T10:31:44Z</time>
      </trkpt>
      <trkpt lat="49.23289" lon="1.13148">
        <ele>84.93787</ele>
        <time>2014-08-07T10:31:49Z</time>
      </trkpt>
      <trkpt lat="49.23279" lon="1.13144">
        <ele>82.403366</ele>
        <time>2014-08-07T10:31:54Z</time>
      </trkpt>
      <trkpt lat="49.23273" lon="1.13143">
        <ele>82.403366</ele>
        <time>2014-08-07T10:31:59Z</time>
      </trkpt>
      <trkpt lat="49.2327" lon="1.13139">
        <ele>79.99985</ele>
        <time>2014-08-07T10:32:04Z</time>
      </trkpt>
      <trkpt lat="49.23267" lon="1.13139">
        <ele>79.99985</ele>
        <time>2014-08-07T10:32:09Z</time>
      </trkpt>
      <trkpt lat="49.23264" lon="1.13138">
        <ele>79.99985</ele>
        <time>2014-08-07T10:32:14Z</time>
      </trkpt>
      <trkpt lat="49.23258" lon="1.13135">
        <ele>77.39133</ele>
        <time>2014-08-07T10:32:19Z</time>
      </trkpt>
      <trkpt lat="49.23251" lon="1.13131">
        <ele>77.39133</ele>
        <time>2014-08-07T10:32:24Z</time>
      </trkpt>
      <trkpt lat="49.23244" lon="1.13128">
        <ele>74.6704</ele>
        <time>2014-08-07T10:32:29Z</time>
      </trkpt>
      <trkpt lat="49.23244" lon="1.13126">
        <ele>74.6704</ele>
        <time>2014-08-07T10:32:34Z</time>
      </trkpt>
      <trkpt lat="49.23242" lon="1.13124">
        <ele>74.6704</ele>
        <time>2014-08-07T10:32:39Z</time>
      </trkpt>
      <trkpt lat="49.23241" lon="1.13122">
        <ele>74.6704</ele>
        <time>2014-08-07T10:32:44Z</time>
      </trkpt>
      <trkpt lat="49.23235" lon="1.13119">
        <ele>71.72128</ele>
        <time>2014-08-07T10:32:49Z</time>
      </trkpt>
      <trkpt lat="49.23231" lon="1.13119">
        <ele>71.72128</ele>
        <time>2014-08-07T10:32:54Z</time>
      </trkpt>
      <trkpt lat="49.23226" lon="1.13118">
        <ele>68.88389</ele>
        <time>2014-08-07T10:32:59Z</time>
      </trkpt>
      <trkpt lat="49.2322" lon="1.13118">
        <ele>68.88389</ele>
        <time>2014-08-07T10:33:04Z</time>
      </trkpt>
      <trkpt lat="49.23217" lon="1.13117">
        <ele>68.88389</ele>
        <time>2014-08-07T10:33:09Z</time>
      </trkpt>
      <trkpt lat="49.23213" lon="1.13116">
        <ele>66.41505</ele>
        <time>2014-08-07T10:33:14Z</time>
      </trkpt>
      <trkpt lat="49.23211" lon="1.13115">
        <ele>66.41505</ele>
        <time>2014-08-07T10:33:19Z</time>
      </trkpt>
      <trkpt lat="49.2321" lon="1.13112">
        <ele>66.41505</ele>
        <time>2014-08-07T10:33:24Z</time>
      </trkpt>
      <trkpt lat="49.23207" lon="1.13108">
        <ele>66.41505</ele>
        <time>2014-08-07T10:33:29Z</time>
      </trkpt>
      <trkpt lat="49.23206" lon="1.13104">
        <ele>64.2777</ele>
        <time>2014-08-07T10:33:34Z</time>
      </trkpt>
      <trkpt lat="49.23205" lon="1.13102">
        <ele>64.2777</ele>
        <time>2014-08-07T10:33:39Z</time>
      </trkpt>
      <trkpt lat="49.23205" lon="1.13102">
        <ele>64.2777</ele>
        <time>2014-08-07T10:33:44Z</time>
      </trkpt>
      <trkpt lat="49.23203" lon="1.13101">
        <ele>64.2777</ele>
        <time>2014-08-07T10:33:49Z</time>
      </trkpt>
      <trkpt lat="49.23201" lon="1.13099">
        <ele>64.2777</ele>
        <time>2014-08-07T10:33:54Z</time>
      </trkpt>
      <trkpt lat="49.23199" lon="1.13098">
        <ele>64.2777</ele>
        <time>2014-08-07T10:33:59Z</time>
      </trkpt>
      <trkpt lat="49.23198" lon="1.13099">
        <ele>62.27788</ele>
        <time>2014-08-07T10:34:04Z</time>
      </trkpt>
      <trkpt lat="49.23196" lon="1.13098">
        <ele>62.27788</ele>
        <time>2014-08-07T10:34:09Z</time>
      </trkpt>
      <trkpt lat="49.23197" lon="1.13096">
        <ele>62.27788</ele>
        <time>2014-08-07T10:34:14Z</time>
      </trkpt>
      <trkpt lat="49.23199" lon="1.13096">
        <ele>62.27788</ele>
        <time>2014-08-07T10:34:19Z</time>
      </trkpt>
      <trkpt lat="49.23199" lon="1.13097">
        <ele>62.27788</ele>
        <time>2014-08-07T10:34:24Z</time>
      </trkpt>
      <trkpt lat="49.232" lon="1.13098">
        <ele>62.27788</ele>
        <time>2014-08-07T10:34:29Z</time>
      </trkpt>
      <trkpt lat="49.232" lon="1.13099">
        <ele>62.27788</ele>
        <time>2014-08-07T10:34:34Z</time>
      </trkpt>
      <trkpt lat="49.23202" lon="1.13102">
        <ele>60.826176</ele>
        <time>2014-08-07T10:34:39Z</time>
      </trkpt>
      <trkpt lat="49.23201" lon="1.13102">
        <ele>60.826176</ele>
        <time>2014-08-07T10:34:44Z</time>
      </trkpt>
      <trkpt lat="49.232" lon="1.13101">
        <ele>60.826176</ele>
        <time>2014-08-07T10:34:49Z</time>
      </trkpt>
      <trkpt lat="49.23195" lon="1.131">
        <ele>60.826176</ele>
        <time>2014-08-07T10:34:54Z</time>
      </trkpt>
      <trkpt lat="49.23196" lon="1.131">
        <ele>59.451046</ele>
        <time>2014-08-07T10:34:59Z</time>
      </trkpt>
      <trkpt lat="49.23194" lon="1.131">
        <ele>59.451046</ele>
        <time>2014-08-07T10:35:04Z</time>
      </trkpt>
      <trkpt lat="49.23191" lon="1.13099">
        <ele>59.451046</ele>
        <time>2014-08-07T10:35:09Z</time>
      </trkpt>
      <trkpt lat="49.23191" lon="1.13099">
        <ele>59.451046</ele>
        <time>2014-08-07T10:35:14Z</time>
      </trkpt>
      <trkpt lat="49.23189" lon="1.13098">
        <ele>59.451046</ele>
        <time>2014-08-07T10:35:24Z</time>
      </trkpt>
      <trkpt lat="49.23186" lon="1.13097">
        <ele>57.916973</ele>
        <time>2014-08-07T10:35:29Z</time>
      </trkpt>
      <trkpt lat="49.23185" lon="1.13096">
        <ele>57.916973</ele>
        <time>2014-08-07T10:35:34Z</time>
      </trkpt>
      <trkpt lat="49.23184" lon="1.13096">
        <ele>57.916973</ele>
        <time>2014-08-07T10:35:39Z</time>
      </trkpt>
      <trkpt lat="49.23181" lon="1.13094">
        <ele>57.916973</ele>
        <time>2014-08-07T10:35:44Z</time>
      </trkpt>
      <trkpt lat="49.23181" lon="1.13094">
        <ele>57.916973</ele>
        <time>2014-08-07T10:35:49Z</time>
      </trkpt>
      <trkpt lat="49.23178" lon="1.13093">
        <ele>57.916973</ele>
        <time>2014-08-07T10:35:54Z</time>
      </trkpt>
      <trkpt lat="49.2317" lon="1.1309">
        <ele>56.668953</ele>
        <time>2014-08-07T10:35:59Z</time>
      </trkpt>
      <trkpt lat="49.2317" lon="1.13089">
        <ele>56.668953</ele>
        <time>2014-08-07T10:36:04Z</time>
      </trkpt>
      <trkpt lat="49.23164" lon="1.13086">
        <ele>56.668953</ele>
        <time>2014-08-07T10:36:09Z</time>
      </trkpt>
      <trkpt lat="49.23156" lon="1.13083">
        <ele>55.97424</ele>
        <time>2014-08-07T10:36:14Z</time>
      </trkpt>
      <trkpt lat="49.23149" lon="1.13083">
        <ele>55.97424</ele>
        <time>2014-08-07T10:36:19Z</time>
      </trkpt>
      <trkpt lat="49.23145" lon="1.13079">
        <ele>55.6032</ele>
        <time>2014-08-07T10:36:24Z</time>
      </trkpt>
      <trkpt lat="49.23138" lon="1.13077">
        <ele>55.6032</ele>
        <time>2014-08-07T10:36:29Z</time>
      </trkpt>
      <trkpt lat="49.23133" lon="1.1308">
        <ele>55.587044</ele>
        <time>2014-08-07T10:36:34Z</time>
      </trkpt>
      <trkpt lat="49.2312" lon="1.13082">
        <ele>55.91037</ele>
        <time>2014-08-07T10:36:39Z</time>
      </trkpt>
      <trkpt lat="49.23116" lon="1.13081">
        <ele>55.91037</ele>
        <time>2014-08-07T10:36:44Z</time>
      </trkpt>
      <trkpt lat="49.23103" lon="1.13073">
        <ele>56.644337</ele>
        <time>2014-08-07T10:36:49Z</time>
      </trkpt>
      <trkpt lat="49.23091" lon="1.13065">
        <ele>57.59427</ele>
        <time>2014-08-07T10:36:54Z</time>
      </trkpt>
      <trkpt lat="49.23081" lon="1.1306">
        <ele>58.694435</ele>
        <time>2014-08-07T10:36:59Z</time>
      </trkpt>
      <trkpt lat="49.23076" lon="1.13058">
        <ele>58.694435</ele>
        <time>2014-08-07T10:37:04Z</time>
      </trkpt>
      <trkpt lat="49.23072" lon="1.13056">
        <ele>59.8691</ele>
        <time>2014-08-07T10:37:09Z</time>
      </trkpt>
      <trkpt lat="49.23068" lon="1.13053">
        <ele>59.8691</ele>
        <time>2014-08-07T10:37:14Z</time>
      </trkpt>
      <trkpt lat="49.23061" lon="1.1305">
        <ele>61.04787</ele>
        <time>2014-08-07T10:37:19Z</time>
      </trkpt>
      <trkpt lat="49.23056" lon="1.13046">
        <ele>61.04787</ele>
        <time>2014-08-07T10:37:24Z</time>
      </trkpt>
      <trkpt lat="49.23052" lon="1.13044">
        <ele>62.208797</ele>
        <time>2014-08-07T10:37:29Z</time>
      </trkpt>
      <trkpt lat="49.23047" lon="1.13039">
        <ele>62.208797</ele>
        <time>2014-08-07T10:37:34Z</time>
      </trkpt>
      <trkpt lat="49.23045" lon="1.13035">
        <ele>63.173103</ele>
        <time>2014-08-07T10:37:39Z</time>
      </trkpt>
      <trkpt lat="49.23042" lon="1.13032">
        <ele>63.173103</ele>
        <time>2014-08-07T10:37:44Z</time>
      </trkpt>
      <trkpt lat="49.23036" lon="1.13027">
        <ele>63.89106</ele>
        <time>2014-08-07T10:37:49Z</time>
      </trkpt>
      <trkpt lat="49.23033" lon="1.13025">
        <ele>63.89106</ele>
        <time>2014-08-07T10:37:54Z</time>
      </trkpt>
      <trkpt lat="49.23032" lon="1.13025">
        <ele>63.89106</ele>
        <time>2014-08-07T10:37:59Z</time>
      </trkpt>
      <trkpt lat="49.23027" lon="1.13021">
        <ele>64.60558</ele>
        <time>2014-08-07T10:38:04Z</time>
      </trkpt>
      <trkpt lat="49.23025" lon="1.13021">
        <ele>64.60558</ele>
        <time>2014-08-07T10:38:09Z</time>
      </trkpt>
      <trkpt lat="49.23024" lon="1.1302">
        <ele>64.60558</ele>
        <time>2014-08-07T10:38:14Z</time>
      </trkpt>
      <trkpt lat="49.23023" lon="1.1302">
        <ele>64.60558</ele>
        <time>2014-08-07T10:38:19Z</time>
      </trkpt>
      <trkpt lat="49.23018" lon="1.13017">
        <ele>65.55625</ele>
        <time>2014-08-07T10:38:24Z</time>
      </trkpt>
      <trkpt lat="49.23016" lon="1.13016">
        <ele>65.55625</ele>
        <time>2014-08-07T10:38:29Z</time>
      </trkpt>
      <trkpt lat="49.23015" lon="1.13015">
        <ele>65.55625</ele>
        <time>2014-08-07T10:38:34Z</time>
      </trkpt>
      <trkpt lat="49.23013" lon="1.13013">
        <ele>65.55625</ele>
        <time>2014-08-07T10:38:39Z</time>
      </trkpt>
      <trkpt lat="49.23013" lon="1.13013">
        <ele>65.55625</ele>
        <time>2014-08-07T10:38:44Z</time>
      </trkpt>
      <trkpt lat="49.23009" lon="1.13011">
        <ele>66.589806</ele>
        <time>2014-08-07T10:38:49Z</time>
      </trkpt>
      <trkpt lat="49.23" lon="1.13009">
        <ele>67.5353</ele>
        <time>2014-08-07T10:38:54Z</time>
      </trkpt>
      <trkpt lat="49.23" lon="1.13009">
        <ele>67.5353</ele>
        <time>2014-08-07T10:38:59Z</time>
      </trkpt>
      <trkpt lat="49.23" lon="1.1301">
        <ele>67.5353</ele>
        <time>2014-08-07T10:39:04Z</time>
      </trkpt>
      <trkpt lat="49.22998" lon="1.13011">
        <ele>67.5353</ele>
        <time>2014-08-07T10:39:09Z</time>
      </trkpt>
      <trkpt lat="49.22996" lon="1.1301">
        <ele>67.5353</ele>
        <time>2014-08-07T10:39:14Z</time>
      </trkpt>
      <trkpt lat="49.22996" lon="1.1301">
        <ele>67.5353</ele>
        <time>2014-08-07T10:39:19Z</time>
      </trkpt>
      <trkpt lat="49.22996" lon="1.13009">
        <ele>67.5353</ele>
        <time>2014-08-07T10:40:14Z</time>
      </trkpt>
      <trkpt lat="49.22996" lon="1.13009">
        <ele>67.5353</ele>
        <time>2014-08-07T10:40:19Z</time>
      </trkpt>
      <trkpt lat="49.22993" lon="1.13008">
        <ele>67.5353</ele>
        <time>2014-08-07T10:40:34Z</time>
      </trkpt>
      <trkpt lat="49.22988" lon="1.13008">
        <ele>68.92645</ele>
        <time>2014-08-07T10:40:39Z</time>
      </trkpt>
      <trkpt lat="49.22988" lon="1.13008">
        <ele>68.92645</ele>
        <time>2014-08-07T10:40:44Z</time>
      </trkpt>
      <trkpt lat="49.22985" lon="1.13006">
        <ele>68.92645</ele>
        <time>2014-08-07T10:40:49Z</time>
      </trkpt>
      <trkpt lat="49.22979" lon="1.13003">
        <ele>70.33435</ele>
        <time>2014-08-07T10:40:54Z</time>
      </trkpt>
      <trkpt lat="49.22978" lon="1.13002">
        <ele>70.33435</ele>
        <time>2014-08-07T10:40:59Z</time>
      </trkpt>
      <trkpt lat="49.22978" lon="1.13001">
        <ele>70.33435</ele>
        <time>2014-08-07T10:41:04Z</time>
      </trkpt>
      <trkpt lat="49.22977" lon="1.12998">
        <ele>70.33435</ele>
        <time>2014-08-07T10:41:09Z</time>
      </trkpt>
      <trkpt lat="49.22976" lon="1.12997">
        <ele>70.33435</ele>
        <time>2014-08-07T10:41:14Z</time>
      </trkpt>
      <trkpt lat="49.22972" lon="1.12996">
        <ele>71.89489</ele>
        <time>2014-08-07T10:41:19Z</time>
      </trkpt>
      <trkpt lat="49.22969" lon="1.12996">
        <ele>71.89489</ele>
        <time>2014-08-07T10:41:24Z</time>
      </trkpt>
      <trkpt lat="49.22964" lon="1.12994">
        <ele>71.89489</ele>
        <time>2014-08-07T10:41:29Z</time>
      </trkpt>
      <trkpt lat="49.2296" lon="1.12991">
        <ele>73.54638</ele>
        <time>2014-08-07T10:41:34Z</time>
      </trkpt>
      <trkpt lat="49.2296" lon="1.12991">
        <ele>73.54638</ele>
        <time>2014-08-07T10:41:39Z</time>
      </trkpt>
      <trkpt lat="49.22959" lon="1.12991">
        <ele>73.54638</ele>
        <time>2014-08-07T10:41:44Z</time>
      </trkpt>
      <trkpt lat="49.22959" lon="1.12991">
        <ele>73.54638</ele>
        <time>2014-08-07T10:41:49Z</time>
      </trkpt>
      <trkpt lat="49.22953" lon="1.12993">
        <ele>73.54638</ele>
        <time>2014-08-07T10:41:54Z</time>
      </trkpt>
      <trkpt lat="49.22947" lon="1.12992">
        <ele>75.08745</ele>
        <time>2014-08-07T10:41:59Z</time>
      </trkpt>
      <trkpt lat="49.22945" lon="1.12992">
        <ele>75.08745</ele>
        <time>2014-08-07T10:42:04Z</time>
      </trkpt>
      <trkpt lat="49.22933" lon="1.12989">
        <ele>76.56258</ele>
        <time>2014-08-07T10:42:09Z</time>
      </trkpt>
      <trkpt lat="49.22933" lon="1.12989">
        <ele>76.56258</ele>
        <time>2014-08-07T10:42:14Z</time>
      </trkpt>
      <trkpt lat="49.22931" lon="1.12987">
        <ele>76.56258</ele>
        <time>2014-08-07T10:42:34Z</time>
      </trkpt>
      <trkpt lat="49.22931" lon="1.12987">
        <ele>76.56258</ele>
        <time>2014-08-07T10:42:39Z</time>
      </trkpt>
      <trkpt lat="49.22925" lon="1.12985">
        <ele>76.56258</ele>
        <time>2014-08-07T10:43:04Z</time>
      </trkpt>
      <trkpt lat="49.2292" lon="1.1298">
        <ele>78.99331</ele>
        <time>2014-08-07T10:43:09Z</time>
      </trkpt>
      <trkpt lat="49.2292" lon="1.1298">
        <ele>78.99331</ele>
        <time>2014-08-07T10:43:14Z</time>
      </trkpt>
      <trkpt lat="49.2291" lon="1.12977">
        <ele>81.49345</ele>
        <time>2014-08-07T10:43:19Z</time>
      </trkpt>
      <trkpt lat="49.22902" lon="1.12973">
        <ele>81.49345</ele>
        <time>2014-08-07T10:43:24Z</time>
      </trkpt>
      <trkpt lat="49.2289" lon="1.12966">
        <ele>84.07773</ele>
        <time>2014-08-07T10:43:29Z</time>
      </trkpt>
      <trkpt lat="49.22889" lon="1.12966">
        <ele>84.07773</ele>
        <time>2014-08-07T10:43:34Z</time>
      </trkpt>
      <trkpt lat="49.22882" lon="1.12962">
        <ele>84.07773</ele>
        <time>2014-08-07T10:43:39Z</time>
      </trkpt>
      <trkpt lat="49.22878" lon="1.12956">
        <ele>86.58687</ele>
        <time>2014-08-07T10:43:44Z</time>
      </trkpt>
      <trkpt lat="49.22874" lon="1.12953">
        <ele>86.58687</ele>
        <time>2014-08-07T10:43:49Z</time>
      </trkpt>
      <trkpt lat="49.2287" lon="1.12952">
        <ele>86.58687</ele>
        <time>2014-08-07T10:43:54Z</time>
      </trkpt>
      <trkpt lat="49.22868" lon="1.1295">
        <ele>89.104294</ele>
        <time>2014-08-07T10:43:59Z</time>
      </trkpt>
      <trkpt lat="49.22857" lon="1.12946">
        <ele>91.40487</ele>
        <time>2014-08-07T10:44:04Z</time>
      </trkpt>
      <trkpt lat="49.2285" lon="1.12945">
        <ele>91.40487</ele>
        <time>2014-08-07T10:44:09Z</time>
      </trkpt>
      <trkpt lat="49.22845" lon="1.12945">
        <ele>93.45377</ele>
        <time>2014-08-07T10:44:14Z</time>
      </trkpt>
      <trkpt lat="49.22841" lon="1.12942">
        <ele>93.45377</ele>
        <time>2014-08-07T10:44:19Z</time>
      </trkpt>
      <trkpt lat="49.22837" lon="1.12941">
        <ele>93.45377</ele>
        <time>2014-08-07T10:44:24Z</time>
      </trkpt>
      <trkpt lat="49.22835" lon="1.12944">
        <ele>95.32058</ele>
        <time>2014-08-07T10:44:29Z</time>
      </trkpt>
      <trkpt lat="49.22832" lon="1.12944">
        <ele>95.32058</ele>
        <time>2014-08-07T10:44:34Z</time>
      </trkpt>
      <trkpt lat="49.22825" lon="1.12941">
        <ele>97.012856</ele>
        <time>2014-08-07T10:44:39Z</time>
      </trkpt>
      <trkpt lat="49.22821" lon="1.1294">
        <ele>97.012856</ele>
        <time>2014-08-07T10:44:44Z</time>
      </trkpt>
      <trkpt lat="49.22817" lon="1.12938">
        <ele>97.012856</ele>
        <time>2014-08-07T10:44:49Z</time>
      </trkpt>
      <trkpt lat="49.22811" lon="1.12932">
        <ele>98.65364</ele>
        <time>2014-08-07T10:44:54Z</time>
      </trkpt>
      <trkpt lat="49.22806" lon="1.12928">
        <ele>98.65364</ele>
        <time>2014-08-07T10:44:59Z</time>
      </trkpt>
      <trkpt lat="49.22799" lon="1.12924">
        <ele>100.314064</ele>
        <time>2014-08-07T10:45:04Z</time>
      </trkpt>
      <trkpt lat="49.22796" lon="1.12921">
        <ele>100.314064</ele>
        <time>2014-08-07T10:45:09Z</time>
      </trkpt>
      <trkpt lat="49.2279" lon="1.1292">
        <ele>101.94496</ele>
        <time>2014-08-07T10:45:14Z</time>
      </trkpt>
      <trkpt lat="49.2279" lon="1.1292">
        <ele>101.94496</ele>
        <time>2014-08-07T10:45:19Z</time>
      </trkpt>
      <trkpt lat="49.22786" lon="1.12919">
        <ele>101.94496</ele>
        <time>2014-08-07T10:45:24Z</time>
      </trkpt>
      <trkpt lat="49.22783" lon="1.12918">
        <ele>101.94496</ele>
        <time>2014-08-07T10:45:29Z</time>
      </trkpt>
      <trkpt lat="49.22783" lon="1.12918">
        <ele>101.94496</ele>
        <time>2014-08-07T10:45:34Z</time>
      </trkpt>
      <trkpt lat="49.22782" lon="1.12917">
        <ele>101.94496</ele>
        <time>2014-08-07T10:47:04Z</time>
      </trkpt>
      <trkpt lat="49.2278" lon="1.12916">
        <ele>103.94781</ele>
        <time>2014-08-07T10:47:09Z</time>
      </trkpt>
      <trkpt lat="49.22779" lon="1.12917">
        <ele>103.94781</ele>
        <time>2014-08-07T10:47:14Z</time>
      </trkpt>
      <trkpt lat="49.22777" lon="1.12916">
        <ele>103.94781</ele>
        <time>2014-08-07T10:47:19Z</time>
      </trkpt>
      <trkpt lat="49.22777" lon="1.12915">
        <ele>103.94781</ele>
        <time>2014-08-07T10:47:24Z</time>
      </trkpt>
      <trkpt lat="49.22778" lon="1.12915">
        <ele>103.94781</ele>
        <time>2014-08-07T10:47:29Z</time>
      </trkpt>
      <trkpt lat="49.22777" lon="1.12915">
        <ele>103.94781</ele>
        <time>2014-08-07T10:47:34Z</time>
      </trkpt>
      <trkpt lat="49.22778" lon="1.12915">
        <ele>103.94781</ele>
        <time>2014-08-07T10:47:39Z</time>
      </trkpt>
      <trkpt lat="49.22778" lon="1.12915">
        <ele>103.94781</ele>
        <time>2014-08-07T10:47:44Z</time>
      </trkpt>
      <trkpt lat="49.22778" lon="1.12916">
        <ele>103.94781</ele>
        <time>2014-08-07T10:47:49Z</time>
      </trkpt>
      <trkpt lat="49.22778" lon="1.12916">
        <ele>103.94781</ele>
        <time>2014-08-07T10:47:54Z</time>
      </trkpt>
      <trkpt lat="49.22779" lon="1.12917">
        <ele>103.94781</ele>
        <time>2014-08-07T10:47:59Z</time>
      </trkpt>
      <trkpt lat="49.22779" lon="1.12918">
        <ele>103.94781</ele>
        <time>2014-08-07T10:48:04Z</time>
      </trkpt>
      <trkpt lat="49.2278" lon="1.12918">
        <ele>103.94781</ele>
        <time>2014-08-07T10:48:09Z</time>
      </trkpt>
      <trkpt lat="49.22778" lon="1.12919">
        <ele>105.425606</ele>
        <time>2014-08-07T10:48:14Z</time>
      </trkpt>
      <trkpt lat="49.22778" lon="1.12919">
        <ele>105.425606</ele>
        <time>2014-08-07T10:48:19Z</time>
      </trkpt>
      <trkpt lat="49.22777" lon="1.12919">
        <ele>105.425606</ele>
        <time>2014-08-07T10:48:24Z</time>
      </trkpt>
      <trkpt lat="49.22777" lon="1.1292">
        <ele>105.425606</ele>
        <time>2014-08-07T10:48:29Z</time>
      </trkpt>
      <trkpt lat="49.22777" lon="1.1292">
        <ele>105.425606</ele>
        <time>2014-08-07T10:48:34Z</time>
      </trkpt>
      <trkpt lat="49.22777" lon="1.12921">
        <ele>105.425606</ele>
        <time>2014-08-07T10:48:39Z</time>
      </trkpt>
      <trkpt lat="49.22777" lon="1.12921">
        <ele>105.425606</ele>
        <time>2014-08-07T10:48:44Z</time>
      </trkpt>
      <trkpt lat="49.22777" lon="1.12921">
        <ele>105.425606</ele>
        <time>2014-08-07T10:48:49Z</time>
      </trkpt>
      <trkpt lat="49.22778" lon="1.12922">
        <ele>105.425606</ele>
        <time>2014-08-07T10:48:54Z</time>
      </trkpt>
      <trkpt lat="49.22779" lon="1.12921">
        <ele>105.425606</ele>
        <time>2014-08-07T10:48:59Z</time>
      </trkpt>
      <trkpt lat="49.22779" lon="1.12921">
        <ele>105.425606</ele>
        <time>2014-08-07T10:49:04Z</time>
      </trkpt>
      <trkpt lat="49.22779" lon="1.12919">
        <ele>105.425606</ele>
        <time>2014-08-07T10:49:09Z</time>
      </trkpt>
      <trkpt lat="49.22781" lon="1.12918">
        <ele>105.425606</ele>
        <time>2014-08-07T10:49:14Z</time>
      </trkpt>
      <trkpt lat="49.22782" lon="1.12919">
        <ele>106.45684</ele>
        <time>2014-08-07T10:49:19Z</time>
      </trkpt>
      <trkpt lat="49.22784" lon="1.12919">
        <ele>106.45684</ele>
        <time>2014-08-07T10:49:24Z</time>
      </trkpt>
      <trkpt lat="49.22785" lon="1.12918">
        <ele>106.45684</ele>
        <time>2014-08-07T10:49:29Z</time>
      </trkpt>
      <trkpt lat="49.22783" lon="1.12916">
        <ele>106.45684</ele>
        <time>2014-08-07T10:49:34Z</time>
      </trkpt>
      <trkpt lat="49.22783" lon="1.12915">
        <ele>106.45684</ele>
        <time>2014-08-07T10:49:39Z</time>
      </trkpt>
      <trkpt lat="49.22783" lon="1.12916">
        <ele>106.45684</ele>
        <time>2014-08-07T10:49:44Z</time>
      </trkpt>
      <trkpt lat="49.22783" lon="1.12916">
        <ele>106.45684</ele>
        <time>2014-08-07T10:49:49Z</time>
      </trkpt>
      <trkpt lat="49.22781" lon="1.12914">
        <ele>106.45684</ele>
        <time>2014-08-07T10:49:54Z</time>
      </trkpt>
      <trkpt lat="49.22775" lon="1.12913">
        <ele>107.20219</ele>
        <time>2014-08-07T10:49:59Z</time>
      </trkpt>
      <trkpt lat="49.22769" lon="1.1291">
        <ele>107.20219</ele>
        <time>2014-08-07T10:50:04Z</time>
      </trkpt>
      <trkpt lat="49.22763" lon="1.12907">
        <ele>107.75384</ele>
        <time>2014-08-07T10:50:09Z</time>
      </trkpt>
      <trkpt lat="49.22757" lon="1.12904">
        <ele>107.75384</ele>
        <time>2014-08-07T10:50:14Z</time>
      </trkpt>
      <trkpt lat="49.22753" lon="1.12902">
        <ele>108.183586</ele>
        <time>2014-08-07T10:50:19Z</time>
      </trkpt>
      <trkpt lat="49.22747" lon="1.12896">
        <ele>108.183586</ele>
        <time>2014-08-07T10:50:24Z</time>
      </trkpt>
      <trkpt lat="49.22743" lon="1.12894">
        <ele>108.54403</ele>
        <time>2014-08-07T10:50:29Z</time>
      </trkpt>
      <trkpt lat="49.2274" lon="1.12892">
        <ele>108.54403</ele>
        <time>2014-08-07T10:50:34Z</time>
      </trkpt>
      <trkpt lat="49.22734" lon="1.12892">
        <ele>108.9419</ele>
        <time>2014-08-07T10:50:39Z</time>
      </trkpt>
      <trkpt lat="49.22728" lon="1.1289">
        <ele>108.9419</ele>
        <time>2014-08-07T10:50:44Z</time>
      </trkpt>
      <trkpt lat="49.22722" lon="1.12888">
        <ele>109.40412</ele>
        <time>2014-08-07T10:50:49Z</time>
      </trkpt>
      <trkpt lat="49.22716" lon="1.12885">
        <ele>109.40412</ele>
        <time>2014-08-07T10:50:54Z</time>
      </trkpt>
      <trkpt lat="49.2271" lon="1.12883">
        <ele>109.95554</ele>
        <time>2014-08-07T10:50:59Z</time>
      </trkpt>
      <trkpt lat="49.22704" lon="1.12879">
        <ele>109.95554</ele>
        <time>2014-08-07T10:51:04Z</time>
      </trkpt>
      <trkpt lat="49.22697" lon="1.12877">
        <ele>110.82085</ele>
        <time>2014-08-07T10:51:09Z</time>
      </trkpt>
      <trkpt lat="49.2269" lon="1.12872">
        <ele>110.82085</ele>
        <time>2014-08-07T10:51:14Z</time>
      </trkpt>
      <trkpt lat="49.22681" lon="1.12873">
        <ele>111.832756</ele>
        <time>2014-08-07T10:51:19Z</time>
      </trkpt>
      <trkpt lat="49.22675" lon="1.12872">
        <ele>111.832756</ele>
        <time>2014-08-07T10:51:24Z</time>
      </trkpt>
      <trkpt lat="49.2267" lon="1.12869">
        <ele>113.02331</ele>
        <time>2014-08-07T10:51:29Z</time>
      </trkpt>
      <trkpt lat="49.22665" lon="1.12865">
        <ele>113.02331</ele>
        <time>2014-08-07T10:51:34Z</time>
      </trkpt>
      <trkpt lat="49.22661" lon="1.12862">
        <ele>114.37856</ele>
        <time>2014-08-07T10:51:39Z</time>
      </trkpt>
      <trkpt lat="49.22655" lon="1.12858">
        <ele>114.37856</ele>
        <time>2014-08-07T10:51:44Z</time>
      </trkpt>
      <trkpt lat="49.22648" lon="1.12855">
        <ele>115.755516</ele>
        <time>2014-08-07T10:51:49Z</time>
      </trkpt>
      <trkpt lat="49.22644" lon="1.12854">
        <ele>115.755516</ele>
        <time>2014-08-07T10:51:54Z</time>
      </trkpt>
      <trkpt lat="49.2264" lon="1.12852">
        <ele>115.755516</ele>
        <time>2014-08-07T10:51:59Z</time>
      </trkpt>
      <trkpt lat="49.22637" lon="1.12851">
        <ele>116.8632</ele>
        <time>2014-08-07T10:52:04Z</time>
      </trkpt>
      <trkpt lat="49.22632" lon="1.12849">
        <ele>116.8632</ele>
        <time>2014-08-07T10:52:09Z</time>
      </trkpt>
      <trkpt lat="49.22627" lon="1.12847">
        <ele>117.735466</ele>
        <time>2014-08-07T10:52:14Z</time>
      </trkpt>
      <trkpt lat="49.22622" lon="1.12844">
        <ele>117.735466</ele>
        <time>2014-08-07T10:52:19Z</time>
      </trkpt>
      <trkpt lat="49.2262" lon="1.12844">
        <ele>117.735466</ele>
        <time>2014-08-07T10:52:24Z</time>
      </trkpt>
      <trkpt lat="49.22612" lon="1.12839">
        <ele>118.13063</ele>
        <time>2014-08-07T10:52:29Z</time>
      </trkpt>
      <trkpt lat="49.22604" lon="1.12837">
        <ele>118.13063</ele>
        <time>2014-08-07T10:52:34Z</time>
      </trkpt>
      <trkpt lat="49.22599" lon="1.12836">
        <ele>118.215256</ele>
        <time>2014-08-07T10:52:39Z</time>
      </trkpt>
      <trkpt lat="49.22594" lon="1.12835">
        <ele>118.215256</ele>
        <time>2014-08-07T10:52:44Z</time>
      </trkpt>
      <trkpt lat="49.2259" lon="1.12833">
        <ele>118.1446</ele>
        <time>2014-08-07T10:52:49Z</time>
      </trkpt>
      <trkpt lat="49.22584" lon="1.1283">
        <ele>118.1446</ele>
        <time>2014-08-07T10:52:54Z</time>
      </trkpt>
      <trkpt lat="49.22579" lon="1.1283">
        <ele>117.97654</ele>
        <time>2014-08-07T10:52:59Z</time>
      </trkpt>
      <trkpt lat="49.22574" lon="1.12826">
        <ele>117.97654</ele>
        <time>2014-08-07T10:53:04Z</time>
      </trkpt>
      <trkpt lat="49.22569" lon="1.12822">
        <ele>117.73618</ele>
        <time>2014-08-07T10:53:09Z</time>
      </trkpt>
      <trkpt lat="49.22563" lon="1.12817">
        <ele>117.73618</ele>
        <time>2014-08-07T10:53:14Z</time>
      </trkpt>
      <trkpt lat="49.22558" lon="1.12815">
        <ele>117.31731</ele>
        <time>2014-08-07T10:53:19Z</time>
      </trkpt>
      <trkpt lat="49.22552" lon="1.12813">
        <ele>117.31731</ele>
        <time>2014-08-07T10:53:24Z</time>
      </trkpt>
      <trkpt lat="49.22545" lon="1.12812">
        <ele>116.92466</ele>
        <time>2014-08-07T10:53:29Z</time>
      </trkpt>
      <trkpt lat="49.2254" lon="1.12811">
        <ele>116.92466</ele>
        <time>2014-08-07T10:53:34Z</time>
      </trkpt>
      <trkpt lat="49.22534" lon="1.1281">
        <ele>116.48844</ele>
        <time>2014-08-07T10:53:39Z</time>
      </trkpt>
      <trkpt lat="49.2253" lon="1.12806">
        <ele>116.48844</ele>
        <time>2014-08-07T10:53:44Z</time>
      </trkpt>
      <trkpt lat="49.22525" lon="1.12802">
        <ele>115.94411</ele>
        <time>2014-08-07T10:53:49Z</time>
      </trkpt>
      <trkpt lat="49.22522" lon="1.12798">
        <ele>115.94411</ele>
        <time>2014-08-07T10:53:54Z</time>
      </trkpt>
      <trkpt lat="49.22515" lon="1.12796">
        <ele>115.44828</ele>
        <time>2014-08-07T10:53:59Z</time>
      </trkpt>
      <trkpt lat="49.2251" lon="1.12795">
        <ele>115.44828</ele>
        <time>2014-08-07T10:54:04Z</time>
      </trkpt>
      <trkpt lat="49.22507" lon="1.12795">
        <ele>115.44828</ele>
        <time>2014-08-07T10:54:09Z</time>
      </trkpt>
      <trkpt lat="49.22503" lon="1.12793">
        <ele>114.944145</ele>
        <time>2014-08-07T10:54:14Z</time>
      </trkpt>
      <trkpt lat="49.22498" lon="1.1279">
        <ele>114.944145</ele>
        <time>2014-08-07T10:54:19Z</time>
      </trkpt>
      <trkpt lat="49.22493" lon="1.12787">
        <ele>114.43669</ele>
        <time>2014-08-07T10:54:24Z</time>
      </trkpt>
      <trkpt lat="49.22484" lon="1.12785">
        <ele>114.43669</ele>
        <time>2014-08-07T10:54:29Z</time>
      </trkpt>
      <trkpt lat="49.22479" lon="1.12782">
        <ele>113.84402</ele>
        <time>2014-08-07T10:54:34Z</time>
      </trkpt>
      <trkpt lat="49.22475" lon="1.12781">
        <ele>113.84402</ele>
        <time>2014-08-07T10:54:39Z</time>
      </trkpt>
      <trkpt lat="49.2247" lon="1.12776">
        <ele>113.16246</ele>
        <time>2014-08-07T10:54:44Z</time>
      </trkpt>
      <trkpt lat="49.22466" lon="1.12771">
        <ele>113.16246</ele>
        <time>2014-08-07T10:54:49Z</time>
      </trkpt>
      <trkpt lat="49.22463" lon="1.12771">
        <ele>113.16246</ele>
        <time>2014-08-07T10:54:54Z</time>
      </trkpt>
      <trkpt lat="49.22458" lon="1.12769">
        <ele>112.40321</ele>
        <time>2014-08-07T10:54:59Z</time>
      </trkpt>
      <trkpt lat="49.22454" lon="1.12766">
        <ele>112.40321</ele>
        <time>2014-08-07T10:55:04Z</time>
      </trkpt>
      <trkpt lat="49.22448" lon="1.12765">
        <ele>111.57678</ele>
        <time>2014-08-07T10:55:09Z</time>
      </trkpt>
      <trkpt lat="49.22443" lon="1.12762">
        <ele>111.57678</ele>
        <time>2014-08-07T10:55:14Z</time>
      </trkpt>
      <trkpt lat="49.22434" lon="1.1276">
        <ele>110.692986</ele>
        <time>2014-08-07T10:55:19Z</time>
      </trkpt>
      <trkpt lat="49.2243" lon="1.12756">
        <ele>110.692986</ele>
        <time>2014-08-07T10:55:24Z</time>
      </trkpt>
      <trkpt lat="49.22422" lon="1.12752">
        <ele>109.89069</ele>
        <time>2014-08-07T10:55:29Z</time>
      </trkpt>
      <trkpt lat="49.22416" lon="1.12748">
        <ele>109.89069</ele>
        <time>2014-08-07T10:55:34Z</time>
      </trkpt>
      <trkpt lat="49.2241" lon="1.12747">
        <ele>109.2694</ele>
        <time>2014-08-07T10:55:39Z</time>
      </trkpt>
      <trkpt lat="49.22403" lon="1.12742">
        <ele>109.2694</ele>
        <time>2014-08-07T10:55:44Z</time>
      </trkpt>
      <trkpt lat="49.22395" lon="1.12739">
        <ele>109.12246</ele>
        <time>2014-08-07T10:55:49Z</time>
      </trkpt>
      <trkpt lat="49.2239" lon="1.12736">
        <ele>109.12246</ele>
        <time>2014-08-07T10:55:54Z</time>
      </trkpt>
      <trkpt lat="49.22384" lon="1.12733">
        <ele>109.3455</ele>
        <time>2014-08-07T10:55:59Z</time>
      </trkpt>
      <trkpt lat="49.22379" lon="1.12732">
        <ele>109.3455</ele>
        <time>2014-08-07T10:56:04Z</time>
      </trkpt>
      <trkpt lat="49.22373" lon="1.1273">
        <ele>109.75423</ele>
        <time>2014-08-07T10:56:09Z</time>
      </trkpt>
      <trkpt lat="49.22368" lon="1.12727">
        <ele>109.75423</ele>
        <time>2014-08-07T10:56:14Z</time>
      </trkpt>
      <trkpt lat="49.22364" lon="1.12725">
        <ele>110.29254</ele>
        <time>2014-08-07T10:56:19Z</time>
      </trkpt>
      <trkpt lat="49.22355" lon="1.12723">
        <ele>110.89357</ele>
        <time>2014-08-07T10:56:24Z</time>
      </trkpt>
      <trkpt lat="49.22347" lon="1.12722">
        <ele>110.89357</ele>
        <time>2014-08-07T10:56:29Z</time>
      </trkpt>
      <trkpt lat="49.22342" lon="1.12717">
        <ele>111.610374</ele>
        <time>2014-08-07T10:56:34Z</time>
      </trkpt>
      <trkpt lat="49.22337" lon="1.12716">
        <ele>111.610374</ele>
        <time>2014-08-07T10:56:39Z</time>
      </trkpt>
      <trkpt lat="49.22332" lon="1.12715">
        <ele>112.37643</ele>
        <time>2014-08-07T10:56:44Z</time>
      </trkpt>
      <trkpt lat="49.22326" lon="1.1271">
        <ele>112.37643</ele>
        <time>2014-08-07T10:56:49Z</time>
      </trkpt>
      <trkpt lat="49.22322" lon="1.1271">
        <ele>113.11544</ele>
        <time>2014-08-07T10:56:54Z</time>
      </trkpt>
      <trkpt lat="49.22315" lon="1.12706">
        <ele>113.11544</ele>
        <time>2014-08-07T10:56:59Z</time>
      </trkpt>
      <trkpt lat="49.22309" lon="1.12703">
        <ele>113.78555</ele>
        <time>2014-08-07T10:57:04Z</time>
      </trkpt>
      <trkpt lat="49.22302" lon="1.127">
        <ele>113.78555</ele>
        <time>2014-08-07T10:57:09Z</time>
      </trkpt>
      <trkpt lat="49.22297" lon="1.12697">
        <ele>114.50664</ele>
        <time>2014-08-07T10:57:14Z</time>
      </trkpt>
      <trkpt lat="49.22291" lon="1.12696">
        <ele>114.50664</ele>
        <time>2014-08-07T10:57:19Z</time>
      </trkpt>
      <trkpt lat="49.22287" lon="1.12695">
        <ele>115.02927</ele>
        <time>2014-08-07T10:57:24Z</time>
      </trkpt>
      <trkpt lat="49.2228" lon="1.12693">
        <ele>115.02927</ele>
        <time>2014-08-07T10:57:29Z</time>
      </trkpt>
      <trkpt lat="49.22275" lon="1.12689">
        <ele>115.382256</ele>
        <time>2014-08-07T10:57:34Z</time>
      </trkpt>
      <trkpt lat="49.22269" lon="1.12688">
        <ele>115.382256</ele>
        <time>2014-08-07T10:57:39Z</time>
      </trkpt>
      <trkpt lat="49.22262" lon="1.12685">
        <ele>115.722404</ele>
        <time>2014-08-07T10:57:44Z</time>
      </trkpt>
      <trkpt lat="49.22255" lon="1.12681">
        <ele>115.722404</ele>
        <time>2014-08-07T10:57:49Z</time>
      </trkpt>
      <trkpt lat="49.22248" lon="1.12678">
        <ele>116.108536</ele>
        <time>2014-08-07T10:57:54Z</time>
      </trkpt>
      <trkpt lat="49.2224" lon="1.12673">
        <ele>116.108536</ele>
        <time>2014-08-07T10:57:59Z</time>
      </trkpt>
      <trkpt lat="49.22235" lon="1.1267">
        <ele>116.58056</ele>
        <time>2014-08-07T10:58:04Z</time>
      </trkpt>
      <trkpt lat="49.22233" lon="1.12669">
        <ele>116.58056</ele>
        <time>2014-08-07T10:58:09Z</time>
      </trkpt>
      <trkpt lat="49.22228" lon="1.12668">
        <ele>116.58056</ele>
        <time>2014-08-07T10:58:14Z</time>
      </trkpt>
      <trkpt lat="49.22223" lon="1.12665">
        <ele>117.11753</ele>
        <time>2014-08-07T10:58:19Z</time>
      </trkpt>
      <trkpt lat="49.22216" lon="1.12662">
        <ele>117.11753</ele>
        <time>2014-08-07T10:58:24Z</time>
      </trkpt>
      <trkpt lat="49.22209" lon="1.1266">
        <ele>117.82954</ele>
        <time>2014-08-07T10:58:29Z</time>
      </trkpt>
      <trkpt lat="49.22206" lon="1.12658">
        <ele>117.82954</ele>
        <time>2014-08-07T10:58:34Z</time>
      </trkpt>
      <trkpt lat="49.22201" lon="1.12653">
        <ele>117.82954</ele>
        <time>2014-08-07T10:58:39Z</time>
      </trkpt>
      <trkpt lat="49.222" lon="1.12653">
        <ele>118.73157</ele>
        <time>2014-08-07T10:58:44Z</time>
      </trkpt>
      <trkpt lat="49.22195" lon="1.12653">
        <ele>118.73157</ele>
        <time>2014-08-07T10:58:49Z</time>
      </trkpt>
      <trkpt lat="49.22192" lon="1.1265">
        <ele>118.73157</ele>
        <time>2014-08-07T10:58:54Z</time>
      </trkpt>
      <trkpt lat="49.22187" lon="1.12648">
        <ele>119.563156</ele>
        <time>2014-08-07T10:58:59Z</time>
      </trkpt>
      <trkpt lat="49.22183" lon="1.12646">
        <ele>119.563156</ele>
        <time>2014-08-07T10:59:04Z</time>
      </trkpt>
      <trkpt lat="49.22179" lon="1.12644">
        <ele>120.55871</ele>
        <time>2014-08-07T10:59:09Z</time>
      </trkpt>
      <trkpt lat="49.22178" lon="1.12644">
        <ele>120.55871</ele>
        <time>2014-08-07T10:59:14Z</time>
      </trkpt>
      <trkpt lat="49.2217" lon="1.12638">
        <ele>121.79083</ele>
        <time>2014-08-07T10:59:19Z</time>
      </trkpt>
      <trkpt lat="49.22161" lon="1.12636">
        <ele>121.79083</ele>
        <time>2014-08-07T10:59:24Z</time>
      </trkpt>
      <trkpt lat="49.22158" lon="1.12634">
        <ele>123.02348</ele>
        <time>2014-08-07T10:59:29Z</time>
      </trkpt>
      <trkpt lat="49.22154" lon="1.12632">
        <ele>123.02348</ele>
        <time>2014-08-07T10:59:34Z</time>
      </trkpt>
      <trkpt lat="49.22148" lon="1.12633">
        <ele>124.02356</ele>
        <time>2014-08-07T10:59:39Z</time>
      </trkpt>
      <trkpt lat="49.22141" lon="1.12631">
        <ele>124.02356</ele>
        <time>2014-08-07T10:59:44Z</time>
      </trkpt>
      <trkpt lat="49.22136" lon="1.12626">
        <ele>124.84955</ele>
        <time>2014-08-07T10:59:49Z</time>
      </trkpt>
      <trkpt lat="49.22133" lon="1.12623">
        <ele>124.84955</ele>
        <time>2014-08-07T10:59:54Z</time>
      </trkpt>
      <trkpt lat="49.22128" lon="1.12621">
        <ele>125.55614</ele>
        <time>2014-08-07T10:59:59Z</time>
      </trkpt>
      <trkpt lat="49.22122" lon="1.12619">
        <ele>125.55614</ele>
        <time>2014-08-07T11:00:04Z</time>
      </trkpt>
      <trkpt lat="49.22117" lon="1.12618">
        <ele>126.1367</ele>
        <time>2014-08-07T11:00:09Z</time>
      </trkpt>
      <trkpt lat="49.22113" lon="1.12616">
        <ele>126.1367</ele>
        <time>2014-08-07T11:00:14Z</time>
      </trkpt>
      <trkpt lat="49.22111" lon="1.12612">
        <ele>126.1367</ele>
        <time>2014-08-07T11:00:19Z</time>
      </trkpt>
      <trkpt lat="49.22105" lon="1.12611">
        <ele>126.38371</ele>
        <time>2014-08-07T11:00:24Z</time>
      </trkpt>
      <trkpt lat="49.22101" lon="1.1261">
        <ele>126.38371</ele>
        <time>2014-08-07T11:00:29Z</time>
      </trkpt>
      <trkpt lat="49.22096" lon="1.12607">
        <ele>126.42289</ele>
        <time>2014-08-07T11:00:34Z</time>
      </trkpt>
      <trkpt lat="49.22093" lon="1.12603">
        <ele>126.42289</ele>
        <time>2014-08-07T11:00:39Z</time>
      </trkpt>
      <trkpt lat="49.22087" lon="1.12601">
        <ele>126.183975</ele>
        <time>2014-08-07T11:00:44Z</time>
      </trkpt>
      <trkpt lat="49.22081" lon="1.12599">
        <ele>126.183975</ele>
        <time>2014-08-07T11:00:49Z</time>
      </trkpt>
      <trkpt lat="49.22076" lon="1.12598">
        <ele>125.81881</ele>
        <time>2014-08-07T11:00:54Z</time>
      </trkpt>
      <trkpt lat="49.22071" lon="1.12596">
        <ele>125.81881</ele>
        <time>2014-08-07T11:00:59Z</time>
      </trkpt>
      <trkpt lat="49.22065" lon="1.12594">
        <ele>125.439644</ele>
        <time>2014-08-07T11:01:04Z</time>
      </trkpt>
      <trkpt lat="49.22059" lon="1.12592">
        <ele>125.439644</ele>
        <time>2014-08-07T11:01:09Z</time>
      </trkpt>
      <trkpt lat="49.22054" lon="1.12592">
        <ele>125.049614</ele>
        <time>2014-08-07T11:01:14Z</time>
      </trkpt>
      <trkpt lat="49.22049" lon="1.12587">
        <ele>125.049614</ele>
        <time>2014-08-07T11:01:19Z</time>
      </trkpt>
      <trkpt lat="49.22043" lon="1.12584">
        <ele>124.723724</ele>
        <time>2014-08-07T11:01:24Z</time>
      </trkpt>
      <trkpt lat="49.22038" lon="1.12583">
        <ele>124.723724</ele>
        <time>2014-08-07T11:01:29Z</time>
      </trkpt>
      <trkpt lat="49.22032" lon="1.12579">
        <ele>124.51685</ele>
        <time>2014-08-07T11:01:34Z</time>
      </trkpt>
      <trkpt lat="49.22027" lon="1.12577">
        <ele>124.51685</ele>
        <time>2014-08-07T11:01:39Z</time>
      </trkpt>
      <trkpt lat="49.22023" lon="1.12577">
        <ele>124.51685</ele>
        <time>2014-08-07T11:01:44Z</time>
      </trkpt>
      <trkpt lat="49.22018" lon="1.12574">
        <ele>124.52275</ele>
        <time>2014-08-07T11:01:49Z</time>
      </trkpt>
      <trkpt lat="49.22014" lon="1.12572">
        <ele>124.52275</ele>
        <time>2014-08-07T11:01:54Z</time>
      </trkpt>
      <trkpt lat="49.2201" lon="1.1257">
        <ele>124.52275</ele>
        <time>2014-08-07T11:01:59Z</time>
      </trkpt>
      <trkpt lat="49.22006" lon="1.12567">
        <ele>124.611465</ele>
        <time>2014-08-07T11:02:04Z</time>
      </trkpt>
      <trkpt lat="49.22001" lon="1.12564">
        <ele>124.611465</ele>
        <time>2014-08-07T11:02:09Z</time>
      </trkpt>
      <trkpt lat="49.21995" lon="1.12561">
        <ele>124.72002</ele>
        <time>2014-08-07T11:02:14Z</time>
      </trkpt>
      <trkpt lat="49.2199" lon="1.12559">
        <ele>124.72002</ele>
        <time>2014-08-07T11:02:19Z</time>
      </trkpt>
      <trkpt lat="49.21985" lon="1.12556">
        <ele>124.91964</ele>
        <time>2014-08-07T11:02:24Z</time>
      </trkpt>
      <trkpt lat="49.21979" lon="1.12555">
        <ele>124.91964</ele>
        <time>2014-08-07T11:02:29Z</time>
      </trkpt>
      <trkpt lat="49.21974" lon="1.12554">
        <ele>125.18961</ele>
        <time>2014-08-07T11:02:34Z</time>
      </trkpt>
      <trkpt lat="49.21968" lon="1.12553">
        <ele>125.18961</ele>
        <time>2014-08-07T11:02:39Z</time>
      </trkpt>
      <trkpt lat="49.21963" lon="1.12551">
        <ele>125.568146</ele>
        <time>2014-08-07T11:02:44Z</time>
      </trkpt>
      <trkpt lat="49.21958" lon="1.12547">
        <ele>125.568146</ele>
        <time>2014-08-07T11:02:49Z</time>
      </trkpt>
      <trkpt lat="49.21953" lon="1.12543">
        <ele>126.06151</ele>
        <time>2014-08-07T11:02:54Z</time>
      </trkpt>
      <trkpt lat="49.21948" lon="1.12541">
        <ele>126.06151</ele>
        <time>2014-08-07T11:02:59Z</time>
      </trkpt>
      <trkpt lat="49.21943" lon="1.12538">
        <ele>126.7184</ele>
        <time>2014-08-07T11:03:04Z</time>
      </trkpt>
      <trkpt lat="49.2194" lon="1.12537">
        <ele>126.7184</ele>
        <time>2014-08-07T11:03:09Z</time>
      </trkpt>
      <trkpt lat="49.21934" lon="1.12539">
        <ele>127.43935</ele>
        <time>2014-08-07T11:03:14Z</time>
      </trkpt>
      <trkpt lat="49.21929" lon="1.12537">
        <ele>127.43935</ele>
        <time>2014-08-07T11:03:19Z</time>
      </trkpt>
      <trkpt lat="49.21924" lon="1.12534">
        <ele>128.16083</ele>
        <time>2014-08-07T11:03:24Z</time>
      </trkpt>
      <trkpt lat="49.21918" lon="1.12528">
        <ele>128.16083</ele>
        <time>2014-08-07T11:03:29Z</time>
      </trkpt>
      <trkpt lat="49.21913" lon="1.12525">
        <ele>128.99689</ele>
        <time>2014-08-07T11:03:34Z</time>
      </trkpt>
      <trkpt lat="49.21909" lon="1.12523">
        <ele>128.99689</ele>
        <time>2014-08-07T11:03:39Z</time>
      </trkpt>
      <trkpt lat="49.21904" lon="1.12521">
        <ele>129.85114</ele>
        <time>2014-08-07T11:03:44Z</time>
      </trkpt>
      <trkpt lat="49.21898" lon="1.1252">
        <ele>129.85114</ele>
        <time>2014-08-07T11:03:49Z</time>
      </trkpt>
      <trkpt lat="49.21892" lon="1.12518">
        <ele>130.73509</ele>
        <time>2014-08-07T11:03:54Z</time>
      </trkpt>
      <trkpt lat="49.21886" lon="1.12515">
        <ele>130.73509</ele>
        <time>2014-08-07T11:03:59Z</time>
      </trkpt>
      <trkpt lat="49.21882" lon="1.12513">
        <ele>131.63051</ele>
        <time>2014-08-07T11:04:04Z</time>
      </trkpt>
      <trkpt lat="49.21878" lon="1.12511">
        <ele>131.63051</ele>
        <time>2014-08-07T11:04:09Z</time>
      </trkpt>
      <trkpt lat="49.21872" lon="1.12508">
        <ele>132.46283</ele>
        <time>2014-08-07T11:04:14Z</time>
      </trkpt>
      <trkpt lat="49.21866" lon="1.12506">
        <ele>132.46283</ele>
        <time>2014-08-07T11:04:19Z</time>
      </trkpt>
      <trkpt lat="49.21861" lon="1.12503">
        <ele>133.14877</ele>
        <time>2014-08-07T11:04:24Z</time>
      </trkpt>
      <trkpt lat="49.21854" lon="1.12498">
        <ele>133.14877</ele>
        <time>2014-08-07T11:04:29Z</time>
      </trkpt>
      <trkpt lat="49.21849" lon="1.12496">
        <ele>133.84212</ele>
        <time>2014-08-07T11:04:34Z</time>
      </trkpt>
      <trkpt lat="49.21844" lon="1.12494">
        <ele>133.84212</ele>
        <time>2014-08-07T11:04:39Z</time>
      </trkpt>
      <trkpt lat="49.2184" lon="1.12491">
        <ele>134.51248</ele>
        <time>2014-08-07T11:04:44Z</time>
      </trkpt>
      <trkpt lat="49.21834" lon="1.1249">
        <ele>134.51248</ele>
        <time>2014-08-07T11:04:49Z</time>
      </trkpt>
      <trkpt lat="49.21829" lon="1.1249">
        <ele>135.08855</ele>
        <time>2014-08-07T11:04:54Z</time>
      </trkpt>
      <trkpt lat="49.21822" lon="1.12486">
        <ele>135.08855</ele>
        <time>2014-08-07T11:04:59Z</time>
      </trkpt>
      <trkpt lat="49.21816" lon="1.12483">
        <ele>135.63417</ele>
        <time>2014-08-07T11:05:04Z</time>
      </trkpt>
      <trkpt lat="49.21811" lon="1.12482">
        <ele>135.63417</ele>
        <time>2014-08-07T11:05:09Z</time>
      </trkpt>
      <trkpt lat="49.21805" lon="1.12478">
        <ele>136.13666</ele>
        <time>2014-08-07T11:05:14Z</time>
      </trkpt>
      <trkpt lat="49.21799" lon="1.12476">
        <ele>136.13666</ele>
        <time>2014-08-07T11:05:19Z</time>
      </trkpt>
      <trkpt lat="49.21794" lon="1.12475">
        <ele>136.64195</ele>
        <time>2014-08-07T11:05:24Z</time>
      </trkpt>
      <trkpt lat="49.21789" lon="1.12472">
        <ele>136.64195</ele>
        <time>2014-08-07T11:05:29Z</time>
      </trkpt>
      <trkpt lat="49.21783" lon="1.1247">
        <ele>137.16388</ele>
        <time>2014-08-07T11:05:34Z</time>
      </trkpt>
      <trkpt lat="49.21778" lon="1.12467">
        <ele>137.16388</ele>
        <time>2014-08-07T11:05:39Z</time>
      </trkpt>
      <trkpt lat="49.21774" lon="1.12462">
        <ele>137.70076</ele>
        <time>2014-08-07T11:05:44Z</time>
      </trkpt>
      <trkpt lat="49.21769" lon="1.12458">
        <ele>137.70076</ele>
        <time>2014-08-07T11:05:49Z</time>
      </trkpt>
      <trkpt lat="49.21764" lon="1.12452">
        <ele>138.17902</ele>
        <time>2014-08-07T11:05:54Z</time>
      </trkpt>
      <trkpt lat="49.21761" lon="1.12448">
        <ele>138.17902</ele>
        <time>2014-08-07T11:05:59Z</time>
      </trkpt>
      <trkpt lat="49.21756" lon="1.12442">
        <ele>138.55945</ele>
        <time>2014-08-07T11:06:04Z</time>
      </trkpt>
      <trkpt lat="49.21751" lon="1.12434">
        <ele>138.55945</ele>
        <time>2014-08-07T11:06:09Z</time>
      </trkpt>
      <trkpt lat="49.21748" lon="1.12429">
        <ele>138.79161</ele>
        <time>2014-08-07T11:06:14Z</time>
      </trkpt>
      <trkpt lat="49.21743" lon="1.12424">
        <ele>138.79161</ele>
        <time>2014-08-07T11:06:19Z</time>
      </trkpt>
      <trkpt lat="49.21739" lon="1.12418">
        <ele>138.88686</ele>
        <time>2014-08-07T11:06:24Z</time>
      </trkpt>
      <trkpt lat="49.21736" lon="1.12411">
        <ele>138.88686</ele>
        <time>2014-08-07T11:06:29Z</time>
      </trkpt>
      <trkpt lat="49.21729" lon="1.12402">
        <ele>138.88495</ele>
        <time>2014-08-07T11:06:34Z</time>
      </trkpt>
      <trkpt lat="49.21725" lon="1.12397">
        <ele>138.88495</ele>
        <time>2014-08-07T11:06:39Z</time>
      </trkpt>
      <trkpt lat="49.21721" lon="1.12391">
        <ele>138.85179</ele>
        <time>2014-08-07T11:06:44Z</time>
      </trkpt>
      <trkpt lat="49.21717" lon="1.12384">
        <ele>138.85179</ele>
        <time>2014-08-07T11:06:49Z</time>
      </trkpt>
      <trkpt lat="49.21712" lon="1.12378">
        <ele>138.74771</ele>
        <time>2014-08-07T11:06:54Z</time>
      </trkpt>
      <trkpt lat="49.21708" lon="1.12374">
        <ele>138.74771</ele>
        <time>2014-08-07T11:06:59Z</time>
      </trkpt>
      <trkpt lat="49.21704" lon="1.1237">
        <ele>138.60815</ele>
        <time>2014-08-07T11:07:04Z</time>
      </trkpt>
      <trkpt lat="49.21699" lon="1.12361">
        <ele>138.60815</ele>
        <time>2014-08-07T11:07:09Z</time>
      </trkpt>
      <trkpt lat="49.21693" lon="1.12355">
        <ele>138.42287</ele>
        <time>2014-08-07T11:07:14Z</time>
      </trkpt>
      <trkpt lat="49.21687" lon="1.12351">
        <ele>138.42287</ele>
        <time>2014-08-07T11:07:19Z</time>
      </trkpt>
      <trkpt lat="49.2168" lon="1.12348">
        <ele>138.2113</ele>
        <time>2014-08-07T11:07:24Z</time>
      </trkpt>
      <trkpt lat="49.21675" lon="1.12346">
        <ele>138.2113</ele>
        <time>2014-08-07T11:07:29Z</time>
      </trkpt>
      <trkpt lat="49.21668" lon="1.12347">
        <ele>137.9915</ele>
        <time>2014-08-07T11:07:34Z</time>
      </trkpt>
      <trkpt lat="49.21662" lon="1.1235">
        <ele>137.9915</ele>
        <time>2014-08-07T11:07:39Z</time>
      </trkpt>
      <trkpt lat="49.21655" lon="1.12356">
        <ele>137.89552</ele>
        <time>2014-08-07T11:07:44Z</time>
      </trkpt>
      <trkpt lat="49.21647" lon="1.12365">
        <ele>137.8724</ele>
        <time>2014-08-07T11:07:49Z</time>
      </trkpt>
      <trkpt lat="49.21643" lon="1.12371">
        <ele>137.8724</ele>
        <time>2014-08-07T11:07:54Z</time>
      </trkpt>
      <trkpt lat="49.21639" lon="1.12377">
        <ele>137.88911</ele>
        <time>2014-08-07T11:07:59Z</time>
      </trkpt>
      <trkpt lat="49.21636" lon="1.12384">
        <ele>137.88911</ele>
        <time>2014-08-07T11:08:04Z</time>
      </trkpt>
      <trkpt lat="49.21632" lon="1.12392">
        <ele>137.74197</ele>
        <time>2014-08-07T11:08:09Z</time>
      </trkpt>
      <trkpt lat="49.21627" lon="1.12396">
        <ele>137.74197</ele>
        <time>2014-08-07T11:08:14Z</time>
      </trkpt>
      <trkpt lat="49.21623" lon="1.12397">
        <ele>137.51653</ele>
        <time>2014-08-07T11:08:19Z</time>
      </trkpt>
      <trkpt lat="49.21615" lon="1.12395">
        <ele>137.51653</ele>
        <time>2014-08-07T11:08:24Z</time>
      </trkpt>
      <trkpt lat="49.21608" lon="1.12391">
        <ele>137.22015</ele>
        <time>2014-08-07T11:08:29Z</time>
      </trkpt>
      <trkpt lat="49.21601" lon="1.12389">
        <ele>137.22015</ele>
        <time>2014-08-07T11:08:34Z</time>
      </trkpt>
      <trkpt lat="49.21595" lon="1.12386">
        <ele>136.93195</ele>
        <time>2014-08-07T11:08:39Z</time>
      </trkpt>
      <trkpt lat="49.21591" lon="1.12383">
        <ele>136.93195</ele>
        <time>2014-08-07T11:08:44Z</time>
      </trkpt>
      <trkpt lat="49.21586" lon="1.12377">
        <ele>136.6242</ele>
        <time>2014-08-07T11:08:49Z</time>
      </trkpt>
      <trkpt lat="49.21582" lon="1.12374">
        <ele>136.6242</ele>
        <time>2014-08-07T11:08:54Z</time>
      </trkpt>
      <trkpt lat="49.21577" lon="1.12374">
        <ele>136.32898</ele>
        <time>2014-08-07T11:08:59Z</time>
      </trkpt>
      <trkpt lat="49.21572" lon="1.12373">
        <ele>136.32898</ele>
        <time>2014-08-07T11:09:04Z</time>
      </trkpt>
      <trkpt lat="49.2157" lon="1.12374">
        <ele>136.32898</ele>
        <time>2014-08-07T11:09:09Z</time>
      </trkpt>
      <trkpt lat="49.21568" lon="1.12374">
        <ele>135.93173</ele>
        <time>2014-08-07T11:09:14Z</time>
      </trkpt>
      <trkpt lat="49.21563" lon="1.1237">
        <ele>135.93173</ele>
        <time>2014-08-07T11:09:19Z</time>
      </trkpt>
      <trkpt lat="49.21559" lon="1.12366">
        <ele>135.54279</ele>
        <time>2014-08-07T11:09:24Z</time>
      </trkpt>
      <trkpt lat="49.21555" lon="1.1237">
        <ele>135.54279</ele>
        <time>2014-08-07T11:09:29Z</time>
      </trkpt>
      <trkpt lat="49.21552" lon="1.12381">
        <ele>135.04813</ele>
        <time>2014-08-07T11:09:34Z</time>
      </trkpt>
      <trkpt lat="49.21553" lon="1.12387">
        <ele>135.04813</ele>
        <time>2014-08-07T11:09:39Z</time>
      </trkpt>
      <trkpt lat="49.21553" lon="1.12389">
        <ele>135.04813</ele>
        <time>2014-08-07T11:09:44Z</time>
      </trkpt>
      <trkpt lat="49.21553" lon="1.1239">
        <ele>135.04813</ele>
        <time>2014-08-07T11:09:49Z</time>
      </trkpt>
      <trkpt lat="49.21554" lon="1.12389">
        <ele>135.04813</ele>
        <time>2014-08-07T11:09:54Z</time>
      </trkpt>
      <trkpt lat="49.21554" lon="1.12389">
        <ele>135.04813</ele>
        <time>2014-08-07T11:09:59Z</time>
      </trkpt>
      <trkpt lat="49.21555" lon="1.12391">
        <ele>135.04813</ele>
        <time>2014-08-07T11:10:04Z</time>
      </trkpt>
      <trkpt lat="49.21556" lon="1.12394">
        <ele>134.7026</ele>
        <time>2014-08-07T11:10:09Z</time>
      </trkpt>
      <trkpt lat="49.21556" lon="1.12394">
        <ele>134.7026</ele>
        <time>2014-08-07T11:10:14Z</time>
      </trkpt>
      <trkpt lat="49.21556" lon="1.12392">
        <ele>134.7026</ele>
        <time>2014-08-07T11:10:19Z</time>
      </trkpt>
      <trkpt lat="49.21554" lon="1.1239">
        <ele>134.7026</ele>
        <time>2014-08-07T11:10:24Z</time>
      </trkpt>
      <trkpt lat="49.21553" lon="1.12389">
        <ele>134.7026</ele>
        <time>2014-08-07T11:10:29Z</time>
      </trkpt>
      <trkpt lat="49.21552" lon="1.12386">
        <ele>134.7026</ele>
        <time>2014-08-07T11:10:34Z</time>
      </trkpt>
      <trkpt lat="49.21552" lon="1.12385">
        <ele>134.7026</ele>
        <time>2014-08-07T11:10:39Z</time>
      </trkpt>
      <trkpt lat="49.21552" lon="1.12379">
        <ele>134.1943</ele>
        <time>2014-08-07T11:10:44Z</time>
      </trkpt>
      <trkpt lat="49.21552" lon="1.12368">
        <ele>134.1943</ele>
        <time>2014-08-07T11:10:49Z</time>
      </trkpt>
      <trkpt lat="49.21552" lon="1.12366">
        <ele>133.739</ele>
        <time>2014-08-07T11:10:54Z</time>
      </trkpt>
      <trkpt lat="49.21553" lon="1.12364">
        <ele>133.739</ele>
        <time>2014-08-07T11:10:59Z</time>
      </trkpt>
      <trkpt lat="49.21556" lon="1.12364">
        <ele>133.739</ele>
        <time>2014-08-07T11:11:04Z</time>
      </trkpt>
      <trkpt lat="49.21557" lon="1.12364">
        <ele>133.739</ele>
        <time>2014-08-07T11:11:09Z</time>
      </trkpt>
      <trkpt lat="49.21557" lon="1.12365">
        <ele>133.739</ele>
        <time>2014-08-07T11:11:14Z</time>
      </trkpt>
      <trkpt lat="49.21557" lon="1.12364">
        <ele>133.739</ele>
        <time>2014-08-07T11:11:19Z</time>
      </trkpt>
      <trkpt lat="49.21557" lon="1.12365">
        <ele>133.739</ele>
        <time>2014-08-07T11:11:24Z</time>
      </trkpt>
      <trkpt lat="49.21558" lon="1.12366">
        <ele>133.739</ele>
        <time>2014-08-07T11:11:29Z</time>
      </trkpt>
      <trkpt lat="49.2156" lon="1.12368">
        <ele>133.14731</ele>
        <time>2014-08-07T11:11:34Z</time>
      </trkpt>
      <trkpt lat="49.2156" lon="1.1237">
        <ele>133.14731</ele>
        <time>2014-08-07T11:11:39Z</time>
      </trkpt>
      <trkpt lat="49.2156" lon="1.12371">
        <ele>133.14731</ele>
        <time>2014-08-07T11:11:44Z</time>
      </trkpt>
      <trkpt lat="49.2156" lon="1.12372">
        <ele>133.14731</ele>
        <time>2014-08-07T11:11:49Z</time>
      </trkpt>
      <trkpt lat="49.21558" lon="1.12371">
        <ele>133.14731</ele>
        <time>2014-08-07T11:11:54Z</time>
      </trkpt>
      <trkpt lat="49.21557" lon="1.12369">
        <ele>133.14731</ele>
        <time>2014-08-07T11:11:59Z</time>
      </trkpt>
      <trkpt lat="49.21556" lon="1.12369">
        <ele>133.14731</ele>
        <time>2014-08-07T11:12:04Z</time>
      </trkpt>
      <trkpt lat="49.21558" lon="1.12369">
        <ele>133.14731</ele>
        <time>2014-08-07T11:12:09Z</time>
      </trkpt>
      <trkpt lat="49.21558" lon="1.12369">
        <ele>133.14731</ele>
        <time>2014-08-07T11:12:14Z</time>
      </trkpt>
      <trkpt lat="49.21559" lon="1.12369">
        <ele>132.66202</ele>
        <time>2014-08-07T11:12:19Z</time>
      </trkpt>
      <trkpt lat="49.2156" lon="1.12369">
        <ele>132.66202</ele>
        <time>2014-08-07T11:12:24Z</time>
      </trkpt>
      <trkpt lat="49.2156" lon="1.12369">
        <ele>132.66202</ele>
        <time>2014-08-07T11:12:29Z</time>
      </trkpt>
      <trkpt lat="49.21559" lon="1.12366">
        <ele>132.66202</ele>
        <time>2014-08-07T11:12:34Z</time>
      </trkpt>
      <trkpt lat="49.2156" lon="1.1236">
        <ele>132.66202</ele>
        <time>2014-08-07T11:12:39Z</time>
      </trkpt>
      <trkpt lat="49.2156" lon="1.12357">
        <ele>132.17627</ele>
        <time>2014-08-07T11:12:44Z</time>
      </trkpt>
      <trkpt lat="49.2156" lon="1.12355">
        <ele>132.17627</ele>
        <time>2014-08-07T11:12:49Z</time>
      </trkpt>
      <trkpt lat="49.21559" lon="1.12354">
        <ele>132.17627</ele>
        <time>2014-08-07T11:12:54Z</time>
      </trkpt>
      <trkpt lat="49.21558" lon="1.12356">
        <ele>132.17627</ele>
        <time>2014-08-07T11:12:59Z</time>
      </trkpt>
      <trkpt lat="49.21556" lon="1.12362">
        <ele>131.69188</ele>
        <time>2014-08-07T11:13:04Z</time>
      </trkpt>
      <trkpt lat="49.21557" lon="1.12366">
        <ele>131.69188</ele>
        <time>2014-08-07T11:13:09Z</time>
      </trkpt>
      <trkpt lat="49.21558" lon="1.12369">
        <ele>131.69188</ele>
        <time>2014-08-07T11:13:14Z</time>
      </trkpt>
      <trkpt lat="49.21559" lon="1.12369">
        <ele>131.69188</ele>
        <time>2014-08-07T11:13:19Z</time>
      </trkpt>
      <trkpt lat="49.21561" lon="1.1237">
        <ele>131.69188</ele>
        <time>2014-08-07T11:13:24Z</time>
      </trkpt>
      <trkpt lat="49.21562" lon="1.12371">
        <ele>131.69188</ele>
        <time>2014-08-07T11:13:29Z</time>
      </trkpt>
      <trkpt lat="49.21562" lon="1.12371">
        <ele>131.25371</ele>
        <time>2014-08-07T11:13:34Z</time>
      </trkpt>
      <trkpt lat="49.21561" lon="1.12371">
        <ele>131.25371</ele>
        <time>2014-08-07T11:13:39Z</time>
      </trkpt>
      <trkpt lat="49.2156" lon="1.12369">
        <ele>131.25371</ele>
        <time>2014-08-07T11:13:44Z</time>
      </trkpt>
      <trkpt lat="49.2156" lon="1.12367">
        <ele>131.25371</ele>
        <time>2014-08-07T11:13:49Z</time>
      </trkpt>
      <trkpt lat="49.21558" lon="1.12367">
        <ele>131.25371</ele>
        <time>2014-08-07T11:13:54Z</time>
      </trkpt>
      <trkpt lat="49.21558" lon="1.12366">
        <ele>131.25371</ele>
        <time>2014-08-07T11:13:59Z</time>
      </trkpt>
      <trkpt lat="49.21559" lon="1.12367">
        <ele>131.25371</ele>
        <time>2014-08-07T11:14:04Z</time>
      </trkpt>
      <trkpt lat="49.21559" lon="1.12368">
        <ele>131.25371</ele>
        <time>2014-08-07T11:14:09Z</time>
      </trkpt>
      <trkpt lat="49.21557" lon="1.1237">
        <ele>131.25371</ele>
        <time>2014-08-07T11:14:14Z</time>
      </trkpt>
      <trkpt lat="49.21556" lon="1.12373">
        <ele>130.81664</ele>
        <time>2014-08-07T11:14:19Z</time>
      </trkpt>
      <trkpt lat="49.21554" lon="1.12375">
        <ele>130.81664</ele>
        <time>2014-08-07T11:14:24Z</time>
      </trkpt>
      <trkpt lat="49.21555" lon="1.12377">
        <ele>130.81664</ele>
        <time>2014-08-07T11:14:29Z</time>
      </trkpt>
      <trkpt lat="49.21556" lon="1.12379">
        <ele>130.81664</ele>
        <time>2014-08-07T11:14:34Z</time>
      </trkpt>
      <trkpt lat="49.21557" lon="1.12381">
        <ele>130.81664</ele>
        <time>2014-08-07T11:14:39Z</time>
      </trkpt>
      <trkpt lat="49.21559" lon="1.1238">
        <ele>130.5838</ele>
        <time>2014-08-07T11:14:44Z</time>
      </trkpt>
      <trkpt lat="49.21559" lon="1.12379">
        <ele>130.5838</ele>
        <time>2014-08-07T11:14:49Z</time>
      </trkpt>
      <trkpt lat="49.2156" lon="1.12379">
        <ele>130.5838</ele>
        <time>2014-08-07T11:14:54Z</time>
      </trkpt>
      <trkpt lat="49.2156" lon="1.12376">
        <ele>130.5838</ele>
        <time>2014-08-07T11:14:59Z</time>
      </trkpt>
      <trkpt lat="49.21555" lon="1.12366">
        <ele>130.32487</ele>
        <time>2014-08-07T11:15:04Z</time>
      </trkpt>
      <trkpt lat="49.21551" lon="1.12362">
        <ele>130.32487</ele>
        <time>2014-08-07T11:15:09Z</time>
      </trkpt>
      <trkpt lat="49.21547" lon="1.1236">
        <ele>129.91292</ele>
        <time>2014-08-07T11:15:14Z</time>
      </trkpt>
      <trkpt lat="49.2154" lon="1.12355">
        <ele>129.91292</ele>
        <time>2014-08-07T11:15:19Z</time>
      </trkpt>
      <trkpt lat="49.21534" lon="1.12354">
        <ele>129.40364</ele>
        <time>2014-08-07T11:15:24Z</time>
      </trkpt>
      <trkpt lat="49.21529" lon="1.12352">
        <ele>129.40364</ele>
        <time>2014-08-07T11:15:29Z</time>
      </trkpt>
      <trkpt lat="49.21525" lon="1.12351">
        <ele>128.76237</ele>
        <time>2014-08-07T11:15:34Z</time>
      </trkpt>
      <trkpt lat="49.2152" lon="1.12348">
        <ele>128.76237</ele>
        <time>2014-08-07T11:15:39Z</time>
      </trkpt>
      <trkpt lat="49.21515" lon="1.12345">
        <ele>128.01501</ele>
        <time>2014-08-07T11:15:44Z</time>
      </trkpt>
      <trkpt lat="49.21513" lon="1.12342">
        <ele>128.01501</ele>
        <time>2014-08-07T11:15:49Z</time>
      </trkpt>
      <trkpt lat="49.21505" lon="1.12341">
        <ele>127.200134</ele>
        <time>2014-08-07T11:15:54Z</time>
      </trkpt>
      <trkpt lat="49.21498" lon="1.12342">
        <ele>127.200134</ele>
        <time>2014-08-07T11:15:59Z</time>
      </trkpt>
      <trkpt lat="49.21495" lon="1.12342">
        <ele>126.19513</ele>
        <time>2014-08-07T11:16:04Z</time>
      </trkpt>
      <trkpt lat="49.21484" lon="1.1234">
        <ele>125.175095</ele>
        <time>2014-08-07T11:16:09Z</time>
      </trkpt>
      <trkpt lat="49.21477" lon="1.12335">
        <ele>125.175095</ele>
        <time>2014-08-07T11:16:14Z</time>
      </trkpt>
      <trkpt lat="49.2147" lon="1.1233">
        <ele>124.35987</ele>
        <time>2014-08-07T11:16:19Z</time>
      </trkpt>
      <trkpt lat="49.21465" lon="1.12327">
        <ele>124.35987</ele>
        <time>2014-08-07T11:16:24Z</time>
      </trkpt>
      <trkpt lat="49.2146" lon="1.1232">
        <ele>123.86604</ele>
        <time>2014-08-07T11:16:29Z</time>
      </trkpt>
      <trkpt lat="49.21451" lon="1.12318">
        <ele>123.86604</ele>
        <time>2014-08-07T11:16:34Z</time>
      </trkpt>
      <trkpt lat="49.21441" lon="1.12315">
        <ele>124.13213</ele>
        <time>2014-08-07T11:16:39Z</time>
      </trkpt>
      <trkpt lat="49.21431" lon="1.12309">
        <ele>124.75524</ele>
        <time>2014-08-07T11:16:44Z</time>
      </trkpt>
      <trkpt lat="49.21424" lon="1.12305">
        <ele>124.75524</ele>
        <time>2014-08-07T11:16:49Z</time>
      </trkpt>
      <trkpt lat="49.21416" lon="1.12301">
        <ele>125.9086</ele>
        <time>2014-08-07T11:16:54Z</time>
      </trkpt>
      <trkpt lat="49.21411" lon="1.123">
        <ele>125.9086</ele>
        <time>2014-08-07T11:16:59Z</time>
      </trkpt>
      <trkpt lat="49.21406" lon="1.12299">
        <ele>127.49183</ele>
        <time>2014-08-07T11:17:04Z</time>
      </trkpt>
      <trkpt lat="49.21402" lon="1.12296">
        <ele>127.49183</ele>
        <time>2014-08-07T11:17:09Z</time>
      </trkpt>
      <trkpt lat="49.21397" lon="1.12292">
        <ele>129.2089</ele>
        <time>2014-08-07T11:17:14Z</time>
      </trkpt>
      <trkpt lat="49.21394" lon="1.12291">
        <ele>129.2089</ele>
        <time>2014-08-07T11:17:19Z</time>
      </trkpt>
      <trkpt lat="49.21388" lon="1.12289">
        <ele>130.79956</ele>
        <time>2014-08-07T11:17:24Z</time>
      </trkpt>
      <trkpt lat="49.21384" lon="1.12289">
        <ele>130.79956</ele>
        <time>2014-08-07T11:17:29Z</time>
      </trkpt>
      <trkpt lat="49.21378" lon="1.12285">
        <ele>132.29686</ele>
        <time>2014-08-07T11:17:34Z</time>
      </trkpt>
      <trkpt lat="49.21373" lon="1.12282">
        <ele>132.29686</ele>
        <time>2014-08-07T11:17:39Z</time>
      </trkpt>
      <trkpt lat="49.21367" lon="1.1228">
        <ele>133.6164</ele>
        <time>2014-08-07T11:17:44Z</time>
      </trkpt>
      <trkpt lat="49.21362" lon="1.12276">
        <ele>133.6164</ele>
        <time>2014-08-07T11:17:49Z</time>
      </trkpt>
      <trkpt lat="49.21357" lon="1.12275">
        <ele>134.81021</ele>
        <time>2014-08-07T11:17:54Z</time>
      </trkpt>
      <trkpt lat="49.21349" lon="1.12272">
        <ele>134.81021</ele>
        <time>2014-08-07T11:17:59Z</time>
      </trkpt>
      <trkpt lat="49.21342" lon="1.12269">
        <ele>136.1863</ele>
        <time>2014-08-07T11:18:04Z</time>
      </trkpt>
      <trkpt lat="49.21337" lon="1.12265">
        <ele>136.1863</ele>
        <time>2014-08-07T11:18:09Z</time>
      </trkpt>
      <trkpt lat="49.21329" lon="1.12263">
        <ele>137.78459</ele>
        <time>2014-08-07T11:18:14Z</time>
      </trkpt>
      <trkpt lat="49.21324" lon="1.12261">
        <ele>137.78459</ele>
        <time>2014-08-07T11:18:19Z</time>
      </trkpt>
      <trkpt lat="49.21317" lon="1.12259">
        <ele>139.43977</ele>
        <time>2014-08-07T11:18:24Z</time>
      </trkpt>
      <trkpt lat="49.21312" lon="1.12255">
        <ele>139.43977</ele>
        <time>2014-08-07T11:18:29Z</time>
      </trkpt>
      <trkpt lat="49.21307" lon="1.12254">
        <ele>141.04181</ele>
        <time>2014-08-07T11:18:34Z</time>
      </trkpt>
      <trkpt lat="49.21306" lon="1.12254">
        <ele>141.04181</ele>
        <time>2014-08-07T11:18:39Z</time>
      </trkpt>
      <trkpt lat="49.21306" lon="1.12254">
        <ele>141.04181</ele>
        <time>2014-08-07T11:18:44Z</time>
      </trkpt>
      <trkpt lat="49.21303" lon="1.12253">
        <ele>141.04181</ele>
        <time>2014-08-07T11:18:49Z</time>
      </trkpt>
      <trkpt lat="49.21299" lon="1.1225">
        <ele>141.04181</ele>
        <time>2014-08-07T11:18:54Z</time>
      </trkpt>
      <trkpt lat="49.21294" lon="1.12249">
        <ele>142.18634</ele>
        <time>2014-08-07T11:18:59Z</time>
      </trkpt>
      <trkpt lat="49.2129" lon="1.12247">
        <ele>142.18634</ele>
        <time>2014-08-07T11:19:04Z</time>
      </trkpt>
      <trkpt lat="49.21286" lon="1.12247">
        <ele>142.18634</ele>
        <time>2014-08-07T11:19:09Z</time>
      </trkpt>
      <trkpt lat="49.21281" lon="1.12245">
        <ele>143.06213</ele>
        <time>2014-08-07T11:19:14Z</time>
      </trkpt>
      <trkpt lat="49.21273" lon="1.12243">
        <ele>143.06213</ele>
        <time>2014-08-07T11:19:19Z</time>
      </trkpt>
      <trkpt lat="49.21267" lon="1.12238">
        <ele>143.64316</ele>
        <time>2014-08-07T11:19:24Z</time>
      </trkpt>
      <trkpt lat="49.21262" lon="1.12232">
        <ele>143.64316</ele>
        <time>2014-08-07T11:19:29Z</time>
      </trkpt>
      <trkpt lat="49.21258" lon="1.12229">
        <ele>144.06474</ele>
        <time>2014-08-07T11:19:34Z</time>
      </trkpt>
      <trkpt lat="49.21254" lon="1.12229">
        <ele>144.06474</ele>
        <time>2014-08-07T11:19:39Z</time>
      </trkpt>
      <trkpt lat="49.21247" lon="1.12227">
        <ele>144.32309</ele>
        <time>2014-08-07T11:19:44Z</time>
      </trkpt>
      <trkpt lat="49.21244" lon="1.12225">
        <ele>144.32309</ele>
        <time>2014-08-07T11:19:49Z</time>
      </trkpt>
      <trkpt lat="49.21244" lon="1.12225">
        <ele>144.32309</ele>
        <time>2014-08-07T11:19:54Z</time>
      </trkpt>
      <trkpt lat="49.21242" lon="1.12224">
        <ele>144.32309</ele>
        <time>2014-08-07T11:19:59Z</time>
      </trkpt>
      <trkpt lat="49.21234" lon="1.12224">
        <ele>144.19911</ele>
        <time>2014-08-07T11:20:04Z</time>
      </trkpt>
      <trkpt lat="49.2123" lon="1.12221">
        <ele>144.19911</ele>
        <time>2014-08-07T11:20:09Z</time>
      </trkpt>
      <trkpt lat="49.21225" lon="1.1222">
        <ele>144.19911</ele>
        <time>2014-08-07T11:20:14Z</time>
      </trkpt>
      <trkpt lat="49.21223" lon="1.12222">
        <ele>143.76471</ele>
        <time>2014-08-07T11:20:19Z</time>
      </trkpt>
      <trkpt lat="49.21221" lon="1.12221">
        <ele>143.76471</ele>
        <time>2014-08-07T11:20:24Z</time>
      </trkpt>
      <trkpt lat="49.21219" lon="1.12219">
        <ele>143.76471</ele>
        <time>2014-08-07T11:20:29Z</time>
      </trkpt>
      <trkpt lat="49.21217" lon="1.12216">
        <ele>143.76471</ele>
        <time>2014-08-07T11:20:34Z</time>
      </trkpt>
      <trkpt lat="49.21217" lon="1.12215">
        <ele>143.76471</ele>
        <time>2014-08-07T11:20:39Z</time>
      </trkpt>
      <trkpt lat="49.21216" lon="1.12215">
        <ele>143.76471</ele>
        <time>2014-08-07T11:20:44Z</time>
      </trkpt>
      <trkpt lat="49.21213" lon="1.12216">
        <ele>142.38135</ele>
        <time>2014-08-07T11:20:49Z</time>
      </trkpt>
      <trkpt lat="49.2121" lon="1.12215">
        <ele>142.38135</ele>
        <time>2014-08-07T11:20:54Z</time>
      </trkpt>
      <trkpt lat="49.21208" lon="1.12216">
        <ele>142.38135</ele>
        <time>2014-08-07T11:20:59Z</time>
      </trkpt>
      <trkpt lat="49.21205" lon="1.12215">
        <ele>142.38135</ele>
        <time>2014-08-07T11:21:04Z</time>
      </trkpt>
      <trkpt lat="49.21201" lon="1.12212">
        <ele>140.58417</ele>
        <time>2014-08-07T11:21:09Z</time>
      </trkpt>
      <trkpt lat="49.21196" lon="1.12209">
        <ele>140.58417</ele>
        <time>2014-08-07T11:21:14Z</time>
      </trkpt>
      <trkpt lat="49.21192" lon="1.12209">
        <ele>138.48111</ele>
        <time>2014-08-07T11:21:19Z</time>
      </trkpt>
      <trkpt lat="49.2119" lon="1.12206">
        <ele>138.48111</ele>
        <time>2014-08-07T11:21:24Z</time>
      </trkpt>
      <trkpt lat="49.21189" lon="1.12206">
        <ele>138.48111</ele>
        <time>2014-08-07T11:21:29Z</time>
      </trkpt>
      <trkpt lat="49.21187" lon="1.12204">
        <ele>138.48111</ele>
        <time>2014-08-07T11:21:34Z</time>
      </trkpt>
      <trkpt lat="49.21185" lon="1.12201">
        <ele>138.48111</ele>
        <time>2014-08-07T11:21:39Z</time>
      </trkpt>
      <trkpt lat="49.21181" lon="1.12199">
        <ele>136.11542</ele>
        <time>2014-08-07T11:21:44Z</time>
      </trkpt>
      <trkpt lat="49.21179" lon="1.12199">
        <ele>136.11542</ele>
        <time>2014-08-07T11:21:49Z</time>
      </trkpt>
      <trkpt lat="49.21179" lon="1.12199">
        <ele>136.11542</ele>
        <time>2014-08-07T11:21:54Z</time>
      </trkpt>
      <trkpt lat="49.21179" lon="1.12199">
        <ele>136.11542</ele>
        <time>2014-08-07T11:21:59Z</time>
      </trkpt>
      <trkpt lat="49.21179" lon="1.12201">
        <ele>136.11542</ele>
        <time>2014-08-07T11:22:04Z</time>
      </trkpt>
      <trkpt lat="49.21179" lon="1.12201">
        <ele>136.11542</ele>
        <time>2014-08-07T11:22:09Z</time>
      </trkpt>
      <trkpt lat="49.21178" lon="1.122">
        <ele>136.11542</ele>
        <time>2014-08-07T11:22:29Z</time>
      </trkpt>
      <trkpt lat="49.21176" lon="1.122">
        <ele>136.11542</ele>
        <time>2014-08-07T11:22:34Z</time>
      </trkpt>
      <trkpt lat="49.21173" lon="1.12199">
        <ele>133.8017</ele>
        <time>2014-08-07T11:22:39Z</time>
      </trkpt>
      <trkpt lat="49.21173" lon="1.12199">
        <ele>133.8017</ele>
        <time>2014-08-07T11:22:44Z</time>
      </trkpt>
      <trkpt lat="49.21166" lon="1.12197">
        <ele>133.8017</ele>
        <time>2014-08-07T11:22:49Z</time>
      </trkpt>
      <trkpt lat="49.21165" lon="1.12196">
        <ele>133.8017</ele>
        <time>2014-08-07T11:22:54Z</time>
      </trkpt>
      <trkpt lat="49.2116" lon="1.1219">
        <ele>131.75926</ele>
        <time>2014-08-07T11:22:59Z</time>
      </trkpt>
      <trkpt lat="49.21157" lon="1.12181">
        <ele>131.75926</ele>
        <time>2014-08-07T11:23:04Z</time>
      </trkpt>
      <trkpt lat="49.21155" lon="1.1218">
        <ele>131.75926</ele>
        <time>2014-08-07T11:23:09Z</time>
      </trkpt>
      <trkpt lat="49.21155" lon="1.1218">
        <ele>131.75926</ele>
        <time>2014-08-07T11:23:14Z</time>
      </trkpt>
      <trkpt lat="49.21155" lon="1.12179">
        <ele>129.58522</ele>
        <time>2014-08-07T11:23:49Z</time>
      </trkpt>
      <trkpt lat="49.21152" lon="1.12177">
        <ele>129.58522</ele>
        <time>2014-08-07T11:23:54Z</time>
      </trkpt>
      <trkpt lat="49.21151" lon="1.12176">
        <ele>129.58522</ele>
        <time>2014-08-07T11:23:59Z</time>
      </trkpt>
      <trkpt lat="49.21151" lon="1.12176">
        <ele>129.58522</ele>
        <time>2014-08-07T11:24:04Z</time>
      </trkpt>
      <trkpt lat="49.2115" lon="1.12175">
        <ele>129.58522</ele>
        <time>2014-08-07T11:24:09Z</time>
      </trkpt>
      <trkpt lat="49.21149" lon="1.12174">
        <ele>129.58522</ele>
        <time>2014-08-07T11:24:14Z</time>
      </trkpt>
      <trkpt lat="49.21143" lon="1.12172">
        <ele>127.655975</ele>
        <time>2014-08-07T11:24:19Z</time>
      </trkpt>
      <trkpt lat="49.21133" lon="1.12173">
        <ele>125.90162</ele>
        <time>2014-08-07T11:24:24Z</time>
      </trkpt>
      <trkpt lat="49.21133" lon="1.12173">
        <ele>125.90162</ele>
        <time>2014-08-07T11:24:29Z</time>
      </trkpt>
      <trkpt lat="49.21132" lon="1.12173">
        <ele>125.90162</ele>
        <time>2014-08-07T11:24:34Z</time>
      </trkpt>
      <trkpt lat="49.21132" lon="1.12173">
        <ele>125.90162</ele>
        <time>2014-08-07T11:24:39Z</time>
      </trkpt>
      <trkpt lat="49.2113" lon="1.12172">
        <ele>125.90162</ele>
        <time>2014-08-07T11:24:44Z</time>
      </trkpt>
      <trkpt lat="49.21129" lon="1.12171">
        <ele>125.90162</ele>
        <time>2014-08-07T11:24:49Z</time>
      </trkpt>
      <trkpt lat="49.21118" lon="1.12167">
        <ele>124.48738</ele>
        <time>2014-08-07T11:24:54Z</time>
      </trkpt>
      <trkpt lat="49.21101" lon="1.12162">
        <ele>123.2915</ele>
        <time>2014-08-07T11:24:59Z</time>
      </trkpt>
      <trkpt lat="49.21098" lon="1.12158">
        <ele>123.2915</ele>
        <time>2014-08-07T11:25:04Z</time>
      </trkpt>
      <trkpt lat="49.21091" lon="1.12152">
        <ele>122.243675</ele>
        <time>2014-08-07T11:25:09Z</time>
      </trkpt>
      <trkpt lat="49.21084" lon="1.12152">
        <ele>122.243675</ele>
        <time>2014-08-07T11:25:14Z</time>
      </trkpt>
      <trkpt lat="49.21082" lon="1.12153">
        <ele>121.39358</ele>
        <time>2014-08-07T11:25:19Z</time>
      </trkpt>
      <trkpt lat="49.21078" lon="1.1215">
        <ele>121.39358</ele>
        <time>2014-08-07T11:25:24Z</time>
      </trkpt>
      <trkpt lat="49.21075" lon="1.12148">
        <ele>121.39358</ele>
        <time>2014-08-07T11:25:29Z</time>
      </trkpt>
      <trkpt lat="49.21073" lon="1.12147">
        <ele>120.64243</ele>
        <time>2014-08-07T11:25:34Z</time>
      </trkpt>
      <trkpt lat="49.2107" lon="1.12146">
        <ele>120.64243</ele>
        <time>2014-08-07T11:25:39Z</time>
      </trkpt>
      <trkpt lat="49.21066" lon="1.12147">
        <ele>120.64243</ele>
        <time>2014-08-07T11:25:44Z</time>
      </trkpt>
      <trkpt lat="49.21064" lon="1.12146">
        <ele>120.10012</ele>
        <time>2014-08-07T11:25:49Z</time>
      </trkpt>
      <trkpt lat="49.21059" lon="1.12145">
        <ele>120.10012</ele>
        <time>2014-08-07T11:25:54Z</time>
      </trkpt>
      <trkpt lat="49.21053" lon="1.12143">
        <ele>119.60836</ele>
        <time>2014-08-07T11:25:59Z</time>
      </trkpt>
      <trkpt lat="49.21048" lon="1.12142">
        <ele>119.60836</ele>
        <time>2014-08-07T11:26:04Z</time>
      </trkpt>
      <trkpt lat="49.21044" lon="1.1214">
        <ele>119.034676</ele>
        <time>2014-08-07T11:26:09Z</time>
      </trkpt>
      <trkpt lat="49.2104" lon="1.12139">
        <ele>119.034676</ele>
        <time>2014-08-07T11:26:14Z</time>
      </trkpt>
      <trkpt lat="49.21039" lon="1.1214">
        <ele>119.034676</ele>
        <time>2014-08-07T11:26:19Z</time>
      </trkpt>
      <trkpt lat="49.21038" lon="1.1214">
        <ele>119.034676</ele>
        <time>2014-08-07T11:26:24Z</time>
      </trkpt>
      <trkpt lat="49.21038" lon="1.12137">
        <ele>119.034676</ele>
        <time>2014-08-07T11:26:29Z</time>
      </trkpt>
      <trkpt lat="49.21035" lon="1.12137">
        <ele>118.2997</ele>
        <time>2014-08-07T11:26:34Z</time>
      </trkpt>
      <trkpt lat="49.21033" lon="1.12136">
        <ele>118.2997</ele>
        <time>2014-08-07T11:26:39Z</time>
      </trkpt>
      <trkpt lat="49.21019" lon="1.12131">
        <ele>117.618484</ele>
        <time>2014-08-07T11:26:44Z</time>
      </trkpt>
      <trkpt lat="49.21009" lon="1.12124">
        <ele>117.01711</ele>
        <time>2014-08-07T11:26:49Z</time>
      </trkpt>
      <trkpt lat="49.21007" lon="1.12123">
        <ele>117.01711</ele>
        <time>2014-08-07T11:26:54Z</time>
      </trkpt>
      <trkpt lat="49.21004" lon="1.12121">
        <ele>117.01711</ele>
        <time>2014-08-07T11:26:59Z</time>
      </trkpt>
      <trkpt lat="49.21" lon="1.12118">
        <ele>116.41857</ele>
        <time>2014-08-07T11:27:04Z</time>
      </trkpt>
      <trkpt lat="49.20996" lon="1.12112">
        <ele>116.41857</ele>
        <time>2014-08-07T11:27:09Z</time>
      </trkpt>
      <trkpt lat="49.20991" lon="1.12102">
        <ele>115.79465</ele>
        <time>2014-08-07T11:27:14Z</time>
      </trkpt>
      <trkpt lat="49.20991" lon="1.12099">
        <ele>115.79465</ele>
        <time>2014-08-07T11:27:19Z</time>
      </trkpt>
      <trkpt lat="49.20981" lon="1.12101">
        <ele>115.17686</ele>
        <time>2014-08-07T11:27:24Z</time>
      </trkpt>
      <trkpt lat="49.20975" lon="1.12101">
        <ele>115.17686</ele>
        <time>2014-08-07T11:27:29Z</time>
      </trkpt>
      <trkpt lat="49.20975" lon="1.121">
        <ele>115.17686</ele>
        <time>2014-08-07T11:27:34Z</time>
      </trkpt>
      <trkpt lat="49.20974" lon="1.12099">
        <ele>115.17686</ele>
        <time>2014-08-07T11:27:39Z</time>
      </trkpt>
      <trkpt lat="49.2097" lon="1.12098">
        <ele>114.5943</ele>
        <time>2014-08-07T11:27:44Z</time>
      </trkpt>
      <trkpt lat="49.20968" lon="1.12097">
        <ele>114.5943</ele>
        <time>2014-08-07T11:27:49Z</time>
      </trkpt>
      <trkpt lat="49.20967" lon="1.12096">
        <ele>114.5943</ele>
        <time>2014-08-07T11:27:54Z</time>
      </trkpt>
      <trkpt lat="49.20967" lon="1.12096">
        <ele>114.5943</ele>
        <time>2014-08-07T11:27:59Z</time>
      </trkpt>
      <trkpt lat="49.20963" lon="1.12091">
        <ele>114.5943</ele>
        <time>2014-08-07T11:28:09Z</time>
      </trkpt>
      <trkpt lat="49.20954" lon="1.12092">
        <ele>114.924034</ele>
        <time>2014-08-07T11:28:14Z</time>
      </trkpt>
      <trkpt lat="49.20948" lon="1.12095">
        <ele>114.924034</ele>
        <time>2014-08-07T11:28:19Z</time>
      </trkpt>
      <trkpt lat="49.20948" lon="1.12095">
        <ele>114.924034</ele>
        <time>2014-08-07T11:28:24Z</time>
      </trkpt>
      <trkpt lat="49.20942" lon="1.12094">
        <ele>115.89523</ele>
        <time>2014-08-07T11:28:29Z</time>
      </trkpt>
      <trkpt lat="49.20939" lon="1.12091">
        <ele>115.89523</ele>
        <time>2014-08-07T11:28:34Z</time>
      </trkpt>
      <trkpt lat="49.20936" lon="1.12092">
        <ele>115.89523</ele>
        <time>2014-08-07T11:28:39Z</time>
      </trkpt>
      <trkpt lat="49.20933" lon="1.12089">
        <ele>116.73632</ele>
        <time>2014-08-07T11:28:44Z</time>
      </trkpt>
      <trkpt lat="49.20928" lon="1.12084">
        <ele>116.73632</ele>
        <time>2014-08-07T11:28:49Z</time>
      </trkpt>
      <trkpt lat="49.20928" lon="1.12084">
        <ele>116.73632</ele>
        <time>2014-08-07T11:28:54Z</time>
      </trkpt>
      <trkpt lat="49.20925" lon="1.12082">
        <ele>117.5974</ele>
        <time>2014-08-07T11:28:59Z</time>
      </trkpt>
      <trkpt lat="49.20922" lon="1.1208">
        <ele>117.5974</ele>
        <time>2014-08-07T11:29:04Z</time>
      </trkpt>
      <trkpt lat="49.20921" lon="1.12078">
        <ele>117.5974</ele>
        <time>2014-08-07T11:29:09Z</time>
      </trkpt>
      <trkpt lat="49.20919" lon="1.12078">
        <ele>117.5974</ele>
        <time>2014-08-07T11:29:14Z</time>
      </trkpt>
      <trkpt lat="49.20917" lon="1.12077">
        <ele>117.5974</ele>
        <time>2014-08-07T11:29:19Z</time>
      </trkpt>
      <trkpt lat="49.20914" lon="1.12077">
        <ele>118.4157</ele>
        <time>2014-08-07T11:29:24Z</time>
      </trkpt>
      <trkpt lat="49.20907" lon="1.12069">
        <ele>118.4157</ele>
        <time>2014-08-07T11:29:29Z</time>
      </trkpt>
      <trkpt lat="49.20907" lon="1.12069">
        <ele>118.4157</ele>
        <time>2014-08-07T11:29:34Z</time>
      </trkpt>
      <trkpt lat="49.20905" lon="1.12066">
        <ele>119.2773</ele>
        <time>2014-08-07T11:29:39Z</time>
      </trkpt>
      <trkpt lat="49.20904" lon="1.12067">
        <ele>119.2773</ele>
        <time>2014-08-07T11:29:44Z</time>
      </trkpt>
      <trkpt lat="49.209" lon="1.12066">
        <ele>119.2773</ele>
        <time>2014-08-07T11:29:49Z</time>
      </trkpt>
      <trkpt lat="49.20896" lon="1.12067">
        <ele>120.24739</ele>
        <time>2014-08-07T11:29:54Z</time>
      </trkpt>
      <trkpt lat="49.20893" lon="1.12068">
        <ele>120.24739</ele>
        <time>2014-08-07T11:29:59Z</time>
      </trkpt>
      <trkpt lat="49.20892" lon="1.12068">
        <ele>120.24739</ele>
        <time>2014-08-07T11:30:04Z</time>
      </trkpt>
      <trkpt lat="49.2089" lon="1.12069">
        <ele>120.24739</ele>
        <time>2014-08-07T11:30:09Z</time>
      </trkpt>
      <trkpt lat="49.20889" lon="1.12068">
        <ele>120.24739</ele>
        <time>2014-08-07T11:30:14Z</time>
      </trkpt>
      <trkpt lat="49.20883" lon="1.12066">
        <ele>121.27082</ele>
        <time>2014-08-07T11:30:19Z</time>
      </trkpt>
      <trkpt lat="49.20876" lon="1.12061">
        <ele>121.27082</ele>
        <time>2014-08-07T11:30:24Z</time>
      </trkpt>
      <trkpt lat="49.20873" lon="1.1206">
        <ele>122.181076</ele>
        <time>2014-08-07T11:30:29Z</time>
      </trkpt>
      <trkpt lat="49.2087" lon="1.12059">
        <ele>122.181076</ele>
        <time>2014-08-07T11:30:34Z</time>
      </trkpt>
      <trkpt lat="49.20866" lon="1.12056">
        <ele>122.181076</ele>
        <time>2014-08-07T11:30:39Z</time>
      </trkpt>
      <trkpt lat="49.20862" lon="1.12056">
        <ele>123.25654</ele>
        <time>2014-08-07T11:30:44Z</time>
      </trkpt>
      <trkpt lat="49.20858" lon="1.12054">
        <ele>123.25654</ele>
        <time>2014-08-07T11:30:49Z</time>
      </trkpt>
      <trkpt lat="49.20856" lon="1.12053">
        <ele>123.25654</ele>
        <time>2014-08-07T11:30:54Z</time>
      </trkpt>
      <trkpt lat="49.20855" lon="1.12051">
        <ele>123.25654</ele>
        <time>2014-08-07T11:30:59Z</time>
      </trkpt>
      <trkpt lat="49.20854" lon="1.12048">
        <ele>124.452095</ele>
        <time>2014-08-07T11:31:04Z</time>
      </trkpt>
      <trkpt lat="49.20854" lon="1.12047">
        <ele>124.452095</ele>
        <time>2014-08-07T11:31:09Z</time>
      </trkpt>
      <trkpt lat="49.20854" lon="1.12046">
        <ele>124.452095</ele>
        <time>2014-08-07T11:31:14Z</time>
      </trkpt>
      <trkpt lat="49.20854" lon="1.12046">
        <ele>124.452095</ele>
        <time>2014-08-07T11:31:19Z</time>
      </trkpt>
      <trkpt lat="49.20854" lon="1.12046">
        <ele>124.452095</ele>
        <time>2014-08-07T11:31:24Z</time>
      </trkpt>
      <trkpt lat="49.20853" lon="1.12047">
        <ele>124.452095</ele>
        <time>2014-08-07T11:31:29Z</time>
      </trkpt>
      <trkpt lat="49.20853" lon="1.12047">
        <ele>124.452095</ele>
        <time>2014-08-07T11:31:34Z</time>
      </trkpt>
      <trkpt lat="49.20851" lon="1.12047">
        <ele>124.452095</ele>
        <time>2014-08-07T11:31:39Z</time>
      </trkpt>
      <trkpt lat="49.20849" lon="1.12045">
        <ele>124.452095</ele>
        <time>2014-08-07T11:31:44Z</time>
      </trkpt>
      <trkpt lat="49.20847" lon="1.12043">
        <ele>125.552734</ele>
        <time>2014-08-07T11:31:49Z</time>
      </trkpt>
      <trkpt lat="49.20845" lon="1.12043">
        <ele>125.552734</ele>
        <time>2014-08-07T11:31:54Z</time>
      </trkpt>
      <trkpt lat="49.20844" lon="1.12044">
        <ele>125.552734</ele>
        <time>2014-08-07T11:31:59Z</time>
      </trkpt>
      <trkpt lat="49.20844" lon="1.12042">
        <ele>125.552734</ele>
        <time>2014-08-07T11:32:04Z</time>
      </trkpt>
      <trkpt lat="49.20842" lon="1.12041">
        <ele>125.552734</ele>
        <time>2014-08-07T11:32:09Z</time>
      </trkpt>
      <trkpt lat="49.20835" lon="1.12038">
        <ele>126.86395</ele>
        <time>2014-08-07T11:32:14Z</time>
      </trkpt>
      <trkpt lat="49.20829" lon="1.12036">
        <ele>126.86395</ele>
        <time>2014-08-07T11:32:19Z</time>
      </trkpt>
      <trkpt lat="49.20826" lon="1.12034">
        <ele>128.10625</ele>
        <time>2014-08-07T11:32:24Z</time>
      </trkpt>
      <trkpt lat="49.20821" lon="1.12031">
        <ele>128.10625</ele>
        <time>2014-08-07T11:32:29Z</time>
      </trkpt>
      <trkpt lat="49.20815" lon="1.12028">
        <ele>129.32355</ele>
        <time>2014-08-07T11:32:34Z</time>
      </trkpt>
      <trkpt lat="49.2081" lon="1.12028">
        <ele>129.32355</ele>
        <time>2014-08-07T11:32:39Z</time>
      </trkpt>
      <trkpt lat="49.20805" lon="1.12025">
        <ele>130.48465</ele>
        <time>2014-08-07T11:32:44Z</time>
      </trkpt>
      <trkpt lat="49.20801" lon="1.12021">
        <ele>130.48465</ele>
        <time>2014-08-07T11:32:49Z</time>
      </trkpt>
      <trkpt lat="49.20798" lon="1.1202">
        <ele>130.48465</ele>
        <time>2014-08-07T11:32:54Z</time>
      </trkpt>
      <trkpt lat="49.20794" lon="1.12023">
        <ele>131.76268</ele>
        <time>2014-08-07T11:32:59Z</time>
      </trkpt>
      <trkpt lat="49.20793" lon="1.12024">
        <ele>131.76268</ele>
        <time>2014-08-07T11:33:04Z</time>
      </trkpt>
      <trkpt lat="49.20791" lon="1.12024">
        <ele>131.76268</ele>
        <time>2014-08-07T11:33:09Z</time>
      </trkpt>
      <trkpt lat="49.20789" lon="1.12025">
        <ele>131.76268</ele>
        <time>2014-08-07T11:33:14Z</time>
      </trkpt>
      <trkpt lat="49.20787" lon="1.12025">
        <ele>131.76268</ele>
        <time>2014-08-07T11:33:19Z</time>
      </trkpt>
      <trkpt lat="49.20784" lon="1.12024">
        <ele>133.01514</ele>
        <time>2014-08-07T11:33:24Z</time>
      </trkpt>
      <trkpt lat="49.20779" lon="1.12017">
        <ele>133.01514</ele>
        <time>2014-08-07T11:33:29Z</time>
      </trkpt>
      <trkpt lat="49.20774" lon="1.12009">
        <ele>134.2255</ele>
        <time>2014-08-07T11:33:34Z</time>
      </trkpt>
      <trkpt lat="49.20773" lon="1.12006">
        <ele>134.2255</ele>
        <time>2014-08-07T11:33:39Z</time>
      </trkpt>
      <trkpt lat="49.20772" lon="1.12005">
        <ele>134.2255</ele>
        <time>2014-08-07T11:33:44Z</time>
      </trkpt>
      <trkpt lat="49.2077" lon="1.12008">
        <ele>134.2255</ele>
        <time>2014-08-07T11:33:49Z</time>
      </trkpt>
      <trkpt lat="49.20768" lon="1.12013">
        <ele>135.34978</ele>
        <time>2014-08-07T11:33:54Z</time>
      </trkpt>
      <trkpt lat="49.20766" lon="1.12021">
        <ele>135.34978</ele>
        <time>2014-08-07T11:33:59Z</time>
      </trkpt>
      <trkpt lat="49.20763" lon="1.12029">
        <ele>136.33325</ele>
        <time>2014-08-07T11:34:04Z</time>
      </trkpt>
      <trkpt lat="49.2076" lon="1.12041">
        <ele>136.33325</ele>
        <time>2014-08-07T11:34:09Z</time>
      </trkpt>
      <trkpt lat="49.20758" lon="1.12052">
        <ele>137.26979</ele>
        <time>2014-08-07T11:34:14Z</time>
      </trkpt>
      <trkpt lat="49.20756" lon="1.12061">
        <ele>137.26979</ele>
        <time>2014-08-07T11:34:19Z</time>
      </trkpt>
      <trkpt lat="49.20753" lon="1.12068">
        <ele>138.17453</ele>
        <time>2014-08-07T11:34:24Z</time>
      </trkpt>
      <trkpt lat="49.20752" lon="1.12076">
        <ele>138.17453</ele>
        <time>2014-08-07T11:34:29Z</time>
      </trkpt>
      <trkpt lat="49.2075" lon="1.1208">
        <ele>138.17453</ele>
        <time>2014-08-07T11:34:34Z</time>
      </trkpt>
      <trkpt lat="49.20751" lon="1.12091">
        <ele>139.07614</ele>
        <time>2014-08-07T11:34:39Z</time>
      </trkpt>
      <trkpt lat="49.20751" lon="1.12102">
        <ele>139.07614</ele>
        <time>2014-08-07T11:34:44Z</time>
      </trkpt>
      <trkpt lat="49.2075" lon="1.12116">
        <ele>140.01573</ele>
        <time>2014-08-07T11:34:49Z</time>
      </trkpt>
      <trkpt lat="49.20749" lon="1.12121">
        <ele>140.01573</ele>
        <time>2014-08-07T11:34:54Z</time>
      </trkpt>
      <trkpt lat="49.20748" lon="1.12131">
        <ele>141.01694</ele>
        <time>2014-08-07T11:34:59Z</time>
      </trkpt>
      <trkpt lat="49.20747" lon="1.12138">
        <ele>141.01694</ele>
        <time>2014-08-07T11:35:04Z</time>
      </trkpt>
      <trkpt lat="49.20747" lon="1.12144">
        <ele>141.01694</ele>
        <time>2014-08-07T11:35:09Z</time>
      </trkpt>
      <trkpt lat="49.20746" lon="1.12154">
        <ele>141.9575</ele>
        <time>2014-08-07T11:35:14Z</time>
      </trkpt>
      <trkpt lat="49.20746" lon="1.12161">
        <ele>141.9575</ele>
        <time>2014-08-07T11:35:19Z</time>
      </trkpt>
      <trkpt lat="49.20745" lon="1.1217">
        <ele>142.88297</ele>
        <time>2014-08-07T11:35:24Z</time>
      </trkpt>
      <trkpt lat="49.20744" lon="1.12181">
        <ele>142.88297</ele>
        <time>2014-08-07T11:35:29Z</time>
      </trkpt>
      <trkpt lat="49.20743" lon="1.1219">
        <ele>143.93654</ele>
        <time>2014-08-07T11:35:34Z</time>
      </trkpt>
      <trkpt lat="49.20741" lon="1.12198">
        <ele>143.93654</ele>
        <time>2014-08-07T11:35:39Z</time>
      </trkpt>
      <trkpt lat="49.20739" lon="1.12204">
        <ele>144.89035</ele>
        <time>2014-08-07T11:35:44Z</time>
      </trkpt>
      <trkpt lat="49.20739" lon="1.12212">
        <ele>144.89035</ele>
        <time>2014-08-07T11:35:49Z</time>
      </trkpt>
      <trkpt lat="49.20739" lon="1.12224">
        <ele>145.5337</ele>
        <time>2014-08-07T11:35:54Z</time>
      </trkpt>
      <trkpt lat="49.20738" lon="1.12234">
        <ele>145.5337</ele>
        <time>2014-08-07T11:35:59Z</time>
      </trkpt>
      <trkpt lat="49.20737" lon="1.12241">
        <ele>145.80202</ele>
        <time>2014-08-07T11:36:04Z</time>
      </trkpt>
      <trkpt lat="49.20736" lon="1.12249">
        <ele>145.80202</ele>
        <time>2014-08-07T11:36:09Z</time>
      </trkpt>
      <trkpt lat="49.20736" lon="1.12259">
        <ele>145.9104</ele>
        <time>2014-08-07T11:36:14Z</time>
      </trkpt>
      <trkpt lat="49.20735" lon="1.12271">
        <ele>145.9104</ele>
        <time>2014-08-07T11:36:19Z</time>
      </trkpt>
      <trkpt lat="49.20736" lon="1.1228">
        <ele>145.9146</ele>
        <time>2014-08-07T11:36:24Z</time>
      </trkpt>
      <trkpt lat="49.20735" lon="1.12289">
        <ele>145.9146</ele>
        <time>2014-08-07T11:36:29Z</time>
      </trkpt>
      <trkpt lat="49.20734" lon="1.12297">
        <ele>145.75134</ele>
        <time>2014-08-07T11:36:34Z</time>
      </trkpt>
      <trkpt lat="49.20734" lon="1.12306">
        <ele>145.75134</ele>
        <time>2014-08-07T11:36:39Z</time>
      </trkpt>
      <trkpt lat="49.20734" lon="1.12316">
        <ele>145.5643</ele>
        <time>2014-08-07T11:36:44Z</time>
      </trkpt>
      <trkpt lat="49.20732" lon="1.12326">
        <ele>145.5643</ele>
        <time>2014-08-07T11:36:49Z</time>
      </trkpt>
      <trkpt lat="49.20732" lon="1.12336">
        <ele>145.40027</ele>
        <time>2014-08-07T11:36:54Z</time>
      </trkpt>
      <trkpt lat="49.2073" lon="1.12347">
        <ele>145.40027</ele>
        <time>2014-08-07T11:36:59Z</time>
      </trkpt>
      <trkpt lat="49.2073" lon="1.12353">
        <ele>145.31699</ele>
        <time>2014-08-07T11:37:04Z</time>
      </trkpt>
      <trkpt lat="49.20729" lon="1.12362">
        <ele>145.31699</ele>
        <time>2014-08-07T11:37:09Z</time>
      </trkpt>
      <trkpt lat="49.20728" lon="1.12368">
        <ele>145.39655</ele>
        <time>2014-08-07T11:37:14Z</time>
      </trkpt>
      <trkpt lat="49.20729" lon="1.12377">
        <ele>145.39655</ele>
        <time>2014-08-07T11:37:19Z</time>
      </trkpt>
      <trkpt lat="49.20727" lon="1.12383">
        <ele>145.32556</ele>
        <time>2014-08-07T11:37:24Z</time>
      </trkpt>
      <trkpt lat="49.20725" lon="1.1239">
        <ele>145.32556</ele>
        <time>2014-08-07T11:37:29Z</time>
      </trkpt>
      <trkpt lat="49.20722" lon="1.12395">
        <ele>145.2464</ele>
        <time>2014-08-07T11:37:34Z</time>
      </trkpt>
      <trkpt lat="49.20717" lon="1.12411">
        <ele>145.17574</ele>
        <time>2014-08-07T11:37:39Z</time>
      </trkpt>
      <trkpt lat="49.20717" lon="1.12423">
        <ele>145.17574</ele>
        <time>2014-08-07T11:37:44Z</time>
      </trkpt>
      <trkpt lat="49.20717" lon="1.12434">
        <ele>145.04256</ele>
        <time>2014-08-07T11:37:49Z</time>
      </trkpt>
      <trkpt lat="49.20716" lon="1.1244">
        <ele>145.04256</ele>
        <time>2014-08-07T11:37:54Z</time>
      </trkpt>
      <trkpt lat="49.20715" lon="1.12447">
        <ele>145.04256</ele>
        <time>2014-08-07T11:37:59Z</time>
      </trkpt>
      <trkpt lat="49.20713" lon="1.12454">
        <ele>144.63708</ele>
        <time>2014-08-07T11:38:04Z</time>
      </trkpt>
      <trkpt lat="49.20711" lon="1.12464">
        <ele>144.63708</ele>
        <time>2014-08-07T11:38:09Z</time>
      </trkpt>
      <trkpt lat="49.20709" lon="1.1247">
        <ele>144.12607</ele>
        <time>2014-08-07T11:38:14Z</time>
      </trkpt>
      <trkpt lat="49.20704" lon="1.12476">
        <ele>144.12607</ele>
        <time>2014-08-07T11:38:19Z</time>
      </trkpt>
      <trkpt lat="49.20699" lon="1.12481">
        <ele>143.62099</ele>
        <time>2014-08-07T11:38:24Z</time>
      </trkpt>
      <trkpt lat="49.20692" lon="1.12487">
        <ele>143.62099</ele>
        <time>2014-08-07T11:38:29Z</time>
      </trkpt>
      <trkpt lat="49.20688" lon="1.12491">
        <ele>143.22517</ele>
        <time>2014-08-07T11:38:34Z</time>
      </trkpt>
      <trkpt lat="49.20686" lon="1.12495">
        <ele>143.22517</ele>
        <time>2014-08-07T11:38:39Z</time>
      </trkpt>
      <trkpt lat="49.20679" lon="1.12503">
        <ele>142.83221</ele>
        <time>2014-08-07T11:38:44Z</time>
      </trkpt>
      <trkpt lat="49.20676" lon="1.12507">
        <ele>142.83221</ele>
        <time>2014-08-07T11:38:49Z</time>
      </trkpt>
      <trkpt lat="49.20673" lon="1.12513">
        <ele>142.83221</ele>
        <time>2014-08-07T11:38:54Z</time>
      </trkpt>
      <trkpt lat="49.20669" lon="1.12517">
        <ele>142.24265</ele>
        <time>2014-08-07T11:38:59Z</time>
      </trkpt>
      <trkpt lat="49.20664" lon="1.12524">
        <ele>142.24265</ele>
        <time>2014-08-07T11:39:04Z</time>
      </trkpt>
      <trkpt lat="49.2066" lon="1.1253">
        <ele>141.48834</ele>
        <time>2014-08-07T11:39:09Z</time>
      </trkpt>
      <trkpt lat="49.20653" lon="1.12536">
        <ele>141.48834</ele>
        <time>2014-08-07T11:39:14Z</time>
      </trkpt>
      <trkpt lat="49.2065" lon="1.12541">
        <ele>140.57039</ele>
        <time>2014-08-07T11:39:19Z</time>
      </trkpt>
      <trkpt lat="49.20646" lon="1.12545">
        <ele>140.57039</ele>
        <time>2014-08-07T11:39:24Z</time>
      </trkpt>
      <trkpt lat="49.2064" lon="1.12552">
        <ele>139.5623</ele>
        <time>2014-08-07T11:39:29Z</time>
      </trkpt>
      <trkpt lat="49.20636" lon="1.12558">
        <ele>139.5623</ele>
        <time>2014-08-07T11:39:34Z</time>
      </trkpt>
      <trkpt lat="49.2063" lon="1.12565">
        <ele>138.48914</ele>
        <time>2014-08-07T11:39:39Z</time>
      </trkpt>
      <trkpt lat="49.20627" lon="1.12571">
        <ele>138.48914</ele>
        <time>2014-08-07T11:39:44Z</time>
      </trkpt>
      <trkpt lat="49.20624" lon="1.12574">
        <ele>137.34543</ele>
        <time>2014-08-07T11:39:49Z</time>
      </trkpt>
      <trkpt lat="49.2062" lon="1.1258">
        <ele>137.34543</ele>
        <time>2014-08-07T11:39:54Z</time>
      </trkpt>
      <trkpt lat="49.20615" lon="1.12587">
        <ele>136.1262</ele>
        <time>2014-08-07T11:39:59Z</time>
      </trkpt>
      <trkpt lat="49.20611" lon="1.12594">
        <ele>136.1262</ele>
        <time>2014-08-07T11:40:04Z</time>
      </trkpt>
      <trkpt lat="49.20607" lon="1.12599">
        <ele>134.84145</ele>
        <time>2014-08-07T11:40:09Z</time>
      </trkpt>
      <trkpt lat="49.20603" lon="1.12603">
        <ele>134.84145</ele>
        <time>2014-08-07T11:40:14Z</time>
      </trkpt>
      <trkpt lat="49.20598" lon="1.12607">
        <ele>133.50044</ele>
        <time>2014-08-07T11:40:19Z</time>
      </trkpt>
      <trkpt lat="49.20594" lon="1.12612">
        <ele>133.50044</ele>
        <time>2014-08-07T11:40:24Z</time>
      </trkpt>
      <trkpt lat="49.20589" lon="1.12621">
        <ele>132.12633</ele>
        <time>2014-08-07T11:40:29Z</time>
      </trkpt>
      <trkpt lat="49.20586" lon="1.12627">
        <ele>132.12633</ele>
        <time>2014-08-07T11:40:34Z</time>
      </trkpt>
      <trkpt lat="49.20583" lon="1.12631">
        <ele>132.12633</ele>
        <time>2014-08-07T11:40:39Z</time>
      </trkpt>
      <trkpt lat="49.20582" lon="1.1263">
        <ele>130.74051</ele>
        <time>2014-08-07T11:40:44Z</time>
      </trkpt>
      <trkpt lat="49.2058" lon="1.12631">
        <ele>130.74051</ele>
        <time>2014-08-07T11:40:49Z</time>
      </trkpt>
      <trkpt lat="49.20578" lon="1.12631">
        <ele>130.74051</ele>
        <time>2014-08-07T11:40:54Z</time>
      </trkpt>
      <trkpt lat="49.20577" lon="1.12635">
        <ele>130.74051</ele>
        <time>2014-08-07T11:40:59Z</time>
      </trkpt>
      <trkpt lat="49.20575" lon="1.12643">
        <ele>129.06012</ele>
        <time>2014-08-07T11:41:04Z</time>
      </trkpt>
      <trkpt lat="49.20571" lon="1.12649">
        <ele>129.06012</ele>
        <time>2014-08-07T11:41:09Z</time>
      </trkpt>
      <trkpt lat="49.20569" lon="1.12656">
        <ele>127.54432</ele>
        <time>2014-08-07T11:41:14Z</time>
      </trkpt>
      <trkpt lat="49.20565" lon="1.12661">
        <ele>127.54432</ele>
        <time>2014-08-07T11:41:19Z</time>
      </trkpt>
      <trkpt lat="49.20561" lon="1.12665">
        <ele>126.15683</ele>
        <time>2014-08-07T11:41:24Z</time>
      </trkpt>
      <trkpt lat="49.20559" lon="1.12672">
        <ele>126.15683</ele>
        <time>2014-08-07T11:41:29Z</time>
      </trkpt>
      <trkpt lat="49.20557" lon="1.12677">
        <ele>124.921196</ele>
        <time>2014-08-07T11:41:34Z</time>
      </trkpt>
      <trkpt lat="49.20554" lon="1.12683">
        <ele>124.921196</ele>
        <time>2014-08-07T11:41:39Z</time>
      </trkpt>
      <trkpt lat="49.20551" lon="1.12695">
        <ele>123.95953</ele>
        <time>2014-08-07T11:41:44Z</time>
      </trkpt>
      <trkpt lat="49.20545" lon="1.12702">
        <ele>123.95953</ele>
        <time>2014-08-07T11:41:49Z</time>
      </trkpt>
      <trkpt lat="49.20541" lon="1.12704">
        <ele>123.139145</ele>
        <time>2014-08-07T11:41:54Z</time>
      </trkpt>
      <trkpt lat="49.20538" lon="1.12705">
        <ele>123.139145</ele>
        <time>2014-08-07T11:41:59Z</time>
      </trkpt>
      <trkpt lat="49.20538" lon="1.12708">
        <ele>123.139145</ele>
        <time>2014-08-07T11:42:04Z</time>
      </trkpt>
      <trkpt lat="49.20537" lon="1.12712">
        <ele>123.139145</ele>
        <time>2014-08-07T11:42:09Z</time>
      </trkpt>
      <trkpt lat="49.20532" lon="1.12713">
        <ele>122.480644</ele>
        <time>2014-08-07T11:42:14Z</time>
      </trkpt>
      <trkpt lat="49.20526" lon="1.12717">
        <ele>122.480644</ele>
        <time>2014-08-07T11:42:19Z</time>
      </trkpt>
      <trkpt lat="49.20514" lon="1.1272">
        <ele>121.97373</ele>
        <time>2014-08-07T11:42:24Z</time>
      </trkpt>
      <trkpt lat="49.20509" lon="1.12722">
        <ele>121.97373</ele>
        <time>2014-08-07T11:42:29Z</time>
      </trkpt>
      <trkpt lat="49.20503" lon="1.12725">
        <ele>121.68038</ele>
        <time>2014-08-07T11:42:34Z</time>
      </trkpt>
      <trkpt lat="49.20498" lon="1.1273">
        <ele>121.68038</ele>
        <time>2014-08-07T11:42:39Z</time>
      </trkpt>
      <trkpt lat="49.20488" lon="1.12734">
        <ele>121.65732</ele>
        <time>2014-08-07T11:42:44Z</time>
      </trkpt>
      <trkpt lat="49.20482" lon="1.12737">
        <ele>121.65732</ele>
        <time>2014-08-07T11:42:49Z</time>
      </trkpt>
      <trkpt lat="49.20479" lon="1.1274">
        <ele>121.91298</ele>
        <time>2014-08-07T11:42:54Z</time>
      </trkpt>
      <trkpt lat="49.20473" lon="1.12739">
        <ele>121.91298</ele>
        <time>2014-08-07T11:42:59Z</time>
      </trkpt>
      <trkpt lat="49.20465" lon="1.1274">
        <ele>122.31021</ele>
        <time>2014-08-07T11:43:04Z</time>
      </trkpt>
      <trkpt lat="49.20461" lon="1.12743">
        <ele>122.31021</ele>
        <time>2014-08-07T11:43:09Z</time>
      </trkpt>
      <trkpt lat="49.20455" lon="1.12746">
        <ele>122.952034</ele>
        <time>2014-08-07T11:43:14Z</time>
      </trkpt>
      <trkpt lat="49.20449" lon="1.12748">
        <ele>122.952034</ele>
        <time>2014-08-07T11:43:19Z</time>
      </trkpt>
      <trkpt lat="49.20443" lon="1.12749">
        <ele>123.73138</ele>
        <time>2014-08-07T11:43:24Z</time>
      </trkpt>
      <trkpt lat="49.20437" lon="1.12751">
        <ele>123.73138</ele>
        <time>2014-08-07T11:43:29Z</time>
      </trkpt>
      <trkpt lat="49.20432" lon="1.12751">
        <ele>124.44772</ele>
        <time>2014-08-07T11:43:34Z</time>
      </trkpt>
      <trkpt lat="49.20427" lon="1.12752">
        <ele>124.44772</ele>
        <time>2014-08-07T11:43:39Z</time>
      </trkpt>
      <trkpt lat="49.20422" lon="1.12753">
        <ele>125.08834</ele>
        <time>2014-08-07T11:43:44Z</time>
      </trkpt>
      <trkpt lat="49.20416" lon="1.12755">
        <ele>125.08834</ele>
        <time>2014-08-07T11:43:49Z</time>
      </trkpt>
      <trkpt lat="49.20412" lon="1.12757">
        <ele>125.627205</ele>
        <time>2014-08-07T11:43:54Z</time>
      </trkpt>
      <trkpt lat="49.20405" lon="1.12755">
        <ele>125.627205</ele>
        <time>2014-08-07T11:43:59Z</time>
      </trkpt>
      <trkpt lat="49.20398" lon="1.12754">
        <ele>126.112526</ele>
        <time>2014-08-07T11:44:04Z</time>
      </trkpt>
      <trkpt lat="49.20395" lon="1.12754">
        <ele>126.112526</ele>
        <time>2014-08-07T11:44:09Z</time>
      </trkpt>
      <trkpt lat="49.20395" lon="1.12754">
        <ele>126.112526</ele>
        <time>2014-08-07T11:44:14Z</time>
      </trkpt>
      <trkpt lat="49.20396" lon="1.12755">
        <ele>126.112526</ele>
        <time>2014-08-07T11:44:19Z</time>
      </trkpt>
      <trkpt lat="49.20396" lon="1.12755">
        <ele>126.112526</ele>
        <time>2014-08-07T11:44:24Z</time>
      </trkpt>
      <trkpt lat="49.20396" lon="1.12754">
        <ele>126.112526</ele>
        <time>2014-08-07T11:44:29Z</time>
      </trkpt>
      <trkpt lat="49.20393" lon="1.12756">
        <ele>126.112526</ele>
        <time>2014-08-07T11:44:34Z</time>
      </trkpt>
      <trkpt lat="49.20389" lon="1.12758">
        <ele>126.50263</ele>
        <time>2014-08-07T11:44:39Z</time>
      </trkpt>
      <trkpt lat="49.20382" lon="1.12758">
        <ele>126.50263</ele>
        <time>2014-08-07T11:44:44Z</time>
      </trkpt>
      <trkpt lat="49.20376" lon="1.12756">
        <ele>126.874466</ele>
        <time>2014-08-07T11:44:49Z</time>
      </trkpt>
      <trkpt lat="49.20372" lon="1.12757">
        <ele>126.874466</ele>
        <time>2014-08-07T11:44:54Z</time>
      </trkpt>
      <trkpt lat="49.20369" lon="1.12759">
        <ele>126.874466</ele>
        <time>2014-08-07T11:44:59Z</time>
      </trkpt>
      <trkpt lat="49.20363" lon="1.12757">
        <ele>127.48673</ele>
        <time>2014-08-07T11:45:04Z</time>
      </trkpt>
      <trkpt lat="49.2036" lon="1.1276">
        <ele>127.48673</ele>
        <time>2014-08-07T11:45:09Z</time>
      </trkpt>
      <trkpt lat="49.20357" lon="1.12764">
        <ele>127.48673</ele>
        <time>2014-08-07T11:45:14Z</time>
      </trkpt>
      <trkpt lat="49.20345" lon="1.12768">
        <ele>128.17493</ele>
        <time>2014-08-07T11:45:19Z</time>
      </trkpt>
      <trkpt lat="49.2034" lon="1.12773">
        <ele>128.17493</ele>
        <time>2014-08-07T11:45:24Z</time>
      </trkpt>
      <trkpt lat="49.20331" lon="1.12774">
        <ele>128.88733</ele>
        <time>2014-08-07T11:45:29Z</time>
      </trkpt>
      <trkpt lat="49.20326" lon="1.12775">
        <ele>128.88733</ele>
        <time>2014-08-07T11:45:34Z</time>
      </trkpt>
      <trkpt lat="49.20323" lon="1.12777">
        <ele>128.88733</ele>
        <time>2014-08-07T11:45:39Z</time>
      </trkpt>
      <trkpt lat="49.20318" lon="1.1278">
        <ele>129.7345</ele>
        <time>2014-08-07T11:45:44Z</time>
      </trkpt>
      <trkpt lat="49.20313" lon="1.12784">
        <ele>129.7345</ele>
        <time>2014-08-07T11:45:49Z</time>
      </trkpt>
      <trkpt lat="49.20309" lon="1.12783">
        <ele>130.50146</ele>
        <time>2014-08-07T11:45:54Z</time>
      </trkpt>
      <trkpt lat="49.20305" lon="1.12791">
        <ele>130.50146</ele>
        <time>2014-08-07T11:45:59Z</time>
      </trkpt>
      <trkpt lat="49.20295" lon="1.12797">
        <ele>131.29196</ele>
        <time>2014-08-07T11:46:04Z</time>
      </trkpt>
      <trkpt lat="49.20286" lon="1.12798">
        <ele>132.07239</ele>
        <time>2014-08-07T11:46:09Z</time>
      </trkpt>
      <trkpt lat="49.2028" lon="1.128">
        <ele>132.07239</ele>
        <time>2014-08-07T11:46:14Z</time>
      </trkpt>
      <trkpt lat="49.20273" lon="1.12803">
        <ele>132.84047</ele>
        <time>2014-08-07T11:46:19Z</time>
      </trkpt>
      <trkpt lat="49.20268" lon="1.12804">
        <ele>132.84047</ele>
        <time>2014-08-07T11:46:24Z</time>
      </trkpt>
      <trkpt lat="49.20264" lon="1.12808">
        <ele>133.56543</ele>
        <time>2014-08-07T11:46:29Z</time>
      </trkpt>
      <trkpt lat="49.20258" lon="1.12811">
        <ele>133.56543</ele>
        <time>2014-08-07T11:46:34Z</time>
      </trkpt>
      <trkpt lat="49.20253" lon="1.12811">
        <ele>134.23328</ele>
        <time>2014-08-07T11:46:39Z</time>
      </trkpt>
      <trkpt lat="49.20247" lon="1.12812">
        <ele>134.23328</ele>
        <time>2014-08-07T11:46:44Z</time>
      </trkpt>
      <trkpt lat="49.20238" lon="1.12817">
        <ele>134.83133</ele>
        <time>2014-08-07T11:46:49Z</time>
      </trkpt>
      <trkpt lat="49.20232" lon="1.12821">
        <ele>134.83133</ele>
        <time>2014-08-07T11:46:54Z</time>
      </trkpt>
      <trkpt lat="49.20227" lon="1.12823">
        <ele>135.29042</ele>
        <time>2014-08-07T11:46:59Z</time>
      </trkpt>
      <trkpt lat="49.20221" lon="1.12827">
        <ele>135.29042</ele>
        <time>2014-08-07T11:47:04Z</time>
      </trkpt>
      <trkpt lat="49.20214" lon="1.12827">
        <ele>135.70546</ele>
        <time>2014-08-07T11:47:09Z</time>
      </trkpt>
      <trkpt lat="49.20206" lon="1.12828">
        <ele>135.70546</ele>
        <time>2014-08-07T11:47:14Z</time>
      </trkpt>
      <trkpt lat="49.202" lon="1.12829">
        <ele>136.16455</ele>
        <time>2014-08-07T11:47:19Z</time>
      </trkpt>
      <trkpt lat="49.20196" lon="1.12831">
        <ele>136.16455</ele>
        <time>2014-08-07T11:47:24Z</time>
      </trkpt>
      <trkpt lat="49.20191" lon="1.12832">
        <ele>136.6196</ele>
        <time>2014-08-07T11:47:29Z</time>
      </trkpt>
      <trkpt lat="49.20185" lon="1.12833">
        <ele>136.6196</ele>
        <time>2014-08-07T11:47:34Z</time>
      </trkpt>
      <trkpt lat="49.20179" lon="1.12834">
        <ele>136.93965</ele>
        <time>2014-08-07T11:47:39Z</time>
      </trkpt>
      <trkpt lat="49.20173" lon="1.12833">
        <ele>136.93965</ele>
        <time>2014-08-07T11:47:44Z</time>
      </trkpt>
      <trkpt lat="49.20167" lon="1.12835">
        <ele>137.1335</ele>
        <time>2014-08-07T11:47:49Z</time>
      </trkpt>
      <trkpt lat="49.20163" lon="1.12836">
        <ele>137.1335</ele>
        <time>2014-08-07T11:47:54Z</time>
      </trkpt>
      <trkpt lat="49.20158" lon="1.12837">
        <ele>137.1335</ele>
        <time>2014-08-07T11:47:59Z</time>
      </trkpt>
      <trkpt lat="49.20153" lon="1.12835">
        <ele>137.23854</ele>
        <time>2014-08-07T11:48:04Z</time>
      </trkpt>
      <trkpt lat="49.20147" lon="1.12835">
        <ele>137.23854</ele>
        <time>2014-08-07T11:48:09Z</time>
      </trkpt>
      <trkpt lat="49.20142" lon="1.12835">
        <ele>137.24652</ele>
        <time>2014-08-07T11:48:14Z</time>
      </trkpt>
      <trkpt lat="49.20139" lon="1.12831">
        <ele>137.24652</ele>
        <time>2014-08-07T11:48:19Z</time>
      </trkpt>
      <trkpt lat="49.20137" lon="1.12825">
        <ele>137.24652</ele>
        <time>2014-08-07T11:48:24Z</time>
      </trkpt>
      <trkpt lat="49.20137" lon="1.12822">
        <ele>137.04921</ele>
        <time>2014-08-07T11:48:29Z</time>
      </trkpt>
      <trkpt lat="49.20136" lon="1.12822">
        <ele>137.04921</ele>
        <time>2014-08-07T11:48:34Z</time>
      </trkpt>
      <trkpt lat="49.20135" lon="1.12822">
        <ele>137.04921</ele>
        <time>2014-08-07T11:48:39Z</time>
      </trkpt>
      <trkpt lat="49.20131" lon="1.12816">
        <ele>137.04921</ele>
        <time>2014-08-07T11:48:44Z</time>
      </trkpt>
      <trkpt lat="49.2013" lon="1.12809">
        <ele>136.5758</ele>
        <time>2014-08-07T11:48:49Z</time>
      </trkpt>
      <trkpt lat="49.20129" lon="1.12802">
        <ele>136.5758</ele>
        <time>2014-08-07T11:48:54Z</time>
      </trkpt>
      <trkpt lat="49.20129" lon="1.12798">
        <ele>136.5758</ele>
        <time>2014-08-07T11:48:59Z</time>
      </trkpt>
      <trkpt lat="49.20129" lon="1.12799">
        <ele>136.5758</ele>
        <time>2014-08-07T11:49:04Z</time>
      </trkpt>
      <trkpt lat="49.20129" lon="1.12797">
        <ele>136.00652</ele>
        <time>2014-08-07T11:49:09Z</time>
      </trkpt>
      <trkpt lat="49.20128" lon="1.12794">
        <ele>136.00652</ele>
        <time>2014-08-07T11:49:14Z</time>
      </trkpt>
      <trkpt lat="49.20128" lon="1.12794">
        <ele>136.00652</ele>
        <time>2014-08-07T11:49:19Z</time>
      </trkpt>
      <trkpt lat="49.20128" lon="1.12794">
        <ele>136.00652</ele>
        <time>2014-08-07T11:49:24Z</time>
      </trkpt>
      <trkpt lat="49.20127" lon="1.12794">
        <ele>136.00652</ele>
        <time>2014-08-07T11:49:29Z</time>
      </trkpt>
      <trkpt lat="49.20124" lon="1.12789">
        <ele>136.00652</ele>
        <time>2014-08-07T11:49:34Z</time>
      </trkpt>
      <trkpt lat="49.20123" lon="1.12785">
        <ele>135.42213</ele>
        <time>2014-08-07T11:49:39Z</time>
      </trkpt>
      <trkpt lat="49.20123" lon="1.12785">
        <ele>135.42213</ele>
        <time>2014-08-07T11:49:44Z</time>
      </trkpt>
      <trkpt lat="49.20124" lon="1.12787">
        <ele>135.42213</ele>
        <time>2014-08-07T11:49:49Z</time>
      </trkpt>
      <trkpt lat="49.20124" lon="1.12786">
        <ele>135.42213</ele>
        <time>2014-08-07T11:49:54Z</time>
      </trkpt>
      <trkpt lat="49.20124" lon="1.12785">
        <ele>135.42213</ele>
        <time>2014-08-07T11:49:59Z</time>
      </trkpt>
      <trkpt lat="49.20122" lon="1.12783">
        <ele>135.42213</ele>
        <time>2014-08-07T11:50:04Z</time>
      </trkpt>
      <trkpt lat="49.20119" lon="1.12775">
        <ele>134.85439</ele>
        <time>2014-08-07T11:50:09Z</time>
      </trkpt>
      <trkpt lat="49.20117" lon="1.12767">
        <ele>134.85439</ele>
        <time>2014-08-07T11:50:14Z</time>
      </trkpt>
      <trkpt lat="49.20115" lon="1.1276">
        <ele>134.2894</ele>
        <time>2014-08-07T11:50:19Z</time>
      </trkpt>
      <trkpt lat="49.20112" lon="1.12755">
        <ele>134.2894</ele>
        <time>2014-08-07T11:50:24Z</time>
      </trkpt>
      <trkpt lat="49.20109" lon="1.12749">
        <ele>133.77197</ele>
        <time>2014-08-07T11:50:29Z</time>
      </trkpt>
      <trkpt lat="49.20106" lon="1.12742">
        <ele>133.77197</ele>
        <time>2014-08-07T11:50:34Z</time>
      </trkpt>
      <trkpt lat="49.20104" lon="1.12735">
        <ele>133.25702</ele>
        <time>2014-08-07T11:50:39Z</time>
      </trkpt>
      <trkpt lat="49.20102" lon="1.12725">
        <ele>133.25702</ele>
        <time>2014-08-07T11:50:44Z</time>
      </trkpt>
      <trkpt lat="49.201" lon="1.12719">
        <ele>132.74602</ele>
        <time>2014-08-07T11:50:49Z</time>
      </trkpt>
      <trkpt lat="49.20098" lon="1.12712">
        <ele>132.74602</ele>
        <time>2014-08-07T11:50:54Z</time>
      </trkpt>
      <trkpt lat="49.20095" lon="1.12707">
        <ele>132.32677</ele>
        <time>2014-08-07T11:50:59Z</time>
      </trkpt>
      <trkpt lat="49.20091" lon="1.127">
        <ele>132.32677</ele>
        <time>2014-08-07T11:51:04Z</time>
      </trkpt>
      <trkpt lat="49.20088" lon="1.12694">
        <ele>131.90746</ele>
        <time>2014-08-07T11:51:09Z</time>
      </trkpt>
      <trkpt lat="49.20085" lon="1.12686">
        <ele>131.90746</ele>
        <time>2014-08-07T11:51:14Z</time>
      </trkpt>
      <trkpt lat="49.20081" lon="1.12678">
        <ele>131.48943</ele>
        <time>2014-08-07T11:51:19Z</time>
      </trkpt>
      <trkpt lat="49.20078" lon="1.12671">
        <ele>131.48943</ele>
        <time>2014-08-07T11:51:24Z</time>
      </trkpt>
      <trkpt lat="49.20075" lon="1.12665">
        <ele>131.08838</ele>
        <time>2014-08-07T11:51:29Z</time>
      </trkpt>
      <trkpt lat="49.20073" lon="1.12657">
        <ele>131.08838</ele>
        <time>2014-08-07T11:51:34Z</time>
      </trkpt>
      <trkpt lat="49.20069" lon="1.12649">
        <ele>130.79079</ele>
        <time>2014-08-07T11:51:39Z</time>
      </trkpt>
      <trkpt lat="49.20066" lon="1.12642">
        <ele>130.79079</ele>
        <time>2014-08-07T11:51:44Z</time>
      </trkpt>
      <trkpt lat="49.20064" lon="1.12636">
        <ele>130.59004</ele>
        <time>2014-08-07T11:51:49Z</time>
      </trkpt>
      <trkpt lat="49.20062" lon="1.12631">
        <ele>130.59004</ele>
        <time>2014-08-07T11:51:54Z</time>
      </trkpt>
      <trkpt lat="49.20057" lon="1.12623">
        <ele>130.4509</ele>
        <time>2014-08-07T11:51:59Z</time>
      </trkpt>
      <trkpt lat="49.20054" lon="1.12615">
        <ele>130.4509</ele>
        <time>2014-08-07T11:52:04Z</time>
      </trkpt>
      <trkpt lat="49.20053" lon="1.12608">
        <ele>130.39815</ele>
        <time>2014-08-07T11:52:09Z</time>
      </trkpt>
      <trkpt lat="49.20051" lon="1.12603">
        <ele>130.39815</ele>
        <time>2014-08-07T11:52:14Z</time>
      </trkpt>
      <trkpt lat="49.20046" lon="1.12595">
        <ele>130.41125</ele>
        <time>2014-08-07T11:52:19Z</time>
      </trkpt>
      <trkpt lat="49.20044" lon="1.12586">
        <ele>130.41125</ele>
        <time>2014-08-07T11:52:24Z</time>
      </trkpt>
      <trkpt lat="49.20043" lon="1.12575">
        <ele>130.5863</ele>
        <time>2014-08-07T11:52:29Z</time>
      </trkpt>
      <trkpt lat="49.2004" lon="1.12569">
        <ele>130.5863</ele>
        <time>2014-08-07T11:52:34Z</time>
      </trkpt>
      <trkpt lat="49.20037" lon="1.12563">
        <ele>130.93977</ele>
        <time>2014-08-07T11:52:39Z</time>
      </trkpt>
      <trkpt lat="49.20033" lon="1.12555">
        <ele>130.93977</ele>
        <time>2014-08-07T11:52:44Z</time>
      </trkpt>
      <trkpt lat="49.20029" lon="1.12549">
        <ele>131.28465</ele>
        <time>2014-08-07T11:52:49Z</time>
      </trkpt>
      <trkpt lat="49.20026" lon="1.12542">
        <ele>131.28465</ele>
        <time>2014-08-07T11:52:54Z</time>
      </trkpt>
      <trkpt lat="49.20022" lon="1.12535">
        <ele>131.63507</ele>
        <time>2014-08-07T11:52:59Z</time>
      </trkpt>
      <trkpt lat="49.20019" lon="1.12527">
        <ele>131.63507</ele>
        <time>2014-08-07T11:53:04Z</time>
      </trkpt>
      <trkpt lat="49.20016" lon="1.12521">
        <ele>131.98962</ele>
        <time>2014-08-07T11:53:09Z</time>
      </trkpt>
      <trkpt lat="49.20012" lon="1.12514">
        <ele>131.98962</ele>
        <time>2014-08-07T11:53:14Z</time>
      </trkpt>
      <trkpt lat="49.20009" lon="1.12508">
        <ele>132.33263</ele>
        <time>2014-08-07T11:53:19Z</time>
      </trkpt>
      <trkpt lat="49.20005" lon="1.12502">
        <ele>132.33263</ele>
        <time>2014-08-07T11:53:24Z</time>
      </trkpt>
      <trkpt lat="49.20001" lon="1.12494">
        <ele>132.62073</ele>
        <time>2014-08-07T11:53:29Z</time>
      </trkpt>
      <trkpt lat="49.19997" lon="1.12487">
        <ele>132.62073</ele>
        <time>2014-08-07T11:53:34Z</time>
      </trkpt>
      <trkpt lat="49.19994" lon="1.12478">
        <ele>132.91484</ele>
        <time>2014-08-07T11:53:39Z</time>
      </trkpt>
      <trkpt lat="49.19991" lon="1.1247">
        <ele>132.91484</ele>
        <time>2014-08-07T11:53:44Z</time>
      </trkpt>
      <trkpt lat="49.19986" lon="1.12462">
        <ele>133.12721</ele>
        <time>2014-08-07T11:53:49Z</time>
      </trkpt>
      <trkpt lat="49.19981" lon="1.12456">
        <ele>133.12721</ele>
        <time>2014-08-07T11:53:54Z</time>
      </trkpt>
      <trkpt lat="49.19976" lon="1.12452">
        <ele>133.4074</ele>
        <time>2014-08-07T11:53:59Z</time>
      </trkpt>
      <trkpt lat="49.1997" lon="1.12451">
        <ele>133.4074</ele>
        <time>2014-08-07T11:54:04Z</time>
      </trkpt>
      <trkpt lat="49.19965" lon="1.12449">
        <ele>133.72083</ele>
        <time>2014-08-07T11:54:09Z</time>
      </trkpt>
      <trkpt lat="49.1996" lon="1.12445">
        <ele>133.72083</ele>
        <time>2014-08-07T11:54:14Z</time>
      </trkpt>
      <trkpt lat="49.19953" lon="1.12444">
        <ele>134.12189</ele>
        <time>2014-08-07T11:54:19Z</time>
      </trkpt>
      <trkpt lat="49.19948" lon="1.12442">
        <ele>134.12189</ele>
        <time>2014-08-07T11:54:24Z</time>
      </trkpt>
      <trkpt lat="49.19942" lon="1.12439">
        <ele>134.60304</ele>
        <time>2014-08-07T11:54:29Z</time>
      </trkpt>
      <trkpt lat="49.19936" lon="1.12438">
        <ele>134.60304</ele>
        <time>2014-08-07T11:54:34Z</time>
      </trkpt>
      <trkpt lat="49.19929" lon="1.12436">
        <ele>135.12831</ele>
        <time>2014-08-07T11:54:39Z</time>
      </trkpt>
      <trkpt lat="49.19924" lon="1.12434">
        <ele>135.12831</ele>
        <time>2014-08-07T11:54:44Z</time>
      </trkpt>
      <trkpt lat="49.19917" lon="1.12431">
        <ele>135.69305</ele>
        <time>2014-08-07T11:54:49Z</time>
      </trkpt>
      <trkpt lat="49.19913" lon="1.12429">
        <ele>135.69305</ele>
        <time>2014-08-07T11:54:54Z</time>
      </trkpt>
      <trkpt lat="49.19907" lon="1.12428">
        <ele>136.22086</ele>
        <time>2014-08-07T11:54:59Z</time>
      </trkpt>
      <trkpt lat="49.199" lon="1.12425">
        <ele>136.22086</ele>
        <time>2014-08-07T11:55:04Z</time>
      </trkpt>
      <trkpt lat="49.19894" lon="1.12423">
        <ele>136.71304</ele>
        <time>2014-08-07T11:55:09Z</time>
      </trkpt>
      <trkpt lat="49.19889" lon="1.12422">
        <ele>136.71304</ele>
        <time>2014-08-07T11:55:14Z</time>
      </trkpt>
      <trkpt lat="49.19883" lon="1.12418">
        <ele>137.1422</ele>
        <time>2014-08-07T11:55:19Z</time>
      </trkpt>
      <trkpt lat="49.19877" lon="1.12417">
        <ele>137.1422</ele>
        <time>2014-08-07T11:55:24Z</time>
      </trkpt>
      <trkpt lat="49.19872" lon="1.12415">
        <ele>137.55513</ele>
        <time>2014-08-07T11:55:29Z</time>
      </trkpt>
      <trkpt lat="49.19866" lon="1.12411">
        <ele>137.55513</ele>
        <time>2014-08-07T11:55:34Z</time>
      </trkpt>
      <trkpt lat="49.19862" lon="1.12409">
        <ele>137.9521</ele>
        <time>2014-08-07T11:55:39Z</time>
      </trkpt>
      <trkpt lat="49.19857" lon="1.12406">
        <ele>137.9521</ele>
        <time>2014-08-07T11:55:44Z</time>
      </trkpt>
      <trkpt lat="49.19851" lon="1.12404">
        <ele>138.31897</ele>
        <time>2014-08-07T11:55:49Z</time>
      </trkpt>
      <trkpt lat="49.19845" lon="1.12401">
        <ele>138.31897</ele>
        <time>2014-08-07T11:55:54Z</time>
      </trkpt>
      <trkpt lat="49.19838" lon="1.12399">
        <ele>138.61395</ele>
        <time>2014-08-07T11:55:59Z</time>
      </trkpt>
      <trkpt lat="49.19833" lon="1.12398">
        <ele>138.61395</ele>
        <time>2014-08-07T11:56:04Z</time>
      </trkpt>
      <trkpt lat="49.19825" lon="1.12396">
        <ele>138.8706</ele>
        <time>2014-08-07T11:56:09Z</time>
      </trkpt>
      <trkpt lat="49.19818" lon="1.12395">
        <ele>138.8706</ele>
        <time>2014-08-07T11:56:14Z</time>
      </trkpt>
      <trkpt lat="49.19813" lon="1.12393">
        <ele>139.13457</ele>
        <time>2014-08-07T11:56:19Z</time>
      </trkpt>
      <trkpt lat="49.19809" lon="1.12392">
        <ele>139.13457</ele>
        <time>2014-08-07T11:56:24Z</time>
      </trkpt>
      <trkpt lat="49.19802" lon="1.12388">
        <ele>139.41933</ele>
        <time>2014-08-07T11:56:29Z</time>
      </trkpt>
      <trkpt lat="49.19794" lon="1.12386">
        <ele>139.41933</ele>
        <time>2014-08-07T11:56:34Z</time>
      </trkpt>
      <trkpt lat="49.1979" lon="1.12383">
        <ele>139.63646</ele>
        <time>2014-08-07T11:56:39Z</time>
      </trkpt>
      <trkpt lat="49.19783" lon="1.12381">
        <ele>139.63646</ele>
        <time>2014-08-07T11:56:44Z</time>
      </trkpt>
      <trkpt lat="49.19778" lon="1.1238">
        <ele>139.7763</ele>
        <time>2014-08-07T11:56:49Z</time>
      </trkpt>
      <trkpt lat="49.19769" lon="1.12379">
        <ele>139.90222</ele>
        <time>2014-08-07T11:56:54Z</time>
      </trkpt>
      <trkpt lat="49.19764" lon="1.12376">
        <ele>139.90222</ele>
        <time>2014-08-07T11:56:59Z</time>
      </trkpt>
      <trkpt lat="49.1976" lon="1.12374">
        <ele>139.95766</ele>
        <time>2014-08-07T11:57:04Z</time>
      </trkpt>
      <trkpt lat="49.19756" lon="1.12377">
        <ele>139.95766</ele>
        <time>2014-08-07T11:57:09Z</time>
      </trkpt>
      <trkpt lat="49.19754" lon="1.1238">
        <ele>139.95766</ele>
        <time>2014-08-07T11:57:14Z</time>
      </trkpt>
      <trkpt lat="49.19754" lon="1.12381">
        <ele>139.95766</ele>
        <time>2014-08-07T11:57:19Z</time>
      </trkpt>
      <trkpt lat="49.19753" lon="1.12389">
        <ele>139.91928</ele>
        <time>2014-08-07T11:57:24Z</time>
      </trkpt>
      <trkpt lat="49.19753" lon="1.12399">
        <ele>139.91928</ele>
        <time>2014-08-07T11:57:29Z</time>
      </trkpt>
      <trkpt lat="49.19753" lon="1.12407">
        <ele>139.76575</ele>
        <time>2014-08-07T11:57:34Z</time>
      </trkpt>
      <trkpt lat="49.19752" lon="1.12415">
        <ele>139.76575</ele>
        <time>2014-08-07T11:57:39Z</time>
      </trkpt>
      <trkpt lat="49.1975" lon="1.12427">
        <ele>139.56409</ele>
        <time>2014-08-07T11:57:44Z</time>
      </trkpt>
      <trkpt lat="49.1975" lon="1.12434">
        <ele>139.56409</ele>
        <time>2014-08-07T11:57:49Z</time>
      </trkpt>
      <trkpt lat="49.1975" lon="1.12443">
        <ele>139.33333</ele>
        <time>2014-08-07T11:57:54Z</time>
      </trkpt>
      <trkpt lat="49.19751" lon="1.12452">
        <ele>139.33333</ele>
        <time>2014-08-07T11:57:59Z</time>
      </trkpt>
      <trkpt lat="49.1975" lon="1.12461">
        <ele>139.04793</ele>
        <time>2014-08-07T11:58:04Z</time>
      </trkpt>
      <trkpt lat="49.1975" lon="1.12472">
        <ele>139.04793</ele>
        <time>2014-08-07T11:58:09Z</time>
      </trkpt>
      <trkpt lat="49.19749" lon="1.12481">
        <ele>138.74205</ele>
        <time>2014-08-07T11:58:14Z</time>
      </trkpt>
      <trkpt lat="49.19748" lon="1.1249">
        <ele>138.74205</ele>
        <time>2014-08-07T11:58:19Z</time>
      </trkpt>
      <trkpt lat="49.19749" lon="1.125">
        <ele>138.40416</ele>
        <time>2014-08-07T11:58:24Z</time>
      </trkpt>
      <trkpt lat="49.1975" lon="1.12512">
        <ele>138.40416</ele>
        <time>2014-08-07T11:58:29Z</time>
      </trkpt>
      <trkpt lat="49.19748" lon="1.12518">
        <ele>138.08128</ele>
        <time>2014-08-07T11:58:34Z</time>
      </trkpt>
      <trkpt lat="49.19747" lon="1.12529">
        <ele>138.08128</ele>
        <time>2014-08-07T11:58:39Z</time>
      </trkpt>
      <trkpt lat="49.19746" lon="1.12538">
        <ele>137.70168</ele>
        <time>2014-08-07T11:58:44Z</time>
      </trkpt>
      <trkpt lat="49.19746" lon="1.1255">
        <ele>137.70168</ele>
        <time>2014-08-07T11:58:49Z</time>
      </trkpt>
      <trkpt lat="49.19744" lon="1.12556">
        <ele>137.25664</ele>
        <time>2014-08-07T11:58:54Z</time>
      </trkpt>
      <trkpt lat="49.19744" lon="1.12566">
        <ele>137.25664</ele>
        <time>2014-08-07T11:58:59Z</time>
      </trkpt>
      <trkpt lat="49.19744" lon="1.12579">
        <ele>136.79594</ele>
        <time>2014-08-07T11:59:04Z</time>
      </trkpt>
      <trkpt lat="49.19744" lon="1.12586">
        <ele>136.79594</ele>
        <time>2014-08-07T11:59:09Z</time>
      </trkpt>
      <trkpt lat="49.19742" lon="1.12596">
        <ele>136.36569</ele>
        <time>2014-08-07T11:59:14Z</time>
      </trkpt>
      <trkpt lat="49.19742" lon="1.12603">
        <ele>136.36569</ele>
        <time>2014-08-07T11:59:19Z</time>
      </trkpt>
      <trkpt lat="49.19742" lon="1.12612">
        <ele>136.00854</ele>
        <time>2014-08-07T11:59:24Z</time>
      </trkpt>
      <trkpt lat="49.19741" lon="1.12624">
        <ele>136.00854</ele>
        <time>2014-08-07T11:59:29Z</time>
      </trkpt>
      <trkpt lat="49.19742" lon="1.12632">
        <ele>135.80696</ele>
        <time>2014-08-07T11:59:34Z</time>
      </trkpt>
      <trkpt lat="49.19741" lon="1.12642">
        <ele>135.80696</ele>
        <time>2014-08-07T11:59:39Z</time>
      </trkpt>
      <trkpt lat="49.19741" lon="1.12652">
        <ele>135.79372</ele>
        <time>2014-08-07T11:59:44Z</time>
      </trkpt>
      <trkpt lat="49.1974" lon="1.12659">
        <ele>135.79372</ele>
        <time>2014-08-07T11:59:49Z</time>
      </trkpt>
      <trkpt lat="49.19739" lon="1.12666">
        <ele>135.6671</ele>
        <time>2014-08-07T11:59:54Z</time>
      </trkpt>
      <trkpt lat="49.1974" lon="1.12678">
        <ele>135.6671</ele>
        <time>2014-08-07T11:59:59Z</time>
      </trkpt>
      <trkpt lat="49.1974" lon="1.12687">
        <ele>135.3929</ele>
        <time>2014-08-07T12:00:04Z</time>
      </trkpt>
      <trkpt lat="49.19741" lon="1.12695">
        <ele>135.3929</ele>
        <time>2014-08-07T12:00:09Z</time>
      </trkpt>
      <trkpt lat="49.19742" lon="1.12708">
        <ele>134.92535</ele>
        <time>2014-08-07T12:00:14Z</time>
      </trkpt>
      <trkpt lat="49.19744" lon="1.12717">
        <ele>134.92535</ele>
        <time>2014-08-07T12:00:19Z</time>
      </trkpt>
      <trkpt lat="49.19746" lon="1.12725">
        <ele>134.32346</ele>
        <time>2014-08-07T12:00:24Z</time>
      </trkpt>
      <trkpt lat="49.19746" lon="1.12732">
        <ele>134.32346</ele>
        <time>2014-08-07T12:00:29Z</time>
      </trkpt>
      <trkpt lat="49.19746" lon="1.12743">
        <ele>133.57016</ele>
        <time>2014-08-07T12:00:34Z</time>
      </trkpt>
      <trkpt lat="49.19745" lon="1.12754">
        <ele>133.57016</ele>
        <time>2014-08-07T12:00:39Z</time>
      </trkpt>
      <trkpt lat="49.19746" lon="1.12763">
        <ele>132.8086</ele>
        <time>2014-08-07T12:00:44Z</time>
      </trkpt>
      <trkpt lat="49.19745" lon="1.12774">
        <ele>132.8086</ele>
        <time>2014-08-07T12:00:49Z</time>
      </trkpt>
      <trkpt lat="49.19745" lon="1.12782">
        <ele>132.0128</ele>
        <time>2014-08-07T12:00:54Z</time>
      </trkpt>
      <trkpt lat="49.19746" lon="1.1279">
        <ele>132.0128</ele>
        <time>2014-08-07T12:00:59Z</time>
      </trkpt>
      <trkpt lat="49.19747" lon="1.12801">
        <ele>131.2597</ele>
        <time>2014-08-07T12:01:04Z</time>
      </trkpt>
      <trkpt lat="49.19748" lon="1.12812">
        <ele>131.2597</ele>
        <time>2014-08-07T12:01:09Z</time>
      </trkpt>
      <trkpt lat="49.19747" lon="1.12822">
        <ele>130.43303</ele>
        <time>2014-08-07T12:01:14Z</time>
      </trkpt>
      <trkpt lat="49.19746" lon="1.12831">
        <ele>130.43303</ele>
        <time>2014-08-07T12:01:19Z</time>
      </trkpt>
      <trkpt lat="49.19746" lon="1.12839">
        <ele>129.5261</ele>
        <time>2014-08-07T12:01:24Z</time>
      </trkpt>
      <trkpt lat="49.19746" lon="1.1285">
        <ele>129.5261</ele>
        <time>2014-08-07T12:01:29Z</time>
      </trkpt>
      <trkpt lat="49.19748" lon="1.1286">
        <ele>128.63374</ele>
        <time>2014-08-07T12:01:34Z</time>
      </trkpt>
      <trkpt lat="49.19749" lon="1.12869">
        <ele>128.63374</ele>
        <time>2014-08-07T12:01:39Z</time>
      </trkpt>
      <trkpt lat="49.1975" lon="1.12878">
        <ele>127.71408</ele>
        <time>2014-08-07T12:01:44Z</time>
      </trkpt>
      <trkpt lat="49.19751" lon="1.12888">
        <ele>127.71408</ele>
        <time>2014-08-07T12:01:49Z</time>
      </trkpt>
      <trkpt lat="49.19752" lon="1.12897">
        <ele>126.65622</ele>
        <time>2014-08-07T12:01:54Z</time>
      </trkpt>
      <trkpt lat="49.19754" lon="1.12905">
        <ele>126.65622</ele>
        <time>2014-08-07T12:01:59Z</time>
      </trkpt>
      <trkpt lat="49.19755" lon="1.12913">
        <ele>125.487465</ele>
        <time>2014-08-07T12:02:04Z</time>
      </trkpt>
      <trkpt lat="49.19756" lon="1.12923">
        <ele>125.487465</ele>
        <time>2014-08-07T12:02:09Z</time>
      </trkpt>
      <trkpt lat="49.19757" lon="1.12932">
        <ele>124.36306</ele>
        <time>2014-08-07T12:02:14Z</time>
      </trkpt>
      <trkpt lat="49.19759" lon="1.12941">
        <ele>124.36306</ele>
        <time>2014-08-07T12:02:19Z</time>
      </trkpt>
      <trkpt lat="49.1976" lon="1.12952">
        <ele>123.38339</ele>
        <time>2014-08-07T12:02:24Z</time>
      </trkpt>
      <trkpt lat="49.19763" lon="1.12963">
        <ele>123.38339</ele>
        <time>2014-08-07T12:02:29Z</time>
      </trkpt>
      <trkpt lat="49.19766" lon="1.12973">
        <ele>122.496925</ele>
        <time>2014-08-07T12:02:34Z</time>
      </trkpt>
      <trkpt lat="49.19767" lon="1.12984">
        <ele>122.496925</ele>
        <time>2014-08-07T12:02:39Z</time>
      </trkpt>
      <trkpt lat="49.1977" lon="1.12993">
        <ele>121.69877</ele>
        <time>2014-08-07T12:02:44Z</time>
      </trkpt>
      <trkpt lat="49.19773" lon="1.13001">
        <ele>121.69877</ele>
        <time>2014-08-07T12:02:49Z</time>
      </trkpt>
      <trkpt lat="49.19776" lon="1.13009">
        <ele>120.88321</ele>
        <time>2014-08-07T12:02:54Z</time>
      </trkpt>
      <trkpt lat="49.19778" lon="1.13019">
        <ele>120.88321</ele>
        <time>2014-08-07T12:02:59Z</time>
      </trkpt>
      <trkpt lat="49.19781" lon="1.13028">
        <ele>120.2261</ele>
        <time>2014-08-07T12:03:04Z</time>
      </trkpt>
      <trkpt lat="49.19784" lon="1.13039">
        <ele>120.2261</ele>
        <time>2014-08-07T12:03:09Z</time>
      </trkpt>
      <trkpt lat="49.19788" lon="1.13049">
        <ele>119.68807</ele>
        <time>2014-08-07T12:03:14Z</time>
      </trkpt>
      <trkpt lat="49.19794" lon="1.13053">
        <ele>119.68807</ele>
        <time>2014-08-07T12:03:19Z</time>
      </trkpt>
      <trkpt lat="49.19801" lon="1.13058">
        <ele>119.116974</ele>
        <time>2014-08-07T12:03:24Z</time>
      </trkpt>
      <trkpt lat="49.19806" lon="1.13064">
        <ele>119.116974</ele>
        <time>2014-08-07T12:03:29Z</time>
      </trkpt>
      <trkpt lat="49.19813" lon="1.13068">
        <ele>118.45832</ele>
        <time>2014-08-07T12:03:34Z</time>
      </trkpt>
      <trkpt lat="49.19817" lon="1.13072">
        <ele>118.45832</ele>
        <time>2014-08-07T12:03:39Z</time>
      </trkpt>
      <trkpt lat="49.19821" lon="1.1308">
        <ele>117.53212</ele>
        <time>2014-08-07T12:03:44Z</time>
      </trkpt>
      <trkpt lat="49.19826" lon="1.13086">
        <ele>117.53212</ele>
        <time>2014-08-07T12:03:49Z</time>
      </trkpt>
      <trkpt lat="49.19831" lon="1.1309">
        <ele>116.54694</ele>
        <time>2014-08-07T12:03:54Z</time>
      </trkpt>
      <trkpt lat="49.19837" lon="1.13097">
        <ele>116.54694</ele>
        <time>2014-08-07T12:03:59Z</time>
      </trkpt>
      <trkpt lat="49.19842" lon="1.13102">
        <ele>115.55207</ele>
        <time>2014-08-07T12:04:04Z</time>
      </trkpt>
      <trkpt lat="49.19848" lon="1.13105">
        <ele>115.55207</ele>
        <time>2014-08-07T12:04:09Z</time>
      </trkpt>
      <trkpt lat="49.19853" lon="1.1311">
        <ele>114.54987</ele>
        <time>2014-08-07T12:04:14Z</time>
      </trkpt>
      <trkpt lat="49.19859" lon="1.13114">
        <ele>114.54987</ele>
        <time>2014-08-07T12:04:19Z</time>
      </trkpt>
      <trkpt lat="49.19866" lon="1.13116">
        <ele>113.499275</ele>
        <time>2014-08-07T12:04:24Z</time>
      </trkpt>
      <trkpt lat="49.1987" lon="1.1312">
        <ele>113.499275</ele>
        <time>2014-08-07T12:04:29Z</time>
      </trkpt>
      <trkpt lat="49.19878" lon="1.13123">
        <ele>112.43434</ele>
        <time>2014-08-07T12:04:34Z</time>
      </trkpt>
      <trkpt lat="49.19881" lon="1.13126">
        <ele>112.43434</ele>
        <time>2014-08-07T12:04:39Z</time>
      </trkpt>
      <trkpt lat="49.19888" lon="1.13132">
        <ele>111.35779</ele>
        <time>2014-08-07T12:04:44Z</time>
      </trkpt>
      <trkpt lat="49.19895" lon="1.13137">
        <ele>111.35779</ele>
        <time>2014-08-07T12:04:49Z</time>
      </trkpt>
      <trkpt lat="49.199" lon="1.13141">
        <ele>110.257706</ele>
        <time>2014-08-07T12:04:54Z</time>
      </trkpt>
      <trkpt lat="49.19906" lon="1.13145">
        <ele>110.257706</ele>
        <time>2014-08-07T12:04:59Z</time>
      </trkpt>
      <trkpt lat="49.19912" lon="1.13148">
        <ele>109.15186</ele>
        <time>2014-08-07T12:05:04Z</time>
      </trkpt>
      <trkpt lat="49.19918" lon="1.13153">
        <ele>109.15186</ele>
        <time>2014-08-07T12:05:09Z</time>
      </trkpt>
      <trkpt lat="49.19923" lon="1.13157">
        <ele>107.98464</ele>
        <time>2014-08-07T12:05:14Z</time>
      </trkpt>
      <trkpt lat="49.1993" lon="1.13161">
        <ele>107.98464</ele>
        <time>2014-08-07T12:05:19Z</time>
      </trkpt>
      <trkpt lat="49.19936" lon="1.13163">
        <ele>106.77664</ele>
        <time>2014-08-07T12:05:24Z</time>
      </trkpt>
      <trkpt lat="49.19942" lon="1.13169">
        <ele>106.77664</ele>
        <time>2014-08-07T12:05:29Z</time>
      </trkpt>
      <trkpt lat="49.19948" lon="1.13172">
        <ele>105.489395</ele>
        <time>2014-08-07T12:05:34Z</time>
      </trkpt>
      <trkpt lat="49.19955" lon="1.13173">
        <ele>105.489395</ele>
        <time>2014-08-07T12:05:39Z</time>
      </trkpt>
      <trkpt lat="49.19962" lon="1.13178">
        <ele>104.23148</ele>
        <time>2014-08-07T12:05:44Z</time>
      </trkpt>
      <trkpt lat="49.19967" lon="1.13181">
        <ele>104.23148</ele>
        <time>2014-08-07T12:05:49Z</time>
      </trkpt>
      <trkpt lat="49.19973" lon="1.13183">
        <ele>102.98812</ele>
        <time>2014-08-07T12:05:54Z</time>
      </trkpt>
      <trkpt lat="49.1998" lon="1.13185">
        <ele>102.98812</ele>
        <time>2014-08-07T12:05:59Z</time>
      </trkpt>
      <trkpt lat="49.19986" lon="1.13189">
        <ele>101.74547</ele>
        <time>2014-08-07T12:06:04Z</time>
      </trkpt>
      <trkpt lat="49.19991" lon="1.13192">
        <ele>101.74547</ele>
        <time>2014-08-07T12:06:09Z</time>
      </trkpt>
      <trkpt lat="49.19999" lon="1.13195">
        <ele>100.60594</ele>
        <time>2014-08-07T12:06:14Z</time>
      </trkpt>
      <trkpt lat="49.20007" lon="1.13198">
        <ele>100.60594</ele>
        <time>2014-08-07T12:06:19Z</time>
      </trkpt>
      <trkpt lat="49.20012" lon="1.13202">
        <ele>99.59201</ele>
        <time>2014-08-07T12:06:24Z</time>
      </trkpt>
      <trkpt lat="49.20017" lon="1.13206">
        <ele>99.59201</ele>
        <time>2014-08-07T12:06:29Z</time>
      </trkpt>
      <trkpt lat="49.20023" lon="1.13209">
        <ele>98.752914</ele>
        <time>2014-08-07T12:06:34Z</time>
      </trkpt>
      <trkpt lat="49.20028" lon="1.13213">
        <ele>98.752914</ele>
        <time>2014-08-07T12:06:39Z</time>
      </trkpt>
      <trkpt lat="49.20035" lon="1.13216">
        <ele>97.960785</ele>
        <time>2014-08-07T12:06:44Z</time>
      </trkpt>
      <trkpt lat="49.20041" lon="1.13221">
        <ele>97.960785</ele>
        <time>2014-08-07T12:06:49Z</time>
      </trkpt>
      <trkpt lat="49.20048" lon="1.13223">
        <ele>97.35636</ele>
        <time>2014-08-07T12:06:54Z</time>
      </trkpt>
      <trkpt lat="49.20054" lon="1.13223">
        <ele>97.35636</ele>
        <time>2014-08-07T12:06:59Z</time>
      </trkpt>
      <trkpt lat="49.20062" lon="1.13223">
        <ele>96.75241</ele>
        <time>2014-08-07T12:07:04Z</time>
      </trkpt>
      <trkpt lat="49.2007" lon="1.13226">
        <ele>96.75241</ele>
        <time>2014-08-07T12:07:09Z</time>
      </trkpt>
      <trkpt lat="49.20075" lon="1.13229">
        <ele>96.17717</ele>
        <time>2014-08-07T12:07:14Z</time>
      </trkpt>
      <trkpt lat="49.20082" lon="1.1323">
        <ele>96.17717</ele>
        <time>2014-08-07T12:07:19Z</time>
      </trkpt>
      <trkpt lat="49.20088" lon="1.13231">
        <ele>95.52698</ele>
        <time>2014-08-07T12:07:24Z</time>
      </trkpt>
      <trkpt lat="49.20094" lon="1.13235">
        <ele>95.52698</ele>
        <time>2014-08-07T12:07:29Z</time>
      </trkpt>
      <trkpt lat="49.20101" lon="1.1324">
        <ele>94.893295</ele>
        <time>2014-08-07T12:07:34Z</time>
      </trkpt>
      <trkpt lat="49.20108" lon="1.13243">
        <ele>94.893295</ele>
        <time>2014-08-07T12:07:39Z</time>
      </trkpt>
      <trkpt lat="49.20113" lon="1.13247">
        <ele>94.24551</ele>
        <time>2014-08-07T12:07:44Z</time>
      </trkpt>
      <trkpt lat="49.20119" lon="1.13257">
        <ele>94.24551</ele>
        <time>2014-08-07T12:07:49Z</time>
      </trkpt>
      <trkpt lat="49.20124" lon="1.13262">
        <ele>93.65613</ele>
        <time>2014-08-07T12:07:54Z</time>
      </trkpt>
      <trkpt lat="49.20129" lon="1.13269">
        <ele>93.65613</ele>
        <time>2014-08-07T12:07:59Z</time>
      </trkpt>
      <trkpt lat="49.20136" lon="1.13273">
        <ele>93.105705</ele>
        <time>2014-08-07T12:08:04Z</time>
      </trkpt>
      <trkpt lat="49.20141" lon="1.1328">
        <ele>93.105705</ele>
        <time>2014-08-07T12:08:09Z</time>
      </trkpt>
      <trkpt lat="49.20145" lon="1.13285">
        <ele>92.57606</ele>
        <time>2014-08-07T12:08:14Z</time>
      </trkpt>
      <trkpt lat="49.2015" lon="1.13294">
        <ele>92.57606</ele>
        <time>2014-08-07T12:08:19Z</time>
      </trkpt>
      <trkpt lat="49.20155" lon="1.13302">
        <ele>92.07912</ele>
        <time>2014-08-07T12:08:24Z</time>
      </trkpt>
      <trkpt lat="49.20159" lon="1.13307">
        <ele>92.07912</ele>
        <time>2014-08-07T12:08:29Z</time>
      </trkpt>
      <trkpt lat="49.20162" lon="1.13313">
        <ele>91.58259</ele>
        <time>2014-08-07T12:08:34Z</time>
      </trkpt>
      <trkpt lat="49.20167" lon="1.1332">
        <ele>91.58259</ele>
        <time>2014-08-07T12:08:39Z</time>
      </trkpt>
      <trkpt lat="49.20171" lon="1.13328">
        <ele>90.95565</ele>
        <time>2014-08-07T12:08:44Z</time>
      </trkpt>
      <trkpt lat="49.20175" lon="1.13336">
        <ele>90.95565</ele>
        <time>2014-08-07T12:08:49Z</time>
      </trkpt>
      <trkpt lat="49.20179" lon="1.13345">
        <ele>90.29364</ele>
        <time>2014-08-07T12:08:54Z</time>
      </trkpt>
      <trkpt lat="49.20184" lon="1.13353">
        <ele>90.29364</ele>
        <time>2014-08-07T12:08:59Z</time>
      </trkpt>
      <trkpt lat="49.20187" lon="1.13363">
        <ele>89.5985</ele>
        <time>2014-08-07T12:09:04Z</time>
      </trkpt>
      <trkpt lat="49.20189" lon="1.13373">
        <ele>89.5985</ele>
        <time>2014-08-07T12:09:09Z</time>
      </trkpt>
      <trkpt lat="49.20191" lon="1.13379">
        <ele>88.9298</ele>
        <time>2014-08-07T12:09:14Z</time>
      </trkpt>
      <trkpt lat="49.20195" lon="1.13389">
        <ele>88.9298</ele>
        <time>2014-08-07T12:09:19Z</time>
      </trkpt>
      <trkpt lat="49.202" lon="1.13398">
        <ele>88.34262</ele>
        <time>2014-08-07T12:09:24Z</time>
      </trkpt>
      <trkpt lat="49.20204" lon="1.13406">
        <ele>88.34262</ele>
        <time>2014-08-07T12:09:29Z</time>
      </trkpt>
      <trkpt lat="49.20207" lon="1.13414">
        <ele>87.78692</ele>
        <time>2014-08-07T12:09:34Z</time>
      </trkpt>
      <trkpt lat="49.2021" lon="1.13422">
        <ele>87.78692</ele>
        <time>2014-08-07T12:09:39Z</time>
      </trkpt>
      <trkpt lat="49.20214" lon="1.13431">
        <ele>87.21625</ele>
        <time>2014-08-07T12:09:44Z</time>
      </trkpt>
      <trkpt lat="49.20218" lon="1.13439">
        <ele>87.21625</ele>
        <time>2014-08-07T12:09:49Z</time>
      </trkpt>
      <trkpt lat="49.20222" lon="1.13446">
        <ele>86.50114</ele>
        <time>2014-08-07T12:09:54Z</time>
      </trkpt>
      <trkpt lat="49.20227" lon="1.13453">
        <ele>86.50114</ele>
        <time>2014-08-07T12:09:59Z</time>
      </trkpt>
      <trkpt lat="49.20233" lon="1.13461">
        <ele>85.723816</ele>
        <time>2014-08-07T12:10:04Z</time>
      </trkpt>
      <trkpt lat="49.20237" lon="1.13469">
        <ele>85.723816</ele>
        <time>2014-08-07T12:10:09Z</time>
      </trkpt>
      <trkpt lat="49.2024" lon="1.13477">
        <ele>84.87418</ele>
        <time>2014-08-07T12:10:14Z</time>
      </trkpt>
      <trkpt lat="49.20243" lon="1.13485">
        <ele>84.87418</ele>
        <time>2014-08-07T12:10:19Z</time>
      </trkpt>
      <trkpt lat="49.20248" lon="1.13492">
        <ele>84.00073</ele>
        <time>2014-08-07T12:10:24Z</time>
      </trkpt>
      <trkpt lat="49.20252" lon="1.135">
        <ele>84.00073</ele>
        <time>2014-08-07T12:10:29Z</time>
      </trkpt>
      <trkpt lat="49.20258" lon="1.13506">
        <ele>83.090836</ele>
        <time>2014-08-07T12:10:34Z</time>
      </trkpt>
      <trkpt lat="49.20262" lon="1.13513">
        <ele>83.090836</ele>
        <time>2014-08-07T12:10:39Z</time>
      </trkpt>
      <trkpt lat="49.20267" lon="1.13518">
        <ele>82.16173</ele>
        <time>2014-08-07T12:10:44Z</time>
      </trkpt>
      <trkpt lat="49.20272" lon="1.13521">
        <ele>82.16173</ele>
        <time>2014-08-07T12:10:49Z</time>
      </trkpt>
      <trkpt lat="49.20279" lon="1.13524">
        <ele>81.157364</ele>
        <time>2014-08-07T12:10:54Z</time>
      </trkpt>
      <trkpt lat="49.20282" lon="1.13527">
        <ele>81.157364</ele>
        <time>2014-08-07T12:10:59Z</time>
      </trkpt>
      <trkpt lat="49.20283" lon="1.13528">
        <ele>81.157364</ele>
        <time>2014-08-07T12:11:04Z</time>
      </trkpt>
      <trkpt lat="49.20286" lon="1.13531">
        <ele>81.157364</ele>
        <time>2014-08-07T12:11:09Z</time>
      </trkpt>
      <trkpt lat="49.20291" lon="1.13537">
        <ele>80.08371</ele>
        <time>2014-08-07T12:11:14Z</time>
      </trkpt>
      <trkpt lat="49.20296" lon="1.13542">
        <ele>80.08371</ele>
        <time>2014-08-07T12:11:19Z</time>
      </trkpt>
      <trkpt lat="49.203" lon="1.13548">
        <ele>79.11939</ele>
        <time>2014-08-07T12:11:24Z</time>
      </trkpt>
      <trkpt lat="49.20302" lon="1.13557">
        <ele>79.11939</ele>
        <time>2014-08-07T12:11:29Z</time>
      </trkpt>
      <trkpt lat="49.20304" lon="1.13563">
        <ele>78.22788</ele>
        <time>2014-08-07T12:11:34Z</time>
      </trkpt>
      <trkpt lat="49.20303" lon="1.13568">
        <ele>78.22788</ele>
        <time>2014-08-07T12:11:39Z</time>
      </trkpt>
      <trkpt lat="49.20305" lon="1.13569">
        <ele>78.22788</ele>
        <time>2014-08-07T12:11:44Z</time>
      </trkpt>
      <trkpt lat="49.20305" lon="1.1357">
        <ele>78.22788</ele>
        <time>2014-08-07T12:11:49Z</time>
      </trkpt>
      <trkpt lat="49.20306" lon="1.1357">
        <ele>78.22788</ele>
        <time>2014-08-07T12:11:54Z</time>
      </trkpt>
      <trkpt lat="49.20305" lon="1.13571">
        <ele>78.22788</ele>
        <time>2014-08-07T12:11:59Z</time>
      </trkpt>
      <trkpt lat="49.20305" lon="1.1357">
        <ele>78.22788</ele>
        <time>2014-08-07T12:12:04Z</time>
      </trkpt>
      <trkpt lat="49.20305" lon="1.1357">
        <ele>78.22788</ele>
        <time>2014-08-07T12:12:09Z</time>
      </trkpt>
      <trkpt lat="49.20304" lon="1.13569">
        <ele>78.22788</ele>
        <time>2014-08-07T12:12:14Z</time>
      </trkpt>
      <trkpt lat="49.20303" lon="1.1357">
        <ele>77.01485</ele>
        <time>2014-08-07T12:12:19Z</time>
      </trkpt>
      <trkpt lat="49.20303" lon="1.1357">
        <ele>77.01485</ele>
        <time>2014-08-07T12:12:24Z</time>
      </trkpt>
      <trkpt lat="49.20304" lon="1.13571">
        <ele>77.01485</ele>
        <time>2014-08-07T12:12:29Z</time>
      </trkpt>
      <trkpt lat="49.20304" lon="1.13571">
        <ele>77.01485</ele>
        <time>2014-08-07T12:12:34Z</time>
      </trkpt>
      <trkpt lat="49.20304" lon="1.13572">
        <ele>77.01485</ele>
        <time>2014-08-07T12:12:39Z</time>
      </trkpt>
      <trkpt lat="49.20304" lon="1.13572">
        <ele>77.01485</ele>
        <time>2014-08-07T12:12:44Z</time>
      </trkpt>
      <trkpt lat="49.20304" lon="1.13573">
        <ele>77.01485</ele>
        <time>2014-08-07T12:12:49Z</time>
      </trkpt>
      <trkpt lat="49.20303" lon="1.13572">
        <ele>77.01485</ele>
        <time>2014-08-07T12:12:54Z</time>
      </trkpt>
      <trkpt lat="49.20303" lon="1.13572">
        <ele>77.01485</ele>
        <time>2014-08-07T12:12:59Z</time>
      </trkpt>
      <trkpt lat="49.20304" lon="1.13571">
        <ele>77.01485</ele>
        <time>2014-08-07T12:13:04Z</time>
      </trkpt>
      <trkpt lat="49.20304" lon="1.13571">
        <ele>77.01485</ele>
        <time>2014-08-07T12:13:09Z</time>
      </trkpt>
      <trkpt lat="49.20304" lon="1.1357">
        <ele>77.01485</ele>
        <time>2014-08-07T12:13:14Z</time>
      </trkpt>
      <trkpt lat="49.20304" lon="1.13571">
        <ele>77.01485</ele>
        <time>2014-08-07T12:13:19Z</time>
      </trkpt>
      <trkpt lat="49.20304" lon="1.13571">
        <ele>77.01485</ele>
        <time>2014-08-07T12:13:24Z</time>
      </trkpt>
      <trkpt lat="49.20304" lon="1.1357">
        <ele>77.01485</ele>
        <time>2014-08-07T12:13:29Z</time>
      </trkpt>
      <trkpt lat="49.20301" lon="1.13567">
        <ele>76.11018</ele>
        <time>2014-08-07T12:13:34Z</time>
      </trkpt>
      <trkpt lat="49.20299" lon="1.13566">
        <ele>76.11018</ele>
        <time>2014-08-07T12:13:39Z</time>
      </trkpt>
      <trkpt lat="49.203" lon="1.13566">
        <ele>76.11018</ele>
        <time>2014-08-07T12:13:44Z</time>
      </trkpt>
      <trkpt lat="49.20301" lon="1.13568">
        <ele>76.11018</ele>
        <time>2014-08-07T12:13:49Z</time>
      </trkpt>
      <trkpt lat="49.20301" lon="1.13568">
        <ele>76.11018</ele>
        <time>2014-08-07T12:13:54Z</time>
      </trkpt>
      <trkpt lat="49.20302" lon="1.13566">
        <ele>76.11018</ele>
        <time>2014-08-07T12:13:59Z</time>
      </trkpt>
      <trkpt lat="49.20301" lon="1.13565">
        <ele>76.11018</ele>
        <time>2014-08-07T12:14:04Z</time>
      </trkpt>
      <trkpt lat="49.20298" lon="1.13563">
        <ele>75.361694</ele>
        <time>2014-08-07T12:14:09Z</time>
      </trkpt>
      <trkpt lat="49.20294" lon="1.13562">
        <ele>75.361694</ele>
        <time>2014-08-07T12:14:14Z</time>
      </trkpt>
      <trkpt lat="49.20288" lon="1.13563">
        <ele>74.58468</ele>
        <time>2014-08-07T12:14:19Z</time>
      </trkpt>
      <trkpt lat="49.20279" lon="1.13559">
        <ele>74.58468</ele>
        <time>2014-08-07T12:14:24Z</time>
      </trkpt>
      <trkpt lat="49.20274" lon="1.13556">
        <ele>73.85308</ele>
        <time>2014-08-07T12:14:29Z</time>
      </trkpt>
      <trkpt lat="49.20271" lon="1.13557">
        <ele>73.85308</ele>
        <time>2014-08-07T12:14:34Z</time>
      </trkpt>
      <trkpt lat="49.20263" lon="1.13554">
        <ele>73.14881</ele>
        <time>2014-08-07T12:14:39Z</time>
      </trkpt>
      <trkpt lat="49.20259" lon="1.13554">
        <ele>73.14881</ele>
        <time>2014-08-07T12:14:44Z</time>
      </trkpt>
      <trkpt lat="49.20252" lon="1.13553">
        <ele>72.483864</ele>
        <time>2014-08-07T12:14:49Z</time>
      </trkpt>
      <trkpt lat="49.20246" lon="1.13552">
        <ele>72.483864</ele>
        <time>2014-08-07T12:14:54Z</time>
      </trkpt>
      <trkpt lat="49.20239" lon="1.1355">
        <ele>71.86923</ele>
        <time>2014-08-07T12:14:59Z</time>
      </trkpt>
      <trkpt lat="49.20232" lon="1.13549">
        <ele>71.86923</ele>
        <time>2014-08-07T12:15:04Z</time>
      </trkpt>
      <trkpt lat="49.20227" lon="1.1355">
        <ele>71.300575</ele>
        <time>2014-08-07T12:15:09Z</time>
      </trkpt>
      <trkpt lat="49.2022" lon="1.1355">
        <ele>71.300575</ele>
        <time>2014-08-07T12:15:14Z</time>
      </trkpt>
      <trkpt lat="49.20212" lon="1.13549">
        <ele>70.68725</ele>
        <time>2014-08-07T12:15:19Z</time>
      </trkpt>
      <trkpt lat="49.20206" lon="1.13549">
        <ele>70.68725</ele>
        <time>2014-08-07T12:15:24Z</time>
      </trkpt>
      <trkpt lat="49.20201" lon="1.1355">
        <ele>70.118355</ele>
        <time>2014-08-07T12:15:29Z</time>
      </trkpt>
      <trkpt lat="49.20195" lon="1.13552">
        <ele>70.118355</ele>
        <time>2014-08-07T12:15:34Z</time>
      </trkpt>
      <trkpt lat="49.20187" lon="1.13556">
        <ele>69.60428</ele>
        <time>2014-08-07T12:15:39Z</time>
      </trkpt>
      <trkpt lat="49.20178" lon="1.13555">
        <ele>69.60428</ele>
        <time>2014-08-07T12:15:44Z</time>
      </trkpt>
      <trkpt lat="49.20174" lon="1.13556">
        <ele>69.12566</ele>
        <time>2014-08-07T12:15:49Z</time>
      </trkpt>
      <trkpt lat="49.20166" lon="1.13559">
        <ele>69.12566</ele>
        <time>2014-08-07T12:15:54Z</time>
      </trkpt>
      <trkpt lat="49.2016" lon="1.13561">
        <ele>68.63567</ele>
        <time>2014-08-07T12:15:59Z</time>
      </trkpt>
      <trkpt lat="49.20155" lon="1.13566">
        <ele>68.63567</ele>
        <time>2014-08-07T12:16:04Z</time>
      </trkpt>
      <trkpt lat="49.20148" lon="1.13568">
        <ele>68.10537</ele>
        <time>2014-08-07T12:16:09Z</time>
      </trkpt>
      <trkpt lat="49.20142" lon="1.13569">
        <ele>68.10537</ele>
        <time>2014-08-07T12:16:14Z</time>
      </trkpt>
      <trkpt lat="49.20139" lon="1.1357">
        <ele>67.46483</ele>
        <time>2014-08-07T12:16:19Z</time>
      </trkpt>
      <trkpt lat="49.20132" lon="1.13571">
        <ele>67.46483</ele>
        <time>2014-08-07T12:16:24Z</time>
      </trkpt>
      <trkpt lat="49.20126" lon="1.13574">
        <ele>66.721664</ele>
        <time>2014-08-07T12:16:29Z</time>
      </trkpt>
      <trkpt lat="49.2012" lon="1.13576">
        <ele>66.721664</ele>
        <time>2014-08-07T12:16:34Z</time>
      </trkpt>
      <trkpt lat="49.20114" lon="1.1358">
        <ele>65.83997</ele>
        <time>2014-08-07T12:16:39Z</time>
      </trkpt>
      <trkpt lat="49.20109" lon="1.13581">
        <ele>65.83997</ele>
        <time>2014-08-07T12:16:44Z</time>
      </trkpt>
      <trkpt lat="49.20102" lon="1.13581">
        <ele>64.84456</ele>
        <time>2014-08-07T12:16:49Z</time>
      </trkpt>
      <trkpt lat="49.20095" lon="1.13583">
        <ele>64.84456</ele>
        <time>2014-08-07T12:16:54Z</time>
      </trkpt>
      <trkpt lat="49.2009" lon="1.13586">
        <ele>63.816372</ele>
        <time>2014-08-07T12:16:59Z</time>
      </trkpt>
      <trkpt lat="49.20086" lon="1.13589">
        <ele>63.816372</ele>
        <time>2014-08-07T12:17:04Z</time>
      </trkpt>
      <trkpt lat="49.2008" lon="1.1359">
        <ele>62.744057</ele>
        <time>2014-08-07T12:17:09Z</time>
      </trkpt>
      <trkpt lat="49.20073" lon="1.13592">
        <ele>62.744057</ele>
        <time>2014-08-07T12:17:14Z</time>
      </trkpt>
      <trkpt lat="49.20067" lon="1.13593">
        <ele>61.631634</ele>
        <time>2014-08-07T12:17:19Z</time>
      </trkpt>
      <trkpt lat="49.20059" lon="1.13597">
        <ele>61.631634</ele>
        <time>2014-08-07T12:17:24Z</time>
      </trkpt>
      <trkpt lat="49.20053" lon="1.136">
        <ele>60.569412</ele>
        <time>2014-08-07T12:17:29Z</time>
      </trkpt>
      <trkpt lat="49.20046" lon="1.13602">
        <ele>60.569412</ele>
        <time>2014-08-07T12:17:34Z</time>
      </trkpt>
      <trkpt lat="49.2004" lon="1.13602">
        <ele>59.482414</ele>
        <time>2014-08-07T12:17:39Z</time>
      </trkpt>
      <trkpt lat="49.20035" lon="1.13604">
        <ele>59.482414</ele>
        <time>2014-08-07T12:17:44Z</time>
      </trkpt>
      <trkpt lat="49.20028" lon="1.13606">
        <ele>58.416523</ele>
        <time>2014-08-07T12:17:49Z</time>
      </trkpt>
      <trkpt lat="49.20023" lon="1.13607">
        <ele>58.416523</ele>
        <time>2014-08-07T12:17:54Z</time>
      </trkpt>
      <trkpt lat="49.20016" lon="1.13609">
        <ele>57.471832</ele>
        <time>2014-08-07T12:17:59Z</time>
      </trkpt>
      <trkpt lat="49.2001" lon="1.1361">
        <ele>57.471832</ele>
        <time>2014-08-07T12:18:04Z</time>
      </trkpt>
      <trkpt lat="49.20003" lon="1.13612">
        <ele>56.582222</ele>
        <time>2014-08-07T12:18:09Z</time>
      </trkpt>
      <trkpt lat="49.19998" lon="1.13615">
        <ele>56.582222</ele>
        <time>2014-08-07T12:18:14Z</time>
      </trkpt>
      <trkpt lat="49.19995" lon="1.13619">
        <ele>55.758324</ele>
        <time>2014-08-07T12:18:19Z</time>
      </trkpt>
      <trkpt lat="49.19995" lon="1.13621">
        <ele>55.758324</ele>
        <time>2014-08-07T12:18:24Z</time>
      </trkpt>
      <trkpt lat="49.19996" lon="1.13622">
        <ele>55.758324</ele>
        <time>2014-08-07T12:18:29Z</time>
      </trkpt>
      <trkpt lat="49.19996" lon="1.13625">
        <ele>55.758324</ele>
        <time>2014-08-07T12:18:34Z</time>
      </trkpt>
      <trkpt lat="49.19996" lon="1.13623">
        <ele>55.758324</ele>
        <time>2014-08-07T12:18:39Z</time>
      </trkpt>
      <trkpt lat="49.19995" lon="1.13622">
        <ele>55.758324</ele>
        <time>2014-08-07T12:18:44Z</time>
      </trkpt>
      <trkpt lat="49.19994" lon="1.13622">
        <ele>55.758324</ele>
        <time>2014-08-07T12:18:49Z</time>
      </trkpt>
      <trkpt lat="49.19995" lon="1.13622">
        <ele>55.758324</ele>
        <time>2014-08-07T12:18:54Z</time>
      </trkpt>
      <trkpt lat="49.19995" lon="1.13623">
        <ele>54.995388</ele>
        <time>2014-08-07T12:18:59Z</time>
      </trkpt>
      <trkpt lat="49.19995" lon="1.13622">
        <ele>54.995388</ele>
        <time>2014-08-07T12:19:04Z</time>
      </trkpt>
      <trkpt lat="49.19996" lon="1.13621">
        <ele>54.995388</ele>
        <time>2014-08-07T12:19:09Z</time>
      </trkpt>
      <trkpt lat="49.19996" lon="1.13621">
        <ele>54.995388</ele>
        <time>2014-08-07T12:19:14Z</time>
      </trkpt>
      <trkpt lat="49.19995" lon="1.13622">
        <ele>54.995388</ele>
        <time>2014-08-07T12:19:19Z</time>
      </trkpt>
      <trkpt lat="49.19996" lon="1.13623">
        <ele>54.995388</ele>
        <time>2014-08-07T12:19:24Z</time>
      </trkpt>
      <trkpt lat="49.19997" lon="1.13623">
        <ele>54.995388</ele>
        <time>2014-08-07T12:19:29Z</time>
      </trkpt>
      <trkpt lat="49.19997" lon="1.13624">
        <ele>54.995388</ele>
        <time>2014-08-07T12:19:34Z</time>
      </trkpt>
      <trkpt lat="49.19999" lon="1.13629">
        <ele>54.288837</ele>
        <time>2014-08-07T12:19:39Z</time>
      </trkpt>
      <trkpt lat="49.20002" lon="1.13637">
        <ele>54.288837</ele>
        <time>2014-08-07T12:19:44Z</time>
      </trkpt>
      <trkpt lat="49.20003" lon="1.13639">
        <ele>54.288837</ele>
        <time>2014-08-07T12:19:49Z</time>
      </trkpt>
      <trkpt lat="49.20002" lon="1.13643">
        <ele>53.619854</ele>
        <time>2014-08-07T12:19:54Z</time>
      </trkpt>
      <trkpt lat="49.20002" lon="1.13643">
        <ele>53.619854</ele>
        <time>2014-08-07T12:19:59Z</time>
      </trkpt>
      <trkpt lat="49.20004" lon="1.13651">
        <ele>53.619854</ele>
        <time>2014-08-07T12:20:04Z</time>
      </trkpt>
      <trkpt lat="49.20007" lon="1.13661">
        <ele>52.999725</ele>
        <time>2014-08-07T12:20:09Z</time>
      </trkpt>
      <trkpt lat="49.20009" lon="1.13673">
        <ele>52.999725</ele>
        <time>2014-08-07T12:20:14Z</time>
      </trkpt>
      <trkpt lat="49.20011" lon="1.13681">
        <ele>52.409943</ele>
        <time>2014-08-07T12:20:19Z</time>
      </trkpt>
      <trkpt lat="49.20013" lon="1.13692">
        <ele>52.409943</ele>
        <time>2014-08-07T12:20:24Z</time>
      </trkpt>
      <trkpt lat="49.20014" lon="1.13701">
        <ele>51.89091</ele>
        <time>2014-08-07T12:20:29Z</time>
      </trkpt>
      <trkpt lat="49.20016" lon="1.13711">
        <ele>51.89091</ele>
        <time>2014-08-07T12:20:34Z</time>
      </trkpt>
      <trkpt lat="49.20019" lon="1.13722">
        <ele>51.43664</ele>
        <time>2014-08-07T12:20:39Z</time>
      </trkpt>
      <trkpt lat="49.2002" lon="1.13731">
        <ele>51.43664</ele>
        <time>2014-08-07T12:20:44Z</time>
      </trkpt>
      <trkpt lat="49.20023" lon="1.1374">
        <ele>51.041412</ele>
        <time>2014-08-07T12:20:49Z</time>
      </trkpt>
      <trkpt lat="49.20024" lon="1.13751">
        <ele>51.041412</ele>
        <time>2014-08-07T12:20:54Z</time>
      </trkpt>
      <trkpt lat="49.20026" lon="1.13761">
        <ele>50.685345</ele>
        <time>2014-08-07T12:20:59Z</time>
      </trkpt>
      <trkpt lat="49.20027" lon="1.1377">
        <ele>50.685345</ele>
        <time>2014-08-07T12:21:04Z</time>
      </trkpt>
      <trkpt lat="49.20029" lon="1.1378">
        <ele>50.306686</ele>
        <time>2014-08-07T12:21:09Z</time>
      </trkpt>
      <trkpt lat="49.20031" lon="1.13789">
        <ele>50.306686</ele>
        <time>2014-08-07T12:21:14Z</time>
      </trkpt>
      <trkpt lat="49.20033" lon="1.13797">
        <ele>49.963593</ele>
        <time>2014-08-07T12:21:19Z</time>
      </trkpt>
      <trkpt lat="49.20035" lon="1.13808">
        <ele>49.963593</ele>
        <time>2014-08-07T12:21:24Z</time>
      </trkpt>
      <trkpt lat="49.20037" lon="1.13815">
        <ele>49.594566</ele>
        <time>2014-08-07T12:21:29Z</time>
      </trkpt>
      <trkpt lat="49.2004" lon="1.13826">
        <ele>49.594566</ele>
        <time>2014-08-07T12:21:34Z</time>
      </trkpt>
      <trkpt lat="49.20042" lon="1.13839">
        <ele>49.171543</ele>
        <time>2014-08-07T12:21:39Z</time>
      </trkpt>
      <trkpt lat="49.20044" lon="1.13846">
        <ele>49.171543</ele>
        <time>2014-08-07T12:21:44Z</time>
      </trkpt>
      <trkpt lat="49.20046" lon="1.13856">
        <ele>48.69751</ele>
        <time>2014-08-07T12:21:49Z</time>
      </trkpt>
      <trkpt lat="49.20047" lon="1.13864">
        <ele>48.69751</ele>
        <time>2014-08-07T12:21:54Z</time>
      </trkpt>
      <trkpt lat="49.20048" lon="1.13872">
        <ele>48.175396</ele>
        <time>2014-08-07T12:21:59Z</time>
      </trkpt>
      <trkpt lat="49.20051" lon="1.13882">
        <ele>48.175396</ele>
        <time>2014-08-07T12:22:04Z</time>
      </trkpt>
      <trkpt lat="49.20054" lon="1.13891">
        <ele>47.608086</ele>
        <time>2014-08-07T12:22:09Z</time>
      </trkpt>
      <trkpt lat="49.20055" lon="1.13902">
        <ele>47.608086</ele>
        <time>2014-08-07T12:22:14Z</time>
      </trkpt>
      <trkpt lat="49.20056" lon="1.1391">
        <ele>47.056023</ele>
        <time>2014-08-07T12:22:19Z</time>
      </trkpt>
      <trkpt lat="49.20057" lon="1.1392">
        <ele>47.056023</ele>
        <time>2014-08-07T12:22:24Z</time>
      </trkpt>
      <trkpt lat="49.20058" lon="1.13931">
        <ele>46.60403</ele>
        <time>2014-08-07T12:22:29Z</time>
      </trkpt>
      <trkpt lat="49.20059" lon="1.13939">
        <ele>46.60403</ele>
        <time>2014-08-07T12:22:34Z</time>
      </trkpt>
      <trkpt lat="49.20061" lon="1.13946">
        <ele>46.171913</ele>
        <time>2014-08-07T12:22:39Z</time>
      </trkpt>
      <trkpt lat="49.20063" lon="1.13955">
        <ele>46.171913</ele>
        <time>2014-08-07T12:22:44Z</time>
      </trkpt>
      <trkpt lat="49.20064" lon="1.13966">
        <ele>45.72857</ele>
        <time>2014-08-07T12:22:49Z</time>
      </trkpt>
      <trkpt lat="49.20067" lon="1.13974">
        <ele>45.72857</ele>
        <time>2014-08-07T12:22:54Z</time>
      </trkpt>
      <trkpt lat="49.20069" lon="1.13982">
        <ele>45.3317</ele>
        <time>2014-08-07T12:22:59Z</time>
      </trkpt>
      <trkpt lat="49.20071" lon="1.1399">
        <ele>45.3317</ele>
        <time>2014-08-07T12:23:04Z</time>
      </trkpt>
      <trkpt lat="49.20073" lon="1.13999">
        <ele>45.005836</ele>
        <time>2014-08-07T12:23:09Z</time>
      </trkpt>
      <trkpt lat="49.20076" lon="1.14007">
        <ele>45.005836</ele>
        <time>2014-08-07T12:23:14Z</time>
      </trkpt>
      <trkpt lat="49.20078" lon="1.14016">
        <ele>44.68708</ele>
        <time>2014-08-07T12:23:19Z</time>
      </trkpt>
      <trkpt lat="49.20079" lon="1.14024">
        <ele>44.68708</ele>
        <time>2014-08-07T12:23:24Z</time>
      </trkpt>
      <trkpt lat="49.20081" lon="1.14034">
        <ele>44.359455</ele>
        <time>2014-08-07T12:23:29Z</time>
      </trkpt>
      <trkpt lat="49.20082" lon="1.14041">
        <ele>44.359455</ele>
        <time>2014-08-07T12:23:34Z</time>
      </trkpt>
      <trkpt lat="49.20084" lon="1.14051">
        <ele>43.97939</ele>
        <time>2014-08-07T12:23:39Z</time>
      </trkpt>
      <trkpt lat="49.20085" lon="1.1406">
        <ele>43.97939</ele>
        <time>2014-08-07T12:23:44Z</time>
      </trkpt>
      <trkpt lat="49.20087" lon="1.14068">
        <ele>43.66521</ele>
        <time>2014-08-07T12:23:49Z</time>
      </trkpt>
      <trkpt lat="49.20089" lon="1.14078">
        <ele>43.66521</ele>
        <time>2014-08-07T12:23:54Z</time>
      </trkpt>
      <trkpt lat="49.2009" lon="1.14088">
        <ele>43.41111</ele>
        <time>2014-08-07T12:23:59Z</time>
      </trkpt>
      <trkpt lat="49.20091" lon="1.14096">
        <ele>43.41111</ele>
        <time>2014-08-07T12:24:04Z</time>
      </trkpt>
      <trkpt lat="49.20094" lon="1.14106">
        <ele>43.153923</ele>
        <time>2014-08-07T12:24:09Z</time>
      </trkpt>
      <trkpt lat="49.20095" lon="1.14111">
        <ele>43.153923</ele>
        <time>2014-08-07T12:24:14Z</time>
      </trkpt>
      <trkpt lat="49.20099" lon="1.14121">
        <ele>42.863987</ele>
        <time>2014-08-07T12:24:19Z</time>
      </trkpt>
      <trkpt lat="49.201" lon="1.14129">
        <ele>42.863987</ele>
        <time>2014-08-07T12:24:24Z</time>
      </trkpt>
      <trkpt lat="49.20101" lon="1.14136">
        <ele>42.600395</ele>
        <time>2014-08-07T12:24:29Z</time>
      </trkpt>
      <trkpt lat="49.20103" lon="1.14146">
        <ele>42.600395</ele>
        <time>2014-08-07T12:24:34Z</time>
      </trkpt>
      <trkpt lat="49.20105" lon="1.14154">
        <ele>42.345825</ele>
        <time>2014-08-07T12:24:39Z</time>
      </trkpt>
      <trkpt lat="49.20106" lon="1.14165">
        <ele>42.345825</ele>
        <time>2014-08-07T12:24:44Z</time>
      </trkpt>
      <trkpt lat="49.20106" lon="1.14175">
        <ele>42.213913</ele>
        <time>2014-08-07T12:24:49Z</time>
      </trkpt>
      <trkpt lat="49.20107" lon="1.1418">
        <ele>42.213913</ele>
        <time>2014-08-07T12:24:54Z</time>
      </trkpt>
      <trkpt lat="49.2011" lon="1.14189">
        <ele>42.050247</ele>
        <time>2014-08-07T12:24:59Z</time>
      </trkpt>
      <trkpt lat="49.20112" lon="1.14196">
        <ele>42.050247</ele>
        <time>2014-08-07T12:25:04Z</time>
      </trkpt>
      <trkpt lat="49.20113" lon="1.14205">
        <ele>41.884815</ele>
        <time>2014-08-07T12:25:09Z</time>
      </trkpt>
      <trkpt lat="49.20115" lon="1.14216">
        <ele>41.884815</ele>
        <time>2014-08-07T12:25:14Z</time>
      </trkpt>
      <trkpt lat="49.20117" lon="1.14224">
        <ele>41.702206</ele>
        <time>2014-08-07T12:25:19Z</time>
      </trkpt>
      <trkpt lat="49.20118" lon="1.1423">
        <ele>41.702206</ele>
        <time>2014-08-07T12:25:24Z</time>
      </trkpt>
      <trkpt lat="49.20121" lon="1.14237">
        <ele>41.502632</ele>
        <time>2014-08-07T12:25:29Z</time>
      </trkpt>
      <trkpt lat="49.20125" lon="1.14246">
        <ele>41.502632</ele>
        <time>2014-08-07T12:25:34Z</time>
      </trkpt>
      <trkpt lat="49.20127" lon="1.14253">
        <ele>41.21433</ele>
        <time>2014-08-07T12:25:39Z</time>
      </trkpt>
      <trkpt lat="49.2013" lon="1.14261">
        <ele>41.21433</ele>
        <time>2014-08-07T12:25:44Z</time>
      </trkpt>
      <trkpt lat="49.20132" lon="1.1427">
        <ele>40.871952</ele>
        <time>2014-08-07T12:25:49Z</time>
      </trkpt>
      <trkpt lat="49.20135" lon="1.1428">
        <ele>40.871952</ele>
        <time>2014-08-07T12:25:54Z</time>
      </trkpt>
      <trkpt lat="49.20137" lon="1.14288">
        <ele>40.4934</ele>
        <time>2014-08-07T12:25:59Z</time>
      </trkpt>
      <trkpt lat="49.20139" lon="1.14297">
        <ele>40.4934</ele>
        <time>2014-08-07T12:26:04Z</time>
      </trkpt>
      <trkpt lat="49.2014" lon="1.14303">
        <ele>40.095387</ele>
        <time>2014-08-07T12:26:09Z</time>
      </trkpt>
      <trkpt lat="49.20142" lon="1.14313">
        <ele>40.095387</ele>
        <time>2014-08-07T12:26:14Z</time>
      </trkpt>
      <trkpt lat="49.20144" lon="1.14322">
        <ele>39.650253</ele>
        <time>2014-08-07T12:26:19Z</time>
      </trkpt>
      <trkpt lat="49.20147" lon="1.14328">
        <ele>39.650253</ele>
        <time>2014-08-07T12:26:24Z</time>
      </trkpt>
      <trkpt lat="49.20149" lon="1.14337">
        <ele>39.175762</ele>
        <time>2014-08-07T12:26:29Z</time>
      </trkpt>
      <trkpt lat="49.20151" lon="1.14346">
        <ele>39.175762</ele>
        <time>2014-08-07T12:26:34Z</time>
      </trkpt>
      <trkpt lat="49.20153" lon="1.14354">
        <ele>38.659676</ele>
        <time>2014-08-07T12:26:39Z</time>
      </trkpt>
      <trkpt lat="49.20156" lon="1.14363">
        <ele>38.659676</ele>
        <time>2014-08-07T12:26:44Z</time>
      </trkpt>
      <trkpt lat="49.2016" lon="1.1437">
        <ele>38.191658</ele>
        <time>2014-08-07T12:26:49Z</time>
      </trkpt>
      <trkpt lat="49.20164" lon="1.14377">
        <ele>38.191658</ele>
        <time>2014-08-07T12:26:54Z</time>
      </trkpt>
      <trkpt lat="49.20167" lon="1.14384">
        <ele>37.739403</ele>
        <time>2014-08-07T12:26:59Z</time>
      </trkpt>
      <trkpt lat="49.20169" lon="1.14393">
        <ele>37.739403</ele>
        <time>2014-08-07T12:27:04Z</time>
      </trkpt>
      <trkpt lat="49.20171" lon="1.14401">
        <ele>37.359413</ele>
        <time>2014-08-07T12:27:09Z</time>
      </trkpt>
      <trkpt lat="49.20175" lon="1.14411">
        <ele>37.359413</ele>
        <time>2014-08-07T12:27:14Z</time>
      </trkpt>
      <trkpt lat="49.20177" lon="1.1442">
        <ele>36.95975</ele>
        <time>2014-08-07T12:27:19Z</time>
      </trkpt>
      <trkpt lat="49.20178" lon="1.14426">
        <ele>36.95975</ele>
        <time>2014-08-07T12:27:24Z</time>
      </trkpt>
      <trkpt lat="49.2018" lon="1.14437">
        <ele>36.62824</ele>
        <time>2014-08-07T12:27:29Z</time>
      </trkpt>
      <trkpt lat="49.20184" lon="1.14444">
        <ele>36.62824</ele>
        <time>2014-08-07T12:27:34Z</time>
      </trkpt>
      <trkpt lat="49.20186" lon="1.14452">
        <ele>36.330795</ele>
        <time>2014-08-07T12:27:39Z</time>
      </trkpt>
      <trkpt lat="49.20189" lon="1.14459">
        <ele>36.330795</ele>
        <time>2014-08-07T12:27:44Z</time>
      </trkpt>
      <trkpt lat="49.20192" lon="1.14466">
        <ele>36.093395</ele>
        <time>2014-08-07T12:27:49Z</time>
      </trkpt>
      <trkpt lat="49.20194" lon="1.14473">
        <ele>36.093395</ele>
        <time>2014-08-07T12:27:54Z</time>
      </trkpt>
      <trkpt lat="49.20197" lon="1.14481">
        <ele>35.88232</ele>
        <time>2014-08-07T12:27:59Z</time>
      </trkpt>
      <trkpt lat="49.20199" lon="1.1449">
        <ele>35.88232</ele>
        <time>2014-08-07T12:28:04Z</time>
      </trkpt>
      <trkpt lat="49.20202" lon="1.14498">
        <ele>35.738327</ele>
        <time>2014-08-07T12:28:09Z</time>
      </trkpt>
      <trkpt lat="49.20205" lon="1.14506">
        <ele>35.738327</ele>
        <time>2014-08-07T12:28:14Z</time>
      </trkpt>
      <trkpt lat="49.20208" lon="1.14514">
        <ele>35.641357</ele>
        <time>2014-08-07T12:28:19Z</time>
      </trkpt>
      <trkpt lat="49.20211" lon="1.14521">
        <ele>35.641357</ele>
        <time>2014-08-07T12:28:24Z</time>
      </trkpt>
      <trkpt lat="49.20214" lon="1.14529">
        <ele>35.572723</ele>
        <time>2014-08-07T12:28:29Z</time>
      </trkpt>
      <trkpt lat="49.20216" lon="1.14537">
        <ele>35.572723</ele>
        <time>2014-08-07T12:28:34Z</time>
      </trkpt>
      <trkpt lat="49.20219" lon="1.14544">
        <ele>35.57269</ele>
        <time>2014-08-07T12:28:39Z</time>
      </trkpt>
      <trkpt lat="49.20222" lon="1.1455">
        <ele>35.57269</ele>
        <time>2014-08-07T12:28:44Z</time>
      </trkpt>
      <trkpt lat="49.20225" lon="1.14557">
        <ele>35.563103</ele>
        <time>2014-08-07T12:28:49Z</time>
      </trkpt>
      <trkpt lat="49.20228" lon="1.14563">
        <ele>35.563103</ele>
        <time>2014-08-07T12:28:54Z</time>
      </trkpt>
      <trkpt lat="49.20231" lon="1.14569">
        <ele>35.50042</ele>
        <time>2014-08-07T12:28:59Z</time>
      </trkpt>
      <trkpt lat="49.20236" lon="1.14576">
        <ele>35.50042</ele>
        <time>2014-08-07T12:29:04Z</time>
      </trkpt>
      <trkpt lat="49.2024" lon="1.14584">
        <ele>35.30124</ele>
        <time>2014-08-07T12:29:09Z</time>
      </trkpt>
      <trkpt lat="49.20243" lon="1.14593">
        <ele>35.30124</ele>
        <time>2014-08-07T12:29:14Z</time>
      </trkpt>
      <trkpt lat="49.20245" lon="1.14598">
        <ele>35.10486</ele>
        <time>2014-08-07T12:29:19Z</time>
      </trkpt>
      <trkpt lat="49.2025" lon="1.14607">
        <ele>35.10486</ele>
        <time>2014-08-07T12:29:24Z</time>
      </trkpt>
      <trkpt lat="49.20252" lon="1.14614">
        <ele>34.95389</ele>
        <time>2014-08-07T12:29:29Z</time>
      </trkpt>
      <trkpt lat="49.20255" lon="1.14621">
        <ele>34.95389</ele>
        <time>2014-08-07T12:29:34Z</time>
      </trkpt>
      <trkpt lat="49.20258" lon="1.14628">
        <ele>34.815662</ele>
        <time>2014-08-07T12:29:39Z</time>
      </trkpt>
      <trkpt lat="49.20264" lon="1.14635">
        <ele>34.815662</ele>
        <time>2014-08-07T12:29:44Z</time>
      </trkpt>
      <trkpt lat="49.20269" lon="1.14644">
        <ele>34.74635</ele>
        <time>2014-08-07T12:29:49Z</time>
      </trkpt>
      <trkpt lat="49.2027" lon="1.14649">
        <ele>34.74635</ele>
        <time>2014-08-07T12:29:54Z</time>
      </trkpt>
      <trkpt lat="49.20274" lon="1.14657">
        <ele>34.754597</ele>
        <time>2014-08-07T12:29:59Z</time>
      </trkpt>
      <trkpt lat="49.20277" lon="1.14664">
        <ele>34.754597</ele>
        <time>2014-08-07T12:30:04Z</time>
      </trkpt>
      <trkpt lat="49.20281" lon="1.14673">
        <ele>34.81941</ele>
        <time>2014-08-07T12:30:09Z</time>
      </trkpt>
      <trkpt lat="49.20286" lon="1.14679">
        <ele>34.81941</ele>
        <time>2014-08-07T12:30:14Z</time>
      </trkpt>
      <trkpt lat="49.20289" lon="1.14686">
        <ele>34.89237</ele>
        <time>2014-08-07T12:30:19Z</time>
      </trkpt>
      <trkpt lat="49.20293" lon="1.14692">
        <ele>34.89237</ele>
        <time>2014-08-07T12:30:24Z</time>
      </trkpt>
      <trkpt lat="49.20296" lon="1.14699">
        <ele>35.00067</ele>
        <time>2014-08-07T12:30:29Z</time>
      </trkpt>
      <trkpt lat="49.203" lon="1.14706">
        <ele>35.00067</ele>
        <time>2014-08-07T12:30:34Z</time>
      </trkpt>
      <trkpt lat="49.20305" lon="1.14711">
        <ele>35.155033</ele>
        <time>2014-08-07T12:30:39Z</time>
      </trkpt>
      <trkpt lat="49.2031" lon="1.14718">
        <ele>35.155033</ele>
        <time>2014-08-07T12:30:44Z</time>
      </trkpt>
      <trkpt lat="49.20315" lon="1.14725">
        <ele>35.3797</ele>
        <time>2014-08-07T12:30:49Z</time>
      </trkpt>
      <trkpt lat="49.20319" lon="1.1473">
        <ele>35.3797</ele>
        <time>2014-08-07T12:30:54Z</time>
      </trkpt>
      <trkpt lat="49.20322" lon="1.14737">
        <ele>35.65373</ele>
        <time>2014-08-07T12:30:59Z</time>
      </trkpt>
      <trkpt lat="49.20326" lon="1.14742">
        <ele>35.65373</ele>
        <time>2014-08-07T12:31:04Z</time>
      </trkpt>
      <trkpt lat="49.20331" lon="1.14748">
        <ele>35.85673</ele>
        <time>2014-08-07T12:31:09Z</time>
      </trkpt>
      <trkpt lat="49.20336" lon="1.14755">
        <ele>35.85673</ele>
        <time>2014-08-07T12:31:14Z</time>
      </trkpt>
      <trkpt lat="49.20341" lon="1.14762">
        <ele>36.021507</ele>
        <time>2014-08-07T12:31:19Z</time>
      </trkpt>
      <trkpt lat="49.20345" lon="1.14768">
        <ele>36.021507</ele>
        <time>2014-08-07T12:31:24Z</time>
      </trkpt>
      <trkpt lat="49.20348" lon="1.14776">
        <ele>36.12094</ele>
        <time>2014-08-07T12:31:29Z</time>
      </trkpt>
      <trkpt lat="49.20353" lon="1.14783">
        <ele>36.12094</ele>
        <time>2014-08-07T12:31:34Z</time>
      </trkpt>
      <trkpt lat="49.20357" lon="1.14792">
        <ele>36.187775</ele>
        <time>2014-08-07T12:31:39Z</time>
      </trkpt>
      <trkpt lat="49.20361" lon="1.14799">
        <ele>36.187775</ele>
        <time>2014-08-07T12:31:44Z</time>
      </trkpt>
      <trkpt lat="49.20363" lon="1.14805">
        <ele>36.252476</ele>
        <time>2014-08-07T12:31:49Z</time>
      </trkpt>
      <trkpt lat="49.20366" lon="1.14812">
        <ele>36.252476</ele>
        <time>2014-08-07T12:31:54Z</time>
      </trkpt>
      <trkpt lat="49.2037" lon="1.14817">
        <ele>36.300068</ele>
        <time>2014-08-07T12:31:59Z</time>
      </trkpt>
      <trkpt lat="49.20373" lon="1.14824">
        <ele>36.300068</ele>
        <time>2014-08-07T12:32:04Z</time>
      </trkpt>
      <trkpt lat="49.20377" lon="1.14833">
        <ele>36.230305</ele>
        <time>2014-08-07T12:32:09Z</time>
      </trkpt>
      <trkpt lat="49.20381" lon="1.14841">
        <ele>36.230305</ele>
        <time>2014-08-07T12:32:14Z</time>
      </trkpt>
      <trkpt lat="49.20385" lon="1.14848">
        <ele>36.080357</ele>
        <time>2014-08-07T12:32:19Z</time>
      </trkpt>
      <trkpt lat="49.20389" lon="1.14854">
        <ele>36.080357</ele>
        <time>2014-08-07T12:32:24Z</time>
      </trkpt>
      <trkpt lat="49.20393" lon="1.1486">
        <ele>35.94257</ele>
        <time>2014-08-07T12:32:29Z</time>
      </trkpt>
      <trkpt lat="49.20396" lon="1.14866">
        <ele>35.94257</ele>
        <time>2014-08-07T12:32:34Z</time>
      </trkpt>
      <trkpt lat="49.204" lon="1.14872">
        <ele>35.78721</ele>
        <time>2014-08-07T12:32:39Z</time>
      </trkpt>
      <trkpt lat="49.20403" lon="1.1488">
        <ele>35.78721</ele>
        <time>2014-08-07T12:32:44Z</time>
      </trkpt>
      <trkpt lat="49.20406" lon="1.14887">
        <ele>35.615627</ele>
        <time>2014-08-07T12:32:49Z</time>
      </trkpt>
      <trkpt lat="49.20409" lon="1.14893">
        <ele>35.615627</ele>
        <time>2014-08-07T12:32:54Z</time>
      </trkpt>
      <trkpt lat="49.20412" lon="1.149">
        <ele>35.486782</ele>
        <time>2014-08-07T12:32:59Z</time>
      </trkpt>
      <trkpt lat="49.20415" lon="1.1491">
        <ele>35.486782</ele>
        <time>2014-08-07T12:33:04Z</time>
      </trkpt>
      <trkpt lat="49.20418" lon="1.14916">
        <ele>35.383167</ele>
        <time>2014-08-07T12:33:09Z</time>
      </trkpt>
      <trkpt lat="49.20422" lon="1.14923">
        <ele>35.383167</ele>
        <time>2014-08-07T12:33:14Z</time>
      </trkpt>
      <trkpt lat="49.20427" lon="1.1493">
        <ele>35.317314</ele>
        <time>2014-08-07T12:33:19Z</time>
      </trkpt>
      <trkpt lat="49.20431" lon="1.14937">
        <ele>35.317314</ele>
        <time>2014-08-07T12:33:24Z</time>
      </trkpt>
      <trkpt lat="49.20434" lon="1.14943">
        <ele>35.271935</ele>
        <time>2014-08-07T12:33:29Z</time>
      </trkpt>
      <trkpt lat="49.20437" lon="1.14949">
        <ele>35.271935</ele>
        <time>2014-08-07T12:33:34Z</time>
      </trkpt>
      <trkpt lat="49.20442" lon="1.14955">
        <ele>35.216568</ele>
        <time>2014-08-07T12:33:39Z</time>
      </trkpt>
      <trkpt lat="49.20446" lon="1.14963">
        <ele>35.216568</ele>
        <time>2014-08-07T12:33:44Z</time>
      </trkpt>
      <trkpt lat="49.20449" lon="1.14969">
        <ele>35.137432</ele>
        <time>2014-08-07T12:33:49Z</time>
      </trkpt>
      <trkpt lat="49.20453" lon="1.14974">
        <ele>35.137432</ele>
        <time>2014-08-07T12:33:54Z</time>
      </trkpt>
      <trkpt lat="49.20456" lon="1.14982">
        <ele>35.050674</ele>
        <time>2014-08-07T12:33:59Z</time>
      </trkpt>
      <trkpt lat="49.20461" lon="1.14989">
        <ele>35.050674</ele>
        <time>2014-08-07T12:34:04Z</time>
      </trkpt>
      <trkpt lat="49.20465" lon="1.14995">
        <ele>34.870407</ele>
        <time>2014-08-07T12:34:09Z</time>
      </trkpt>
      <trkpt lat="49.20469" lon="1.15004">
        <ele>34.870407</ele>
        <time>2014-08-07T12:34:14Z</time>
      </trkpt>
      <trkpt lat="49.20473" lon="1.15011">
        <ele>34.63262</ele>
        <time>2014-08-07T12:34:19Z</time>
      </trkpt>
      <trkpt lat="49.20477" lon="1.15019">
        <ele>34.63262</ele>
        <time>2014-08-07T12:34:24Z</time>
      </trkpt>
      <trkpt lat="49.2048" lon="1.15026">
        <ele>34.39966</ele>
        <time>2014-08-07T12:34:29Z</time>
      </trkpt>
      <trkpt lat="49.20483" lon="1.15033">
        <ele>34.39966</ele>
        <time>2014-08-07T12:34:34Z</time>
      </trkpt>
      <trkpt lat="49.20487" lon="1.15039">
        <ele>34.171627</ele>
        <time>2014-08-07T12:34:39Z</time>
      </trkpt>
      <trkpt lat="49.20487" lon="1.15039">
        <ele>34.171627</ele>
        <time>2014-08-07T12:34:44Z</time>
      </trkpt>
      <trkpt lat="49.2049" lon="1.15046">
        <ele>34.171627</ele>
        <time>2014-08-07T12:34:49Z</time>
      </trkpt>
      <trkpt lat="49.20492" lon="1.15049">
        <ele>34.171627</ele>
        <time>2014-08-07T12:34:54Z</time>
      </trkpt>
      <trkpt lat="49.20492" lon="1.15049">
        <ele>34.171627</ele>
        <time>2014-08-07T12:34:59Z</time>
      </trkpt>
      <trkpt lat="49.20492" lon="1.15048">
        <ele>33.83334</ele>
        <time>2014-08-07T12:35:04Z</time>
      </trkpt>
      <trkpt lat="49.20492" lon="1.15048">
        <ele>33.83334</ele>
        <time>2014-08-07T12:35:09Z</time>
      </trkpt>
      <trkpt lat="49.20493" lon="1.15047">
        <ele>33.83334</ele>
        <time>2014-08-07T12:35:14Z</time>
      </trkpt>
      <trkpt lat="49.20497" lon="1.15053">
        <ele>33.83334</ele>
        <time>2014-08-07T12:35:19Z</time>
      </trkpt>
      <trkpt lat="49.20502" lon="1.1506">
        <ele>33.46572</ele>
        <time>2014-08-07T12:35:24Z</time>
      </trkpt>
      <trkpt lat="49.20506" lon="1.15066">
        <ele>33.46572</ele>
        <time>2014-08-07T12:35:29Z</time>
      </trkpt>
      <trkpt lat="49.20509" lon="1.15073">
        <ele>33.2159</ele>
        <time>2014-08-07T12:35:34Z</time>
      </trkpt>
      <trkpt lat="49.20512" lon="1.15079">
        <ele>33.2159</ele>
        <time>2014-08-07T12:35:39Z</time>
      </trkpt>
      <trkpt lat="49.20515" lon="1.15089">
        <ele>33.032516</ele>
        <time>2014-08-07T12:35:44Z</time>
      </trkpt>
      <trkpt lat="49.20516" lon="1.15096">
        <ele>33.032516</ele>
        <time>2014-08-07T12:35:49Z</time>
      </trkpt>
      <trkpt lat="49.20517" lon="1.15102">
        <ele>32.939857</ele>
        <time>2014-08-07T12:35:54Z</time>
      </trkpt>
      <trkpt lat="49.20516" lon="1.15113">
        <ele>32.939857</ele>
        <time>2014-08-07T12:35:59Z</time>
      </trkpt>
      <trkpt lat="49.20516" lon="1.15121">
        <ele>32.873695</ele>
        <time>2014-08-07T12:36:04Z</time>
      </trkpt>
      <trkpt lat="49.20517" lon="1.1513">
        <ele>32.873695</ele>
        <time>2014-08-07T12:36:09Z</time>
      </trkpt>
      <trkpt lat="49.2052" lon="1.15139">
        <ele>32.788864</ele>
        <time>2014-08-07T12:36:14Z</time>
      </trkpt>
      <trkpt lat="49.20522" lon="1.15146">
        <ele>32.788864</ele>
        <time>2014-08-07T12:36:19Z</time>
      </trkpt>
      <trkpt lat="49.20523" lon="1.15155">
        <ele>32.744434</ele>
        <time>2014-08-07T12:36:24Z</time>
      </trkpt>
      <trkpt lat="49.20524" lon="1.15162">
        <ele>32.744434</ele>
        <time>2014-08-07T12:36:29Z</time>
      </trkpt>
      <trkpt lat="49.20525" lon="1.15171">
        <ele>32.66533</ele>
        <time>2014-08-07T12:36:34Z</time>
      </trkpt>
      <trkpt lat="49.20525" lon="1.15181">
        <ele>32.66533</ele>
        <time>2014-08-07T12:36:39Z</time>
      </trkpt>
      <trkpt lat="49.20526" lon="1.15192">
        <ele>32.510895</ele>
        <time>2014-08-07T12:36:44Z</time>
      </trkpt>
      <trkpt lat="49.20527" lon="1.15202">
        <ele>32.510895</ele>
        <time>2014-08-07T12:36:49Z</time>
      </trkpt>
      <trkpt lat="49.20527" lon="1.15212">
        <ele>32.35897</ele>
        <time>2014-08-07T12:36:54Z</time>
      </trkpt>
      <trkpt lat="49.20527" lon="1.15222">
        <ele>32.35897</ele>
        <time>2014-08-07T12:36:59Z</time>
      </trkpt>
      <trkpt lat="49.20527" lon="1.15232">
        <ele>32.20961</ele>
        <time>2014-08-07T12:37:04Z</time>
      </trkpt>
      <trkpt lat="49.20527" lon="1.15242">
        <ele>32.20961</ele>
        <time>2014-08-07T12:37:09Z</time>
      </trkpt>
      <trkpt lat="49.20527" lon="1.15253">
        <ele>32.12049</ele>
        <time>2014-08-07T12:37:14Z</time>
      </trkpt>
      <trkpt lat="49.20527" lon="1.15263">
        <ele>32.12049</ele>
        <time>2014-08-07T12:37:19Z</time>
      </trkpt>
      <trkpt lat="49.20527" lon="1.1527">
        <ele>32.072834</ele>
        <time>2014-08-07T12:37:24Z</time>
      </trkpt>
      <trkpt lat="49.20529" lon="1.15279">
        <ele>32.072834</ele>
        <time>2014-08-07T12:37:29Z</time>
      </trkpt>
      <trkpt lat="49.20529" lon="1.15289">
        <ele>32.07794</ele>
        <time>2014-08-07T12:37:34Z</time>
      </trkpt>
      <trkpt lat="49.20529" lon="1.15299">
        <ele>32.07794</ele>
        <time>2014-08-07T12:37:39Z</time>
      </trkpt>
      <trkpt lat="49.20531" lon="1.15306">
        <ele>32.174953</ele>
        <time>2014-08-07T12:37:44Z</time>
      </trkpt>
      <trkpt lat="49.20533" lon="1.15314">
        <ele>32.174953</ele>
        <time>2014-08-07T12:37:49Z</time>
      </trkpt>
      <trkpt lat="49.20532" lon="1.15323">
        <ele>32.19812</ele>
        <time>2014-08-07T12:37:54Z</time>
      </trkpt>
      <trkpt lat="49.20535" lon="1.1533">
        <ele>32.19812</ele>
        <time>2014-08-07T12:37:59Z</time>
      </trkpt>
      <trkpt lat="49.20535" lon="1.15338">
        <ele>32.152596</ele>
        <time>2014-08-07T12:38:04Z</time>
      </trkpt>
      <trkpt lat="49.20536" lon="1.15345">
        <ele>32.152596</ele>
        <time>2014-08-07T12:38:09Z</time>
      </trkpt>
      <trkpt lat="49.20535" lon="1.15357">
        <ele>32.086586</ele>
        <time>2014-08-07T12:38:14Z</time>
      </trkpt>
      <trkpt lat="49.20536" lon="1.15364">
        <ele>32.086586</ele>
        <time>2014-08-07T12:38:19Z</time>
      </trkpt>
      <trkpt lat="49.20538" lon="1.1537">
        <ele>32.086586</ele>
        <time>2014-08-07T12:38:24Z</time>
      </trkpt>
      <trkpt lat="49.20538" lon="1.15379">
        <ele>32.001575</ele>
        <time>2014-08-07T12:38:29Z</time>
      </trkpt>
      <trkpt lat="49.20537" lon="1.1539">
        <ele>32.001575</ele>
        <time>2014-08-07T12:38:34Z</time>
      </trkpt>
      <trkpt lat="49.20536" lon="1.15401">
        <ele>31.956635</ele>
        <time>2014-08-07T12:38:39Z</time>
      </trkpt>
      <trkpt lat="49.20536" lon="1.15408">
        <ele>31.956635</ele>
        <time>2014-08-07T12:38:44Z</time>
      </trkpt>
      <trkpt lat="49.20537" lon="1.15418">
        <ele>32.006393</ele>
        <time>2014-08-07T12:38:49Z</time>
      </trkpt>
      <trkpt lat="49.20536" lon="1.15427">
        <ele>32.006393</ele>
        <time>2014-08-07T12:38:54Z</time>
      </trkpt>
      <trkpt lat="49.20536" lon="1.15434">
        <ele>32.11473</ele>
        <time>2014-08-07T12:38:59Z</time>
      </trkpt>
      <trkpt lat="49.20536" lon="1.15442">
        <ele>32.11473</ele>
        <time>2014-08-07T12:39:04Z</time>
      </trkpt>
      <trkpt lat="49.20536" lon="1.1545">
        <ele>32.32007</ele>
        <time>2014-08-07T12:39:09Z</time>
      </trkpt>
      <trkpt lat="49.20538" lon="1.15457">
        <ele>32.32007</ele>
        <time>2014-08-07T12:39:14Z</time>
      </trkpt>
      <trkpt lat="49.2054" lon="1.15465">
        <ele>32.499226</ele>
        <time>2014-08-07T12:39:19Z</time>
      </trkpt>
      <trkpt lat="49.20543" lon="1.15473">
        <ele>32.499226</ele>
        <time>2014-08-07T12:39:24Z</time>
      </trkpt>
      <trkpt lat="49.20545" lon="1.15482">
        <ele>32.653427</ele>
        <time>2014-08-07T12:39:29Z</time>
      </trkpt>
      <trkpt lat="49.20548" lon="1.15491">
        <ele>32.653427</ele>
        <time>2014-08-07T12:39:34Z</time>
      </trkpt>
      <trkpt lat="49.2055" lon="1.15499">
        <ele>32.812714</ele>
        <time>2014-08-07T12:39:39Z</time>
      </trkpt>
      <trkpt lat="49.20553" lon="1.15507">
        <ele>32.812714</ele>
        <time>2014-08-07T12:39:44Z</time>
      </trkpt>
      <trkpt lat="49.20556" lon="1.15515">
        <ele>32.961674</ele>
        <time>2014-08-07T12:39:49Z</time>
      </trkpt>
      <trkpt lat="49.2056" lon="1.15523">
        <ele>32.961674</ele>
        <time>2014-08-07T12:39:54Z</time>
      </trkpt>
      <trkpt lat="49.20564" lon="1.1553">
        <ele>33.08607</ele>
        <time>2014-08-07T12:39:59Z</time>
      </trkpt>
      <trkpt lat="49.20569" lon="1.15536">
        <ele>33.08607</ele>
        <time>2014-08-07T12:40:04Z</time>
      </trkpt>
      <trkpt lat="49.20572" lon="1.15542">
        <ele>33.216026</ele>
        <time>2014-08-07T12:40:09Z</time>
      </trkpt>
      <trkpt lat="49.20577" lon="1.15545">
        <ele>33.216026</ele>
        <time>2014-08-07T12:40:14Z</time>
      </trkpt>
      <trkpt lat="49.20583" lon="1.15552">
        <ele>33.393856</ele>
        <time>2014-08-07T12:40:19Z</time>
      </trkpt>
      <trkpt lat="49.20588" lon="1.15557">
        <ele>33.393856</ele>
        <time>2014-08-07T12:40:24Z</time>
      </trkpt>
      <trkpt lat="49.20592" lon="1.15562">
        <ele>33.600994</ele>
        <time>2014-08-07T12:40:29Z</time>
      </trkpt>
      <trkpt lat="49.20593" lon="1.15562">
        <ele>33.600994</ele>
        <time>2014-08-07T12:40:34Z</time>
      </trkpt>
      <trkpt lat="49.20592" lon="1.15561">
        <ele>33.600994</ele>
        <time>2014-08-07T12:40:39Z</time>
      </trkpt>
      <trkpt lat="49.20596" lon="1.15567">
        <ele>33.600994</ele>
        <time>2014-08-07T12:40:44Z</time>
      </trkpt>
      <trkpt lat="49.206" lon="1.15573">
        <ele>33.82018</ele>
        <time>2014-08-07T12:40:49Z</time>
      </trkpt>
      <trkpt lat="49.20605" lon="1.1558">
        <ele>33.82018</ele>
        <time>2014-08-07T12:40:54Z</time>
      </trkpt>
      <trkpt lat="49.2061" lon="1.15586">
        <ele>33.920097</ele>
        <time>2014-08-07T12:40:59Z</time>
      </trkpt>
      <trkpt lat="49.20615" lon="1.15593">
        <ele>33.920097</ele>
        <time>2014-08-07T12:41:04Z</time>
      </trkpt>
      <trkpt lat="49.20619" lon="1.15599">
        <ele>33.95238</ele>
        <time>2014-08-07T12:41:09Z</time>
      </trkpt>
      <trkpt lat="49.20623" lon="1.15606">
        <ele>33.95238</ele>
        <time>2014-08-07T12:41:14Z</time>
      </trkpt>
      <trkpt lat="49.20627" lon="1.15611">
        <ele>33.95064</ele>
        <time>2014-08-07T12:41:19Z</time>
      </trkpt>
      <trkpt lat="49.20631" lon="1.15619">
        <ele>33.95064</ele>
        <time>2014-08-07T12:41:24Z</time>
      </trkpt>
      <trkpt lat="49.20635" lon="1.15625">
        <ele>33.888508</ele>
        <time>2014-08-07T12:41:29Z</time>
      </trkpt>
      <trkpt lat="49.20639" lon="1.15632">
        <ele>33.888508</ele>
        <time>2014-08-07T12:41:34Z</time>
      </trkpt>
      <trkpt lat="49.20641" lon="1.15639">
        <ele>33.79935</ele>
        <time>2014-08-07T12:41:39Z</time>
      </trkpt>
      <trkpt lat="49.20644" lon="1.15647">
        <ele>33.79935</ele>
        <time>2014-08-07T12:41:44Z</time>
      </trkpt>
      <trkpt lat="49.20649" lon="1.15654">
        <ele>33.62773</ele>
        <time>2014-08-07T12:41:49Z</time>
      </trkpt>
      <trkpt lat="49.20652" lon="1.1566">
        <ele>33.62773</ele>
        <time>2014-08-07T12:41:54Z</time>
      </trkpt>
      <trkpt lat="49.20656" lon="1.15666">
        <ele>33.423386</ele>
        <time>2014-08-07T12:41:59Z</time>
      </trkpt>
      <trkpt lat="49.20659" lon="1.15676">
        <ele>33.423386</ele>
        <time>2014-08-07T12:42:04Z</time>
      </trkpt>
      <trkpt lat="49.20663" lon="1.15683">
        <ele>33.24692</ele>
        <time>2014-08-07T12:42:09Z</time>
      </trkpt>
      <trkpt lat="49.20668" lon="1.15691">
        <ele>33.24692</ele>
        <time>2014-08-07T12:42:14Z</time>
      </trkpt>
      <trkpt lat="49.20672" lon="1.15698">
        <ele>33.053535</ele>
        <time>2014-08-07T12:42:19Z</time>
      </trkpt>
      <trkpt lat="49.20675" lon="1.15704">
        <ele>33.053535</ele>
        <time>2014-08-07T12:42:24Z</time>
      </trkpt>
      <trkpt lat="49.20678" lon="1.1571">
        <ele>32.859413</ele>
        <time>2014-08-07T12:42:29Z</time>
      </trkpt>
      <trkpt lat="49.20682" lon="1.15719">
        <ele>32.859413</ele>
        <time>2014-08-07T12:42:34Z</time>
      </trkpt>
      <trkpt lat="49.20687" lon="1.15724">
        <ele>32.650738</ele>
        <time>2014-08-07T12:42:39Z</time>
      </trkpt>
      <trkpt lat="49.20691" lon="1.15732">
        <ele>32.650738</ele>
        <time>2014-08-07T12:42:44Z</time>
      </trkpt>
      <trkpt lat="49.20694" lon="1.15739">
        <ele>32.443565</ele>
        <time>2014-08-07T12:42:49Z</time>
      </trkpt>
      <trkpt lat="49.20698" lon="1.15746">
        <ele>32.443565</ele>
        <time>2014-08-07T12:42:54Z</time>
      </trkpt>
      <trkpt lat="49.20701" lon="1.15753">
        <ele>32.209538</ele>
        <time>2014-08-07T12:42:59Z</time>
      </trkpt>
      <trkpt lat="49.20706" lon="1.15761">
        <ele>32.209538</ele>
        <time>2014-08-07T12:43:04Z</time>
      </trkpt>
      <trkpt lat="49.20711" lon="1.15768">
        <ele>31.965681</ele>
        <time>2014-08-07T12:43:09Z</time>
      </trkpt>
      <trkpt lat="49.20713" lon="1.15775">
        <ele>31.965681</ele>
        <time>2014-08-07T12:43:14Z</time>
      </trkpt>
      <trkpt lat="49.20716" lon="1.1578">
        <ele>31.713388</ele>
        <time>2014-08-07T12:43:19Z</time>
      </trkpt>
      <trkpt lat="49.20721" lon="1.15786">
        <ele>31.713388</ele>
        <time>2014-08-07T12:43:24Z</time>
      </trkpt>
      <trkpt lat="49.20727" lon="1.15794">
        <ele>31.324263</ele>
        <time>2014-08-07T12:43:29Z</time>
      </trkpt>
      <trkpt lat="49.20731" lon="1.15799">
        <ele>31.324263</ele>
        <time>2014-08-07T12:43:34Z</time>
      </trkpt>
      <trkpt lat="49.20733" lon="1.15806">
        <ele>30.910292</ele>
        <time>2014-08-07T12:43:39Z</time>
      </trkpt>
      <trkpt lat="49.20737" lon="1.15813">
        <ele>30.910292</ele>
        <time>2014-08-07T12:43:44Z</time>
      </trkpt>
      <trkpt lat="49.20737" lon="1.15823">
        <ele>30.488836</ele>
        <time>2014-08-07T12:43:49Z</time>
      </trkpt>
      <trkpt lat="49.2074" lon="1.1583">
        <ele>30.488836</ele>
        <time>2014-08-07T12:43:54Z</time>
      </trkpt>
      <trkpt lat="49.20743" lon="1.15839">
        <ele>30.003923</ele>
        <time>2014-08-07T12:43:59Z</time>
      </trkpt>
      <trkpt lat="49.20745" lon="1.15848">
        <ele>30.003923</ele>
        <time>2014-08-07T12:44:04Z</time>
      </trkpt>
      <trkpt lat="49.20747" lon="1.15856">
        <ele>29.475918</ele>
        <time>2014-08-07T12:44:09Z</time>
      </trkpt>
      <trkpt lat="49.2075" lon="1.15864">
        <ele>29.475918</ele>
        <time>2014-08-07T12:44:14Z</time>
      </trkpt>
      <trkpt lat="49.20752" lon="1.15873">
        <ele>28.866144</ele>
        <time>2014-08-07T12:44:19Z</time>
      </trkpt>
      <trkpt lat="49.20754" lon="1.1588">
        <ele>28.866144</ele>
        <time>2014-08-07T12:44:24Z</time>
      </trkpt>
      <trkpt lat="49.20755" lon="1.15889">
        <ele>28.21103</ele>
        <time>2014-08-07T12:44:29Z</time>
      </trkpt>
      <trkpt lat="49.20758" lon="1.15899">
        <ele>28.21103</ele>
        <time>2014-08-07T12:44:34Z</time>
      </trkpt>
      <trkpt lat="49.20761" lon="1.15907">
        <ele>27.630894</ele>
        <time>2014-08-07T12:44:39Z</time>
      </trkpt>
      <trkpt lat="49.20764" lon="1.15917">
        <ele>27.630894</ele>
        <time>2014-08-07T12:44:44Z</time>
      </trkpt>
      <trkpt lat="49.20766" lon="1.15925">
        <ele>27.064054</ele>
        <time>2014-08-07T12:44:49Z</time>
      </trkpt>
      <trkpt lat="49.20769" lon="1.15932">
        <ele>27.064054</ele>
        <time>2014-08-07T12:44:54Z</time>
      </trkpt>
      <trkpt lat="49.20774" lon="1.15939">
        <ele>26.482107</ele>
        <time>2014-08-07T12:44:59Z</time>
      </trkpt>
      <trkpt lat="49.20778" lon="1.15945">
        <ele>26.482107</ele>
        <time>2014-08-07T12:45:04Z</time>
      </trkpt>
      <trkpt lat="49.20782" lon="1.15952">
        <ele>25.901985</ele>
        <time>2014-08-07T12:45:09Z</time>
      </trkpt>
      <trkpt lat="49.20787" lon="1.1596">
        <ele>25.901985</ele>
        <time>2014-08-07T12:45:14Z</time>
      </trkpt>
      <trkpt lat="49.20792" lon="1.15967">
        <ele>25.382565</ele>
        <time>2014-08-07T12:45:19Z</time>
      </trkpt>
      <trkpt lat="49.20796" lon="1.15974">
        <ele>25.382565</ele>
        <time>2014-08-07T12:45:24Z</time>
      </trkpt>
      <trkpt lat="49.208" lon="1.15981">
        <ele>24.906143</ele>
        <time>2014-08-07T12:45:29Z</time>
      </trkpt>
      <trkpt lat="49.20803" lon="1.1599">
        <ele>24.906143</ele>
        <time>2014-08-07T12:45:34Z</time>
      </trkpt>
      <trkpt lat="49.20808" lon="1.15995">
        <ele>24.456158</ele>
        <time>2014-08-07T12:45:39Z</time>
      </trkpt>
      <trkpt lat="49.20812" lon="1.16003">
        <ele>24.456158</ele>
        <time>2014-08-07T12:45:44Z</time>
      </trkpt>
      <trkpt lat="49.20816" lon="1.16009">
        <ele>24.103622</ele>
        <time>2014-08-07T12:45:49Z</time>
      </trkpt>
      <trkpt lat="49.2082" lon="1.16017">
        <ele>24.103622</ele>
        <time>2014-08-07T12:45:54Z</time>
      </trkpt>
      <trkpt lat="49.20824" lon="1.16025">
        <ele>23.76991</ele>
        <time>2014-08-07T12:45:59Z</time>
      </trkpt>
      <trkpt lat="49.20827" lon="1.16032">
        <ele>23.76991</ele>
        <time>2014-08-07T12:46:04Z</time>
      </trkpt>
      <trkpt lat="49.20831" lon="1.16037">
        <ele>23.497375</ele>
        <time>2014-08-07T12:46:09Z</time>
      </trkpt>
      <trkpt lat="49.20836" lon="1.16044">
        <ele>23.497375</ele>
        <time>2014-08-07T12:46:14Z</time>
      </trkpt>
      <trkpt lat="49.20841" lon="1.16048">
        <ele>23.28182</ele>
        <time>2014-08-07T12:46:19Z</time>
      </trkpt>
      <trkpt lat="49.20845" lon="1.16054">
        <ele>23.28182</ele>
        <time>2014-08-07T12:46:24Z</time>
      </trkpt>
      <trkpt lat="49.20851" lon="1.16061">
        <ele>23.018282</ele>
        <time>2014-08-07T12:46:29Z</time>
      </trkpt>
      <trkpt lat="49.20855" lon="1.16069">
        <ele>23.018282</ele>
        <time>2014-08-07T12:46:34Z</time>
      </trkpt>
      <trkpt lat="49.20859" lon="1.16075">
        <ele>22.78255</ele>
        <time>2014-08-07T12:46:39Z</time>
      </trkpt>
      <trkpt lat="49.20864" lon="1.16081">
        <ele>22.78255</ele>
        <time>2014-08-07T12:46:44Z</time>
      </trkpt>
      <trkpt lat="49.20868" lon="1.16085">
        <ele>22.515043</ele>
        <time>2014-08-07T12:46:49Z</time>
      </trkpt>
      <trkpt lat="49.2087" lon="1.16089">
        <ele>22.515043</ele>
        <time>2014-08-07T12:46:54Z</time>
      </trkpt>
      <trkpt lat="49.2087" lon="1.16089">
        <ele>22.515043</ele>
        <time>2014-08-07T12:46:59Z</time>
      </trkpt>
      <trkpt lat="49.2087" lon="1.16089">
        <ele>22.515043</ele>
        <time>2014-08-07T12:47:04Z</time>
      </trkpt>
      <trkpt lat="49.20872" lon="1.16092">
        <ele>22.515043</ele>
        <time>2014-08-07T12:47:09Z</time>
      </trkpt>
      <trkpt lat="49.20877" lon="1.16098">
        <ele>22.347954</ele>
        <time>2014-08-07T12:47:14Z</time>
      </trkpt>
      <trkpt lat="49.2088" lon="1.16105">
        <ele>22.347954</ele>
        <time>2014-08-07T12:47:19Z</time>
      </trkpt>
      <trkpt lat="49.20884" lon="1.16113">
        <ele>22.23053</ele>
        <time>2014-08-07T12:47:24Z</time>
      </trkpt>
      <trkpt lat="49.20889" lon="1.1612">
        <ele>22.23053</ele>
        <time>2014-08-07T12:47:29Z</time>
      </trkpt>
      <trkpt lat="49.20891" lon="1.16128">
        <ele>22.101177</ele>
        <time>2014-08-07T12:47:34Z</time>
      </trkpt>
      <trkpt lat="49.20894" lon="1.16136">
        <ele>22.101177</ele>
        <time>2014-08-07T12:47:39Z</time>
      </trkpt>
      <trkpt lat="49.20897" lon="1.16144">
        <ele>22.032534</ele>
        <time>2014-08-07T12:47:44Z</time>
      </trkpt>
      <trkpt lat="49.209" lon="1.16152">
        <ele>22.032534</ele>
        <time>2014-08-07T12:47:49Z</time>
      </trkpt>
      <trkpt lat="49.20906" lon="1.16159">
        <ele>22.034073</ele>
        <time>2014-08-07T12:47:54Z</time>
      </trkpt>
      <trkpt lat="49.20908" lon="1.16167">
        <ele>22.034073</ele>
        <time>2014-08-07T12:47:59Z</time>
      </trkpt>
      <trkpt lat="49.2091" lon="1.16172">
        <ele>22.085537</ele>
        <time>2014-08-07T12:48:04Z</time>
      </trkpt>
      <trkpt lat="49.20912" lon="1.16178">
        <ele>22.085537</ele>
        <time>2014-08-07T12:48:09Z</time>
      </trkpt>
      <trkpt lat="49.20917" lon="1.16187">
        <ele>22.124771</ele>
        <time>2014-08-07T12:48:14Z</time>
      </trkpt>
      <trkpt lat="49.20922" lon="1.1619">
        <ele>22.124771</ele>
        <time>2014-08-07T12:48:19Z</time>
      </trkpt>
      <trkpt lat="49.20926" lon="1.16197">
        <ele>22.094215</ele>
        <time>2014-08-07T12:48:24Z</time>
      </trkpt>
      <trkpt lat="49.20929" lon="1.16205">
        <ele>22.094215</ele>
        <time>2014-08-07T12:48:29Z</time>
      </trkpt>
      <trkpt lat="49.20933" lon="1.16213">
        <ele>22.041601</ele>
        <time>2014-08-07T12:48:34Z</time>
      </trkpt>
      <trkpt lat="49.20937" lon="1.16221">
        <ele>22.041601</ele>
        <time>2014-08-07T12:48:39Z</time>
      </trkpt>
      <trkpt lat="49.20941" lon="1.1623">
        <ele>22.040037</ele>
        <time>2014-08-07T12:48:44Z</time>
      </trkpt>
      <trkpt lat="49.20944" lon="1.16234">
        <ele>22.040037</ele>
        <time>2014-08-07T12:48:49Z</time>
      </trkpt>
      <trkpt lat="49.20947" lon="1.16241">
        <ele>22.041828</ele>
        <time>2014-08-07T12:48:54Z</time>
      </trkpt>
      <trkpt lat="49.2095" lon="1.16247">
        <ele>22.041828</ele>
        <time>2014-08-07T12:48:59Z</time>
      </trkpt>
      <trkpt lat="49.20953" lon="1.1625">
        <ele>22.041828</ele>
        <time>2014-08-07T12:49:04Z</time>
      </trkpt>
      <trkpt lat="49.20959" lon="1.16252">
        <ele>22.060421</ele>
        <time>2014-08-07T12:49:09Z</time>
      </trkpt>
      <trkpt lat="49.20965" lon="1.1625">
        <ele>22.060421</ele>
        <time>2014-08-07T12:49:14Z</time>
      </trkpt>
      <trkpt lat="49.20967" lon="1.16256">
        <ele>22.064993</ele>
        <time>2014-08-07T12:49:19Z</time>
      </trkpt>
      <trkpt lat="49.20968" lon="1.16264">
        <ele>22.064993</ele>
        <time>2014-08-07T12:49:24Z</time>
      </trkpt>
      <trkpt lat="49.20969" lon="1.16273">
        <ele>22.084679</ele>
        <time>2014-08-07T12:49:29Z</time>
      </trkpt>
      <trkpt lat="49.20969" lon="1.16282">
        <ele>22.084679</ele>
        <time>2014-08-07T12:49:34Z</time>
      </trkpt>
      <trkpt lat="49.20969" lon="1.16291">
        <ele>22.146437</ele>
        <time>2014-08-07T12:49:39Z</time>
      </trkpt>
      <trkpt lat="49.2097" lon="1.16297">
        <ele>22.146437</ele>
        <time>2014-08-07T12:49:44Z</time>
      </trkpt>
      <trkpt lat="49.20972" lon="1.16305">
        <ele>22.246313</ele>
        <time>2014-08-07T12:49:49Z</time>
      </trkpt>
      <trkpt lat="49.20977" lon="1.16311">
        <ele>22.246313</ele>
        <time>2014-08-07T12:49:54Z</time>
      </trkpt>
      <trkpt lat="49.2098" lon="1.16315">
        <ele>22.394958</ele>
        <time>2014-08-07T12:49:59Z</time>
      </trkpt>
      <trkpt lat="49.20985" lon="1.16324">
        <ele>22.394958</ele>
        <time>2014-08-07T12:50:04Z</time>
      </trkpt>
      <trkpt lat="49.20987" lon="1.1633">
        <ele>22.616531</ele>
        <time>2014-08-07T12:50:09Z</time>
      </trkpt>
      <trkpt lat="49.20991" lon="1.16334">
        <ele>22.616531</ele>
        <time>2014-08-07T12:50:14Z</time>
      </trkpt>
      <trkpt lat="49.20997" lon="1.16333">
        <ele>22.803526</ele>
        <time>2014-08-07T12:50:19Z</time>
      </trkpt>
      <trkpt lat="49.21001" lon="1.16334">
        <ele>22.803526</ele>
        <time>2014-08-07T12:50:24Z</time>
      </trkpt>
      <trkpt lat="49.21006" lon="1.16339">
        <ele>22.942913</ele>
        <time>2014-08-07T12:50:29Z</time>
      </trkpt>
      <trkpt lat="49.21011" lon="1.16345">
        <ele>22.942913</ele>
        <time>2014-08-07T12:50:34Z</time>
      </trkpt>
      <trkpt lat="49.21015" lon="1.16352">
        <ele>23.037186</ele>
        <time>2014-08-07T12:50:39Z</time>
      </trkpt>
      <trkpt lat="49.21019" lon="1.16361">
        <ele>23.037186</ele>
        <time>2014-08-07T12:50:44Z</time>
      </trkpt>
      <trkpt lat="49.21021" lon="1.16367">
        <ele>23.088802</ele>
        <time>2014-08-07T12:50:49Z</time>
      </trkpt>
      <trkpt lat="49.21023" lon="1.16374">
        <ele>23.088802</ele>
        <time>2014-08-07T12:50:54Z</time>
      </trkpt>
      <trkpt lat="49.21025" lon="1.16382">
        <ele>23.157827</ele>
        <time>2014-08-07T12:50:59Z</time>
      </trkpt>
      <trkpt lat="49.2103" lon="1.16387">
        <ele>23.157827</ele>
        <time>2014-08-07T12:51:04Z</time>
      </trkpt>
      <trkpt lat="49.21033" lon="1.16389">
        <ele>23.199007</ele>
        <time>2014-08-07T12:51:09Z</time>
      </trkpt>
      <trkpt lat="49.21038" lon="1.16391">
        <ele>23.199007</ele>
        <time>2014-08-07T12:51:14Z</time>
      </trkpt>
      <trkpt lat="49.21044" lon="1.16394">
        <ele>23.285803</ele>
        <time>2014-08-07T12:51:19Z</time>
      </trkpt>
      <trkpt lat="49.21048" lon="1.16395">
        <ele>23.285803</ele>
        <time>2014-08-07T12:51:24Z</time>
      </trkpt>
      <trkpt lat="49.21049" lon="1.16396">
        <ele>23.285803</ele>
        <time>2014-08-07T12:51:29Z</time>
      </trkpt>
      <trkpt lat="49.21049" lon="1.16396">
        <ele>23.285803</ele>
        <time>2014-08-07T12:51:34Z</time>
      </trkpt>
      <trkpt lat="49.21048" lon="1.16396">
        <ele>23.285803</ele>
        <time>2014-08-07T12:51:39Z</time>
      </trkpt>
      <trkpt lat="49.21048" lon="1.16397">
        <ele>23.285803</ele>
        <time>2014-08-07T12:51:44Z</time>
      </trkpt>
      <trkpt lat="49.21049" lon="1.16403">
        <ele>23.37089</ele>
        <time>2014-08-07T12:51:49Z</time>
      </trkpt>
      <trkpt lat="49.2105" lon="1.16411">
        <ele>23.37089</ele>
        <time>2014-08-07T12:51:54Z</time>
      </trkpt>
      <trkpt lat="49.2105" lon="1.1642">
        <ele>23.468088</ele>
        <time>2014-08-07T12:51:59Z</time>
      </trkpt>
      <trkpt lat="49.21051" lon="1.16426">
        <ele>23.468088</ele>
        <time>2014-08-07T12:52:04Z</time>
      </trkpt>
      <trkpt lat="49.21051" lon="1.16436">
        <ele>23.590197</ele>
        <time>2014-08-07T12:52:09Z</time>
      </trkpt>
      <trkpt lat="49.2105" lon="1.16442">
        <ele>23.590197</ele>
        <time>2014-08-07T12:52:14Z</time>
      </trkpt>
      <trkpt lat="49.21052" lon="1.16452">
        <ele>23.734617</ele>
        <time>2014-08-07T12:52:19Z</time>
      </trkpt>
      <trkpt lat="49.21054" lon="1.1646">
        <ele>23.734617</ele>
        <time>2014-08-07T12:52:24Z</time>
      </trkpt>
      <trkpt lat="49.21057" lon="1.16468">
        <ele>23.855669</ele>
        <time>2014-08-07T12:52:29Z</time>
      </trkpt>
      <trkpt lat="49.21061" lon="1.16474">
        <ele>23.855669</ele>
        <time>2014-08-07T12:52:34Z</time>
      </trkpt>
      <trkpt lat="49.21066" lon="1.16482">
        <ele>24.026411</ele>
        <time>2014-08-07T12:52:39Z</time>
      </trkpt>
      <trkpt lat="49.21069" lon="1.1649">
        <ele>24.026411</ele>
        <time>2014-08-07T12:52:44Z</time>
      </trkpt>
      <trkpt lat="49.21072" lon="1.16495">
        <ele>24.256775</ele>
        <time>2014-08-07T12:52:49Z</time>
      </trkpt>
      <trkpt lat="49.21075" lon="1.16503">
        <ele>24.256775</ele>
        <time>2014-08-07T12:52:54Z</time>
      </trkpt>
      <trkpt lat="49.21077" lon="1.16511">
        <ele>24.541412</ele>
        <time>2014-08-07T12:52:59Z</time>
      </trkpt>
      <trkpt lat="49.21081" lon="1.16518">
        <ele>24.541412</ele>
        <time>2014-08-07T12:53:04Z</time>
      </trkpt>
      <trkpt lat="49.21083" lon="1.16526">
        <ele>24.889654</ele>
        <time>2014-08-07T12:53:09Z</time>
      </trkpt>
      <trkpt lat="49.21084" lon="1.16532">
        <ele>24.889654</ele>
        <time>2014-08-07T12:53:14Z</time>
      </trkpt>
      <trkpt lat="49.21088" lon="1.16541">
        <ele>25.223528</ele>
        <time>2014-08-07T12:53:19Z</time>
      </trkpt>
      <trkpt lat="49.21092" lon="1.16541">
        <ele>25.223528</ele>
        <time>2014-08-07T12:53:24Z</time>
      </trkpt>
      <trkpt lat="49.21096" lon="1.16536">
        <ele>25.499685</ele>
        <time>2014-08-07T12:53:29Z</time>
      </trkpt>
      <trkpt lat="49.21102" lon="1.16532">
        <ele>25.499685</ele>
        <time>2014-08-07T12:53:34Z</time>
      </trkpt>
      <trkpt lat="49.21108" lon="1.16529">
        <ele>25.735796</ele>
        <time>2014-08-07T12:53:39Z</time>
      </trkpt>
      <trkpt lat="49.21114" lon="1.16527">
        <ele>25.735796</ele>
        <time>2014-08-07T12:53:44Z</time>
      </trkpt>
      <trkpt lat="49.21118" lon="1.16526">
        <ele>25.933966</ele>
        <time>2014-08-07T12:53:49Z</time>
      </trkpt>
      <trkpt lat="49.21122" lon="1.16521">
        <ele>25.933966</ele>
        <time>2014-08-07T12:53:54Z</time>
      </trkpt>
      <trkpt lat="49.21128" lon="1.16516">
        <ele>26.211573</ele>
        <time>2014-08-07T12:53:59Z</time>
      </trkpt>
      <trkpt lat="49.21132" lon="1.16514">
        <ele>26.211573</ele>
        <time>2014-08-07T12:54:04Z</time>
      </trkpt>
      <trkpt lat="49.21137" lon="1.16512">
        <ele>26.211573</ele>
        <time>2014-08-07T12:54:09Z</time>
      </trkpt>
      <trkpt lat="49.21141" lon="1.16511">
        <ele>26.561892</ele>
        <time>2014-08-07T12:54:14Z</time>
      </trkpt>
      <trkpt lat="49.21147" lon="1.16508">
        <ele>26.561892</ele>
        <time>2014-08-07T12:54:19Z</time>
      </trkpt>
      <trkpt lat="49.21151" lon="1.16508">
        <ele>26.892057</ele>
        <time>2014-08-07T12:54:24Z</time>
      </trkpt>
      <trkpt lat="49.21157" lon="1.16506">
        <ele>26.892057</ele>
        <time>2014-08-07T12:54:29Z</time>
      </trkpt>
      <trkpt lat="49.21162" lon="1.16501">
        <ele>27.144932</ele>
        <time>2014-08-07T12:54:34Z</time>
      </trkpt>
      <trkpt lat="49.21165" lon="1.165">
        <ele>27.144932</ele>
        <time>2014-08-07T12:54:39Z</time>
      </trkpt>
      <trkpt lat="49.21169" lon="1.16498">
        <ele>27.144932</ele>
        <time>2014-08-07T12:54:44Z</time>
      </trkpt>
      <trkpt lat="49.21174" lon="1.16493">
        <ele>27.339884</ele>
        <time>2014-08-07T12:54:49Z</time>
      </trkpt>
      <trkpt lat="49.21174" lon="1.16484">
        <ele>27.339884</ele>
        <time>2014-08-07T12:54:54Z</time>
      </trkpt>
      <trkpt lat="49.21172" lon="1.16476">
        <ele>27.552698</ele>
        <time>2014-08-07T12:54:59Z</time>
      </trkpt>
      <trkpt lat="49.21171" lon="1.16468">
        <ele>27.552698</ele>
        <time>2014-08-07T12:55:04Z</time>
      </trkpt>
      <trkpt lat="49.21168" lon="1.16461">
        <ele>27.72387</ele>
        <time>2014-08-07T12:55:09Z</time>
      </trkpt>
      <trkpt lat="49.21165" lon="1.16456">
        <ele>27.72387</ele>
        <time>2014-08-07T12:55:14Z</time>
      </trkpt>
      <trkpt lat="49.21162" lon="1.16451">
        <ele>27.827242</ele>
        <time>2014-08-07T12:55:19Z</time>
      </trkpt>
      <trkpt lat="49.21162" lon="1.16447">
        <ele>27.827242</ele>
        <time>2014-08-07T12:55:24Z</time>
      </trkpt>
      <trkpt lat="49.2116" lon="1.16441">
        <ele>27.827242</ele>
        <time>2014-08-07T12:55:29Z</time>
      </trkpt>
      <trkpt lat="49.21158" lon="1.16434">
        <ele>27.723503</ele>
        <time>2014-08-07T12:55:34Z</time>
      </trkpt>
      <trkpt lat="49.21156" lon="1.16428">
        <ele>27.723503</ele>
        <time>2014-08-07T12:55:39Z</time>
      </trkpt>
      <trkpt lat="49.21155" lon="1.16418">
        <ele>27.673288</ele>
        <time>2014-08-07T12:55:44Z</time>
      </trkpt>
      <trkpt lat="49.21155" lon="1.1641">
        <ele>27.673288</ele>
        <time>2014-08-07T12:55:49Z</time>
      </trkpt>
      <trkpt lat="49.21156" lon="1.16403">
        <ele>27.471216</ele>
        <time>2014-08-07T12:55:54Z</time>
      </trkpt>
      <trkpt lat="49.21157" lon="1.16399">
        <ele>27.471216</ele>
        <time>2014-08-07T12:55:59Z</time>
      </trkpt>
      <trkpt lat="49.21158" lon="1.16392">
        <ele>27.471216</ele>
        <time>2014-08-07T12:56:04Z</time>
      </trkpt>
      <trkpt lat="49.21162" lon="1.16383">
        <ele>27.10037</ele>
        <time>2014-08-07T12:56:09Z</time>
      </trkpt>
      <trkpt lat="49.21165" lon="1.16377">
        <ele>27.10037</ele>
        <time>2014-08-07T12:56:14Z</time>
      </trkpt>
      <trkpt lat="49.21167" lon="1.16372">
        <ele>27.10037</ele>
        <time>2014-08-07T12:56:19Z</time>
      </trkpt>
      <trkpt lat="49.21169" lon="1.16365">
        <ele>26.574392</ele>
        <time>2014-08-07T12:56:24Z</time>
      </trkpt>
      <trkpt lat="49.21169" lon="1.16364">
        <ele>26.574392</ele>
        <time>2014-08-07T12:56:29Z</time>
      </trkpt>
      <trkpt lat="49.21169" lon="1.16364">
        <ele>26.574392</ele>
        <time>2014-08-07T12:56:34Z</time>
      </trkpt>
      <trkpt lat="49.21169" lon="1.16365">
        <ele>26.574392</ele>
        <time>2014-08-07T12:56:39Z</time>
      </trkpt>
      <trkpt lat="49.21168" lon="1.16366">
        <ele>26.574392</ele>
        <time>2014-08-07T12:56:44Z</time>
      </trkpt>
      <trkpt lat="49.21169" lon="1.16366">
        <ele>26.574392</ele>
        <time>2014-08-07T12:56:49Z</time>
      </trkpt>
      <trkpt lat="49.2117" lon="1.16367">
        <ele>26.574392</ele>
        <time>2014-08-07T12:56:54Z</time>
      </trkpt>
      <trkpt lat="49.2117" lon="1.16367">
        <ele>26.574392</ele>
        <time>2014-08-07T12:56:59Z</time>
      </trkpt>
      <trkpt lat="49.21167" lon="1.1637">
        <ele>26.574392</ele>
        <time>2014-08-07T12:57:04Z</time>
      </trkpt>
      <trkpt lat="49.21167" lon="1.16372">
        <ele>25.776667</ele>
        <time>2014-08-07T12:57:09Z</time>
      </trkpt>
      <trkpt lat="49.21167" lon="1.16372">
        <ele>25.776667</ele>
        <time>2014-08-07T12:57:14Z</time>
      </trkpt>
      <trkpt lat="49.21169" lon="1.16372">
        <ele>25.776667</ele>
        <time>2014-08-07T12:57:24Z</time>
      </trkpt>
      <trkpt lat="49.21178" lon="1.16367">
        <ele>25.219591</ele>
        <time>2014-08-07T12:57:29Z</time>
      </trkpt>
      <trkpt lat="49.2118" lon="1.16366">
        <ele>25.219591</ele>
        <time>2014-08-07T12:57:34Z</time>
      </trkpt>
      <trkpt lat="49.2118" lon="1.16366">
        <ele>25.219591</ele>
        <time>2014-08-07T12:57:39Z</time>
      </trkpt>
      <trkpt lat="49.21179" lon="1.16368">
        <ele>25.219591</ele>
        <time>2014-08-07T12:57:44Z</time>
      </trkpt>
      <trkpt lat="49.21178" lon="1.1637">
        <ele>25.219591</ele>
        <time>2014-08-07T12:57:49Z</time>
      </trkpt>
      <trkpt lat="49.21181" lon="1.16371">
        <ele>25.219591</ele>
        <time>2014-08-07T12:57:54Z</time>
      </trkpt>
      <trkpt lat="49.21192" lon="1.16365">
        <ele>24.714336</ele>
        <time>2014-08-07T12:57:59Z</time>
      </trkpt>
      <trkpt lat="49.21195" lon="1.16359">
        <ele>24.714336</ele>
        <time>2014-08-07T12:58:04Z</time>
      </trkpt>
      <trkpt lat="49.21198" lon="1.16358">
        <ele>24.714336</ele>
        <time>2014-08-07T12:58:09Z</time>
      </trkpt>
      <trkpt lat="49.21202" lon="1.16355">
        <ele>24.201084</ele>
        <time>2014-08-07T12:58:14Z</time>
      </trkpt>
      <trkpt lat="49.21205" lon="1.16359">
        <ele>24.201084</ele>
        <time>2014-08-07T12:58:19Z</time>
      </trkpt>
      <trkpt lat="49.21209" lon="1.16365">
        <ele>23.73971</ele>
        <time>2014-08-07T12:58:24Z</time>
      </trkpt>
      <trkpt lat="49.2121" lon="1.16366">
        <ele>23.73971</ele>
        <time>2014-08-07T12:58:29Z</time>
      </trkpt>
      <trkpt lat="49.21209" lon="1.16366">
        <ele>23.73971</ele>
        <time>2014-08-07T12:58:34Z</time>
      </trkpt>
      <trkpt lat="49.21209" lon="1.16366">
        <ele>23.73971</ele>
        <time>2014-08-07T12:58:39Z</time>
      </trkpt>
      <trkpt lat="49.21209" lon="1.16366">
        <ele>23.73971</ele>
        <time>2014-08-07T12:58:44Z</time>
      </trkpt>
      <trkpt lat="49.21209" lon="1.16369">
        <ele>23.73971</ele>
        <time>2014-08-07T12:58:49Z</time>
      </trkpt>
      <trkpt lat="49.21182" lon="1.16469">
        <ele>24.970755</ele>
        <time>2014-08-07T13:43:44Z</time>
      </trkpt>
      <trkpt lat="49.21176" lon="1.16462">
        <ele>24.970755</ele>
        <time>2014-08-07T13:43:49Z</time>
      </trkpt>
      <trkpt lat="49.21171" lon="1.16457">
        <ele>24.970863</ele>
        <time>2014-08-07T13:43:54Z</time>
      </trkpt>
      <trkpt lat="49.21177" lon="1.16461">
        <ele>24.970863</ele>
        <time>2014-08-07T13:43:59Z</time>
      </trkpt>
      <trkpt lat="49.21163" lon="1.16461">
        <ele>27.361359</ele>
        <time>2014-08-07T13:44:14Z</time>
      </trkpt>
      <trkpt lat="49.2116" lon="1.16458">
        <ele>27.361359</ele>
        <time>2014-08-07T13:44:19Z</time>
      </trkpt>
      <trkpt lat="49.21161" lon="1.16466">
        <ele>27.361359</ele>
        <time>2014-08-07T13:44:24Z</time>
      </trkpt>
      <trkpt lat="49.21166" lon="1.16473">
        <ele>28.688787</ele>
        <time>2014-08-07T13:44:29Z</time>
      </trkpt>
      <trkpt lat="49.21172" lon="1.16478">
        <ele>28.688787</ele>
        <time>2014-08-07T13:44:34Z</time>
      </trkpt>
      <trkpt lat="49.21177" lon="1.16488">
        <ele>29.416798</ele>
        <time>2014-08-07T13:44:39Z</time>
      </trkpt>
      <trkpt lat="49.21178" lon="1.16499">
        <ele>29.416798</ele>
        <time>2014-08-07T13:44:44Z</time>
      </trkpt>
      <trkpt lat="49.21179" lon="1.16508">
        <ele>29.57317</ele>
        <time>2014-08-07T13:44:49Z</time>
      </trkpt>
      <trkpt lat="49.21183" lon="1.1652">
        <ele>29.57317</ele>
        <time>2014-08-07T13:44:54Z</time>
      </trkpt>
      <trkpt lat="49.21183" lon="1.16534">
        <ele>29.387026</ele>
        <time>2014-08-07T13:44:59Z</time>
      </trkpt>
      <trkpt lat="49.21182" lon="1.16544">
        <ele>29.387026</ele>
        <time>2014-08-07T13:45:04Z</time>
      </trkpt>
      <trkpt lat="49.21183" lon="1.16556">
        <ele>29.042814</ele>
        <time>2014-08-07T13:45:09Z</time>
      </trkpt>
      <trkpt lat="49.21185" lon="1.16564">
        <ele>29.042814</ele>
        <time>2014-08-07T13:45:14Z</time>
      </trkpt>
      <trkpt lat="49.21186" lon="1.16573">
        <ele>28.5822</ele>
        <time>2014-08-07T13:45:19Z</time>
      </trkpt>
      <trkpt lat="49.21188" lon="1.16583">
        <ele>28.5822</ele>
        <time>2014-08-07T13:45:24Z</time>
      </trkpt>
      <trkpt lat="49.21191" lon="1.16591">
        <ele>27.914425</ele>
        <time>2014-08-07T13:45:29Z</time>
      </trkpt>
      <trkpt lat="49.21194" lon="1.166">
        <ele>27.914425</ele>
        <time>2014-08-07T13:45:34Z</time>
      </trkpt>
      <trkpt lat="49.21199" lon="1.16607">
        <ele>27.04246</ele>
        <time>2014-08-07T13:45:39Z</time>
      </trkpt>
      <trkpt lat="49.21202" lon="1.16617">
        <ele>27.04246</ele>
        <time>2014-08-07T13:45:44Z</time>
      </trkpt>
      <trkpt lat="49.21202" lon="1.16625">
        <ele>25.984041</ele>
        <time>2014-08-07T13:45:49Z</time>
      </trkpt>
      <trkpt lat="49.21205" lon="1.16638">
        <ele>25.984041</ele>
        <time>2014-08-07T13:45:54Z</time>
      </trkpt>
      <trkpt lat="49.21207" lon="1.16647">
        <ele>24.799347</ele>
        <time>2014-08-07T13:45:59Z</time>
      </trkpt>
      <trkpt lat="49.21209" lon="1.16656">
        <ele>24.799347</ele>
        <time>2014-08-07T13:46:04Z</time>
      </trkpt>
      <trkpt lat="49.21211" lon="1.16661">
        <ele>23.573303</ele>
        <time>2014-08-07T13:46:09Z</time>
      </trkpt>
      <trkpt lat="49.21213" lon="1.1667">
        <ele>23.573303</ele>
        <time>2014-08-07T13:46:14Z</time>
      </trkpt>
      <trkpt lat="49.21215" lon="1.16678">
        <ele>22.298216</ele>
        <time>2014-08-07T13:46:19Z</time>
      </trkpt>
      <trkpt lat="49.2122" lon="1.16682">
        <ele>22.298216</ele>
        <time>2014-08-07T13:46:24Z</time>
      </trkpt>
      <trkpt lat="49.21222" lon="1.1669">
        <ele>21.18323</ele>
        <time>2014-08-07T13:46:29Z</time>
      </trkpt>
      <trkpt lat="49.21226" lon="1.16696">
        <ele>21.18323</ele>
        <time>2014-08-07T13:46:34Z</time>
      </trkpt>
      <trkpt lat="49.21227" lon="1.16705">
        <ele>20.26311</ele>
        <time>2014-08-07T13:46:39Z</time>
      </trkpt>
      <trkpt lat="49.21229" lon="1.16712">
        <ele>20.26311</ele>
        <time>2014-08-07T13:46:44Z</time>
      </trkpt>
      <trkpt lat="49.21233" lon="1.16719">
        <ele>19.583885</ele>
        <time>2014-08-07T13:46:49Z</time>
      </trkpt>
      <trkpt lat="49.21235" lon="1.16727">
        <ele>19.583885</ele>
        <time>2014-08-07T13:46:54Z</time>
      </trkpt>
      <trkpt lat="49.21236" lon="1.16737">
        <ele>18.913668</ele>
        <time>2014-08-07T13:46:59Z</time>
      </trkpt>
      <trkpt lat="49.21238" lon="1.16746">
        <ele>18.913668</ele>
        <time>2014-08-07T13:47:04Z</time>
      </trkpt>
      <trkpt lat="49.21241" lon="1.16755">
        <ele>18.253685</ele>
        <time>2014-08-07T13:47:09Z</time>
      </trkpt>
      <trkpt lat="49.21242" lon="1.16763">
        <ele>18.253685</ele>
        <time>2014-08-07T13:47:14Z</time>
      </trkpt>
      <trkpt lat="49.21243" lon="1.1677">
        <ele>17.734692</ele>
        <time>2014-08-07T13:47:19Z</time>
      </trkpt>
      <trkpt lat="49.21246" lon="1.1678">
        <ele>17.734692</ele>
        <time>2014-08-07T13:47:24Z</time>
      </trkpt>
      <trkpt lat="49.21248" lon="1.16789">
        <ele>17.376505</ele>
        <time>2014-08-07T13:47:29Z</time>
      </trkpt>
      <trkpt lat="49.21251" lon="1.16799">
        <ele>17.376505</ele>
        <time>2014-08-07T13:47:34Z</time>
      </trkpt>
      <trkpt lat="49.21251" lon="1.16802">
        <ele>17.376505</ele>
        <time>2014-08-07T13:47:39Z</time>
      </trkpt>
      <trkpt lat="49.21251" lon="1.16802">
        <ele>17.376505</ele>
        <time>2014-08-07T13:47:44Z</time>
      </trkpt>
      <trkpt lat="49.21254" lon="1.16799">
        <ele>17.182566</ele>
        <time>2014-08-07T13:47:49Z</time>
      </trkpt>
      <trkpt lat="49.21258" lon="1.16795">
        <ele>17.182566</ele>
        <time>2014-08-07T13:47:54Z</time>
      </trkpt>
      <trkpt lat="49.21261" lon="1.16793">
        <ele>17.182566</ele>
        <time>2014-08-07T13:47:59Z</time>
      </trkpt>
      <trkpt lat="49.21261" lon="1.16791">
        <ele>17.040262</ele>
        <time>2014-08-07T13:48:04Z</time>
      </trkpt>
      <trkpt lat="49.21261" lon="1.16793">
        <ele>17.040262</ele>
        <time>2014-08-07T13:48:09Z</time>
      </trkpt>
      <trkpt lat="49.21262" lon="1.16793">
        <ele>17.040262</ele>
        <time>2014-08-07T13:48:14Z</time>
      </trkpt>
      <trkpt lat="49.21262" lon="1.16793">
        <ele>17.040262</ele>
        <time>2014-08-07T13:48:19Z</time>
      </trkpt>
      <trkpt lat="49.21262" lon="1.16794">
        <ele>17.040262</ele>
        <time>2014-08-07T13:48:29Z</time>
      </trkpt>
      <trkpt lat="49.21262" lon="1.16794">
        <ele>17.040262</ele>
        <time>2014-08-07T13:48:34Z</time>
      </trkpt>
      <trkpt lat="49.21262" lon="1.16794">
        <ele>17.040262</ele>
        <time>2014-08-07T13:48:39Z</time>
      </trkpt>
      <trkpt lat="49.21262" lon="1.16794">
        <ele>17.040262</ele>
        <time>2014-08-07T13:48:49Z</time>
      </trkpt>
      <trkpt lat="49.21268" lon="1.16799">
        <ele>16.81623</ele>
        <time>2014-08-07T13:48:54Z</time>
      </trkpt>
      <trkpt lat="49.21272" lon="1.16804">
        <ele>16.81623</ele>
        <time>2014-08-07T13:48:59Z</time>
      </trkpt>
      <trkpt lat="49.21274" lon="1.1681">
        <ele>16.934706</ele>
        <time>2014-08-07T13:49:04Z</time>
      </trkpt>
      <trkpt lat="49.21277" lon="1.16816">
        <ele>16.934706</ele>
        <time>2014-08-07T13:49:09Z</time>
      </trkpt>
      <trkpt lat="49.21278" lon="1.16821">
        <ele>16.934706</ele>
        <time>2014-08-07T13:49:14Z</time>
      </trkpt>
      <trkpt lat="49.21281" lon="1.16827">
        <ele>17.168081</ele>
        <time>2014-08-07T13:49:19Z</time>
      </trkpt>
      <trkpt lat="49.21282" lon="1.16837">
        <ele>17.168081</ele>
        <time>2014-08-07T13:49:24Z</time>
      </trkpt>
      <trkpt lat="49.21284" lon="1.16847">
        <ele>17.18981</ele>
        <time>2014-08-07T13:49:29Z</time>
      </trkpt>
      <trkpt lat="49.21284" lon="1.16858">
        <ele>17.18981</ele>
        <time>2014-08-07T13:49:34Z</time>
      </trkpt>
      <trkpt lat="49.21284" lon="1.16865">
        <ele>16.957296</ele>
        <time>2014-08-07T13:49:39Z</time>
      </trkpt>
      <trkpt lat="49.21285" lon="1.16873">
        <ele>16.957296</ele>
        <time>2014-08-07T13:49:44Z</time>
      </trkpt>
      <trkpt lat="49.21285" lon="1.16873">
        <ele>16.957296</ele>
        <time>2014-08-07T13:49:49Z</time>
      </trkpt>
      <trkpt lat="49.21283" lon="1.16879">
        <ele>16.820854</ele>
        <time>2014-08-07T13:49:59Z</time>
      </trkpt>
      <trkpt lat="49.2128" lon="1.16886">
        <ele>16.820854</ele>
        <time>2014-08-07T13:50:04Z</time>
      </trkpt>
      <trkpt lat="49.21279" lon="1.16896">
        <ele>16.686842</ele>
        <time>2014-08-07T13:50:09Z</time>
      </trkpt>
      <trkpt lat="49.21279" lon="1.16904">
        <ele>16.686842</ele>
        <time>2014-08-07T13:50:14Z</time>
      </trkpt>
      <trkpt lat="49.21278" lon="1.16908">
        <ele>16.686842</ele>
        <time>2014-08-07T13:50:19Z</time>
      </trkpt>
      <trkpt lat="49.21281" lon="1.16917">
        <ele>16.52611</ele>
        <time>2014-08-07T13:50:24Z</time>
      </trkpt>
      <trkpt lat="49.21286" lon="1.16921">
        <ele>16.52611</ele>
        <time>2014-08-07T13:50:29Z</time>
      </trkpt>
      <trkpt lat="49.21289" lon="1.16924">
        <ele>16.426987</ele>
        <time>2014-08-07T13:50:34Z</time>
      </trkpt>
      <trkpt lat="49.21289" lon="1.16924">
        <ele>16.426987</ele>
        <time>2014-08-07T13:50:39Z</time>
      </trkpt>
      <trkpt lat="49.2129" lon="1.16925">
        <ele>16.426987</ele>
        <time>2014-08-07T13:50:44Z</time>
      </trkpt>
      <trkpt lat="49.21293" lon="1.16938">
        <ele>16.355835</ele>
        <time>2014-08-07T13:50:49Z</time>
      </trkpt>
      <trkpt lat="49.21293" lon="1.16942">
        <ele>16.355835</ele>
        <time>2014-08-07T13:50:54Z</time>
      </trkpt>
      <trkpt lat="49.21295" lon="1.16945">
        <ele>16.355835</ele>
        <time>2014-08-07T13:50:59Z</time>
      </trkpt>
      <trkpt lat="49.21295" lon="1.16947">
        <ele>16.355835</ele>
        <time>2014-08-07T13:51:04Z</time>
      </trkpt>
      <trkpt lat="49.21295" lon="1.16947">
        <ele>16.355835</ele>
        <time>2014-08-07T13:51:09Z</time>
      </trkpt>
      <trkpt lat="49.21296" lon="1.16949">
        <ele>16.355835</ele>
        <time>2014-08-07T13:51:44Z</time>
      </trkpt>
      <trkpt lat="49.21296" lon="1.16953">
        <ele>16.238153</ele>
        <time>2014-08-07T13:51:49Z</time>
      </trkpt>
      <trkpt lat="49.21295" lon="1.16953">
        <ele>16.238153</ele>
        <time>2014-08-07T13:51:54Z</time>
      </trkpt>
      <trkpt lat="49.21295" lon="1.16953">
        <ele>16.238153</ele>
        <time>2014-08-07T13:51:59Z</time>
      </trkpt>
      <trkpt lat="49.21297" lon="1.16964">
        <ele>16.238153</ele>
        <time>2014-08-07T13:52:09Z</time>
      </trkpt>
      <trkpt lat="49.21296" lon="1.16976">
        <ele>16.134726</ele>
        <time>2014-08-07T13:52:14Z</time>
      </trkpt>
      <trkpt lat="49.21295" lon="1.16981">
        <ele>16.134726</ele>
        <time>2014-08-07T13:52:19Z</time>
      </trkpt>
      <trkpt lat="49.21298" lon="1.16983">
        <ele>16.134726</ele>
        <time>2014-08-07T13:53:19Z</time>
      </trkpt>
      <trkpt lat="49.21298" lon="1.16983">
        <ele>16.134726</ele>
        <time>2014-08-07T13:53:24Z</time>
      </trkpt>
      <trkpt lat="49.21298" lon="1.16982">
        <ele>16.134726</ele>
        <time>2014-08-07T13:53:29Z</time>
      </trkpt>
      <trkpt lat="49.21298" lon="1.16982">
        <ele>16.134726</ele>
        <time>2014-08-07T13:53:34Z</time>
      </trkpt>
      <trkpt lat="49.21297" lon="1.16982">
        <ele>16.134726</ele>
        <time>2014-08-07T13:53:44Z</time>
      </trkpt>
      <trkpt lat="49.21298" lon="1.16974">
        <ele>16.101822</ele>
        <time>2014-08-07T13:53:49Z</time>
      </trkpt>
      <trkpt lat="49.213" lon="1.16971">
        <ele>16.101822</ele>
        <time>2014-08-07T13:53:54Z</time>
      </trkpt>
      <trkpt lat="49.21303" lon="1.16968">
        <ele>16.101822</ele>
        <time>2014-08-07T13:53:59Z</time>
      </trkpt>
      <trkpt lat="49.21307" lon="1.16969">
        <ele>16.3643</ele>
        <time>2014-08-07T13:54:04Z</time>
      </trkpt>
      <trkpt lat="49.21312" lon="1.1697">
        <ele>16.3643</ele>
        <time>2014-08-07T13:54:09Z</time>
      </trkpt>
      <trkpt lat="49.21317" lon="1.16967">
        <ele>16.726147</ele>
        <time>2014-08-07T13:54:14Z</time>
      </trkpt>
      <trkpt lat="49.21322" lon="1.16964">
        <ele>16.726147</ele>
        <time>2014-08-07T13:54:19Z</time>
      </trkpt>
      <trkpt lat="49.21327" lon="1.16961">
        <ele>17.091942</ele>
        <time>2014-08-07T13:54:24Z</time>
      </trkpt>
      <trkpt lat="49.2133" lon="1.16957">
        <ele>17.091942</ele>
        <time>2014-08-07T13:54:29Z</time>
      </trkpt>
      <trkpt lat="49.21333" lon="1.16954">
        <ele>17.091942</ele>
        <time>2014-08-07T13:54:34Z</time>
      </trkpt>
      <trkpt lat="49.21338" lon="1.1695">
        <ele>17.459724</ele>
        <time>2014-08-07T13:54:39Z</time>
      </trkpt>
      <trkpt lat="49.21342" lon="1.16942">
        <ele>17.459724</ele>
        <time>2014-08-07T13:54:44Z</time>
      </trkpt>
      <trkpt lat="49.21345" lon="1.16937">
        <ele>17.942965</ele>
        <time>2014-08-07T13:54:49Z</time>
      </trkpt>
      <trkpt lat="49.21348" lon="1.16933">
        <ele>17.942965</ele>
        <time>2014-08-07T13:54:54Z</time>
      </trkpt>
      <trkpt lat="49.21352" lon="1.1693">
        <ele>17.942965</ele>
        <time>2014-08-07T13:54:59Z</time>
      </trkpt>
      <trkpt lat="49.21359" lon="1.16928">
        <ele>18.545612</ele>
        <time>2014-08-07T13:55:04Z</time>
      </trkpt>
      <trkpt lat="49.21365" lon="1.16928">
        <ele>18.545612</ele>
        <time>2014-08-07T13:55:09Z</time>
      </trkpt>
      <trkpt lat="49.21372" lon="1.16929">
        <ele>19.213362</ele>
        <time>2014-08-07T13:55:14Z</time>
      </trkpt>
      <trkpt lat="49.21378" lon="1.16929">
        <ele>19.213362</ele>
        <time>2014-08-07T13:55:19Z</time>
      </trkpt>
      <trkpt lat="49.21383" lon="1.16928">
        <ele>19.866909</ele>
        <time>2014-08-07T13:55:24Z</time>
      </trkpt>
      <trkpt lat="49.21388" lon="1.16927">
        <ele>19.866909</ele>
        <time>2014-08-07T13:55:29Z</time>
      </trkpt>
      <trkpt lat="49.21394" lon="1.16925">
        <ele>20.562548</ele>
        <time>2014-08-07T13:55:34Z</time>
      </trkpt>
      <trkpt lat="49.21399" lon="1.16925">
        <ele>20.562548</ele>
        <time>2014-08-07T13:55:39Z</time>
      </trkpt>
      <trkpt lat="49.21405" lon="1.16924">
        <ele>21.438812</ele>
        <time>2014-08-07T13:55:44Z</time>
      </trkpt>
      <trkpt lat="49.21405" lon="1.16924">
        <ele>21.438812</ele>
        <time>2014-08-07T13:55:49Z</time>
      </trkpt>
      <trkpt lat="49.21405" lon="1.16923">
        <ele>21.438812</ele>
        <time>2014-08-07T13:56:09Z</time>
      </trkpt>
      <trkpt lat="49.21406" lon="1.16919">
        <ele>21.438812</ele>
        <time>2014-08-07T13:56:14Z</time>
      </trkpt>
      <trkpt lat="49.21407" lon="1.16917">
        <ele>21.438812</ele>
        <time>2014-08-07T13:56:19Z</time>
      </trkpt>
      <trkpt lat="49.21409" lon="1.16914">
        <ele>21.438812</ele>
        <time>2014-08-07T13:56:24Z</time>
      </trkpt>
      <trkpt lat="49.21409" lon="1.16914">
        <ele>21.438812</ele>
        <time>2014-08-07T13:56:29Z</time>
      </trkpt>
      <trkpt lat="49.21409" lon="1.16914">
        <ele>21.438812</ele>
        <time>2014-08-07T13:56:44Z</time>
      </trkpt>
      <trkpt lat="49.21409" lon="1.16913">
        <ele>21.438812</ele>
        <time>2014-08-07T13:56:49Z</time>
      </trkpt>
      <trkpt lat="49.21409" lon="1.16913">
        <ele>21.438812</ele>
        <time>2014-08-07T13:56:54Z</time>
      </trkpt>
      <trkpt lat="49.21409" lon="1.16915">
        <ele>22.176855</ele>
        <time>2014-08-07T13:57:19Z</time>
      </trkpt>
      <trkpt lat="49.2141" lon="1.16924">
        <ele>22.176855</ele>
        <time>2014-08-07T13:57:24Z</time>
      </trkpt>
      <trkpt lat="49.21416" lon="1.16928">
        <ele>22.640192</ele>
        <time>2014-08-07T13:57:29Z</time>
      </trkpt>
      <trkpt lat="49.21421" lon="1.16926">
        <ele>22.640192</ele>
        <time>2014-08-07T13:57:34Z</time>
      </trkpt>
      <trkpt lat="49.21426" lon="1.16923">
        <ele>22.977003</ele>
        <time>2014-08-07T13:57:39Z</time>
      </trkpt>
      <trkpt lat="49.21431" lon="1.1692">
        <ele>22.977003</ele>
        <time>2014-08-07T13:57:44Z</time>
      </trkpt>
      <trkpt lat="49.21436" lon="1.16918">
        <ele>23.152044</ele>
        <time>2014-08-07T13:57:49Z</time>
      </trkpt>
      <trkpt lat="49.21441" lon="1.16917">
        <ele>23.152044</ele>
        <time>2014-08-07T13:57:54Z</time>
      </trkpt>
      <trkpt lat="49.21447" lon="1.16917">
        <ele>23.219637</ele>
        <time>2014-08-07T13:57:59Z</time>
      </trkpt>
      <trkpt lat="49.21453" lon="1.16915">
        <ele>23.219637</ele>
        <time>2014-08-07T13:58:04Z</time>
      </trkpt>
      <trkpt lat="49.21459" lon="1.16913">
        <ele>23.259274</ele>
        <time>2014-08-07T13:58:09Z</time>
      </trkpt>
      <trkpt lat="49.21466" lon="1.1691">
        <ele>23.259274</ele>
        <time>2014-08-07T13:58:14Z</time>
      </trkpt>
      <trkpt lat="49.21473" lon="1.16908">
        <ele>23.229452</ele>
        <time>2014-08-07T13:58:19Z</time>
      </trkpt>
      <trkpt lat="49.21478" lon="1.16904">
        <ele>23.229452</ele>
        <time>2014-08-07T13:58:24Z</time>
      </trkpt>
      <trkpt lat="49.2148" lon="1.16895">
        <ele>23.135185</ele>
        <time>2014-08-07T13:58:29Z</time>
      </trkpt>
      <trkpt lat="49.21482" lon="1.16887">
        <ele>23.135185</ele>
        <time>2014-08-07T13:58:34Z</time>
      </trkpt>
      <trkpt lat="49.21487" lon="1.16882">
        <ele>22.966925</ele>
        <time>2014-08-07T13:58:39Z</time>
      </trkpt>
      <trkpt lat="49.21494" lon="1.1688">
        <ele>22.966925</ele>
        <time>2014-08-07T13:58:44Z</time>
      </trkpt>
      <trkpt lat="49.21501" lon="1.1688">
        <ele>22.759308</ele>
        <time>2014-08-07T13:58:49Z</time>
      </trkpt>
      <trkpt lat="49.21508" lon="1.16878">
        <ele>22.759308</ele>
        <time>2014-08-07T13:58:54Z</time>
      </trkpt>
      <trkpt lat="49.21513" lon="1.16872">
        <ele>22.587795</ele>
        <time>2014-08-07T13:58:59Z</time>
      </trkpt>
      <trkpt lat="49.21518" lon="1.16866">
        <ele>22.587795</ele>
        <time>2014-08-07T13:59:04Z</time>
      </trkpt>
      <trkpt lat="49.21523" lon="1.16866">
        <ele>22.349308</ele>
        <time>2014-08-07T13:59:09Z</time>
      </trkpt>
      <trkpt lat="49.21528" lon="1.16863">
        <ele>22.349308</ele>
        <time>2014-08-07T13:59:14Z</time>
      </trkpt>
      <trkpt lat="49.21534" lon="1.16859">
        <ele>21.962955</ele>
        <time>2014-08-07T13:59:19Z</time>
      </trkpt>
      <trkpt lat="49.21539" lon="1.16854">
        <ele>21.962955</ele>
        <time>2014-08-07T13:59:24Z</time>
      </trkpt>
      <trkpt lat="49.21544" lon="1.16852">
        <ele>21.642452</ele>
        <time>2014-08-07T13:59:29Z</time>
      </trkpt>
      <trkpt lat="49.2155" lon="1.16851">
        <ele>21.642452</ele>
        <time>2014-08-07T13:59:34Z</time>
      </trkpt>
      <trkpt lat="49.21558" lon="1.16846">
        <ele>21.45594</ele>
        <time>2014-08-07T13:59:39Z</time>
      </trkpt>
      <trkpt lat="49.21565" lon="1.16845">
        <ele>21.45594</ele>
        <time>2014-08-07T13:59:44Z</time>
      </trkpt>
      <trkpt lat="49.21572" lon="1.16842">
        <ele>21.32209</ele>
        <time>2014-08-07T13:59:49Z</time>
      </trkpt>
      <trkpt lat="49.21578" lon="1.16839">
        <ele>21.32209</ele>
        <time>2014-08-07T13:59:54Z</time>
      </trkpt>
      <trkpt lat="49.2158" lon="1.16837">
        <ele>21.32209</ele>
        <time>2014-08-07T13:59:59Z</time>
      </trkpt>
      <trkpt lat="49.21581" lon="1.16835">
        <ele>21.208633</ele>
        <time>2014-08-07T14:00:04Z</time>
      </trkpt>
      <trkpt lat="49.21579" lon="1.16834">
        <ele>21.208633</ele>
        <time>2014-08-07T14:00:09Z</time>
      </trkpt>
      <trkpt lat="49.21579" lon="1.16835">
        <ele>21.208633</ele>
        <time>2014-08-07T14:00:14Z</time>
      </trkpt>
      <trkpt lat="49.21579" lon="1.16834">
        <ele>21.208633</ele>
        <time>2014-08-07T14:00:19Z</time>
      </trkpt>
      <trkpt lat="49.21581" lon="1.16833">
        <ele>21.208633</ele>
        <time>2014-08-07T14:00:24Z</time>
      </trkpt>
      <trkpt lat="49.21581" lon="1.16833">
        <ele>21.208633</ele>
        <time>2014-08-07T14:00:29Z</time>
      </trkpt>
      <trkpt lat="49.21581" lon="1.16832">
        <ele>21.208633</ele>
        <time>2014-08-07T14:00:34Z</time>
      </trkpt>
      <trkpt lat="49.21581" lon="1.16832">
        <ele>21.208633</ele>
        <time>2014-08-07T14:00:39Z</time>
      </trkpt>
      <trkpt lat="49.21582" lon="1.16831">
        <ele>21.208633</ele>
        <time>2014-08-07T14:00:44Z</time>
      </trkpt>
      <trkpt lat="49.21585" lon="1.16828">
        <ele>21.013575</ele>
        <time>2014-08-07T14:00:49Z</time>
      </trkpt>
      <trkpt lat="49.21589" lon="1.16822">
        <ele>21.013575</ele>
        <time>2014-08-07T14:00:54Z</time>
      </trkpt>
      <trkpt lat="49.21594" lon="1.16815">
        <ele>21.060564</ele>
        <time>2014-08-07T14:00:59Z</time>
      </trkpt>
      <trkpt lat="49.21598" lon="1.16808">
        <ele>21.060564</ele>
        <time>2014-08-07T14:01:04Z</time>
      </trkpt>
      <trkpt lat="49.21602" lon="1.16802">
        <ele>21.374992</ele>
        <time>2014-08-07T14:01:09Z</time>
      </trkpt>
      <trkpt lat="49.21607" lon="1.16798">
        <ele>21.374992</ele>
        <time>2014-08-07T14:01:14Z</time>
      </trkpt>
      <trkpt lat="49.21613" lon="1.16793">
        <ele>21.893175</ele>
        <time>2014-08-07T14:01:19Z</time>
      </trkpt>
      <trkpt lat="49.21618" lon="1.16789">
        <ele>21.893175</ele>
        <time>2014-08-07T14:01:24Z</time>
      </trkpt>
      <trkpt lat="49.21623" lon="1.16787">
        <ele>22.541128</ele>
        <time>2014-08-07T14:01:29Z</time>
      </trkpt>
      <trkpt lat="49.21628" lon="1.16784">
        <ele>22.541128</ele>
        <time>2014-08-07T14:01:34Z</time>
      </trkpt>
      <trkpt lat="49.21639" lon="1.16785">
        <ele>23.12025</ele>
        <time>2014-08-07T14:01:39Z</time>
      </trkpt>
      <trkpt lat="49.21645" lon="1.16785">
        <ele>23.12025</ele>
        <time>2014-08-07T14:01:44Z</time>
      </trkpt>
      <trkpt lat="49.2165" lon="1.16784">
        <ele>23.461147</ele>
        <time>2014-08-07T14:01:49Z</time>
      </trkpt>
      <trkpt lat="49.21655" lon="1.1678">
        <ele>23.461147</ele>
        <time>2014-08-07T14:01:54Z</time>
      </trkpt>
      <trkpt lat="49.21661" lon="1.16774">
        <ele>23.666948</ele>
        <time>2014-08-07T14:01:59Z</time>
      </trkpt>
      <trkpt lat="49.21668" lon="1.1677">
        <ele>23.666948</ele>
        <time>2014-08-07T14:02:04Z</time>
      </trkpt>
      <trkpt lat="49.21676" lon="1.16769">
        <ele>23.819195</ele>
        <time>2014-08-07T14:02:09Z</time>
      </trkpt>
      <trkpt lat="49.21683" lon="1.16766">
        <ele>23.819195</ele>
        <time>2014-08-07T14:02:14Z</time>
      </trkpt>
      <trkpt lat="49.21687" lon="1.16762">
        <ele>24.02243</ele>
        <time>2014-08-07T14:02:19Z</time>
      </trkpt>
      <trkpt lat="49.21692" lon="1.16757">
        <ele>24.02243</ele>
        <time>2014-08-07T14:02:24Z</time>
      </trkpt>
      <trkpt lat="49.21698" lon="1.16754">
        <ele>24.186047</ele>
        <time>2014-08-07T14:02:29Z</time>
      </trkpt>
      <trkpt lat="49.21706" lon="1.16752">
        <ele>24.186047</ele>
        <time>2014-08-07T14:02:34Z</time>
      </trkpt>
      <trkpt lat="49.21712" lon="1.16751">
        <ele>24.3271</ele>
        <time>2014-08-07T14:02:39Z</time>
      </trkpt>
      <trkpt lat="49.21716" lon="1.16751">
        <ele>24.3271</ele>
        <time>2014-08-07T14:02:44Z</time>
      </trkpt>
      <trkpt lat="49.21723" lon="1.16747">
        <ele>24.432652</ele>
        <time>2014-08-07T14:02:49Z</time>
      </trkpt>
      <trkpt lat="49.21728" lon="1.16744">
        <ele>24.432652</ele>
        <time>2014-08-07T14:02:54Z</time>
      </trkpt>
      <trkpt lat="49.21734" lon="1.16738">
        <ele>24.562881</ele>
        <time>2014-08-07T14:02:59Z</time>
      </trkpt>
      <trkpt lat="49.2174" lon="1.16734">
        <ele>24.562881</ele>
        <time>2014-08-07T14:03:04Z</time>
      </trkpt>
      <trkpt lat="49.21744" lon="1.16732">
        <ele>24.65821</ele>
        <time>2014-08-07T14:03:09Z</time>
      </trkpt>
      <trkpt lat="49.2175" lon="1.16729">
        <ele>24.65821</ele>
        <time>2014-08-07T14:03:14Z</time>
      </trkpt>
      <trkpt lat="49.21757" lon="1.16725">
        <ele>24.649137</ele>
        <time>2014-08-07T14:03:19Z</time>
      </trkpt>
      <trkpt lat="49.21762" lon="1.16722">
        <ele>24.649137</ele>
        <time>2014-08-07T14:03:24Z</time>
      </trkpt>
      <trkpt lat="49.21767" lon="1.16718">
        <ele>24.543621</ele>
        <time>2014-08-07T14:03:29Z</time>
      </trkpt>
      <trkpt lat="49.21772" lon="1.16713">
        <ele>24.543621</ele>
        <time>2014-08-07T14:03:34Z</time>
      </trkpt>
      <trkpt lat="49.21777" lon="1.16713">
        <ele>24.378147</ele>
        <time>2014-08-07T14:03:39Z</time>
      </trkpt>
      <trkpt lat="49.21782" lon="1.1671">
        <ele>24.378147</ele>
        <time>2014-08-07T14:03:44Z</time>
      </trkpt>
      <trkpt lat="49.21788" lon="1.16704">
        <ele>24.129051</ele>
        <time>2014-08-07T14:03:49Z</time>
      </trkpt>
      <trkpt lat="49.21796" lon="1.16702">
        <ele>24.129051</ele>
        <time>2014-08-07T14:03:54Z</time>
      </trkpt>
      <trkpt lat="49.21801" lon="1.16701">
        <ele>23.918756</ele>
        <time>2014-08-07T14:03:59Z</time>
      </trkpt>
      <trkpt lat="49.21808" lon="1.16696">
        <ele>23.918756</ele>
        <time>2014-08-07T14:04:04Z</time>
      </trkpt>
      <trkpt lat="49.21814" lon="1.16693">
        <ele>23.88941</ele>
        <time>2014-08-07T14:04:09Z</time>
      </trkpt>
      <trkpt lat="49.21822" lon="1.16688">
        <ele>23.88941</ele>
        <time>2014-08-07T14:04:14Z</time>
      </trkpt>
      <trkpt lat="49.21829" lon="1.16685">
        <ele>23.898403</ele>
        <time>2014-08-07T14:04:19Z</time>
      </trkpt>
      <trkpt lat="49.21835" lon="1.16682">
        <ele>23.898403</ele>
        <time>2014-08-07T14:04:24Z</time>
      </trkpt>
      <trkpt lat="49.21843" lon="1.16678">
        <ele>23.914366</ele>
        <time>2014-08-07T14:04:29Z</time>
      </trkpt>
      <trkpt lat="49.21849" lon="1.16675">
        <ele>23.914366</ele>
        <time>2014-08-07T14:04:34Z</time>
      </trkpt>
      <trkpt lat="49.21855" lon="1.16674">
        <ele>23.937037</ele>
        <time>2014-08-07T14:04:39Z</time>
      </trkpt>
      <trkpt lat="49.21859" lon="1.16672">
        <ele>23.937037</ele>
        <time>2014-08-07T14:04:44Z</time>
      </trkpt>
      <trkpt lat="49.21865" lon="1.16666">
        <ele>23.90851</ele>
        <time>2014-08-07T14:04:49Z</time>
      </trkpt>
      <trkpt lat="49.21871" lon="1.16662">
        <ele>23.90851</ele>
        <time>2014-08-07T14:04:54Z</time>
      </trkpt>
      <trkpt lat="49.21877" lon="1.16659">
        <ele>23.904968</ele>
        <time>2014-08-07T14:04:59Z</time>
      </trkpt>
      <trkpt lat="49.21884" lon="1.16658">
        <ele>23.904968</ele>
        <time>2014-08-07T14:05:04Z</time>
      </trkpt>
      <trkpt lat="49.21888" lon="1.16659">
        <ele>23.968105</ele>
        <time>2014-08-07T14:05:09Z</time>
      </trkpt>
      <trkpt lat="49.21895" lon="1.16655">
        <ele>23.968105</ele>
        <time>2014-08-07T14:05:14Z</time>
      </trkpt>
      <trkpt lat="49.21899" lon="1.16652">
        <ele>24.064304</ele>
        <time>2014-08-07T14:05:19Z</time>
      </trkpt>
      <trkpt lat="49.21904" lon="1.16649">
        <ele>24.064304</ele>
        <time>2014-08-07T14:05:24Z</time>
      </trkpt>
      <trkpt lat="49.21909" lon="1.16649">
        <ele>24.191141</ele>
        <time>2014-08-07T14:05:29Z</time>
      </trkpt>
      <trkpt lat="49.21914" lon="1.16649">
        <ele>24.191141</ele>
        <time>2014-08-07T14:05:34Z</time>
      </trkpt>
      <trkpt lat="49.21916" lon="1.16644">
        <ele>24.40393</ele>
        <time>2014-08-07T14:05:39Z</time>
      </trkpt>
      <trkpt lat="49.21918" lon="1.1664">
        <ele>24.40393</ele>
        <time>2014-08-07T14:05:44Z</time>
      </trkpt>
      <trkpt lat="49.2192" lon="1.16638">
        <ele>24.40393</ele>
        <time>2014-08-07T14:05:49Z</time>
      </trkpt>
      <trkpt lat="49.21928" lon="1.16638">
        <ele>24.508682</ele>
        <time>2014-08-07T14:05:54Z</time>
      </trkpt>
      <trkpt lat="49.21935" lon="1.16637">
        <ele>24.508682</ele>
        <time>2014-08-07T14:05:59Z</time>
      </trkpt>
      <trkpt lat="49.21941" lon="1.16635">
        <ele>24.31155</ele>
        <time>2014-08-07T14:06:04Z</time>
      </trkpt>
      <trkpt lat="49.2195" lon="1.16633">
        <ele>24.31155</ele>
        <time>2014-08-07T14:06:09Z</time>
      </trkpt>
      <trkpt lat="49.21957" lon="1.16635">
        <ele>23.893167</ele>
        <time>2014-08-07T14:06:14Z</time>
      </trkpt>
      <trkpt lat="49.21965" lon="1.16638">
        <ele>23.893167</ele>
        <time>2014-08-07T14:06:19Z</time>
      </trkpt>
      <trkpt lat="49.21969" lon="1.16638">
        <ele>23.400919</ele>
        <time>2014-08-07T14:06:24Z</time>
      </trkpt>
      <trkpt lat="49.21975" lon="1.16638">
        <ele>23.400919</ele>
        <time>2014-08-07T14:06:29Z</time>
      </trkpt>
      <trkpt lat="49.2198" lon="1.16636">
        <ele>22.827444</ele>
        <time>2014-08-07T14:06:34Z</time>
      </trkpt>
      <trkpt lat="49.21987" lon="1.16635">
        <ele>22.827444</ele>
        <time>2014-08-07T14:06:39Z</time>
      </trkpt>
      <trkpt lat="49.21993" lon="1.16636">
        <ele>22.166142</ele>
        <time>2014-08-07T14:06:44Z</time>
      </trkpt>
      <trkpt lat="49.22" lon="1.16639">
        <ele>22.166142</ele>
        <time>2014-08-07T14:06:49Z</time>
      </trkpt>
      <trkpt lat="49.22005" lon="1.16641">
        <ele>21.425535</ele>
        <time>2014-08-07T14:06:54Z</time>
      </trkpt>
      <trkpt lat="49.22011" lon="1.16642">
        <ele>21.425535</ele>
        <time>2014-08-07T14:06:59Z</time>
      </trkpt>
      <trkpt lat="49.22017" lon="1.16643">
        <ele>20.671362</ele>
        <time>2014-08-07T14:07:04Z</time>
      </trkpt>
      <trkpt lat="49.22023" lon="1.16644">
        <ele>20.671362</ele>
        <time>2014-08-07T14:07:09Z</time>
      </trkpt>
      <trkpt lat="49.22028" lon="1.16644">
        <ele>20.007782</ele>
        <time>2014-08-07T14:07:14Z</time>
      </trkpt>
      <trkpt lat="49.22034" lon="1.16647">
        <ele>20.007782</ele>
        <time>2014-08-07T14:07:19Z</time>
      </trkpt>
      <trkpt lat="49.22038" lon="1.16647">
        <ele>19.358076</ele>
        <time>2014-08-07T14:07:24Z</time>
      </trkpt>
      <trkpt lat="49.22044" lon="1.16643">
        <ele>19.358076</ele>
        <time>2014-08-07T14:07:29Z</time>
      </trkpt>
      <trkpt lat="49.2205" lon="1.16637">
        <ele>18.679916</ele>
        <time>2014-08-07T14:07:34Z</time>
      </trkpt>
      <trkpt lat="49.22055" lon="1.16631">
        <ele>18.679916</ele>
        <time>2014-08-07T14:07:39Z</time>
      </trkpt>
      <trkpt lat="49.2206" lon="1.16628">
        <ele>17.962944</ele>
        <time>2014-08-07T14:07:44Z</time>
      </trkpt>
      <trkpt lat="49.22066" lon="1.16624">
        <ele>17.962944</ele>
        <time>2014-08-07T14:07:49Z</time>
      </trkpt>
      <trkpt lat="49.22072" lon="1.1662">
        <ele>17.341736</ele>
        <time>2014-08-07T14:07:54Z</time>
      </trkpt>
      <trkpt lat="49.22077" lon="1.16617">
        <ele>17.341736</ele>
        <time>2014-08-07T14:07:59Z</time>
      </trkpt>
      <trkpt lat="49.22084" lon="1.16614">
        <ele>16.82539</ele>
        <time>2014-08-07T14:08:04Z</time>
      </trkpt>
      <trkpt lat="49.2209" lon="1.16611">
        <ele>16.82539</ele>
        <time>2014-08-07T14:08:09Z</time>
      </trkpt>
      <trkpt lat="49.22095" lon="1.16607">
        <ele>16.393166</ele>
        <time>2014-08-07T14:08:14Z</time>
      </trkpt>
      <trkpt lat="49.221" lon="1.16605">
        <ele>16.393166</ele>
        <time>2014-08-07T14:08:19Z</time>
      </trkpt>
      <trkpt lat="49.22106" lon="1.16602">
        <ele>16.011156</ele>
        <time>2014-08-07T14:08:24Z</time>
      </trkpt>
      <trkpt lat="49.22111" lon="1.166">
        <ele>16.011156</ele>
        <time>2014-08-07T14:08:29Z</time>
      </trkpt>
      <trkpt lat="49.22118" lon="1.16595">
        <ele>15.590112</ele>
        <time>2014-08-07T14:08:34Z</time>
      </trkpt>
      <trkpt lat="49.22124" lon="1.16593">
        <ele>15.590112</ele>
        <time>2014-08-07T14:08:39Z</time>
      </trkpt>
      <trkpt lat="49.2213" lon="1.1659">
        <ele>15.162695</ele>
        <time>2014-08-07T14:08:44Z</time>
      </trkpt>
      <trkpt lat="49.22137" lon="1.16584">
        <ele>15.162695</ele>
        <time>2014-08-07T14:08:49Z</time>
      </trkpt>
      <trkpt lat="49.22143" lon="1.16578">
        <ele>14.860014</ele>
        <time>2014-08-07T14:08:54Z</time>
      </trkpt>
      <trkpt lat="49.22149" lon="1.16573">
        <ele>14.860014</ele>
        <time>2014-08-07T14:08:59Z</time>
      </trkpt>
      <trkpt lat="49.22155" lon="1.16567">
        <ele>14.644633</ele>
        <time>2014-08-07T14:09:04Z</time>
      </trkpt>
      <trkpt lat="49.22161" lon="1.16566">
        <ele>14.644633</ele>
        <time>2014-08-07T14:09:09Z</time>
      </trkpt>
      <trkpt lat="49.22166" lon="1.16562">
        <ele>14.481578</ele>
        <time>2014-08-07T14:09:14Z</time>
      </trkpt>
      <trkpt lat="49.2217" lon="1.16559">
        <ele>14.481578</ele>
        <time>2014-08-07T14:09:19Z</time>
      </trkpt>
      <trkpt lat="49.22175" lon="1.16554">
        <ele>14.338257</ele>
        <time>2014-08-07T14:09:24Z</time>
      </trkpt>
      <trkpt lat="49.22181" lon="1.1655">
        <ele>14.338257</ele>
        <time>2014-08-07T14:09:29Z</time>
      </trkpt>
      <trkpt lat="49.22186" lon="1.16545">
        <ele>14.213201</ele>
        <time>2014-08-07T14:09:34Z</time>
      </trkpt>
      <trkpt lat="49.22191" lon="1.1654">
        <ele>14.213201</ele>
        <time>2014-08-07T14:09:39Z</time>
      </trkpt>
      <trkpt lat="49.22196" lon="1.16537">
        <ele>14.090551</ele>
        <time>2014-08-07T14:09:44Z</time>
      </trkpt>
      <trkpt lat="49.22201" lon="1.16535">
        <ele>14.090551</ele>
        <time>2014-08-07T14:09:49Z</time>
      </trkpt>
      <trkpt lat="49.22207" lon="1.16532">
        <ele>13.941167</ele>
        <time>2014-08-07T14:09:54Z</time>
      </trkpt>
      <trkpt lat="49.22212" lon="1.16526">
        <ele>13.941167</ele>
        <time>2014-08-07T14:09:59Z</time>
      </trkpt>
      <trkpt lat="49.22218" lon="1.1652">
        <ele>13.86779</ele>
        <time>2014-08-07T14:10:04Z</time>
      </trkpt>
      <trkpt lat="49.22223" lon="1.16514">
        <ele>13.86779</ele>
        <time>2014-08-07T14:10:09Z</time>
      </trkpt>
      <trkpt lat="49.22228" lon="1.1651">
        <ele>13.893323</ele>
        <time>2014-08-07T14:10:14Z</time>
      </trkpt>
      <trkpt lat="49.22234" lon="1.16505">
        <ele>13.893323</ele>
        <time>2014-08-07T14:10:19Z</time>
      </trkpt>
      <trkpt lat="49.22239" lon="1.165">
        <ele>13.98104</ele>
        <time>2014-08-07T14:10:24Z</time>
      </trkpt>
      <trkpt lat="49.22244" lon="1.16493">
        <ele>13.98104</ele>
        <time>2014-08-07T14:10:29Z</time>
      </trkpt>
      <trkpt lat="49.22252" lon="1.16485">
        <ele>14.039076</ele>
        <time>2014-08-07T14:10:34Z</time>
      </trkpt>
      <trkpt lat="49.22258" lon="1.16478">
        <ele>14.039076</ele>
        <time>2014-08-07T14:10:39Z</time>
      </trkpt>
      <trkpt lat="49.22262" lon="1.16477">
        <ele>14.040023</ele>
        <time>2014-08-07T14:10:44Z</time>
      </trkpt>
      <trkpt lat="49.22266" lon="1.16473">
        <ele>14.040023</ele>
        <time>2014-08-07T14:10:49Z</time>
      </trkpt>
      <trkpt lat="49.22269" lon="1.16467">
        <ele>14.059515</ele>
        <time>2014-08-07T14:10:54Z</time>
      </trkpt>
      <trkpt lat="49.22273" lon="1.16462">
        <ele>14.059515</ele>
        <time>2014-08-07T14:10:59Z</time>
      </trkpt>
      <trkpt lat="49.22279" lon="1.16455">
        <ele>14.0811</ele>
        <time>2014-08-07T14:11:04Z</time>
      </trkpt>
      <trkpt lat="49.22283" lon="1.16448">
        <ele>14.0811</ele>
        <time>2014-08-07T14:11:09Z</time>
      </trkpt>
      <trkpt lat="49.22287" lon="1.16441">
        <ele>14.161578</ele>
        <time>2014-08-07T14:11:14Z</time>
      </trkpt>
      <trkpt lat="49.22292" lon="1.16435">
        <ele>14.161578</ele>
        <time>2014-08-07T14:11:19Z</time>
      </trkpt>
      <trkpt lat="49.22295" lon="1.16427">
        <ele>14.295764</ele>
        <time>2014-08-07T14:11:24Z</time>
      </trkpt>
      <trkpt lat="49.22299" lon="1.1642">
        <ele>14.295764</ele>
        <time>2014-08-07T14:11:29Z</time>
      </trkpt>
      <trkpt lat="49.22303" lon="1.16415">
        <ele>14.449878</ele>
        <time>2014-08-07T14:11:34Z</time>
      </trkpt>
      <trkpt lat="49.22308" lon="1.1641">
        <ele>14.449878</ele>
        <time>2014-08-07T14:11:39Z</time>
      </trkpt>
      <trkpt lat="49.22313" lon="1.16403">
        <ele>14.592569</ele>
        <time>2014-08-07T14:11:44Z</time>
      </trkpt>
      <trkpt lat="49.22316" lon="1.16395">
        <ele>14.592569</ele>
        <time>2014-08-07T14:11:49Z</time>
      </trkpt>
      <trkpt lat="49.2232" lon="1.16389">
        <ele>14.723649</ele>
        <time>2014-08-07T14:11:54Z</time>
      </trkpt>
      <trkpt lat="49.22325" lon="1.16381">
        <ele>14.723649</ele>
        <time>2014-08-07T14:11:59Z</time>
      </trkpt>
      <trkpt lat="49.22329" lon="1.16375">
        <ele>14.842982</ele>
        <time>2014-08-07T14:12:04Z</time>
      </trkpt>
      <trkpt lat="49.22334" lon="1.16367">
        <ele>14.842982</ele>
        <time>2014-08-07T14:12:09Z</time>
      </trkpt>
      <trkpt lat="49.22339" lon="1.16359">
        <ele>14.921664</ele>
        <time>2014-08-07T14:12:14Z</time>
      </trkpt>
      <trkpt lat="49.22344" lon="1.16352">
        <ele>14.921664</ele>
        <time>2014-08-07T14:12:19Z</time>
      </trkpt>
      <trkpt lat="49.22349" lon="1.16347">
        <ele>14.990685</ele>
        <time>2014-08-07T14:12:24Z</time>
      </trkpt>
      <trkpt lat="49.22354" lon="1.16341">
        <ele>14.990685</ele>
        <time>2014-08-07T14:12:29Z</time>
      </trkpt>
      <trkpt lat="49.22358" lon="1.16335">
        <ele>15.064388</ele>
        <time>2014-08-07T14:12:34Z</time>
      </trkpt>
      <trkpt lat="49.22362" lon="1.1633">
        <ele>15.064388</ele>
        <time>2014-08-07T14:12:39Z</time>
      </trkpt>
      <trkpt lat="49.22367" lon="1.16324">
        <ele>15.184885</ele>
        <time>2014-08-07T14:12:44Z</time>
      </trkpt>
      <trkpt lat="49.22372" lon="1.16315">
        <ele>15.184885</ele>
        <time>2014-08-07T14:12:49Z</time>
      </trkpt>
      <trkpt lat="49.22376" lon="1.16308">
        <ele>15.347848</ele>
        <time>2014-08-07T14:12:54Z</time>
      </trkpt>
      <trkpt lat="49.22379" lon="1.163">
        <ele>15.347848</ele>
        <time>2014-08-07T14:12:59Z</time>
      </trkpt>
      <trkpt lat="49.22385" lon="1.16294">
        <ele>15.577988</ele>
        <time>2014-08-07T14:13:04Z</time>
      </trkpt>
      <trkpt lat="49.22389" lon="1.1629">
        <ele>15.577988</ele>
        <time>2014-08-07T14:13:09Z</time>
      </trkpt>
      <trkpt lat="49.22394" lon="1.16286">
        <ele>15.797153</ele>
        <time>2014-08-07T14:13:14Z</time>
      </trkpt>
      <trkpt lat="49.224" lon="1.16281">
        <ele>15.797153</ele>
        <time>2014-08-07T14:13:19Z</time>
      </trkpt>
      <trkpt lat="49.22406" lon="1.16276">
        <ele>15.990632</ele>
        <time>2014-08-07T14:13:24Z</time>
      </trkpt>
      <trkpt lat="49.22412" lon="1.1627">
        <ele>15.990632</ele>
        <time>2014-08-07T14:13:29Z</time>
      </trkpt>
      <trkpt lat="49.22417" lon="1.16264">
        <ele>16.245764</ele>
        <time>2014-08-07T14:13:34Z</time>
      </trkpt>
      <trkpt lat="49.22421" lon="1.16259">
        <ele>16.245764</ele>
        <time>2014-08-07T14:13:39Z</time>
      </trkpt>
      <trkpt lat="49.22425" lon="1.16254">
        <ele>16.528034</ele>
        <time>2014-08-07T14:13:44Z</time>
      </trkpt>
      <trkpt lat="49.2243" lon="1.16249">
        <ele>16.528034</ele>
        <time>2014-08-07T14:13:49Z</time>
      </trkpt>
      <trkpt lat="49.22436" lon="1.16245">
        <ele>16.776596</ele>
        <time>2014-08-07T14:13:54Z</time>
      </trkpt>
      <trkpt lat="49.22442" lon="1.1624">
        <ele>16.776596</ele>
        <time>2014-08-07T14:13:59Z</time>
      </trkpt>
      <trkpt lat="49.22448" lon="1.16235">
        <ele>16.96401</ele>
        <time>2014-08-07T14:14:04Z</time>
      </trkpt>
      <trkpt lat="49.22454" lon="1.16231">
        <ele>16.96401</ele>
        <time>2014-08-07T14:14:09Z</time>
      </trkpt>
      <trkpt lat="49.22459" lon="1.16227">
        <ele>17.137115</ele>
        <time>2014-08-07T14:14:14Z</time>
      </trkpt>
      <trkpt lat="49.22464" lon="1.16222">
        <ele>17.137115</ele>
        <time>2014-08-07T14:14:19Z</time>
      </trkpt>
      <trkpt lat="49.22469" lon="1.16218">
        <ele>17.28173</ele>
        <time>2014-08-07T14:14:24Z</time>
      </trkpt>
      <trkpt lat="49.22474" lon="1.16215">
        <ele>17.28173</ele>
        <time>2014-08-07T14:14:29Z</time>
      </trkpt>
      <trkpt lat="49.22479" lon="1.16211">
        <ele>17.41365</ele>
        <time>2014-08-07T14:14:34Z</time>
      </trkpt>
      <trkpt lat="49.22485" lon="1.16205">
        <ele>17.41365</ele>
        <time>2014-08-07T14:14:39Z</time>
      </trkpt>
      <trkpt lat="49.22489" lon="1.16201">
        <ele>17.54757</ele>
        <time>2014-08-07T14:14:44Z</time>
      </trkpt>
      <trkpt lat="49.22494" lon="1.16194">
        <ele>17.54757</ele>
        <time>2014-08-07T14:14:49Z</time>
      </trkpt>
      <trkpt lat="49.22499" lon="1.16188">
        <ele>17.66831</ele>
        <time>2014-08-07T14:14:54Z</time>
      </trkpt>
      <trkpt lat="49.22504" lon="1.16184">
        <ele>17.66831</ele>
        <time>2014-08-07T14:14:59Z</time>
      </trkpt>
      <trkpt lat="49.2251" lon="1.1618">
        <ele>17.776281</ele>
        <time>2014-08-07T14:15:04Z</time>
      </trkpt>
      <trkpt lat="49.22517" lon="1.16177">
        <ele>17.776281</ele>
        <time>2014-08-07T14:15:09Z</time>
      </trkpt>
      <trkpt lat="49.22522" lon="1.16171">
        <ele>17.900755</ele>
        <time>2014-08-07T14:15:14Z</time>
      </trkpt>
      <trkpt lat="49.22528" lon="1.16167">
        <ele>17.900755</ele>
        <time>2014-08-07T14:15:19Z</time>
      </trkpt>
      <trkpt lat="49.22532" lon="1.16164">
        <ele>17.982363</ele>
        <time>2014-08-07T14:15:24Z</time>
      </trkpt>
      <trkpt lat="49.22536" lon="1.16158">
        <ele>17.982363</ele>
        <time>2014-08-07T14:15:29Z</time>
      </trkpt>
      <trkpt lat="49.22542" lon="1.16152">
        <ele>18.110355</ele>
        <time>2014-08-07T14:15:34Z</time>
      </trkpt>
      <trkpt lat="49.22549" lon="1.16146">
        <ele>18.110355</ele>
        <time>2014-08-07T14:15:39Z</time>
      </trkpt>
      <trkpt lat="49.22553" lon="1.16141">
        <ele>18.266447</ele>
        <time>2014-08-07T14:15:44Z</time>
      </trkpt>
      <trkpt lat="49.22558" lon="1.16137">
        <ele>18.266447</ele>
        <time>2014-08-07T14:15:49Z</time>
      </trkpt>
      <trkpt lat="49.22563" lon="1.16131">
        <ele>18.390411</ele>
        <time>2014-08-07T14:15:54Z</time>
      </trkpt>
      <trkpt lat="49.22566" lon="1.16122">
        <ele>18.390411</ele>
        <time>2014-08-07T14:15:59Z</time>
      </trkpt>
      <trkpt lat="49.22569" lon="1.16116">
        <ele>18.613901</ele>
        <time>2014-08-07T14:16:04Z</time>
      </trkpt>
      <trkpt lat="49.22572" lon="1.16109">
        <ele>18.613901</ele>
        <time>2014-08-07T14:16:09Z</time>
      </trkpt>
      <trkpt lat="49.22575" lon="1.16103">
        <ele>18.856892</ele>
        <time>2014-08-07T14:16:14Z</time>
      </trkpt>
      <trkpt lat="49.22578" lon="1.16096">
        <ele>18.856892</ele>
        <time>2014-08-07T14:16:19Z</time>
      </trkpt>
      <trkpt lat="49.22582" lon="1.16087">
        <ele>19.059618</ele>
        <time>2014-08-07T14:16:24Z</time>
      </trkpt>
      <trkpt lat="49.22584" lon="1.16079">
        <ele>19.059618</ele>
        <time>2014-08-07T14:16:29Z</time>
      </trkpt>
      <trkpt lat="49.22588" lon="1.16072">
        <ele>19.224483</ele>
        <time>2014-08-07T14:16:34Z</time>
      </trkpt>
      <trkpt lat="49.22591" lon="1.16064">
        <ele>19.224483</ele>
        <time>2014-08-07T14:16:39Z</time>
      </trkpt>
      <trkpt lat="49.22594" lon="1.16055">
        <ele>19.368263</ele>
        <time>2014-08-07T14:16:44Z</time>
      </trkpt>
      <trkpt lat="49.22597" lon="1.16047">
        <ele>19.368263</ele>
        <time>2014-08-07T14:16:49Z</time>
      </trkpt>
      <trkpt lat="49.226" lon="1.16038">
        <ele>19.54981</ele>
        <time>2014-08-07T14:16:54Z</time>
      </trkpt>
      <trkpt lat="49.22601" lon="1.16032">
        <ele>19.54981</ele>
        <time>2014-08-07T14:16:59Z</time>
      </trkpt>
      <trkpt lat="49.22603" lon="1.16023">
        <ele>19.708286</ele>
        <time>2014-08-07T14:17:04Z</time>
      </trkpt>
      <trkpt lat="49.22604" lon="1.16012">
        <ele>19.708286</ele>
        <time>2014-08-07T14:17:09Z</time>
      </trkpt>
      <trkpt lat="49.22606" lon="1.16002">
        <ele>19.917107</ele>
        <time>2014-08-07T14:17:14Z</time>
      </trkpt>
      <trkpt lat="49.22611" lon="1.15997">
        <ele>19.917107</ele>
        <time>2014-08-07T14:17:19Z</time>
      </trkpt>
      <trkpt lat="49.22616" lon="1.15994">
        <ele>20.157715</ele>
        <time>2014-08-07T14:17:24Z</time>
      </trkpt>
      <trkpt lat="49.22617" lon="1.15991">
        <ele>20.157715</ele>
        <time>2014-08-07T14:17:29Z</time>
      </trkpt>
      <trkpt lat="49.22617" lon="1.15991">
        <ele>20.157715</ele>
        <time>2014-08-07T14:17:34Z</time>
      </trkpt>
      <trkpt lat="49.22616" lon="1.15989">
        <ele>20.157715</ele>
        <time>2014-08-07T14:17:39Z</time>
      </trkpt>
      <trkpt lat="49.22618" lon="1.15986">
        <ele>20.157715</ele>
        <time>2014-08-07T14:17:44Z</time>
      </trkpt>
      <trkpt lat="49.22622" lon="1.15982">
        <ele>20.29755</ele>
        <time>2014-08-07T14:17:49Z</time>
      </trkpt>
      <trkpt lat="49.22623" lon="1.1598">
        <ele>20.29755</ele>
        <time>2014-08-07T14:17:54Z</time>
      </trkpt>
      <trkpt lat="49.22628" lon="1.15976">
        <ele>20.29755</ele>
        <time>2014-08-07T14:17:59Z</time>
      </trkpt>
      <trkpt lat="49.22633" lon="1.15972">
        <ele>20.473505</ele>
        <time>2014-08-07T14:18:04Z</time>
      </trkpt>
      <trkpt lat="49.22639" lon="1.15968">
        <ele>20.473505</ele>
        <time>2014-08-07T14:18:09Z</time>
      </trkpt>
      <trkpt lat="49.22642" lon="1.15965">
        <ele>20.682627</ele>
        <time>2014-08-07T14:18:14Z</time>
      </trkpt>
      <trkpt lat="49.22645" lon="1.15963">
        <ele>20.682627</ele>
        <time>2014-08-07T14:18:19Z</time>
      </trkpt>
      <trkpt lat="49.22651" lon="1.15955">
        <ele>20.965345</ele>
        <time>2014-08-07T14:18:24Z</time>
      </trkpt>
      <trkpt lat="49.22654" lon="1.1595">
        <ele>20.965345</ele>
        <time>2014-08-07T14:18:29Z</time>
      </trkpt>
      <trkpt lat="49.22657" lon="1.15945">
        <ele>21.25805</ele>
        <time>2014-08-07T14:18:34Z</time>
      </trkpt>
      <trkpt lat="49.22663" lon="1.1594">
        <ele>21.25805</ele>
        <time>2014-08-07T14:18:39Z</time>
      </trkpt>
      <trkpt lat="49.22668" lon="1.15935">
        <ele>21.54504</ele>
        <time>2014-08-07T14:18:44Z</time>
      </trkpt>
      <trkpt lat="49.22673" lon="1.15929">
        <ele>21.54504</ele>
        <time>2014-08-07T14:18:49Z</time>
      </trkpt>
      <trkpt lat="49.22678" lon="1.15923">
        <ele>21.869434</ele>
        <time>2014-08-07T14:18:54Z</time>
      </trkpt>
      <trkpt lat="49.22683" lon="1.15916">
        <ele>21.869434</ele>
        <time>2014-08-07T14:18:59Z</time>
      </trkpt>
      <trkpt lat="49.22688" lon="1.15912">
        <ele>22.285519</ele>
        <time>2014-08-07T14:19:04Z</time>
      </trkpt>
      <trkpt lat="49.2269" lon="1.15907">
        <ele>22.285519</ele>
        <time>2014-08-07T14:19:09Z</time>
      </trkpt>
      <trkpt lat="49.22695" lon="1.15903">
        <ele>22.78571</ele>
        <time>2014-08-07T14:19:14Z</time>
      </trkpt>
      <trkpt lat="49.22699" lon="1.15901">
        <ele>22.78571</ele>
        <time>2014-08-07T14:19:19Z</time>
      </trkpt>
      <trkpt lat="49.22703" lon="1.15897">
        <ele>23.319532</ele>
        <time>2014-08-07T14:19:24Z</time>
      </trkpt>
      <trkpt lat="49.22708" lon="1.15892">
        <ele>23.319532</ele>
        <time>2014-08-07T14:19:29Z</time>
      </trkpt>
      <trkpt lat="49.22711" lon="1.15889">
        <ele>23.86897</ele>
        <time>2014-08-07T14:19:34Z</time>
      </trkpt>
      <trkpt lat="49.22716" lon="1.15883">
        <ele>23.86897</ele>
        <time>2014-08-07T14:19:39Z</time>
      </trkpt>
      <trkpt lat="49.22722" lon="1.15875">
        <ele>24.287613</ele>
        <time>2014-08-07T14:19:44Z</time>
      </trkpt>
      <trkpt lat="49.22726" lon="1.15873">
        <ele>24.287613</ele>
        <time>2014-08-07T14:19:49Z</time>
      </trkpt>
      <trkpt lat="49.22727" lon="1.15871">
        <ele>24.287613</ele>
        <time>2014-08-07T14:19:54Z</time>
      </trkpt>
      <trkpt lat="49.22729" lon="1.15862">
        <ele>24.88694</ele>
        <time>2014-08-07T14:19:59Z</time>
      </trkpt>
      <trkpt lat="49.22733" lon="1.15852">
        <ele>24.88694</ele>
        <time>2014-08-07T14:20:04Z</time>
      </trkpt>
      <trkpt lat="49.22735" lon="1.15845">
        <ele>25.52274</ele>
        <time>2014-08-07T14:20:09Z</time>
      </trkpt>
      <trkpt lat="49.22738" lon="1.15837">
        <ele>25.52274</ele>
        <time>2014-08-07T14:20:14Z</time>
      </trkpt>
      <trkpt lat="49.2274" lon="1.15828">
        <ele>26.205427</ele>
        <time>2014-08-07T14:20:19Z</time>
      </trkpt>
      <trkpt lat="49.22741" lon="1.1582">
        <ele>26.205427</ele>
        <time>2014-08-07T14:20:24Z</time>
      </trkpt>
      <trkpt lat="49.2275" lon="1.15816">
        <ele>26.973377</ele>
        <time>2014-08-07T14:20:29Z</time>
      </trkpt>
      <trkpt lat="49.22753" lon="1.15813">
        <ele>26.973377</ele>
        <time>2014-08-07T14:20:34Z</time>
      </trkpt>
      <trkpt lat="49.22757" lon="1.15813">
        <ele>26.973377</ele>
        <time>2014-08-07T14:20:39Z</time>
      </trkpt>
      <trkpt lat="49.22762" lon="1.15814">
        <ele>27.674593</ele>
        <time>2014-08-07T14:20:44Z</time>
      </trkpt>
      <trkpt lat="49.22768" lon="1.15817">
        <ele>27.674593</ele>
        <time>2014-08-07T14:20:49Z</time>
      </trkpt>
      <trkpt lat="49.22773" lon="1.15818">
        <ele>28.226109</ele>
        <time>2014-08-07T14:20:54Z</time>
      </trkpt>
      <trkpt lat="49.2278" lon="1.15818">
        <ele>28.226109</ele>
        <time>2014-08-07T14:20:59Z</time>
      </trkpt>
      <trkpt lat="49.22785" lon="1.15825">
        <ele>28.681208</ele>
        <time>2014-08-07T14:21:04Z</time>
      </trkpt>
      <trkpt lat="49.22788" lon="1.15826">
        <ele>28.681208</ele>
        <time>2014-08-07T14:21:09Z</time>
      </trkpt>
      <trkpt lat="49.22791" lon="1.15831">
        <ele>28.681208</ele>
        <time>2014-08-07T14:21:14Z</time>
      </trkpt>
      <trkpt lat="49.22791" lon="1.15837">
        <ele>28.858988</ele>
        <time>2014-08-07T14:21:19Z</time>
      </trkpt>
      <trkpt lat="49.22791" lon="1.15838">
        <ele>28.858988</ele>
        <time>2014-08-07T14:21:24Z</time>
      </trkpt>
      <trkpt lat="49.22792" lon="1.15839">
        <ele>28.858988</ele>
        <time>2014-08-07T14:21:29Z</time>
      </trkpt>
      <trkpt lat="49.22793" lon="1.15839">
        <ele>28.858988</ele>
        <time>2014-08-07T14:21:34Z</time>
      </trkpt>
      <trkpt lat="49.22793" lon="1.15841">
        <ele>28.858988</ele>
        <time>2014-08-07T14:21:39Z</time>
      </trkpt>
      <trkpt lat="49.22793" lon="1.15846">
        <ele>28.858988</ele>
        <time>2014-08-07T14:21:44Z</time>
      </trkpt>
      <trkpt lat="49.22794" lon="1.15852">
        <ele>29.010572</ele>
        <time>2014-08-07T14:21:49Z</time>
      </trkpt>
      <trkpt lat="49.22796" lon="1.15859">
        <ele>29.010572</ele>
        <time>2014-08-07T14:21:54Z</time>
      </trkpt>
      <trkpt lat="49.22798" lon="1.15866">
        <ele>29.008457</ele>
        <time>2014-08-07T14:21:59Z</time>
      </trkpt>
      <trkpt lat="49.22802" lon="1.15874">
        <ele>29.008457</ele>
        <time>2014-08-07T14:22:04Z</time>
      </trkpt>
      <trkpt lat="49.22805" lon="1.1588">
        <ele>28.922318</ele>
        <time>2014-08-07T14:22:09Z</time>
      </trkpt>
      <trkpt lat="49.22808" lon="1.15888">
        <ele>28.922318</ele>
        <time>2014-08-07T14:22:14Z</time>
      </trkpt>
      <trkpt lat="49.2281" lon="1.15896">
        <ele>28.687262</ele>
        <time>2014-08-07T14:22:19Z</time>
      </trkpt>
      <trkpt lat="49.22812" lon="1.15902">
        <ele>28.687262</ele>
        <time>2014-08-07T14:22:24Z</time>
      </trkpt>
      <trkpt lat="49.22813" lon="1.15912">
        <ele>28.358896</ele>
        <time>2014-08-07T14:22:29Z</time>
      </trkpt>
      <trkpt lat="49.22816" lon="1.15921">
        <ele>28.358896</ele>
        <time>2014-08-07T14:22:34Z</time>
      </trkpt>
      <trkpt lat="49.22819" lon="1.15927">
        <ele>27.974602</ele>
        <time>2014-08-07T14:22:39Z</time>
      </trkpt>
      <trkpt lat="49.22822" lon="1.15934">
        <ele>27.974602</ele>
        <time>2014-08-07T14:22:44Z</time>
      </trkpt>
      <trkpt lat="49.22828" lon="1.15939">
        <ele>27.598005</ele>
        <time>2014-08-07T14:22:49Z</time>
      </trkpt>
      <trkpt lat="49.22835" lon="1.1594">
        <ele>27.598005</ele>
        <time>2014-08-07T14:22:54Z</time>
      </trkpt>
      <trkpt lat="49.22839" lon="1.15941">
        <ele>27.230392</ele>
        <time>2014-08-07T14:22:59Z</time>
      </trkpt>
      <trkpt lat="49.22841" lon="1.15943">
        <ele>27.230392</ele>
        <time>2014-08-07T14:23:04Z</time>
      </trkpt>
      <trkpt lat="49.22843" lon="1.15949">
        <ele>27.230392</ele>
        <time>2014-08-07T14:23:09Z</time>
      </trkpt>
      <trkpt lat="49.22848" lon="1.15954">
        <ele>26.8441</ele>
        <time>2014-08-07T14:23:14Z</time>
      </trkpt>
      <trkpt lat="49.22853" lon="1.15961">
        <ele>26.8441</ele>
        <time>2014-08-07T14:23:19Z</time>
      </trkpt>
      <trkpt lat="49.22859" lon="1.15967">
        <ele>26.543245</ele>
        <time>2014-08-07T14:23:24Z</time>
      </trkpt>
      <trkpt lat="49.22864" lon="1.15971">
        <ele>26.543245</ele>
        <time>2014-08-07T14:23:29Z</time>
      </trkpt>
      <trkpt lat="49.22866" lon="1.15983">
        <ele>26.222284</ele>
        <time>2014-08-07T14:23:34Z</time>
      </trkpt>
      <trkpt lat="49.22871" lon="1.15988">
        <ele>26.222284</ele>
        <time>2014-08-07T14:23:39Z</time>
      </trkpt>
      <trkpt lat="49.22872" lon="1.15996">
        <ele>25.970812</ele>
        <time>2014-08-07T14:23:44Z</time>
      </trkpt>
      <trkpt lat="49.22875" lon="1.16">
        <ele>25.970812</ele>
        <time>2014-08-07T14:23:49Z</time>
      </trkpt>
      <trkpt lat="49.22878" lon="1.16005">
        <ele>25.970812</ele>
        <time>2014-08-07T14:23:54Z</time>
      </trkpt>
      <trkpt lat="49.22883" lon="1.16009">
        <ele>25.82839</ele>
        <time>2014-08-07T14:23:59Z</time>
      </trkpt>
      <trkpt lat="49.22888" lon="1.16013">
        <ele>25.82839</ele>
        <time>2014-08-07T14:24:04Z</time>
      </trkpt>
      <trkpt lat="49.22893" lon="1.16015">
        <ele>25.701647</ele>
        <time>2014-08-07T14:24:09Z</time>
      </trkpt>
      <trkpt lat="49.22899" lon="1.16016">
        <ele>25.701647</ele>
        <time>2014-08-07T14:24:14Z</time>
      </trkpt>
      <trkpt lat="49.22908" lon="1.16015">
        <ele>25.662518</ele>
        <time>2014-08-07T14:24:19Z</time>
      </trkpt>
      <trkpt lat="49.22912" lon="1.16018">
        <ele>25.662518</ele>
        <time>2014-08-07T14:24:24Z</time>
      </trkpt>
      <trkpt lat="49.22916" lon="1.16022">
        <ele>25.835032</ele>
        <time>2014-08-07T14:24:29Z</time>
      </trkpt>
      <trkpt lat="49.2292" lon="1.16026">
        <ele>25.835032</ele>
        <time>2014-08-07T14:24:34Z</time>
      </trkpt>
      <trkpt lat="49.22925" lon="1.16035">
        <ele>26.232605</ele>
        <time>2014-08-07T14:24:39Z</time>
      </trkpt>
      <trkpt lat="49.22929" lon="1.16039">
        <ele>26.232605</ele>
        <time>2014-08-07T14:24:44Z</time>
      </trkpt>
      <trkpt lat="49.22932" lon="1.16044">
        <ele>26.910248</ele>
        <time>2014-08-07T14:24:49Z</time>
      </trkpt>
      <trkpt lat="49.22935" lon="1.1605">
        <ele>26.910248</ele>
        <time>2014-08-07T14:24:54Z</time>
      </trkpt>
      <trkpt lat="49.22937" lon="1.16054">
        <ele>26.910248</ele>
        <time>2014-08-07T14:24:59Z</time>
      </trkpt>
      <trkpt lat="49.22937" lon="1.16059">
        <ele>27.759604</ele>
        <time>2014-08-07T14:25:04Z</time>
      </trkpt>
      <trkpt lat="49.2294" lon="1.16061">
        <ele>27.759604</ele>
        <time>2014-08-07T14:25:09Z</time>
      </trkpt>
      <trkpt lat="49.22942" lon="1.16064">
        <ele>27.759604</ele>
        <time>2014-08-07T14:25:14Z</time>
      </trkpt>
      <trkpt lat="49.22946" lon="1.16072">
        <ele>28.73742</ele>
        <time>2014-08-07T14:25:19Z</time>
      </trkpt>
      <trkpt lat="49.22952" lon="1.16075">
        <ele>28.73742</ele>
        <time>2014-08-07T14:25:24Z</time>
      </trkpt>
      <trkpt lat="49.22957" lon="1.16075">
        <ele>29.760017</ele>
        <time>2014-08-07T14:25:29Z</time>
      </trkpt>
      <trkpt lat="49.22964" lon="1.16079">
        <ele>29.760017</ele>
        <time>2014-08-07T14:25:34Z</time>
      </trkpt>
      <trkpt lat="49.22966" lon="1.1608">
        <ele>29.760017</ele>
        <time>2014-08-07T14:25:39Z</time>
      </trkpt>
      <trkpt lat="49.22971" lon="1.16083">
        <ele>30.821795</ele>
        <time>2014-08-07T14:25:44Z</time>
      </trkpt>
      <trkpt lat="49.22975" lon="1.16086">
        <ele>30.821795</ele>
        <time>2014-08-07T14:25:49Z</time>
      </trkpt>
      <trkpt lat="49.2298" lon="1.16087">
        <ele>30.821795</ele>
        <time>2014-08-07T14:25:54Z</time>
      </trkpt>
      <trkpt lat="49.22987" lon="1.16086">
        <ele>31.85981</ele>
        <time>2014-08-07T14:25:59Z</time>
      </trkpt>
      <trkpt lat="49.22994" lon="1.16084">
        <ele>31.85981</ele>
        <time>2014-08-07T14:26:04Z</time>
      </trkpt>
      <trkpt lat="49.22998" lon="1.16085">
        <ele>32.988758</ele>
        <time>2014-08-07T14:26:09Z</time>
      </trkpt>
      <trkpt lat="49.23001" lon="1.16088">
        <ele>32.988758</ele>
        <time>2014-08-07T14:26:14Z</time>
      </trkpt>
      <trkpt lat="49.23005" lon="1.16097">
        <ele>34.242615</ele>
        <time>2014-08-07T14:26:19Z</time>
      </trkpt>
      <trkpt lat="49.23006" lon="1.16102">
        <ele>34.242615</ele>
        <time>2014-08-07T14:26:24Z</time>
      </trkpt>
      <trkpt lat="49.2301" lon="1.16104">
        <ele>34.242615</ele>
        <time>2014-08-07T14:26:29Z</time>
      </trkpt>
      <trkpt lat="49.23013" lon="1.16106">
        <ele>35.739002</ele>
        <time>2014-08-07T14:26:34Z</time>
      </trkpt>
      <trkpt lat="49.23019" lon="1.16107">
        <ele>35.739002</ele>
        <time>2014-08-07T14:26:39Z</time>
      </trkpt>
      <trkpt lat="49.23021" lon="1.16109">
        <ele>35.739002</ele>
        <time>2014-08-07T14:26:44Z</time>
      </trkpt>
      <trkpt lat="49.23025" lon="1.16114">
        <ele>37.225975</ele>
        <time>2014-08-07T14:26:49Z</time>
      </trkpt>
      <trkpt lat="49.23029" lon="1.16118">
        <ele>37.225975</ele>
        <time>2014-08-07T14:26:54Z</time>
      </trkpt>
      <trkpt lat="49.23034" lon="1.16122">
        <ele>38.700737</ele>
        <time>2014-08-07T14:26:59Z</time>
      </trkpt>
      <trkpt lat="49.23039" lon="1.16125">
        <ele>38.700737</ele>
        <time>2014-08-07T14:27:04Z</time>
      </trkpt>
      <trkpt lat="49.23043" lon="1.16127">
        <ele>40.002266</ele>
        <time>2014-08-07T14:27:09Z</time>
      </trkpt>
      <trkpt lat="49.23047" lon="1.1613">
        <ele>40.002266</ele>
        <time>2014-08-07T14:27:14Z</time>
      </trkpt>
      <trkpt lat="49.23049" lon="1.16134">
        <ele>40.002266</ele>
        <time>2014-08-07T14:27:19Z</time>
      </trkpt>
      <trkpt lat="49.23052" lon="1.16137">
        <ele>41.198055</ele>
        <time>2014-08-07T14:27:24Z</time>
      </trkpt>
      <trkpt lat="49.23055" lon="1.1614">
        <ele>41.198055</ele>
        <time>2014-08-07T14:27:29Z</time>
      </trkpt>
      <trkpt lat="49.23058" lon="1.16145">
        <ele>41.198055</ele>
        <time>2014-08-07T14:27:34Z</time>
      </trkpt>
      <trkpt lat="49.23061" lon="1.16151">
        <ele>42.42307</ele>
        <time>2014-08-07T14:27:39Z</time>
      </trkpt>
      <trkpt lat="49.23068" lon="1.16151">
        <ele>42.42307</ele>
        <time>2014-08-07T14:27:44Z</time>
      </trkpt>
      <trkpt lat="49.23075" lon="1.16152">
        <ele>43.672626</ele>
        <time>2014-08-07T14:27:49Z</time>
      </trkpt>
      <trkpt lat="49.23082" lon="1.16153">
        <ele>43.672626</ele>
        <time>2014-08-07T14:27:54Z</time>
      </trkpt>
      <trkpt lat="49.23087" lon="1.16153">
        <ele>44.75504</ele>
        <time>2014-08-07T14:27:59Z</time>
      </trkpt>
      <trkpt lat="49.23093" lon="1.16152">
        <ele>44.75504</ele>
        <time>2014-08-07T14:28:04Z</time>
      </trkpt>
      <trkpt lat="49.231" lon="1.16152">
        <ele>45.810287</ele>
        <time>2014-08-07T14:28:09Z</time>
      </trkpt>
      <trkpt lat="49.23106" lon="1.16152">
        <ele>45.810287</ele>
        <time>2014-08-07T14:28:14Z</time>
      </trkpt>
      <trkpt lat="49.23109" lon="1.16152">
        <ele>45.810287</ele>
        <time>2014-08-07T14:28:19Z</time>
      </trkpt>
      <trkpt lat="49.23112" lon="1.16152">
        <ele>46.953796</ele>
        <time>2014-08-07T14:28:24Z</time>
      </trkpt>
      <trkpt lat="49.23116" lon="1.16151">
        <ele>46.953796</ele>
        <time>2014-08-07T14:28:29Z</time>
      </trkpt>
      <trkpt lat="49.2312" lon="1.16153">
        <ele>46.953796</ele>
        <time>2014-08-07T14:28:34Z</time>
      </trkpt>
      <trkpt lat="49.23126" lon="1.16152">
        <ele>48.1194</ele>
        <time>2014-08-07T14:28:39Z</time>
      </trkpt>
      <trkpt lat="49.23127" lon="1.16152">
        <ele>48.1194</ele>
        <time>2014-08-07T14:28:44Z</time>
      </trkpt>
      <trkpt lat="49.2313" lon="1.1615">
        <ele>48.1194</ele>
        <time>2014-08-07T14:28:49Z</time>
      </trkpt>
      <trkpt lat="49.23133" lon="1.16147">
        <ele>48.1194</ele>
        <time>2014-08-07T14:28:54Z</time>
      </trkpt>
      <trkpt lat="49.23139" lon="1.16144">
        <ele>49.562847</ele>
        <time>2014-08-07T14:28:59Z</time>
      </trkpt>
      <trkpt lat="49.23149" lon="1.16141">
        <ele>50.94395</ele>
        <time>2014-08-07T14:29:04Z</time>
      </trkpt>
      <trkpt lat="49.23152" lon="1.16139">
        <ele>50.94395</ele>
        <time>2014-08-07T14:29:09Z</time>
      </trkpt>
      <trkpt lat="49.23156" lon="1.16138">
        <ele>50.94395</ele>
        <time>2014-08-07T14:29:14Z</time>
      </trkpt>
      <trkpt lat="49.2316" lon="1.16136">
        <ele>52.365673</ele>
        <time>2014-08-07T14:29:19Z</time>
      </trkpt>
      <trkpt lat="49.23166" lon="1.16133">
        <ele>52.365673</ele>
        <time>2014-08-07T14:29:24Z</time>
      </trkpt>
      <trkpt lat="49.23169" lon="1.16131">
        <ele>53.92339</ele>
        <time>2014-08-07T14:29:29Z</time>
      </trkpt>
      <trkpt lat="49.23171" lon="1.16129">
        <ele>53.92339</ele>
        <time>2014-08-07T14:29:34Z</time>
      </trkpt>
      <trkpt lat="49.23174" lon="1.16127">
        <ele>53.92339</ele>
        <time>2014-08-07T14:29:39Z</time>
      </trkpt>
      <trkpt lat="49.23178" lon="1.16126">
        <ele>55.416927</ele>
        <time>2014-08-07T14:29:44Z</time>
      </trkpt>
      <trkpt lat="49.23181" lon="1.16124">
        <ele>55.416927</ele>
        <time>2014-08-07T14:29:49Z</time>
      </trkpt>
      <trkpt lat="49.23187" lon="1.1612">
        <ele>56.906082</ele>
        <time>2014-08-07T14:29:54Z</time>
      </trkpt>
      <trkpt lat="49.23193" lon="1.16117">
        <ele>56.906082</ele>
        <time>2014-08-07T14:29:59Z</time>
      </trkpt>
      <trkpt lat="49.23198" lon="1.16116">
        <ele>58.460747</ele>
        <time>2014-08-07T14:30:04Z</time>
      </trkpt>
      <trkpt lat="49.23201" lon="1.16116">
        <ele>58.460747</ele>
        <time>2014-08-07T14:30:09Z</time>
      </trkpt>
      <trkpt lat="49.23205" lon="1.16115">
        <ele>58.460747</ele>
        <time>2014-08-07T14:30:14Z</time>
      </trkpt>
      <trkpt lat="49.23211" lon="1.16114">
        <ele>60.145588</ele>
        <time>2014-08-07T14:30:19Z</time>
      </trkpt>
      <trkpt lat="49.23217" lon="1.16117">
        <ele>60.145588</ele>
        <time>2014-08-07T14:30:24Z</time>
      </trkpt>
      <trkpt lat="49.23222" lon="1.16116">
        <ele>61.933777</ele>
        <time>2014-08-07T14:30:29Z</time>
      </trkpt>
      <trkpt lat="49.23226" lon="1.16115">
        <ele>61.933777</ele>
        <time>2014-08-07T14:30:34Z</time>
      </trkpt>
      <trkpt lat="49.23229" lon="1.16114">
        <ele>61.933777</ele>
        <time>2014-08-07T14:30:39Z</time>
      </trkpt>
      <trkpt lat="49.23232" lon="1.16113">
        <ele>63.71378</ele>
        <time>2014-08-07T14:30:44Z</time>
      </trkpt>
      <trkpt lat="49.23235" lon="1.16113">
        <ele>63.71378</ele>
        <time>2014-08-07T14:30:49Z</time>
      </trkpt>
      <trkpt lat="49.23238" lon="1.16114">
        <ele>63.71378</ele>
        <time>2014-08-07T14:30:54Z</time>
      </trkpt>
      <trkpt lat="49.23241" lon="1.16111">
        <ele>65.52648</ele>
        <time>2014-08-07T14:30:59Z</time>
      </trkpt>
      <trkpt lat="49.23244" lon="1.16109">
        <ele>65.52648</ele>
        <time>2014-08-07T14:31:04Z</time>
      </trkpt>
      <trkpt lat="49.23248" lon="1.16106">
        <ele>65.52648</ele>
        <time>2014-08-07T14:31:09Z</time>
      </trkpt>
      <trkpt lat="49.23254" lon="1.16102">
        <ele>67.36653</ele>
        <time>2014-08-07T14:31:14Z</time>
      </trkpt>
      <trkpt lat="49.23259" lon="1.16099">
        <ele>67.36653</ele>
        <time>2014-08-07T14:31:19Z</time>
      </trkpt>
      <trkpt lat="49.23263" lon="1.16097">
        <ele>69.18575</ele>
        <time>2014-08-07T14:31:24Z</time>
      </trkpt>
      <trkpt lat="49.23267" lon="1.16096">
        <ele>69.18575</ele>
        <time>2014-08-07T14:31:29Z</time>
      </trkpt>
      <trkpt lat="49.23272" lon="1.16094">
        <ele>69.18575</ele>
        <time>2014-08-07T14:31:34Z</time>
      </trkpt>
      <trkpt lat="49.23277" lon="1.16091">
        <ele>71.04054</ele>
        <time>2014-08-07T14:31:39Z</time>
      </trkpt>
      <trkpt lat="49.23283" lon="1.16089">
        <ele>71.04054</ele>
        <time>2014-08-07T14:31:44Z</time>
      </trkpt>
      <trkpt lat="49.23288" lon="1.16087">
        <ele>72.766975</ele>
        <time>2014-08-07T14:31:49Z</time>
      </trkpt>
      <trkpt lat="49.23293" lon="1.16083">
        <ele>72.766975</ele>
        <time>2014-08-07T14:31:54Z</time>
      </trkpt>
      <trkpt lat="49.23297" lon="1.16079">
        <ele>74.50186</ele>
        <time>2014-08-07T14:31:59Z</time>
      </trkpt>
      <trkpt lat="49.233" lon="1.16076">
        <ele>74.50186</ele>
        <time>2014-08-07T14:32:04Z</time>
      </trkpt>
      <trkpt lat="49.23304" lon="1.16073">
        <ele>74.50186</ele>
        <time>2014-08-07T14:32:09Z</time>
      </trkpt>
      <trkpt lat="49.23307" lon="1.16068">
        <ele>76.29997</ele>
        <time>2014-08-07T14:32:14Z</time>
      </trkpt>
      <trkpt lat="49.23312" lon="1.1606">
        <ele>76.29997</ele>
        <time>2014-08-07T14:32:19Z</time>
      </trkpt>
      <trkpt lat="49.23313" lon="1.16056">
        <ele>78.02461</ele>
        <time>2014-08-07T14:32:24Z</time>
      </trkpt>
      <trkpt lat="49.23317" lon="1.16053">
        <ele>78.02461</ele>
        <time>2014-08-07T14:32:29Z</time>
      </trkpt>
      <trkpt lat="49.23325" lon="1.1605">
        <ele>79.7368</ele>
        <time>2014-08-07T14:32:34Z</time>
      </trkpt>
      <trkpt lat="49.23326" lon="1.16047">
        <ele>79.7368</ele>
        <time>2014-08-07T14:32:39Z</time>
      </trkpt>
      <trkpt lat="49.23329" lon="1.16042">
        <ele>79.7368</ele>
        <time>2014-08-07T14:32:44Z</time>
      </trkpt>
      <trkpt lat="49.23333" lon="1.16035">
        <ele>81.30585</ele>
        <time>2014-08-07T14:32:49Z</time>
      </trkpt>
      <trkpt lat="49.23335" lon="1.1603">
        <ele>81.30585</ele>
        <time>2014-08-07T14:32:54Z</time>
      </trkpt>
      <trkpt lat="49.23338" lon="1.16021">
        <ele>82.55351</ele>
        <time>2014-08-07T14:32:59Z</time>
      </trkpt>
      <trkpt lat="49.23338" lon="1.16016">
        <ele>82.55351</ele>
        <time>2014-08-07T14:33:04Z</time>
      </trkpt>
      <trkpt lat="49.23339" lon="1.16008">
        <ele>82.55351</ele>
        <time>2014-08-07T14:33:09Z</time>
      </trkpt>
      <trkpt lat="49.23338" lon="1.16001">
        <ele>83.67592</ele>
        <time>2014-08-07T14:33:14Z</time>
      </trkpt>
      <trkpt lat="49.23338" lon="1.15996">
        <ele>83.67592</ele>
        <time>2014-08-07T14:33:19Z</time>
      </trkpt>
      <trkpt lat="49.23336" lon="1.15986">
        <ele>84.76874</ele>
        <time>2014-08-07T14:33:24Z</time>
      </trkpt>
      <trkpt lat="49.23334" lon="1.15977">
        <ele>84.76874</ele>
        <time>2014-08-07T14:33:29Z</time>
      </trkpt>
      <trkpt lat="49.23333" lon="1.15968">
        <ele>86.03609</ele>
        <time>2014-08-07T14:33:34Z</time>
      </trkpt>
      <trkpt lat="49.23333" lon="1.15962">
        <ele>86.03609</ele>
        <time>2014-08-07T14:33:39Z</time>
      </trkpt>
      <trkpt lat="49.23332" lon="1.15954">
        <ele>87.42168</ele>
        <time>2014-08-07T14:33:44Z</time>
      </trkpt>
      <trkpt lat="49.23327" lon="1.15948">
        <ele>87.42168</ele>
        <time>2014-08-07T14:33:49Z</time>
      </trkpt>
      <trkpt lat="49.23326" lon="1.1594">
        <ele>88.93071</ele>
        <time>2014-08-07T14:33:54Z</time>
      </trkpt>
      <trkpt lat="49.23324" lon="1.15932">
        <ele>88.93071</ele>
        <time>2014-08-07T14:33:59Z</time>
      </trkpt>
      <trkpt lat="49.23322" lon="1.15924">
        <ele>90.38042</ele>
        <time>2014-08-07T14:34:04Z</time>
      </trkpt>
      <trkpt lat="49.23319" lon="1.15918">
        <ele>90.38042</ele>
        <time>2014-08-07T14:34:09Z</time>
      </trkpt>
      <trkpt lat="49.23317" lon="1.15915">
        <ele>90.38042</ele>
        <time>2014-08-07T14:34:14Z</time>
      </trkpt>
      <trkpt lat="49.23315" lon="1.15909">
        <ele>91.70254</ele>
        <time>2014-08-07T14:34:19Z</time>
      </trkpt>
      <trkpt lat="49.23314" lon="1.15903">
        <ele>91.70254</ele>
        <time>2014-08-07T14:34:24Z</time>
      </trkpt>
      <trkpt lat="49.23312" lon="1.15896">
        <ele>92.963936</ele>
        <time>2014-08-07T14:34:29Z</time>
      </trkpt>
      <trkpt lat="49.2331" lon="1.1589">
        <ele>92.963936</ele>
        <time>2014-08-07T14:34:34Z</time>
      </trkpt>
      <trkpt lat="49.2331" lon="1.15882">
        <ele>94.19799</ele>
        <time>2014-08-07T14:34:39Z</time>
      </trkpt>
      <trkpt lat="49.2331" lon="1.15875">
        <ele>94.19799</ele>
        <time>2014-08-07T14:34:44Z</time>
      </trkpt>
      <trkpt lat="49.2331" lon="1.15865">
        <ele>95.334854</ele>
        <time>2014-08-07T14:34:49Z</time>
      </trkpt>
      <trkpt lat="49.23309" lon="1.15856">
        <ele>95.334854</ele>
        <time>2014-08-07T14:34:54Z</time>
      </trkpt>
      <trkpt lat="49.23309" lon="1.15849">
        <ele>96.3966</ele>
        <time>2014-08-07T14:34:59Z</time>
      </trkpt>
      <trkpt lat="49.2331" lon="1.15842">
        <ele>96.3966</ele>
        <time>2014-08-07T14:35:04Z</time>
      </trkpt>
      <trkpt lat="49.2331" lon="1.15835">
        <ele>97.44717</ele>
        <time>2014-08-07T14:35:09Z</time>
      </trkpt>
      <trkpt lat="49.23313" lon="1.15829">
        <ele>97.44717</ele>
        <time>2014-08-07T14:35:14Z</time>
      </trkpt>
      <trkpt lat="49.23314" lon="1.15822">
        <ele>98.43058</ele>
        <time>2014-08-07T14:35:19Z</time>
      </trkpt>
      <trkpt lat="49.23314" lon="1.15815">
        <ele>98.43058</ele>
        <time>2014-08-07T14:35:24Z</time>
      </trkpt>
      <trkpt lat="49.23313" lon="1.15808">
        <ele>99.324</ele>
        <time>2014-08-07T14:35:29Z</time>
      </trkpt>
      <trkpt lat="49.23313" lon="1.15802">
        <ele>99.324</ele>
        <time>2014-08-07T14:35:34Z</time>
      </trkpt>
      <trkpt lat="49.23314" lon="1.15792">
        <ele>100.13537</ele>
        <time>2014-08-07T14:35:39Z</time>
      </trkpt>
      <trkpt lat="49.23314" lon="1.15782">
        <ele>100.13537</ele>
        <time>2014-08-07T14:35:44Z</time>
      </trkpt>
      <trkpt lat="49.23314" lon="1.15777">
        <ele>100.8579</ele>
        <time>2014-08-07T14:35:49Z</time>
      </trkpt>
      <trkpt lat="49.23315" lon="1.15768">
        <ele>100.8579</ele>
        <time>2014-08-07T14:35:54Z</time>
      </trkpt>
      <trkpt lat="49.23314" lon="1.15762">
        <ele>101.48554</ele>
        <time>2014-08-07T14:35:59Z</time>
      </trkpt>
      <trkpt lat="49.23315" lon="1.15749">
        <ele>101.48554</ele>
        <time>2014-08-07T14:36:04Z</time>
      </trkpt>
      <trkpt lat="49.23316" lon="1.15742">
        <ele>102.08503</ele>
        <time>2014-08-07T14:36:09Z</time>
      </trkpt>
      <trkpt lat="49.23317" lon="1.15735">
        <ele>102.08503</ele>
        <time>2014-08-07T14:36:14Z</time>
      </trkpt>
      <trkpt lat="49.23317" lon="1.15728">
        <ele>102.53092</ele>
        <time>2014-08-07T14:36:19Z</time>
      </trkpt>
      <trkpt lat="49.23319" lon="1.15721">
        <ele>102.53092</ele>
        <time>2014-08-07T14:36:24Z</time>
      </trkpt>
      <trkpt lat="49.23321" lon="1.15713">
        <ele>102.89477</ele>
        <time>2014-08-07T14:36:29Z</time>
      </trkpt>
      <trkpt lat="49.23323" lon="1.15706">
        <ele>102.89477</ele>
        <time>2014-08-07T14:36:34Z</time>
      </trkpt>
      <trkpt lat="49.23325" lon="1.15696">
        <ele>103.18541</ele>
        <time>2014-08-07T14:36:39Z</time>
      </trkpt>
      <trkpt lat="49.23325" lon="1.15691">
        <ele>103.18541</ele>
        <time>2014-08-07T14:36:44Z</time>
      </trkpt>
      <trkpt lat="49.23326" lon="1.15685">
        <ele>103.18541</ele>
        <time>2014-08-07T14:36:49Z</time>
      </trkpt>
      <trkpt lat="49.23326" lon="1.15678">
        <ele>103.48331</ele>
        <time>2014-08-07T14:36:54Z</time>
      </trkpt>
      <trkpt lat="49.23327" lon="1.15669">
        <ele>103.48331</ele>
        <time>2014-08-07T14:36:59Z</time>
      </trkpt>
      <trkpt lat="49.23328" lon="1.15664">
        <ele>103.81971</ele>
        <time>2014-08-07T14:37:04Z</time>
      </trkpt>
      <trkpt lat="49.23329" lon="1.15659">
        <ele>103.81971</ele>
        <time>2014-08-07T14:37:09Z</time>
      </trkpt>
      <trkpt lat="49.23336" lon="1.15649">
        <ele>104.1802</ele>
        <time>2014-08-07T14:37:14Z</time>
      </trkpt>
      <trkpt lat="49.2334" lon="1.15632">
        <ele>104.45042</ele>
        <time>2014-08-07T14:37:19Z</time>
      </trkpt>
      <trkpt lat="49.2334" lon="1.15623">
        <ele>104.45042</ele>
        <time>2014-08-07T14:37:24Z</time>
      </trkpt>
      <trkpt lat="49.2334" lon="1.15612">
        <ele>104.66873</ele>
        <time>2014-08-07T14:37:29Z</time>
      </trkpt>
      <trkpt lat="49.2334" lon="1.15606">
        <ele>104.66873</ele>
        <time>2014-08-07T14:37:34Z</time>
      </trkpt>
      <trkpt lat="49.23341" lon="1.15601">
        <ele>104.66873</ele>
        <time>2014-08-07T14:37:39Z</time>
      </trkpt>
      <trkpt lat="49.23343" lon="1.15595">
        <ele>105.10138</ele>
        <time>2014-08-07T14:37:44Z</time>
      </trkpt>
      <trkpt lat="49.23348" lon="1.15588">
        <ele>105.10138</ele>
        <time>2014-08-07T14:37:49Z</time>
      </trkpt>
      <trkpt lat="49.23351" lon="1.15581">
        <ele>105.61966</ele>
        <time>2014-08-07T14:37:54Z</time>
      </trkpt>
      <trkpt lat="49.23354" lon="1.15572">
        <ele>105.61966</ele>
        <time>2014-08-07T14:37:59Z</time>
      </trkpt>
      <trkpt lat="49.23356" lon="1.15563">
        <ele>105.94553</ele>
        <time>2014-08-07T14:38:04Z</time>
      </trkpt>
      <trkpt lat="49.23357" lon="1.15562">
        <ele>105.94553</ele>
        <time>2014-08-07T14:38:09Z</time>
      </trkpt>
      <trkpt lat="49.23359" lon="1.15556">
        <ele>105.94553</ele>
        <time>2014-08-07T14:38:14Z</time>
      </trkpt>
      <trkpt lat="49.23362" lon="1.15549">
        <ele>106.05243</ele>
        <time>2014-08-07T14:38:19Z</time>
      </trkpt>
      <trkpt lat="49.23363" lon="1.15543">
        <ele>106.05243</ele>
        <time>2014-08-07T14:38:24Z</time>
      </trkpt>
      <trkpt lat="49.23364" lon="1.15532">
        <ele>106.06038</ele>
        <time>2014-08-07T14:38:29Z</time>
      </trkpt>
      <trkpt lat="49.23364" lon="1.15522">
        <ele>106.06038</ele>
        <time>2014-08-07T14:38:34Z</time>
      </trkpt>
      <trkpt lat="49.23365" lon="1.15514">
        <ele>106.181694</ele>
        <time>2014-08-07T14:38:39Z</time>
      </trkpt>
      <trkpt lat="49.23367" lon="1.15507">
        <ele>106.181694</ele>
        <time>2014-08-07T14:38:44Z</time>
      </trkpt>
      <trkpt lat="49.23371" lon="1.155">
        <ele>106.32447</ele>
        <time>2014-08-07T14:38:49Z</time>
      </trkpt>
      <trkpt lat="49.23371" lon="1.15493">
        <ele>106.32447</ele>
        <time>2014-08-07T14:38:54Z</time>
      </trkpt>
      <trkpt lat="49.23372" lon="1.15486">
        <ele>106.43225</ele>
        <time>2014-08-07T14:38:59Z</time>
      </trkpt>
      <trkpt lat="49.23372" lon="1.15477">
        <ele>106.43225</ele>
        <time>2014-08-07T14:39:04Z</time>
      </trkpt>
      <trkpt lat="49.23373" lon="1.15474">
        <ele>106.43225</ele>
        <time>2014-08-07T14:39:09Z</time>
      </trkpt>
      <trkpt lat="49.23374" lon="1.15468">
        <ele>106.46714</ele>
        <time>2014-08-07T14:39:14Z</time>
      </trkpt>
      <trkpt lat="49.23375" lon="1.15457">
        <ele>106.46714</ele>
        <time>2014-08-07T14:39:19Z</time>
      </trkpt>
      <trkpt lat="49.23376" lon="1.1545">
        <ele>106.40857</ele>
        <time>2014-08-07T14:39:24Z</time>
      </trkpt>
      <trkpt lat="49.23379" lon="1.15447">
        <ele>106.40857</ele>
        <time>2014-08-07T14:39:29Z</time>
      </trkpt>
      <trkpt lat="49.23383" lon="1.15436">
        <ele>106.51146</ele>
        <time>2014-08-07T14:39:34Z</time>
      </trkpt>
      <trkpt lat="49.23384" lon="1.15422">
        <ele>106.838554</ele>
        <time>2014-08-07T14:39:39Z</time>
      </trkpt>
      <trkpt lat="49.23386" lon="1.15406">
        <ele>107.36079</ele>
        <time>2014-08-07T14:39:44Z</time>
      </trkpt>
      <trkpt lat="49.23388" lon="1.15403">
        <ele>107.36079</ele>
        <time>2014-08-07T14:39:49Z</time>
      </trkpt>
      <trkpt lat="49.23388" lon="1.15387">
        <ele>108.108246</ele>
        <time>2014-08-07T14:39:54Z</time>
      </trkpt>
      <trkpt lat="49.23389" lon="1.15375">
        <ele>108.108246</ele>
        <time>2014-08-07T14:39:59Z</time>
      </trkpt>
      <trkpt lat="49.2339" lon="1.15364">
        <ele>108.920746</ele>
        <time>2014-08-07T14:40:04Z</time>
      </trkpt>
      <trkpt lat="49.2339" lon="1.15355">
        <ele>108.920746</ele>
        <time>2014-08-07T14:40:09Z</time>
      </trkpt>
      <trkpt lat="49.23391" lon="1.15349">
        <ele>109.793724</ele>
        <time>2014-08-07T14:40:14Z</time>
      </trkpt>
      <trkpt lat="49.23393" lon="1.15341">
        <ele>109.793724</ele>
        <time>2014-08-07T14:40:19Z</time>
      </trkpt>
      <trkpt lat="49.23395" lon="1.15336">
        <ele>110.63623</ele>
        <time>2014-08-07T14:40:24Z</time>
      </trkpt>
      <trkpt lat="49.23397" lon="1.15331">
        <ele>110.63623</ele>
        <time>2014-08-07T14:40:29Z</time>
      </trkpt>
      <trkpt lat="49.23399" lon="1.15328">
        <ele>110.63623</ele>
        <time>2014-08-07T14:40:34Z</time>
      </trkpt>
      <trkpt lat="49.23403" lon="1.15321">
        <ele>111.219925</ele>
        <time>2014-08-07T14:40:39Z</time>
      </trkpt>
      <trkpt lat="49.23406" lon="1.15313">
        <ele>111.219925</ele>
        <time>2014-08-07T14:40:44Z</time>
      </trkpt>
      <trkpt lat="49.23408" lon="1.15303">
        <ele>111.59328</ele>
        <time>2014-08-07T14:40:49Z</time>
      </trkpt>
      <trkpt lat="49.23411" lon="1.15296">
        <ele>111.59328</ele>
        <time>2014-08-07T14:40:54Z</time>
      </trkpt>
      <trkpt lat="49.23415" lon="1.15287">
        <ele>111.758514</ele>
        <time>2014-08-07T14:40:59Z</time>
      </trkpt>
      <trkpt lat="49.2342" lon="1.15282">
        <ele>111.758514</ele>
        <time>2014-08-07T14:41:04Z</time>
      </trkpt>
      <trkpt lat="49.23422" lon="1.15278">
        <ele>111.876724</ele>
        <time>2014-08-07T14:41:09Z</time>
      </trkpt>
      <trkpt lat="49.23426" lon="1.1527">
        <ele>111.876724</ele>
        <time>2014-08-07T14:41:14Z</time>
      </trkpt>
      <trkpt lat="49.2343" lon="1.15263">
        <ele>111.924324</ele>
        <time>2014-08-07T14:41:19Z</time>
      </trkpt>
      <trkpt lat="49.23432" lon="1.15257">
        <ele>111.924324</ele>
        <time>2014-08-07T14:41:24Z</time>
      </trkpt>
      <trkpt lat="49.23435" lon="1.1525">
        <ele>111.865166</ele>
        <time>2014-08-07T14:41:29Z</time>
      </trkpt>
      <trkpt lat="49.23439" lon="1.15242">
        <ele>111.865166</ele>
        <time>2014-08-07T14:41:34Z</time>
      </trkpt>
      <trkpt lat="49.23442" lon="1.15237">
        <ele>111.651596</ele>
        <time>2014-08-07T14:41:39Z</time>
      </trkpt>
      <trkpt lat="49.23446" lon="1.15229">
        <ele>111.651596</ele>
        <time>2014-08-07T14:41:44Z</time>
      </trkpt>
      <trkpt lat="49.23449" lon="1.15224">
        <ele>111.29748</ele>
        <time>2014-08-07T14:41:49Z</time>
      </trkpt>
      <trkpt lat="49.23454" lon="1.15217">
        <ele>111.29748</ele>
        <time>2014-08-07T14:41:54Z</time>
      </trkpt>
      <trkpt lat="49.23457" lon="1.1521">
        <ele>110.96008</ele>
        <time>2014-08-07T14:41:59Z</time>
      </trkpt>
      <trkpt lat="49.23459" lon="1.15202">
        <ele>110.96008</ele>
        <time>2014-08-07T14:42:04Z</time>
      </trkpt>
      <trkpt lat="49.23463" lon="1.15194">
        <ele>110.64091</ele>
        <time>2014-08-07T14:42:09Z</time>
      </trkpt>
      <trkpt lat="49.23466" lon="1.15187">
        <ele>110.64091</ele>
        <time>2014-08-07T14:42:14Z</time>
      </trkpt>
      <trkpt lat="49.23471" lon="1.1518">
        <ele>110.32681</ele>
        <time>2014-08-07T14:42:19Z</time>
      </trkpt>
      <trkpt lat="49.23475" lon="1.15171">
        <ele>110.32681</ele>
        <time>2014-08-07T14:42:24Z</time>
      </trkpt>
      <trkpt lat="49.23479" lon="1.15163">
        <ele>110.091995</ele>
        <time>2014-08-07T14:42:29Z</time>
      </trkpt>
      <trkpt lat="49.23482" lon="1.15156">
        <ele>110.091995</ele>
        <time>2014-08-07T14:42:34Z</time>
      </trkpt>
      <trkpt lat="49.23485" lon="1.15149">
        <ele>109.78873</ele>
        <time>2014-08-07T14:42:39Z</time>
      </trkpt>
      <trkpt lat="49.23487" lon="1.15141">
        <ele>109.78873</ele>
        <time>2014-08-07T14:42:44Z</time>
      </trkpt>
      <trkpt lat="49.23491" lon="1.15133">
        <ele>109.4532</ele>
        <time>2014-08-07T14:42:49Z</time>
      </trkpt>
      <trkpt lat="49.23494" lon="1.15127">
        <ele>109.4532</ele>
        <time>2014-08-07T14:42:54Z</time>
      </trkpt>
      <trkpt lat="49.23497" lon="1.15119">
        <ele>109.17658</ele>
        <time>2014-08-07T14:42:59Z</time>
      </trkpt>
      <trkpt lat="49.23499" lon="1.15111">
        <ele>109.17658</ele>
        <time>2014-08-07T14:43:04Z</time>
      </trkpt>
      <trkpt lat="49.23501" lon="1.15101">
        <ele>109.08635</ele>
        <time>2014-08-07T14:43:09Z</time>
      </trkpt>
      <trkpt lat="49.23502" lon="1.15094">
        <ele>109.08635</ele>
        <time>2014-08-07T14:43:14Z</time>
      </trkpt>
      <trkpt lat="49.23503" lon="1.15085">
        <ele>109.02619</ele>
        <time>2014-08-07T14:43:19Z</time>
      </trkpt>
      <trkpt lat="49.23502" lon="1.15076">
        <ele>109.02619</ele>
        <time>2014-08-07T14:43:24Z</time>
      </trkpt>
      <trkpt lat="49.23502" lon="1.15067">
        <ele>108.966415</ele>
        <time>2014-08-07T14:43:29Z</time>
      </trkpt>
      <trkpt lat="49.23504" lon="1.15061">
        <ele>108.966415</ele>
        <time>2014-08-07T14:43:34Z</time>
      </trkpt>
      <trkpt lat="49.23506" lon="1.15053">
        <ele>108.9803</ele>
        <time>2014-08-07T14:43:39Z</time>
      </trkpt>
      <trkpt lat="49.23506" lon="1.15045">
        <ele>108.9803</ele>
        <time>2014-08-07T14:43:44Z</time>
      </trkpt>
      <trkpt lat="49.23506" lon="1.15035">
        <ele>109.00576</ele>
        <time>2014-08-07T14:43:49Z</time>
      </trkpt>
      <trkpt lat="49.23506" lon="1.15022">
        <ele>109.00576</ele>
        <time>2014-08-07T14:43:54Z</time>
      </trkpt>
      <trkpt lat="49.23506" lon="1.15005">
        <ele>109.07164</ele>
        <time>2014-08-07T14:43:59Z</time>
      </trkpt>
      <trkpt lat="49.23509" lon="1.14994">
        <ele>109.07164</ele>
        <time>2014-08-07T14:44:04Z</time>
      </trkpt>
      <trkpt lat="49.23511" lon="1.14988">
        <ele>109.24773</ele>
        <time>2014-08-07T14:44:09Z</time>
      </trkpt>
      <trkpt lat="49.23513" lon="1.14983">
        <ele>109.24773</ele>
        <time>2014-08-07T14:44:14Z</time>
      </trkpt>
      <trkpt lat="49.23514" lon="1.14976">
        <ele>109.24773</ele>
        <time>2014-08-07T14:44:19Z</time>
      </trkpt>
      <trkpt lat="49.23515" lon="1.14969">
        <ele>109.410934</ele>
        <time>2014-08-07T14:44:24Z</time>
      </trkpt>
      <trkpt lat="49.23518" lon="1.14963">
        <ele>109.410934</ele>
        <time>2014-08-07T14:44:29Z</time>
      </trkpt>
      <trkpt lat="49.23521" lon="1.14955">
        <ele>109.44721</ele>
        <time>2014-08-07T14:44:34Z</time>
      </trkpt>
      <trkpt lat="49.23525" lon="1.14944">
        <ele>109.44721</ele>
        <time>2014-08-07T14:44:39Z</time>
      </trkpt>
      <trkpt lat="49.23531" lon="1.14938">
        <ele>109.36648</ele>
        <time>2014-08-07T14:44:44Z</time>
      </trkpt>
      <trkpt lat="49.23532" lon="1.14934">
        <ele>109.36648</ele>
        <time>2014-08-07T14:44:49Z</time>
      </trkpt>
      <trkpt lat="49.23535" lon="1.14927">
        <ele>109.36648</ele>
        <time>2014-08-07T14:44:54Z</time>
      </trkpt>
      <trkpt lat="49.23538" lon="1.1492">
        <ele>109.034065</ele>
        <time>2014-08-07T14:44:59Z</time>
      </trkpt>
      <trkpt lat="49.23543" lon="1.14911">
        <ele>109.034065</ele>
        <time>2014-08-07T14:45:04Z</time>
      </trkpt>
      <trkpt lat="49.23548" lon="1.14905">
        <ele>108.714966</ele>
        <time>2014-08-07T14:45:09Z</time>
      </trkpt>
      <trkpt lat="49.23551" lon="1.14898">
        <ele>108.714966</ele>
        <time>2014-08-07T14:45:14Z</time>
      </trkpt>
      <trkpt lat="49.23554" lon="1.1489">
        <ele>108.46726</ele>
        <time>2014-08-07T14:45:19Z</time>
      </trkpt>
      <trkpt lat="49.23556" lon="1.14881">
        <ele>108.46726</ele>
        <time>2014-08-07T14:45:24Z</time>
      </trkpt>
      <trkpt lat="49.2356" lon="1.14871">
        <ele>108.229225</ele>
        <time>2014-08-07T14:45:29Z</time>
      </trkpt>
      <trkpt lat="49.23562" lon="1.14863">
        <ele>108.229225</ele>
        <time>2014-08-07T14:45:34Z</time>
      </trkpt>
      <trkpt lat="49.23564" lon="1.1486">
        <ele>108.229225</ele>
        <time>2014-08-07T14:45:39Z</time>
      </trkpt>
      <trkpt lat="49.23564" lon="1.14858">
        <ele>107.82829</ele>
        <time>2014-08-07T14:45:44Z</time>
      </trkpt>
      <trkpt lat="49.23567" lon="1.14854">
        <ele>107.82829</ele>
        <time>2014-08-07T14:45:49Z</time>
      </trkpt>
      <trkpt lat="49.23569" lon="1.14848">
        <ele>107.82829</ele>
        <time>2014-08-07T14:45:54Z</time>
      </trkpt>
      <trkpt lat="49.23573" lon="1.14839">
        <ele>107.40762</ele>
        <time>2014-08-07T14:45:59Z</time>
      </trkpt>
      <trkpt lat="49.23575" lon="1.14836">
        <ele>107.40762</ele>
        <time>2014-08-07T14:46:04Z</time>
      </trkpt>
      <trkpt lat="49.23574" lon="1.14837">
        <ele>107.40762</ele>
        <time>2014-08-07T14:46:09Z</time>
      </trkpt>
      <trkpt lat="49.23574" lon="1.14837">
        <ele>107.40762</ele>
        <time>2014-08-07T14:46:14Z</time>
      </trkpt>
      <trkpt lat="49.23574" lon="1.14837">
        <ele>107.40762</ele>
        <time>2014-08-07T14:46:19Z</time>
      </trkpt>
      <trkpt lat="49.23574" lon="1.14835">
        <ele>107.40762</ele>
        <time>2014-08-07T14:46:24Z</time>
      </trkpt>
      <trkpt lat="49.23573" lon="1.14834">
        <ele>107.40762</ele>
        <time>2014-08-07T14:46:29Z</time>
      </trkpt>
      <trkpt lat="49.23573" lon="1.14832">
        <ele>107.40762</ele>
        <time>2014-08-07T14:46:34Z</time>
      </trkpt>
      <trkpt lat="49.23573" lon="1.14831">
        <ele>107.40762</ele>
        <time>2014-08-07T14:46:39Z</time>
      </trkpt>
      <trkpt lat="49.23573" lon="1.1483">
        <ele>107.15749</ele>
        <time>2014-08-07T14:46:44Z</time>
      </trkpt>
      <trkpt lat="49.23573" lon="1.1483">
        <ele>107.15749</ele>
        <time>2014-08-07T14:46:49Z</time>
      </trkpt>
      <trkpt lat="49.23573" lon="1.14829">
        <ele>107.15749</ele>
        <time>2014-08-07T14:46:54Z</time>
      </trkpt>
      <trkpt lat="49.23573" lon="1.14829">
        <ele>107.15749</ele>
        <time>2014-08-07T14:46:59Z</time>
      </trkpt>
      <trkpt lat="49.23573" lon="1.1483">
        <ele>107.15749</ele>
        <time>2014-08-07T14:47:04Z</time>
      </trkpt>
      <trkpt lat="49.23573" lon="1.1483">
        <ele>107.15749</ele>
        <time>2014-08-07T14:47:09Z</time>
      </trkpt>
      <trkpt lat="49.23573" lon="1.1483">
        <ele>107.15749</ele>
        <time>2014-08-07T14:47:14Z</time>
      </trkpt>
      <trkpt lat="49.23573" lon="1.14831">
        <ele>107.15749</ele>
        <time>2014-08-07T14:47:29Z</time>
      </trkpt>
      <trkpt lat="49.23572" lon="1.14833">
        <ele>107.15749</ele>
        <time>2014-08-07T14:47:34Z</time>
      </trkpt>
      <trkpt lat="49.23572" lon="1.14834">
        <ele>107.15749</ele>
        <time>2014-08-07T14:47:39Z</time>
      </trkpt>
      <trkpt lat="49.23572" lon="1.14834">
        <ele>107.15749</ele>
        <time>2014-08-07T14:47:44Z</time>
      </trkpt>
      <trkpt lat="49.23573" lon="1.14835">
        <ele>107.15749</ele>
        <time>2014-08-07T14:47:49Z</time>
      </trkpt>
      <trkpt lat="49.23573" lon="1.14835">
        <ele>107.15749</ele>
        <time>2014-08-07T14:47:54Z</time>
      </trkpt>
      <trkpt lat="49.23573" lon="1.14835">
        <ele>107.15749</ele>
        <time>2014-08-07T14:47:59Z</time>
      </trkpt>
      <trkpt lat="49.23573" lon="1.14835">
        <ele>107.15749</ele>
        <time>2014-08-07T14:48:04Z</time>
      </trkpt>
      <trkpt lat="49.23573" lon="1.14833">
        <ele>107.15749</ele>
        <time>2014-08-07T14:48:44Z</time>
      </trkpt>
      <trkpt lat="49.23576" lon="1.14828">
        <ele>107.35456</ele>
        <time>2014-08-07T14:48:49Z</time>
      </trkpt>
      <trkpt lat="49.23576" lon="1.14821">
        <ele>107.35456</ele>
        <time>2014-08-07T14:48:54Z</time>
      </trkpt>
      <trkpt lat="49.23576" lon="1.1482">
        <ele>107.35456</ele>
        <time>2014-08-07T14:48:59Z</time>
      </trkpt>
      <trkpt lat="49.23576" lon="1.1482">
        <ele>107.35456</ele>
        <time>2014-08-07T14:49:04Z</time>
      </trkpt>
      <trkpt lat="49.23576" lon="1.14821">
        <ele>107.35456</ele>
        <time>2014-08-07T14:49:09Z</time>
      </trkpt>
      <trkpt lat="49.23576" lon="1.14824">
        <ele>107.35456</ele>
        <time>2014-08-07T14:49:14Z</time>
      </trkpt>
      <trkpt lat="49.23577" lon="1.14824">
        <ele>107.87916</ele>
        <time>2014-08-07T14:49:19Z</time>
      </trkpt>
      <trkpt lat="49.23579" lon="1.14822">
        <ele>107.87916</ele>
        <time>2014-08-07T14:49:24Z</time>
      </trkpt>
      <trkpt lat="49.23584" lon="1.14816">
        <ele>107.87916</ele>
        <time>2014-08-07T14:49:29Z</time>
      </trkpt>
      <trkpt lat="49.23589" lon="1.14812">
        <ele>108.76356</ele>
        <time>2014-08-07T14:49:34Z</time>
      </trkpt>
      <trkpt lat="49.23595" lon="1.14808">
        <ele>108.76356</ele>
        <time>2014-08-07T14:49:39Z</time>
      </trkpt>
      <trkpt lat="49.23599" lon="1.14805">
        <ele>109.7628</ele>
        <time>2014-08-07T14:49:44Z</time>
      </trkpt>
      <trkpt lat="49.23602" lon="1.14806">
        <ele>109.7628</ele>
        <time>2014-08-07T14:49:49Z</time>
      </trkpt>
      <trkpt lat="49.2361" lon="1.14804">
        <ele>110.83694</ele>
        <time>2014-08-07T14:49:54Z</time>
      </trkpt>
      <trkpt lat="49.23614" lon="1.14804">
        <ele>110.83694</ele>
        <time>2014-08-07T14:49:59Z</time>
      </trkpt>
      <trkpt lat="49.23619" lon="1.14802">
        <ele>111.86222</ele>
        <time>2014-08-07T14:50:04Z</time>
      </trkpt>
      <trkpt lat="49.23622" lon="1.14802">
        <ele>111.86222</ele>
        <time>2014-08-07T14:50:09Z</time>
      </trkpt>
      <trkpt lat="49.23634" lon="1.14798">
        <ele>112.810616</ele>
        <time>2014-08-07T14:50:14Z</time>
      </trkpt>
      <trkpt lat="49.23642" lon="1.14796">
        <ele>112.810616</ele>
        <time>2014-08-07T14:50:19Z</time>
      </trkpt>
      <trkpt lat="49.23648" lon="1.14793">
        <ele>113.699585</ele>
        <time>2014-08-07T14:50:24Z</time>
      </trkpt>
      <trkpt lat="49.23654" lon="1.1479">
        <ele>113.699585</ele>
        <time>2014-08-07T14:50:29Z</time>
      </trkpt>
      <trkpt lat="49.23661" lon="1.14792">
        <ele>114.48784</ele>
        <time>2014-08-07T14:50:34Z</time>
      </trkpt>
      <trkpt lat="49.23664" lon="1.14792">
        <ele>114.48784</ele>
        <time>2014-08-07T14:50:39Z</time>
      </trkpt>
      <trkpt lat="49.23668" lon="1.14792">
        <ele>114.48784</ele>
        <time>2014-08-07T14:50:44Z</time>
      </trkpt>
      <trkpt lat="49.23671" lon="1.14793">
        <ele>115.32476</ele>
        <time>2014-08-07T14:50:49Z</time>
      </trkpt>
      <trkpt lat="49.23678" lon="1.14789">
        <ele>115.32476</ele>
        <time>2014-08-07T14:50:54Z</time>
      </trkpt>
      <trkpt lat="49.23691" lon="1.14789">
        <ele>116.10365</ele>
        <time>2014-08-07T14:50:59Z</time>
      </trkpt>
      <trkpt lat="49.23699" lon="1.14789">
        <ele>116.10365</ele>
        <time>2014-08-07T14:51:04Z</time>
      </trkpt>
      <trkpt lat="49.23705" lon="1.14786">
        <ele>116.927605</ele>
        <time>2014-08-07T14:51:09Z</time>
      </trkpt>
      <trkpt lat="49.23712" lon="1.14782">
        <ele>116.927605</ele>
        <time>2014-08-07T14:51:14Z</time>
      </trkpt>
      <trkpt lat="49.23718" lon="1.1478">
        <ele>117.80557</ele>
        <time>2014-08-07T14:51:19Z</time>
      </trkpt>
      <trkpt lat="49.23724" lon="1.14778">
        <ele>117.80557</ele>
        <time>2014-08-07T14:51:24Z</time>
      </trkpt>
      <trkpt lat="49.23731" lon="1.14774">
        <ele>118.78896</ele>
        <time>2014-08-07T14:51:29Z</time>
      </trkpt>
      <trkpt lat="49.23736" lon="1.14771">
        <ele>118.78896</ele>
        <time>2014-08-07T14:51:34Z</time>
      </trkpt>
      <trkpt lat="49.23743" lon="1.14769">
        <ele>119.75221</ele>
        <time>2014-08-07T14:51:39Z</time>
      </trkpt>
      <trkpt lat="49.2375" lon="1.14765">
        <ele>119.75221</ele>
        <time>2014-08-07T14:51:44Z</time>
      </trkpt>
      <trkpt lat="49.23755" lon="1.14763">
        <ele>120.63673</ele>
        <time>2014-08-07T14:51:49Z</time>
      </trkpt>
      <trkpt lat="49.23759" lon="1.1476">
        <ele>120.63673</ele>
        <time>2014-08-07T14:51:54Z</time>
      </trkpt>
      <trkpt lat="49.23763" lon="1.14759">
        <ele>120.63673</ele>
        <time>2014-08-07T14:51:59Z</time>
      </trkpt>
      <trkpt lat="49.23769" lon="1.14757">
        <ele>121.15792</ele>
        <time>2014-08-07T14:52:04Z</time>
      </trkpt>
      <trkpt lat="49.23773" lon="1.14754">
        <ele>121.15792</ele>
        <time>2014-08-07T14:52:09Z</time>
      </trkpt>
      <trkpt lat="49.23778" lon="1.1475">
        <ele>121.528725</ele>
        <time>2014-08-07T14:52:14Z</time>
      </trkpt>
      <trkpt lat="49.23783" lon="1.14745">
        <ele>121.528725</ele>
        <time>2014-08-07T14:52:19Z</time>
      </trkpt>
      <trkpt lat="49.23789" lon="1.14742">
        <ele>121.74516</ele>
        <time>2014-08-07T14:52:24Z</time>
      </trkpt>
      <trkpt lat="49.23796" lon="1.14742">
        <ele>121.74516</ele>
        <time>2014-08-07T14:52:29Z</time>
      </trkpt>
      <trkpt lat="49.23801" lon="1.14742">
        <ele>121.991356</ele>
        <time>2014-08-07T14:52:34Z</time>
      </trkpt>
      <trkpt lat="49.23806" lon="1.14741">
        <ele>121.991356</ele>
        <time>2014-08-07T14:52:39Z</time>
      </trkpt>
      <trkpt lat="49.23811" lon="1.1474">
        <ele>122.2217</ele>
        <time>2014-08-07T14:52:44Z</time>
      </trkpt>
      <trkpt lat="49.23817" lon="1.14741">
        <ele>122.2217</ele>
        <time>2014-08-07T14:52:49Z</time>
      </trkpt>
      <trkpt lat="49.23819" lon="1.14739">
        <ele>122.2217</ele>
        <time>2014-08-07T14:52:54Z</time>
      </trkpt>
      <trkpt lat="49.23823" lon="1.14736">
        <ele>122.278755</ele>
        <time>2014-08-07T14:52:59Z</time>
      </trkpt>
      <trkpt lat="49.23828" lon="1.14737">
        <ele>122.278755</ele>
        <time>2014-08-07T14:53:04Z</time>
      </trkpt>
      <trkpt lat="49.23837" lon="1.14738">
        <ele>122.40624</ele>
        <time>2014-08-07T14:53:09Z</time>
      </trkpt>
      <trkpt lat="49.23845" lon="1.14738">
        <ele>122.40624</ele>
        <time>2014-08-07T14:53:14Z</time>
      </trkpt>
      <trkpt lat="49.23851" lon="1.14733">
        <ele>122.57044</ele>
        <time>2014-08-07T14:53:19Z</time>
      </trkpt>
      <trkpt lat="49.23856" lon="1.14729">
        <ele>122.57044</ele>
        <time>2014-08-07T14:53:24Z</time>
      </trkpt>
      <trkpt lat="49.23862" lon="1.14727">
        <ele>122.768845</ele>
        <time>2014-08-07T14:53:29Z</time>
      </trkpt>
      <trkpt lat="49.23868" lon="1.14726">
        <ele>122.768845</ele>
        <time>2014-08-07T14:53:34Z</time>
      </trkpt>
      <trkpt lat="49.23873" lon="1.14725">
        <ele>122.95583</ele>
        <time>2014-08-07T14:53:39Z</time>
      </trkpt>
      <trkpt lat="49.23877" lon="1.14723">
        <ele>122.95583</ele>
        <time>2014-08-07T14:53:44Z</time>
      </trkpt>
      <trkpt lat="49.23883" lon="1.1471">
        <ele>123.06037</ele>
        <time>2014-08-07T14:53:49Z</time>
      </trkpt>
      <trkpt lat="49.2389" lon="1.14703">
        <ele>123.06037</ele>
        <time>2014-08-07T14:53:54Z</time>
      </trkpt>
      <trkpt lat="49.23896" lon="1.147">
        <ele>123.1466</ele>
        <time>2014-08-07T14:53:59Z</time>
      </trkpt>
      <trkpt lat="49.23902" lon="1.14705">
        <ele>123.1466</ele>
        <time>2014-08-07T14:54:04Z</time>
      </trkpt>
      <trkpt lat="49.23908" lon="1.14704">
        <ele>123.331665</ele>
        <time>2014-08-07T14:54:09Z</time>
      </trkpt>
      <trkpt lat="49.23914" lon="1.147">
        <ele>123.331665</ele>
        <time>2014-08-07T14:54:14Z</time>
      </trkpt>
      <trkpt lat="49.23917" lon="1.14697">
        <ele>123.5509</ele>
        <time>2014-08-07T14:54:19Z</time>
      </trkpt>
      <trkpt lat="49.2392" lon="1.14694">
        <ele>123.5509</ele>
        <time>2014-08-07T14:54:24Z</time>
      </trkpt>
      <trkpt lat="49.23927" lon="1.14694">
        <ele>123.65787</ele>
        <time>2014-08-07T14:54:29Z</time>
      </trkpt>
      <trkpt lat="49.23934" lon="1.14683">
        <ele>123.64689</ele>
        <time>2014-08-07T14:54:34Z</time>
      </trkpt>
      <trkpt lat="49.23938" lon="1.14677">
        <ele>123.64689</ele>
        <time>2014-08-07T14:54:39Z</time>
      </trkpt>
      <trkpt lat="49.23942" lon="1.14673">
        <ele>123.54188</ele>
        <time>2014-08-07T14:54:44Z</time>
      </trkpt>
      <trkpt lat="49.23948" lon="1.14662">
        <ele>123.54188</ele>
        <time>2014-08-07T14:54:49Z</time>
      </trkpt>
      <trkpt lat="49.23951" lon="1.14656">
        <ele>123.422905</ele>
        <time>2014-08-07T14:54:54Z</time>
      </trkpt>
      <trkpt lat="49.23954" lon="1.14651">
        <ele>123.422905</ele>
        <time>2014-08-07T14:54:59Z</time>
      </trkpt>
      <trkpt lat="49.23959" lon="1.14647">
        <ele>123.33538</ele>
        <time>2014-08-07T14:55:04Z</time>
      </trkpt>
      <trkpt lat="49.23964" lon="1.14643">
        <ele>123.33538</ele>
        <time>2014-08-07T14:55:09Z</time>
      </trkpt>
      <trkpt lat="49.2397" lon="1.14638">
        <ele>123.32129</ele>
        <time>2014-08-07T14:55:14Z</time>
      </trkpt>
      <trkpt lat="49.23977" lon="1.14636">
        <ele>123.32129</ele>
        <time>2014-08-07T14:55:19Z</time>
      </trkpt>
      <trkpt lat="49.23981" lon="1.14634">
        <ele>123.404915</ele>
        <time>2014-08-07T14:55:24Z</time>
      </trkpt>
      <trkpt lat="49.23986" lon="1.1463">
        <ele>123.404915</ele>
        <time>2014-08-07T14:55:29Z</time>
      </trkpt>
      <trkpt lat="49.23992" lon="1.14626">
        <ele>123.666115</ele>
        <time>2014-08-07T14:55:34Z</time>
      </trkpt>
      <trkpt lat="49.23999" lon="1.14624">
        <ele>123.666115</ele>
        <time>2014-08-07T14:55:39Z</time>
      </trkpt>
      <trkpt lat="49.24004" lon="1.14621">
        <ele>123.991035</ele>
        <time>2014-08-07T14:55:44Z</time>
      </trkpt>
      <trkpt lat="49.24008" lon="1.1462">
        <ele>123.991035</ele>
        <time>2014-08-07T14:55:49Z</time>
      </trkpt>
      <trkpt lat="49.24014" lon="1.14619">
        <ele>124.389305</ele>
        <time>2014-08-07T14:55:54Z</time>
      </trkpt>
      <trkpt lat="49.24022" lon="1.1462">
        <ele>124.389305</ele>
        <time>2014-08-07T14:55:59Z</time>
      </trkpt>
      <trkpt lat="49.2403" lon="1.14619">
        <ele>124.855194</ele>
        <time>2014-08-07T14:56:04Z</time>
      </trkpt>
      <trkpt lat="49.24035" lon="1.14618">
        <ele>124.855194</ele>
        <time>2014-08-07T14:56:09Z</time>
      </trkpt>
      <trkpt lat="49.24037" lon="1.14617">
        <ele>124.855194</ele>
        <time>2014-08-07T14:56:14Z</time>
      </trkpt>
      <trkpt lat="49.24044" lon="1.14617">
        <ele>125.38322</ele>
        <time>2014-08-07T14:56:19Z</time>
      </trkpt>
      <trkpt lat="49.24052" lon="1.14615">
        <ele>125.38322</ele>
        <time>2014-08-07T14:56:24Z</time>
      </trkpt>
      <trkpt lat="49.2406" lon="1.14611">
        <ele>126.069</ele>
        <time>2014-08-07T14:56:29Z</time>
      </trkpt>
      <trkpt lat="49.24064" lon="1.14609">
        <ele>126.069</ele>
        <time>2014-08-07T14:56:34Z</time>
      </trkpt>
      <trkpt lat="49.24067" lon="1.1461">
        <ele>126.069</ele>
        <time>2014-08-07T14:56:39Z</time>
      </trkpt>
      <trkpt lat="49.24076" lon="1.14615">
        <ele>127.04392</ele>
        <time>2014-08-07T14:56:44Z</time>
      </trkpt>
      <trkpt lat="49.24082" lon="1.14616">
        <ele>127.04392</ele>
        <time>2014-08-07T14:56:49Z</time>
      </trkpt>
      <trkpt lat="49.24091" lon="1.14616">
        <ele>127.938934</ele>
        <time>2014-08-07T14:56:54Z</time>
      </trkpt>
      <trkpt lat="49.24099" lon="1.14616">
        <ele>127.938934</ele>
        <time>2014-08-07T14:56:59Z</time>
      </trkpt>
      <trkpt lat="49.24104" lon="1.14617">
        <ele>128.74377</ele>
        <time>2014-08-07T14:57:04Z</time>
      </trkpt>
      <trkpt lat="49.24109" lon="1.1462">
        <ele>128.74377</ele>
        <time>2014-08-07T14:57:09Z</time>
      </trkpt>
      <trkpt lat="49.24112" lon="1.14622">
        <ele>128.74377</ele>
        <time>2014-08-07T14:57:14Z</time>
      </trkpt>
      <trkpt lat="49.24115" lon="1.14625">
        <ele>129.66539</ele>
        <time>2014-08-07T14:57:19Z</time>
      </trkpt>
      <trkpt lat="49.2412" lon="1.14627">
        <ele>129.66539</ele>
        <time>2014-08-07T14:57:24Z</time>
      </trkpt>
      <trkpt lat="49.24127" lon="1.14629">
        <ele>130.6358</ele>
        <time>2014-08-07T14:57:29Z</time>
      </trkpt>
      <trkpt lat="49.24137" lon="1.14627">
        <ele>131.51984</ele>
        <time>2014-08-07T14:57:34Z</time>
      </trkpt>
      <trkpt lat="49.24145" lon="1.14625">
        <ele>131.51984</ele>
        <time>2014-08-07T14:57:39Z</time>
      </trkpt>
      <trkpt lat="49.24152" lon="1.14622">
        <ele>132.23578</ele>
        <time>2014-08-07T14:57:44Z</time>
      </trkpt>
      <trkpt lat="49.24156" lon="1.14622">
        <ele>132.23578</ele>
        <time>2014-08-07T14:57:49Z</time>
      </trkpt>
      <trkpt lat="49.24164" lon="1.1462">
        <ele>132.76604</ele>
        <time>2014-08-07T14:57:54Z</time>
      </trkpt>
      <trkpt lat="49.2417" lon="1.1462">
        <ele>132.76604</ele>
        <time>2014-08-07T14:57:59Z</time>
      </trkpt>
      <trkpt lat="49.24176" lon="1.14618">
        <ele>133.2678</ele>
        <time>2014-08-07T14:58:04Z</time>
      </trkpt>
      <trkpt lat="49.24179" lon="1.14615">
        <ele>133.2678</ele>
        <time>2014-08-07T14:58:09Z</time>
      </trkpt>
      <trkpt lat="49.2418" lon="1.14614">
        <ele>133.2678</ele>
        <time>2014-08-07T14:58:14Z</time>
      </trkpt>
      <trkpt lat="49.2418" lon="1.14615">
        <ele>133.2678</ele>
        <time>2014-08-07T14:58:19Z</time>
      </trkpt>
      <trkpt lat="49.24177" lon="1.14614">
        <ele>133.2678</ele>
        <time>2014-08-07T14:58:24Z</time>
      </trkpt>
      <trkpt lat="49.24176" lon="1.14617">
        <ele>133.59862</ele>
        <time>2014-08-07T14:58:29Z</time>
      </trkpt>
      <trkpt lat="49.24177" lon="1.14616">
        <ele>133.59862</ele>
        <time>2014-08-07T14:58:34Z</time>
      </trkpt>
      <trkpt lat="49.24177" lon="1.14616">
        <ele>133.59862</ele>
        <time>2014-08-07T14:58:39Z</time>
      </trkpt>
      <trkpt lat="49.24178" lon="1.14616">
        <ele>133.59862</ele>
        <time>2014-08-07T14:58:44Z</time>
      </trkpt>
      <trkpt lat="49.24179" lon="1.14616">
        <ele>133.59862</ele>
        <time>2014-08-07T14:58:49Z</time>
      </trkpt>
      <trkpt lat="49.2418" lon="1.14616">
        <ele>133.59862</ele>
        <time>2014-08-07T14:58:54Z</time>
      </trkpt>
      <trkpt lat="49.2418" lon="1.14615">
        <ele>133.59862</ele>
        <time>2014-08-07T14:58:59Z</time>
      </trkpt>
      <trkpt lat="49.24181" lon="1.14615">
        <ele>133.59862</ele>
        <time>2014-08-07T14:59:04Z</time>
      </trkpt>
      <trkpt lat="49.24181" lon="1.14614">
        <ele>133.59862</ele>
        <time>2014-08-07T14:59:09Z</time>
      </trkpt>
      <trkpt lat="49.24181" lon="1.14614">
        <ele>133.59862</ele>
        <time>2014-08-07T14:59:14Z</time>
      </trkpt>
      <trkpt lat="49.24183" lon="1.14612">
        <ele>133.59862</ele>
        <time>2014-08-07T15:00:09Z</time>
      </trkpt>
      <trkpt lat="49.24192" lon="1.14606">
        <ele>133.49727</ele>
        <time>2014-08-07T15:00:14Z</time>
      </trkpt>
      <trkpt lat="49.24194" lon="1.14604">
        <ele>133.49727</ele>
        <time>2014-08-07T15:00:19Z</time>
      </trkpt>
      <trkpt lat="49.24193" lon="1.146">
        <ele>133.49727</ele>
        <time>2014-08-07T15:00:24Z</time>
      </trkpt>
      <trkpt lat="49.24194" lon="1.14593">
        <ele>133.16974</ele>
        <time>2014-08-07T15:00:29Z</time>
      </trkpt>
      <trkpt lat="49.24195" lon="1.14585">
        <ele>133.16974</ele>
        <time>2014-08-07T15:00:34Z</time>
      </trkpt>
      <trkpt lat="49.24196" lon="1.14579">
        <ele>132.56252</ele>
        <time>2014-08-07T15:00:39Z</time>
      </trkpt>
      <trkpt lat="49.24197" lon="1.14577">
        <ele>132.56252</ele>
        <time>2014-08-07T15:00:44Z</time>
      </trkpt>
      <trkpt lat="49.24199" lon="1.14565">
        <ele>131.8574</ele>
        <time>2014-08-07T15:00:49Z</time>
      </trkpt>
      <trkpt lat="49.24204" lon="1.14549">
        <ele>131.12225</ele>
        <time>2014-08-07T15:00:54Z</time>
      </trkpt>
      <trkpt lat="49.24205" lon="1.14539">
        <ele>131.12225</ele>
        <time>2014-08-07T15:00:59Z</time>
      </trkpt>
      <trkpt lat="49.24208" lon="1.14529">
        <ele>130.39119</ele>
        <time>2014-08-07T15:01:04Z</time>
      </trkpt>
      <trkpt lat="49.24211" lon="1.14519">
        <ele>130.39119</ele>
        <time>2014-08-07T15:01:09Z</time>
      </trkpt>
      <trkpt lat="49.24212" lon="1.14511">
        <ele>129.76785</ele>
        <time>2014-08-07T15:01:14Z</time>
      </trkpt>
      <trkpt lat="49.24214" lon="1.14503">
        <ele>129.76785</ele>
        <time>2014-08-07T15:01:19Z</time>
      </trkpt>
      <trkpt lat="49.24216" lon="1.14493">
        <ele>129.17502</ele>
        <time>2014-08-07T15:01:24Z</time>
      </trkpt>
      <trkpt lat="49.24217" lon="1.14485">
        <ele>129.17502</ele>
        <time>2014-08-07T15:01:29Z</time>
      </trkpt>
      <trkpt lat="49.24218" lon="1.14475">
        <ele>128.61307</ele>
        <time>2014-08-07T15:01:34Z</time>
      </trkpt>
      <trkpt lat="49.24219" lon="1.14468">
        <ele>128.61307</ele>
        <time>2014-08-07T15:01:39Z</time>
      </trkpt>
      <trkpt lat="49.24222" lon="1.14458">
        <ele>128.06783</ele>
        <time>2014-08-07T15:01:44Z</time>
      </trkpt>
      <trkpt lat="49.24226" lon="1.1445">
        <ele>128.06783</ele>
        <time>2014-08-07T15:01:49Z</time>
      </trkpt>
      <trkpt lat="49.24228" lon="1.1444">
        <ele>127.684586</ele>
        <time>2014-08-07T15:01:54Z</time>
      </trkpt>
      <trkpt lat="49.24231" lon="1.1443">
        <ele>127.684586</ele>
        <time>2014-08-07T15:01:59Z</time>
      </trkpt>
      <trkpt lat="49.24232" lon="1.14425">
        <ele>127.38133</ele>
        <time>2014-08-07T15:02:04Z</time>
      </trkpt>
      <trkpt lat="49.24233" lon="1.14416">
        <ele>127.38133</ele>
        <time>2014-08-07T15:02:09Z</time>
      </trkpt>
      <trkpt lat="49.24235" lon="1.14407">
        <ele>127.11059</ele>
        <time>2014-08-07T15:02:14Z</time>
      </trkpt>
      <trkpt lat="49.24238" lon="1.14397">
        <ele>127.11059</ele>
        <time>2014-08-07T15:02:19Z</time>
      </trkpt>
      <trkpt lat="49.24241" lon="1.14387">
        <ele>126.885895</ele>
        <time>2014-08-07T15:02:24Z</time>
      </trkpt>
      <trkpt lat="49.24243" lon="1.14379">
        <ele>126.885895</ele>
        <time>2014-08-07T15:02:29Z</time>
      </trkpt>
      <trkpt lat="49.24243" lon="1.14372">
        <ele>126.79167</ele>
        <time>2014-08-07T15:02:34Z</time>
      </trkpt>
      <trkpt lat="49.24245" lon="1.14364">
        <ele>126.79167</ele>
        <time>2014-08-07T15:02:39Z</time>
      </trkpt>
      <trkpt lat="49.24245" lon="1.14355">
        <ele>126.74719</ele>
        <time>2014-08-07T15:02:44Z</time>
      </trkpt>
      <trkpt lat="49.24246" lon="1.14348">
        <ele>126.74719</ele>
        <time>2014-08-07T15:02:49Z</time>
      </trkpt>
      <trkpt lat="49.24247" lon="1.14337">
        <ele>126.64865</ele>
        <time>2014-08-07T15:02:54Z</time>
      </trkpt>
      <trkpt lat="49.24248" lon="1.14326">
        <ele>126.64865</ele>
        <time>2014-08-07T15:02:59Z</time>
      </trkpt>
      <trkpt lat="49.2425" lon="1.14318">
        <ele>126.45763</ele>
        <time>2014-08-07T15:03:04Z</time>
      </trkpt>
      <trkpt lat="49.24252" lon="1.14311">
        <ele>126.45763</ele>
        <time>2014-08-07T15:03:09Z</time>
      </trkpt>
      <trkpt lat="49.24255" lon="1.1431">
        <ele>126.45763</ele>
        <time>2014-08-07T15:03:14Z</time>
      </trkpt>
      <trkpt lat="49.2426" lon="1.14301">
        <ele>126.2396</ele>
        <time>2014-08-07T15:03:19Z</time>
      </trkpt>
      <trkpt lat="49.24258" lon="1.14293">
        <ele>126.2396</ele>
        <time>2014-08-07T15:03:24Z</time>
      </trkpt>
      <trkpt lat="49.24258" lon="1.14283">
        <ele>125.88235</ele>
        <time>2014-08-07T15:03:29Z</time>
      </trkpt>
      <trkpt lat="49.24261" lon="1.14271">
        <ele>125.88235</ele>
        <time>2014-08-07T15:03:34Z</time>
      </trkpt>
      <trkpt lat="49.24262" lon="1.14261">
        <ele>125.253395</ele>
        <time>2014-08-07T15:03:39Z</time>
      </trkpt>
      <trkpt lat="49.24265" lon="1.14259">
        <ele>125.253395</ele>
        <time>2014-08-07T15:03:44Z</time>
      </trkpt>
      <trkpt lat="49.24268" lon="1.1425">
        <ele>124.432495</ele>
        <time>2014-08-07T15:03:49Z</time>
      </trkpt>
      <trkpt lat="49.24268" lon="1.1424">
        <ele>124.432495</ele>
        <time>2014-08-07T15:03:54Z</time>
      </trkpt>
      <trkpt lat="49.24268" lon="1.14225">
        <ele>123.55165</ele>
        <time>2014-08-07T15:03:59Z</time>
      </trkpt>
      <trkpt lat="49.24269" lon="1.14214">
        <ele>123.55165</ele>
        <time>2014-08-07T15:04:04Z</time>
      </trkpt>
      <trkpt lat="49.2427" lon="1.14204">
        <ele>122.73329</ele>
        <time>2014-08-07T15:04:09Z</time>
      </trkpt>
      <trkpt lat="49.24273" lon="1.14194">
        <ele>122.73329</ele>
        <time>2014-08-07T15:04:14Z</time>
      </trkpt>
      <trkpt lat="49.24274" lon="1.14184">
        <ele>121.989746</ele>
        <time>2014-08-07T15:04:19Z</time>
      </trkpt>
      <trkpt lat="49.24275" lon="1.14174">
        <ele>121.989746</ele>
        <time>2014-08-07T15:04:24Z</time>
      </trkpt>
      <trkpt lat="49.24277" lon="1.14167">
        <ele>121.303345</ele>
        <time>2014-08-07T15:04:29Z</time>
      </trkpt>
      <trkpt lat="49.24282" lon="1.14158">
        <ele>121.303345</ele>
        <time>2014-08-07T15:04:34Z</time>
      </trkpt>
      <trkpt lat="49.24283" lon="1.1415">
        <ele>120.71513</ele>
        <time>2014-08-07T15:04:39Z</time>
      </trkpt>
      <trkpt lat="49.24285" lon="1.1414">
        <ele>120.71513</ele>
        <time>2014-08-07T15:04:44Z</time>
      </trkpt>
      <trkpt lat="49.24287" lon="1.14132">
        <ele>120.26281</ele>
        <time>2014-08-07T15:04:49Z</time>
      </trkpt>
      <trkpt lat="49.24289" lon="1.14122">
        <ele>120.26281</ele>
        <time>2014-08-07T15:04:54Z</time>
      </trkpt>
      <trkpt lat="49.24291" lon="1.14112">
        <ele>119.83674</ele>
        <time>2014-08-07T15:04:59Z</time>
      </trkpt>
      <trkpt lat="49.24293" lon="1.14102">
        <ele>119.83674</ele>
        <time>2014-08-07T15:05:04Z</time>
      </trkpt>
      <trkpt lat="49.24295" lon="1.14094">
        <ele>119.42168</ele>
        <time>2014-08-07T15:05:09Z</time>
      </trkpt>
      <trkpt lat="49.24297" lon="1.14084">
        <ele>119.42168</ele>
        <time>2014-08-07T15:05:14Z</time>
      </trkpt>
      <trkpt lat="49.24298" lon="1.14077">
        <ele>119.0034</ele>
        <time>2014-08-07T15:05:19Z</time>
      </trkpt>
      <trkpt lat="49.24298" lon="1.14068">
        <ele>119.0034</ele>
        <time>2014-08-07T15:05:24Z</time>
      </trkpt>
      <trkpt lat="49.24299" lon="1.14056">
        <ele>118.568695</ele>
        <time>2014-08-07T15:05:29Z</time>
      </trkpt>
      <trkpt lat="49.243" lon="1.14047">
        <ele>118.568695</ele>
        <time>2014-08-07T15:05:34Z</time>
      </trkpt>
      <trkpt lat="49.243" lon="1.1404">
        <ele>118.14851</ele>
        <time>2014-08-07T15:05:39Z</time>
      </trkpt>
      <trkpt lat="49.24304" lon="1.14028">
        <ele>118.14851</ele>
        <time>2014-08-07T15:05:44Z</time>
      </trkpt>
      <trkpt lat="49.24304" lon="1.14016">
        <ele>117.88675</ele>
        <time>2014-08-07T15:05:49Z</time>
      </trkpt>
      <trkpt lat="49.24305" lon="1.1401">
        <ele>117.88675</ele>
        <time>2014-08-07T15:05:54Z</time>
      </trkpt>
      <trkpt lat="49.24309" lon="1.14001">
        <ele>117.656815</ele>
        <time>2014-08-07T15:05:59Z</time>
      </trkpt>
      <trkpt lat="49.24311" lon="1.13994">
        <ele>117.656815</ele>
        <time>2014-08-07T15:06:04Z</time>
      </trkpt>
      <trkpt lat="49.24315" lon="1.13983">
        <ele>117.312454</ele>
        <time>2014-08-07T15:06:09Z</time>
      </trkpt>
      <trkpt lat="49.24315" lon="1.13976">
        <ele>117.312454</ele>
        <time>2014-08-07T15:06:14Z</time>
      </trkpt>
      <trkpt lat="49.24316" lon="1.13968">
        <ele>116.89138</ele>
        <time>2014-08-07T15:06:19Z</time>
      </trkpt>
      <trkpt lat="49.24318" lon="1.13958">
        <ele>116.89138</ele>
        <time>2014-08-07T15:06:24Z</time>
      </trkpt>
      <trkpt lat="49.24321" lon="1.1395">
        <ele>116.42869</ele>
        <time>2014-08-07T15:06:29Z</time>
      </trkpt>
      <trkpt lat="49.24322" lon="1.1394">
        <ele>116.42869</ele>
        <time>2014-08-07T15:06:34Z</time>
      </trkpt>
      <trkpt lat="49.24324" lon="1.13929">
        <ele>116.101074</ele>
        <time>2014-08-07T15:06:39Z</time>
      </trkpt>
      <trkpt lat="49.24327" lon="1.13917">
        <ele>116.101074</ele>
        <time>2014-08-07T15:06:44Z</time>
      </trkpt>
      <trkpt lat="49.2433" lon="1.13908">
        <ele>115.999794</ele>
        <time>2014-08-07T15:06:49Z</time>
      </trkpt>
      <trkpt lat="49.24332" lon="1.13902">
        <ele>115.999794</ele>
        <time>2014-08-07T15:06:54Z</time>
      </trkpt>
      <trkpt lat="49.24332" lon="1.13887">
        <ele>116.17989</ele>
        <time>2014-08-07T15:06:59Z</time>
      </trkpt>
      <trkpt lat="49.24334" lon="1.13881">
        <ele>116.17989</ele>
        <time>2014-08-07T15:07:04Z</time>
      </trkpt>
      <trkpt lat="49.24335" lon="1.13876">
        <ele>116.17989</ele>
        <time>2014-08-07T15:07:09Z</time>
      </trkpt>
      <trkpt lat="49.24338" lon="1.13867">
        <ele>116.504196</ele>
        <time>2014-08-07T15:07:14Z</time>
      </trkpt>
      <trkpt lat="49.24337" lon="1.13862">
        <ele>116.504196</ele>
        <time>2014-08-07T15:07:19Z</time>
      </trkpt>
      <trkpt lat="49.24338" lon="1.13852">
        <ele>116.57138</ele>
        <time>2014-08-07T15:07:24Z</time>
      </trkpt>
      <trkpt lat="49.24339" lon="1.13842">
        <ele>116.57138</ele>
        <time>2014-08-07T15:07:29Z</time>
      </trkpt>
      <trkpt lat="49.2434" lon="1.13836">
        <ele>116.485855</ele>
        <time>2014-08-07T15:07:34Z</time>
      </trkpt>
      <trkpt lat="49.24344" lon="1.13824">
        <ele>116.485855</ele>
        <time>2014-08-07T15:07:39Z</time>
      </trkpt>
      <trkpt lat="49.24346" lon="1.13817">
        <ele>116.388</ele>
        <time>2014-08-07T15:07:44Z</time>
      </trkpt>
      <trkpt lat="49.24349" lon="1.13809">
        <ele>116.388</ele>
        <time>2014-08-07T15:07:49Z</time>
      </trkpt>
      <trkpt lat="49.24349" lon="1.13796">
        <ele>116.30703</ele>
        <time>2014-08-07T15:07:54Z</time>
      </trkpt>
      <trkpt lat="49.24351" lon="1.13789">
        <ele>116.30703</ele>
        <time>2014-08-07T15:07:59Z</time>
      </trkpt>
      <trkpt lat="49.24353" lon="1.13784">
        <ele>116.30703</ele>
        <time>2014-08-07T15:08:04Z</time>
      </trkpt>
      <trkpt lat="49.24353" lon="1.13777">
        <ele>116.11142</ele>
        <time>2014-08-07T15:08:09Z</time>
      </trkpt>
      <trkpt lat="49.24353" lon="1.1377">
        <ele>116.11142</ele>
        <time>2014-08-07T15:08:14Z</time>
      </trkpt>
      <trkpt lat="49.24356" lon="1.13762">
        <ele>115.7661</ele>
        <time>2014-08-07T15:08:19Z</time>
      </trkpt>
      <trkpt lat="49.24357" lon="1.1375">
        <ele>115.7661</ele>
        <time>2014-08-07T15:08:24Z</time>
      </trkpt>
      <trkpt lat="49.24359" lon="1.13737">
        <ele>115.44073</ele>
        <time>2014-08-07T15:08:29Z</time>
      </trkpt>
      <trkpt lat="49.2436" lon="1.13726">
        <ele>115.44073</ele>
        <time>2014-08-07T15:08:34Z</time>
      </trkpt>
      <trkpt lat="49.24363" lon="1.1372">
        <ele>115.205986</ele>
        <time>2014-08-07T15:08:39Z</time>
      </trkpt>
      <trkpt lat="49.24366" lon="1.1371">
        <ele>115.205986</ele>
        <time>2014-08-07T15:08:44Z</time>
      </trkpt>
      <trkpt lat="49.24367" lon="1.13706">
        <ele>114.93974</ele>
        <time>2014-08-07T15:08:49Z</time>
      </trkpt>
      <trkpt lat="49.24369" lon="1.13696">
        <ele>114.93974</ele>
        <time>2014-08-07T15:08:54Z</time>
      </trkpt>
      <trkpt lat="49.24371" lon="1.13686">
        <ele>114.58656</ele>
        <time>2014-08-07T15:08:59Z</time>
      </trkpt>
      <trkpt lat="49.24372" lon="1.13679">
        <ele>114.58656</ele>
        <time>2014-08-07T15:09:04Z</time>
      </trkpt>
      <trkpt lat="49.24373" lon="1.13672">
        <ele>114.36914</ele>
        <time>2014-08-07T15:09:09Z</time>
      </trkpt>
      <trkpt lat="49.24376" lon="1.1366">
        <ele>114.36914</ele>
        <time>2014-08-07T15:09:14Z</time>
      </trkpt>
      <trkpt lat="49.24378" lon="1.13653">
        <ele>114.190796</ele>
        <time>2014-08-07T15:09:19Z</time>
      </trkpt>
      <trkpt lat="49.24378" lon="1.13647">
        <ele>114.190796</ele>
        <time>2014-08-07T15:09:24Z</time>
      </trkpt>
      <trkpt lat="49.24379" lon="1.13643">
        <ele>114.190796</ele>
        <time>2014-08-07T15:09:29Z</time>
      </trkpt>
      <trkpt lat="49.24379" lon="1.13636">
        <ele>113.90418</ele>
        <time>2014-08-07T15:09:34Z</time>
      </trkpt>
      <trkpt lat="49.24378" lon="1.13629">
        <ele>113.90418</ele>
        <time>2014-08-07T15:09:39Z</time>
      </trkpt>
      <trkpt lat="49.24378" lon="1.13628">
        <ele>113.90418</ele>
        <time>2014-08-07T15:09:44Z</time>
      </trkpt>
      <trkpt lat="49.24377" lon="1.1363">
        <ele>113.90418</ele>
        <time>2014-08-07T15:09:49Z</time>
      </trkpt>
      <trkpt lat="49.24378" lon="1.1363">
        <ele>113.90418</ele>
        <time>2014-08-07T15:09:54Z</time>
      </trkpt>
      <trkpt lat="49.24379" lon="1.13631">
        <ele>113.2578</ele>
        <time>2014-08-07T15:09:59Z</time>
      </trkpt>
      <trkpt lat="49.2438" lon="1.13631">
        <ele>113.2578</ele>
        <time>2014-08-07T15:10:04Z</time>
      </trkpt>
      <trkpt lat="49.24383" lon="1.13635">
        <ele>113.2578</ele>
        <time>2014-08-07T15:10:09Z</time>
      </trkpt>
      <trkpt lat="49.24382" lon="1.13637">
        <ele>113.2578</ele>
        <time>2014-08-07T15:10:14Z</time>
      </trkpt>
      <trkpt lat="49.24381" lon="1.13638">
        <ele>113.2578</ele>
        <time>2014-08-07T15:10:19Z</time>
      </trkpt>
      <trkpt lat="49.24382" lon="1.13638">
        <ele>113.2578</ele>
        <time>2014-08-07T15:10:24Z</time>
      </trkpt>
      <trkpt lat="49.24384" lon="1.13642">
        <ele>111.91872</ele>
        <time>2014-08-07T15:10:29Z</time>
      </trkpt>
      <trkpt lat="49.24386" lon="1.13647">
        <ele>111.91872</ele>
        <time>2014-08-07T15:10:34Z</time>
      </trkpt>
      <trkpt lat="49.24389" lon="1.1365">
        <ele>111.91872</ele>
        <time>2014-08-07T15:10:39Z</time>
      </trkpt>
      <trkpt lat="49.2439" lon="1.1365">
        <ele>111.91872</ele>
        <time>2014-08-07T15:10:44Z</time>
      </trkpt>
      <trkpt lat="49.24397" lon="1.13654">
        <ele>110.300995</ele>
        <time>2014-08-07T15:10:49Z</time>
      </trkpt>
      <trkpt lat="49.24403" lon="1.13657">
        <ele>110.300995</ele>
        <time>2014-08-07T15:10:54Z</time>
      </trkpt>
      <trkpt lat="49.24406" lon="1.13659">
        <ele>108.87549</ele>
        <time>2014-08-07T15:10:59Z</time>
      </trkpt>
      <trkpt lat="49.24415" lon="1.13658">
        <ele>107.6888</ele>
        <time>2014-08-07T15:11:04Z</time>
      </trkpt>
      <trkpt lat="49.24423" lon="1.13661">
        <ele>107.6888</ele>
        <time>2014-08-07T15:11:09Z</time>
      </trkpt>
      <trkpt lat="49.24429" lon="1.13662">
        <ele>106.69693</ele>
        <time>2014-08-07T15:11:14Z</time>
      </trkpt>
      <trkpt lat="49.24436" lon="1.13665">
        <ele>106.69693</ele>
        <time>2014-08-07T15:11:19Z</time>
      </trkpt>
      <trkpt lat="49.24443" lon="1.1367">
        <ele>105.74328</ele>
        <time>2014-08-07T15:11:24Z</time>
      </trkpt>
      <trkpt lat="49.24449" lon="1.13674">
        <ele>105.74328</ele>
        <time>2014-08-07T15:11:29Z</time>
      </trkpt>
      <trkpt lat="49.24455" lon="1.13678">
        <ele>104.75463</ele>
        <time>2014-08-07T15:11:34Z</time>
      </trkpt>
      <trkpt lat="49.24457" lon="1.13679">
        <ele>104.75463</ele>
        <time>2014-08-07T15:11:39Z</time>
      </trkpt>
      <trkpt lat="49.24461" lon="1.13682">
        <ele>104.75463</ele>
        <time>2014-08-07T15:11:44Z</time>
      </trkpt>
      <trkpt lat="49.24468" lon="1.13682">
        <ele>103.43264</ele>
        <time>2014-08-07T15:11:49Z</time>
      </trkpt>
      <trkpt lat="49.24473" lon="1.13684">
        <ele>103.43264</ele>
        <time>2014-08-07T15:11:54Z</time>
      </trkpt>
      <trkpt lat="49.24479" lon="1.13687">
        <ele>102.16467</ele>
        <time>2014-08-07T15:11:59Z</time>
      </trkpt>
      <trkpt lat="49.24487" lon="1.13689">
        <ele>102.16467</ele>
        <time>2014-08-07T15:12:04Z</time>
      </trkpt>
      <trkpt lat="49.24494" lon="1.13693">
        <ele>100.93475</ele>
        <time>2014-08-07T15:12:09Z</time>
      </trkpt>
      <trkpt lat="49.24502" lon="1.13697">
        <ele>100.93475</ele>
        <time>2014-08-07T15:12:14Z</time>
      </trkpt>
      <trkpt lat="49.24505" lon="1.13698">
        <ele>99.756744</ele>
        <time>2014-08-07T15:12:19Z</time>
      </trkpt>
      <trkpt lat="49.2451" lon="1.13701">
        <ele>99.756744</ele>
        <time>2014-08-07T15:12:24Z</time>
      </trkpt>
      <trkpt lat="49.24516" lon="1.13703">
        <ele>98.68653</ele>
        <time>2014-08-07T15:12:29Z</time>
      </trkpt>
      <trkpt lat="49.24525" lon="1.13705">
        <ele>98.68653</ele>
        <time>2014-08-07T15:12:34Z</time>
      </trkpt>
      <trkpt lat="49.24529" lon="1.1371">
        <ele>97.617</ele>
        <time>2014-08-07T15:12:39Z</time>
      </trkpt>
      <trkpt lat="49.24534" lon="1.13712">
        <ele>97.617</ele>
        <time>2014-08-07T15:12:44Z</time>
      </trkpt>
      <trkpt lat="49.24541" lon="1.13717">
        <ele>96.751495</ele>
        <time>2014-08-07T15:12:49Z</time>
      </trkpt>
      <trkpt lat="49.24547" lon="1.13719">
        <ele>96.751495</ele>
        <time>2014-08-07T15:12:54Z</time>
      </trkpt>
      <trkpt lat="49.24554" lon="1.13723">
        <ele>96.40749</ele>
        <time>2014-08-07T15:12:59Z</time>
      </trkpt>
      <trkpt lat="49.24561" lon="1.13727">
        <ele>96.40749</ele>
        <time>2014-08-07T15:13:04Z</time>
      </trkpt>
      <trkpt lat="49.2457" lon="1.13732">
        <ele>96.31559</ele>
        <time>2014-08-07T15:13:09Z</time>
      </trkpt>
      <trkpt lat="49.24576" lon="1.13735">
        <ele>96.31559</ele>
        <time>2014-08-07T15:13:14Z</time>
      </trkpt>
      <trkpt lat="49.2458" lon="1.13738">
        <ele>96.09572</ele>
        <time>2014-08-07T15:13:19Z</time>
      </trkpt>
      <trkpt lat="49.24587" lon="1.13739">
        <ele>96.09572</ele>
        <time>2014-08-07T15:13:24Z</time>
      </trkpt>
      <trkpt lat="49.2459" lon="1.1374">
        <ele>95.68428</ele>
        <time>2014-08-07T15:13:29Z</time>
      </trkpt>
      <trkpt lat="49.24594" lon="1.13742">
        <ele>95.68428</ele>
        <time>2014-08-07T15:13:34Z</time>
      </trkpt>
      <trkpt lat="49.24598" lon="1.13746">
        <ele>95.10931</ele>
        <time>2014-08-07T15:13:39Z</time>
      </trkpt>
      <trkpt lat="49.24604" lon="1.13748">
        <ele>95.10931</ele>
        <time>2014-08-07T15:13:44Z</time>
      </trkpt>
      <trkpt lat="49.24612" lon="1.13751">
        <ele>94.23866</ele>
        <time>2014-08-07T15:13:49Z</time>
      </trkpt>
      <trkpt lat="49.24619" lon="1.13751">
        <ele>94.23866</ele>
        <time>2014-08-07T15:13:54Z</time>
      </trkpt>
      <trkpt lat="49.24625" lon="1.13753">
        <ele>93.23895</ele>
        <time>2014-08-07T15:13:59Z</time>
      </trkpt>
      <trkpt lat="49.2463" lon="1.13756">
        <ele>93.23895</ele>
        <time>2014-08-07T15:14:04Z</time>
      </trkpt>
      <trkpt lat="49.24637" lon="1.13758">
        <ele>92.19282</ele>
        <time>2014-08-07T15:14:09Z</time>
      </trkpt>
      <trkpt lat="49.24645" lon="1.13761">
        <ele>92.19282</ele>
        <time>2014-08-07T15:14:14Z</time>
      </trkpt>
      <trkpt lat="49.2465" lon="1.13763">
        <ele>91.22015</ele>
        <time>2014-08-07T15:14:19Z</time>
      </trkpt>
      <trkpt lat="49.24656" lon="1.13764">
        <ele>91.22015</ele>
        <time>2014-08-07T15:14:24Z</time>
      </trkpt>
      <trkpt lat="49.24662" lon="1.13764">
        <ele>90.21565</ele>
        <time>2014-08-07T15:14:29Z</time>
      </trkpt>
      <trkpt lat="49.24668" lon="1.13766">
        <ele>90.21565</ele>
        <time>2014-08-07T15:14:34Z</time>
      </trkpt>
      <trkpt lat="49.24673" lon="1.13768">
        <ele>88.93768</ele>
        <time>2014-08-07T15:14:39Z</time>
      </trkpt>
      <trkpt lat="49.24679" lon="1.1377">
        <ele>88.93768</ele>
        <time>2014-08-07T15:14:44Z</time>
      </trkpt>
      <trkpt lat="49.24684" lon="1.1377">
        <ele>87.65307</ele>
        <time>2014-08-07T15:14:49Z</time>
      </trkpt>
      <trkpt lat="49.24691" lon="1.13773">
        <ele>87.65307</ele>
        <time>2014-08-07T15:14:54Z</time>
      </trkpt>
      <trkpt lat="49.247" lon="1.13774">
        <ele>86.17668</ele>
        <time>2014-08-07T15:14:59Z</time>
      </trkpt>
      <trkpt lat="49.24704" lon="1.13779">
        <ele>86.17668</ele>
        <time>2014-08-07T15:15:04Z</time>
      </trkpt>
      <trkpt lat="49.2471" lon="1.13783">
        <ele>84.568085</ele>
        <time>2014-08-07T15:15:09Z</time>
      </trkpt>
      <trkpt lat="49.24714" lon="1.13795">
        <ele>84.568085</ele>
        <time>2014-08-07T15:15:14Z</time>
      </trkpt>
      <trkpt lat="49.24718" lon="1.13803">
        <ele>82.767494</ele>
        <time>2014-08-07T15:15:19Z</time>
      </trkpt>
      <trkpt lat="49.24721" lon="1.13806">
        <ele>82.767494</ele>
        <time>2014-08-07T15:15:24Z</time>
      </trkpt>
      <trkpt lat="49.24724" lon="1.13812">
        <ele>82.767494</ele>
        <time>2014-08-07T15:15:29Z</time>
      </trkpt>
      <trkpt lat="49.24725" lon="1.13818">
        <ele>81.05145</ele>
        <time>2014-08-07T15:15:34Z</time>
      </trkpt>
      <trkpt lat="49.24725" lon="1.1383">
        <ele>81.05145</ele>
        <time>2014-08-07T15:15:39Z</time>
      </trkpt>
      <trkpt lat="49.24726" lon="1.13847">
        <ele>79.89209</ele>
        <time>2014-08-07T15:15:44Z</time>
      </trkpt>
      <trkpt lat="49.24724" lon="1.13863">
        <ele>78.90379</ele>
        <time>2014-08-07T15:15:49Z</time>
      </trkpt>
      <trkpt lat="49.24721" lon="1.13878">
        <ele>78.03137</ele>
        <time>2014-08-07T15:15:54Z</time>
      </trkpt>
      <trkpt lat="49.24718" lon="1.13888">
        <ele>78.03137</ele>
        <time>2014-08-07T15:15:59Z</time>
      </trkpt>
      <trkpt lat="49.24722" lon="1.13894">
        <ele>77.19449</ele>
        <time>2014-08-07T15:16:04Z</time>
      </trkpt>
      <trkpt lat="49.24726" lon="1.13897">
        <ele>77.19449</ele>
        <time>2014-08-07T15:16:09Z</time>
      </trkpt>
      <trkpt lat="49.24733" lon="1.139">
        <ele>76.46268</ele>
        <time>2014-08-07T15:16:14Z</time>
      </trkpt>
      <trkpt lat="49.2474" lon="1.139">
        <ele>76.46268</ele>
        <time>2014-08-07T15:16:19Z</time>
      </trkpt>
      <trkpt lat="49.24745" lon="1.13896">
        <ele>75.92885</ele>
        <time>2014-08-07T15:16:24Z</time>
      </trkpt>
      <trkpt lat="49.24748" lon="1.1389">
        <ele>75.92885</ele>
        <time>2014-08-07T15:16:29Z</time>
      </trkpt>
      <trkpt lat="49.24752" lon="1.13885">
        <ele>75.50555</ele>
        <time>2014-08-07T15:16:34Z</time>
      </trkpt>
      <trkpt lat="49.24754" lon="1.13881">
        <ele>75.50555</ele>
        <time>2014-08-07T15:16:39Z</time>
      </trkpt>
      <trkpt lat="49.24755" lon="1.1388">
        <ele>75.50555</ele>
        <time>2014-08-07T15:16:44Z</time>
      </trkpt>
      <trkpt lat="49.24758" lon="1.13874">
        <ele>75.02493</ele>
        <time>2014-08-07T15:16:49Z</time>
      </trkpt>
      <trkpt lat="49.24762" lon="1.13869">
        <ele>75.02493</ele>
        <time>2014-08-07T15:16:54Z</time>
      </trkpt>
      <trkpt lat="49.24764" lon="1.13863">
        <ele>74.63426</ele>
        <time>2014-08-07T15:16:59Z</time>
      </trkpt>
      <trkpt lat="49.24767" lon="1.1386">
        <ele>74.63426</ele>
        <time>2014-08-07T15:17:04Z</time>
      </trkpt>
      <trkpt lat="49.24771" lon="1.13851">
        <ele>74.28235</ele>
        <time>2014-08-07T15:17:09Z</time>
      </trkpt>
      <trkpt lat="49.24777" lon="1.13836">
        <ele>74.06576</ele>
        <time>2014-08-07T15:17:14Z</time>
      </trkpt>
      <trkpt lat="49.2478" lon="1.13831">
        <ele>74.06576</ele>
        <time>2014-08-07T15:17:19Z</time>
      </trkpt>
      <trkpt lat="49.24781" lon="1.13831">
        <ele>74.06576</ele>
        <time>2014-08-07T15:17:24Z</time>
      </trkpt>
      <trkpt lat="49.24781" lon="1.1383">
        <ele>74.06576</ele>
        <time>2014-08-07T15:17:29Z</time>
      </trkpt>
      <trkpt lat="49.24782" lon="1.13829">
        <ele>74.06576</ele>
        <time>2014-08-07T15:17:34Z</time>
      </trkpt>
      <trkpt lat="49.24783" lon="1.13826">
        <ele>73.95827</ele>
        <time>2014-08-07T15:17:39Z</time>
      </trkpt>
      <trkpt lat="49.24784" lon="1.13825">
        <ele>73.95827</ele>
        <time>2014-08-07T15:17:44Z</time>
      </trkpt>
      <trkpt lat="49.24785" lon="1.13822">
        <ele>73.95827</ele>
        <time>2014-08-07T15:17:49Z</time>
      </trkpt>
      <trkpt lat="49.24789" lon="1.13822">
        <ele>73.95827</ele>
        <time>2014-08-07T15:17:54Z</time>
      </trkpt>
      <trkpt lat="49.2479" lon="1.13823">
        <ele>73.95827</ele>
        <time>2014-08-07T15:17:59Z</time>
      </trkpt>
      <trkpt lat="49.24793" lon="1.13825">
        <ele>73.25796</ele>
        <time>2014-08-07T15:18:04Z</time>
      </trkpt>
      <trkpt lat="49.24799" lon="1.13829">
        <ele>73.25796</ele>
        <time>2014-08-07T15:18:09Z</time>
      </trkpt>
      <trkpt lat="49.24805" lon="1.13833">
        <ele>72.39696</ele>
        <time>2014-08-07T15:18:14Z</time>
      </trkpt>
      <trkpt lat="49.24812" lon="1.13836">
        <ele>72.39696</ele>
        <time>2014-08-07T15:18:19Z</time>
      </trkpt>
      <trkpt lat="49.24817" lon="1.13837">
        <ele>71.43025</ele>
        <time>2014-08-07T15:18:24Z</time>
      </trkpt>
      <trkpt lat="49.24818" lon="1.13838">
        <ele>71.43025</ele>
        <time>2014-08-07T15:18:29Z</time>
      </trkpt>
      <trkpt lat="49.24824" lon="1.13836">
        <ele>71.43025</ele>
        <time>2014-08-07T15:18:34Z</time>
      </trkpt>
      <trkpt lat="49.24827" lon="1.13835">
        <ele>70.538765</ele>
        <time>2014-08-07T15:18:39Z</time>
      </trkpt>
      <trkpt lat="49.24828" lon="1.13834">
        <ele>70.538765</ele>
        <time>2014-08-07T15:18:44Z</time>
      </trkpt>
      <trkpt lat="49.24829" lon="1.13834">
        <ele>70.538765</ele>
        <time>2014-08-07T15:18:49Z</time>
      </trkpt>
      <trkpt lat="49.24829" lon="1.13835">
        <ele>70.538765</ele>
        <time>2014-08-07T15:18:54Z</time>
      </trkpt>
      <trkpt lat="49.24829" lon="1.13837">
        <ele>70.538765</ele>
        <time>2014-08-07T15:18:59Z</time>
      </trkpt>
      <trkpt lat="49.24828" lon="1.13838">
        <ele>70.538765</ele>
        <time>2014-08-07T15:19:04Z</time>
      </trkpt>
      <trkpt lat="49.24831" lon="1.13838">
        <ele>70.538765</ele>
        <time>2014-08-07T15:19:09Z</time>
      </trkpt>
      <trkpt lat="49.24837" lon="1.13841">
        <ele>69.38554</ele>
        <time>2014-08-07T15:19:14Z</time>
      </trkpt>
      <trkpt lat="49.24843" lon="1.13848">
        <ele>69.38554</ele>
        <time>2014-08-07T15:19:19Z</time>
      </trkpt>
      <trkpt lat="49.24847" lon="1.13852">
        <ele>68.293205</ele>
        <time>2014-08-07T15:19:24Z</time>
      </trkpt>
      <trkpt lat="49.24853" lon="1.13855">
        <ele>68.293205</ele>
        <time>2014-08-07T15:19:29Z</time>
      </trkpt>
      <trkpt lat="49.24856" lon="1.13859">
        <ele>67.27228</ele>
        <time>2014-08-07T15:19:34Z</time>
      </trkpt>
      <trkpt lat="49.24862" lon="1.13863">
        <ele>67.27228</ele>
        <time>2014-08-07T15:19:39Z</time>
      </trkpt>
      <trkpt lat="49.24869" lon="1.13864">
        <ele>66.27467</ele>
        <time>2014-08-07T15:19:44Z</time>
      </trkpt>
      <trkpt lat="49.24877" lon="1.13865">
        <ele>66.27467</ele>
        <time>2014-08-07T15:19:49Z</time>
      </trkpt>
      <trkpt lat="49.24882" lon="1.13868">
        <ele>65.25576</ele>
        <time>2014-08-07T15:19:54Z</time>
      </trkpt>
      <trkpt lat="49.24889" lon="1.13873">
        <ele>65.25576</ele>
        <time>2014-08-07T15:19:59Z</time>
      </trkpt>
      <trkpt lat="49.24894" lon="1.13874">
        <ele>64.28953</ele>
        <time>2014-08-07T15:20:04Z</time>
      </trkpt>
      <trkpt lat="49.249" lon="1.13877">
        <ele>64.28953</ele>
        <time>2014-08-07T15:20:09Z</time>
      </trkpt>
      <trkpt lat="49.24905" lon="1.13878">
        <ele>63.25704</ele>
        <time>2014-08-07T15:20:14Z</time>
      </trkpt>
      <trkpt lat="49.2491" lon="1.13881">
        <ele>63.25704</ele>
        <time>2014-08-07T15:20:19Z</time>
      </trkpt>
      <trkpt lat="49.24918" lon="1.13886">
        <ele>62.149147</ele>
        <time>2014-08-07T15:20:24Z</time>
      </trkpt>
      <trkpt lat="49.24924" lon="1.13887">
        <ele>62.149147</ele>
        <time>2014-08-07T15:20:29Z</time>
      </trkpt>
      <trkpt lat="49.24929" lon="1.13889">
        <ele>60.972</ele>
        <time>2014-08-07T15:20:34Z</time>
      </trkpt>
      <trkpt lat="49.24935" lon="1.13893">
        <ele>60.972</ele>
        <time>2014-08-07T15:20:39Z</time>
      </trkpt>
      <trkpt lat="49.2494" lon="1.139">
        <ele>59.760296</ele>
        <time>2014-08-07T15:20:44Z</time>
      </trkpt>
      <trkpt lat="49.24946" lon="1.13904">
        <ele>59.760296</ele>
        <time>2014-08-07T15:20:49Z</time>
      </trkpt>
      <trkpt lat="49.24953" lon="1.13906">
        <ele>58.74803</ele>
        <time>2014-08-07T15:20:54Z</time>
      </trkpt>
      <trkpt lat="49.2496" lon="1.13911">
        <ele>58.74803</ele>
        <time>2014-08-07T15:20:59Z</time>
      </trkpt>
      <trkpt lat="49.24967" lon="1.13913">
        <ele>57.863213</ele>
        <time>2014-08-07T15:21:04Z</time>
      </trkpt>
      <trkpt lat="49.24973" lon="1.13913">
        <ele>57.863213</ele>
        <time>2014-08-07T15:21:09Z</time>
      </trkpt>
      <trkpt lat="49.24978" lon="1.13913">
        <ele>57.067608</ele>
        <time>2014-08-07T15:21:14Z</time>
      </trkpt>
      <trkpt lat="49.24984" lon="1.13915">
        <ele>57.067608</ele>
        <time>2014-08-07T15:21:19Z</time>
      </trkpt>
      <trkpt lat="49.2499" lon="1.13919">
        <ele>56.397568</ele>
        <time>2014-08-07T15:21:24Z</time>
      </trkpt>
      <trkpt lat="49.24995" lon="1.13925">
        <ele>56.397568</ele>
        <time>2014-08-07T15:21:29Z</time>
      </trkpt>
      <trkpt lat="49.25" lon="1.13927">
        <ele>55.814373</ele>
        <time>2014-08-07T15:21:34Z</time>
      </trkpt>
      <trkpt lat="49.25007" lon="1.13933">
        <ele>55.814373</ele>
        <time>2014-08-07T15:21:39Z</time>
      </trkpt>
      <trkpt lat="49.25012" lon="1.13937">
        <ele>55.25307</ele>
        <time>2014-08-07T15:21:44Z</time>
      </trkpt>
      <trkpt lat="49.25015" lon="1.13937">
        <ele>55.25307</ele>
        <time>2014-08-07T15:21:49Z</time>
      </trkpt>
      <trkpt lat="49.25015" lon="1.13937">
        <ele>55.25307</ele>
        <time>2014-08-07T15:21:54Z</time>
      </trkpt>
      <trkpt lat="49.25016" lon="1.13938">
        <ele>55.25307</ele>
        <time>2014-08-07T15:22:04Z</time>
      </trkpt>
      <trkpt lat="49.2502" lon="1.13946">
        <ele>54.624588</ele>
        <time>2014-08-07T15:22:09Z</time>
      </trkpt>
      <trkpt lat="49.25023" lon="1.13953">
        <ele>54.624588</ele>
        <time>2014-08-07T15:22:14Z</time>
      </trkpt>
      <trkpt lat="49.25023" lon="1.13958">
        <ele>54.624588</ele>
        <time>2014-08-07T15:22:19Z</time>
      </trkpt>
      <trkpt lat="49.25023" lon="1.13965">
        <ele>54.307755</ele>
        <time>2014-08-07T15:22:24Z</time>
      </trkpt>
      <trkpt lat="49.25021" lon="1.13972">
        <ele>54.307755</ele>
        <time>2014-08-07T15:22:29Z</time>
      </trkpt>
      <trkpt lat="49.25018" lon="1.13979">
        <ele>54.37888</ele>
        <time>2014-08-07T15:22:34Z</time>
      </trkpt>
      <trkpt lat="49.25017" lon="1.13984">
        <ele>54.37888</ele>
        <time>2014-08-07T15:22:39Z</time>
      </trkpt>
      <trkpt lat="49.25016" lon="1.13992">
        <ele>54.37888</ele>
        <time>2014-08-07T15:22:44Z</time>
      </trkpt>
      <trkpt lat="49.25014" lon="1.14001">
        <ele>54.965233</ele>
        <time>2014-08-07T15:22:49Z</time>
      </trkpt>
      <trkpt lat="49.25012" lon="1.14006">
        <ele>54.965233</ele>
        <time>2014-08-07T15:22:54Z</time>
      </trkpt>
      <trkpt lat="49.25011" lon="1.14012">
        <ele>54.965233</ele>
        <time>2014-08-07T15:22:59Z</time>
      </trkpt>
      <trkpt lat="49.25008" lon="1.14018">
        <ele>56.05361</ele>
        <time>2014-08-07T15:23:04Z</time>
      </trkpt>
      <trkpt lat="49.25007" lon="1.14029">
        <ele>56.05361</ele>
        <time>2014-08-07T15:23:09Z</time>
      </trkpt>
      <trkpt lat="49.25007" lon="1.14036">
        <ele>57.37101</ele>
        <time>2014-08-07T15:23:14Z</time>
      </trkpt>
      <trkpt lat="49.25005" lon="1.14045">
        <ele>57.37101</ele>
        <time>2014-08-07T15:23:19Z</time>
      </trkpt>
      <trkpt lat="49.25007" lon="1.14055">
        <ele>58.822388</ele>
        <time>2014-08-07T15:23:24Z</time>
      </trkpt>
      <trkpt lat="49.25006" lon="1.14065">
        <ele>58.822388</ele>
        <time>2014-08-07T15:23:29Z</time>
      </trkpt>
      <trkpt lat="49.25006" lon="1.14071">
        <ele>60.290558</ele>
        <time>2014-08-07T15:23:34Z</time>
      </trkpt>
      <trkpt lat="49.25004" lon="1.14076">
        <ele>60.290558</ele>
        <time>2014-08-07T15:23:39Z</time>
      </trkpt>
      <trkpt lat="49.25002" lon="1.14083">
        <ele>60.290558</ele>
        <time>2014-08-07T15:23:44Z</time>
      </trkpt>
      <trkpt lat="49.25002" lon="1.14085">
        <ele>61.681366</ele>
        <time>2014-08-07T15:23:49Z</time>
      </trkpt>
      <trkpt lat="49.25001" lon="1.14092">
        <ele>61.681366</ele>
        <time>2014-08-07T15:23:54Z</time>
      </trkpt>
      <trkpt lat="49.24998" lon="1.14101">
        <ele>63.296986</ele>
        <time>2014-08-07T15:23:59Z</time>
      </trkpt>
      <trkpt lat="49.24999" lon="1.14111">
        <ele>63.296986</ele>
        <time>2014-08-07T15:24:04Z</time>
      </trkpt>
      <trkpt lat="49.25" lon="1.14121">
        <ele>64.92688</ele>
        <time>2014-08-07T15:24:09Z</time>
      </trkpt>
      <trkpt lat="49.25002" lon="1.1413">
        <ele>64.92688</ele>
        <time>2014-08-07T15:24:14Z</time>
      </trkpt>
      <trkpt lat="49.25001" lon="1.14132">
        <ele>64.92688</ele>
        <time>2014-08-07T15:24:19Z</time>
      </trkpt>
      <trkpt lat="49.24999" lon="1.14138">
        <ele>66.72191</ele>
        <time>2014-08-07T15:24:24Z</time>
      </trkpt>
      <trkpt lat="49.24998" lon="1.14141">
        <ele>66.72191</ele>
        <time>2014-08-07T15:24:29Z</time>
      </trkpt>
      <trkpt lat="49.24997" lon="1.14148">
        <ele>66.72191</ele>
        <time>2014-08-07T15:24:34Z</time>
      </trkpt>
      <trkpt lat="49.24998" lon="1.14155">
        <ele>68.51889</ele>
        <time>2014-08-07T15:24:39Z</time>
      </trkpt>
      <trkpt lat="49.24995" lon="1.14166">
        <ele>68.51889</ele>
        <time>2014-08-07T15:24:44Z</time>
      </trkpt>
      <trkpt lat="49.24994" lon="1.14177">
        <ele>70.25322</ele>
        <time>2014-08-07T15:24:49Z</time>
      </trkpt>
      <trkpt lat="49.24994" lon="1.14185">
        <ele>70.25322</ele>
        <time>2014-08-07T15:24:54Z</time>
      </trkpt>
      <trkpt lat="49.24993" lon="1.1419">
        <ele>70.25322</ele>
        <time>2014-08-07T15:24:59Z</time>
      </trkpt>
      <trkpt lat="49.24992" lon="1.14193">
        <ele>71.98064</ele>
        <time>2014-08-07T15:25:04Z</time>
      </trkpt>
      <trkpt lat="49.24993" lon="1.14201">
        <ele>71.98064</ele>
        <time>2014-08-07T15:25:09Z</time>
      </trkpt>
      <trkpt lat="49.25001" lon="1.1421">
        <ele>73.68091</ele>
        <time>2014-08-07T15:25:14Z</time>
      </trkpt>
      <trkpt lat="49.25003" lon="1.14214">
        <ele>73.68091</ele>
        <time>2014-08-07T15:25:19Z</time>
      </trkpt>
      <trkpt lat="49.25003" lon="1.14216">
        <ele>73.68091</ele>
        <time>2014-08-07T15:25:24Z</time>
      </trkpt>
      <trkpt lat="49.25005" lon="1.14216">
        <ele>73.68091</ele>
        <time>2014-08-07T15:25:29Z</time>
      </trkpt>
      <trkpt lat="49.2501" lon="1.14214">
        <ele>75.45082</ele>
        <time>2014-08-07T15:25:34Z</time>
      </trkpt>
      <trkpt lat="49.25012" lon="1.14211">
        <ele>75.45082</ele>
        <time>2014-08-07T15:25:39Z</time>
      </trkpt>
      <trkpt lat="49.25015" lon="1.14203">
        <ele>77.30796</ele>
        <time>2014-08-07T15:25:44Z</time>
      </trkpt>
      <trkpt lat="49.25017" lon="1.14197">
        <ele>77.30796</ele>
        <time>2014-08-07T15:25:49Z</time>
      </trkpt>
      <trkpt lat="49.25019" lon="1.14193">
        <ele>77.30796</ele>
        <time>2014-08-07T15:25:54Z</time>
      </trkpt>
      <trkpt lat="49.25021" lon="1.14188">
        <ele>79.29736</ele>
        <time>2014-08-07T15:25:59Z</time>
      </trkpt>
      <trkpt lat="49.25023" lon="1.14183">
        <ele>79.29736</ele>
        <time>2014-08-07T15:26:04Z</time>
      </trkpt>
      <trkpt lat="49.25026" lon="1.1418">
        <ele>79.29736</ele>
        <time>2014-08-07T15:26:09Z</time>
      </trkpt>
      <trkpt lat="49.25029" lon="1.14175">
        <ele>81.3453</ele>
        <time>2014-08-07T15:26:14Z</time>
      </trkpt>
      <trkpt lat="49.25033" lon="1.14166">
        <ele>81.3453</ele>
        <time>2014-08-07T15:26:19Z</time>
      </trkpt>
      <trkpt lat="49.25036" lon="1.14159">
        <ele>83.4555</ele>
        <time>2014-08-07T15:26:24Z</time>
      </trkpt>
      <trkpt lat="49.2504" lon="1.14155">
        <ele>83.4555</ele>
        <time>2014-08-07T15:26:29Z</time>
      </trkpt>
      <trkpt lat="49.25044" lon="1.14148">
        <ele>85.61705</ele>
        <time>2014-08-07T15:26:34Z</time>
      </trkpt>
      <trkpt lat="49.25047" lon="1.14141">
        <ele>85.61705</ele>
        <time>2014-08-07T15:26:39Z</time>
      </trkpt>
      <trkpt lat="49.25051" lon="1.14136">
        <ele>87.8487</ele>
        <time>2014-08-07T15:26:44Z</time>
      </trkpt>
      <trkpt lat="49.25053" lon="1.14133">
        <ele>87.8487</ele>
        <time>2014-08-07T15:26:49Z</time>
      </trkpt>
      <trkpt lat="49.25056" lon="1.14129">
        <ele>87.8487</ele>
        <time>2014-08-07T15:26:54Z</time>
      </trkpt>
      <trkpt lat="49.25059" lon="1.14124">
        <ele>90.239876</ele>
        <time>2014-08-07T15:26:59Z</time>
      </trkpt>
      <trkpt lat="49.25063" lon="1.14119">
        <ele>90.239876</ele>
        <time>2014-08-07T15:27:04Z</time>
      </trkpt>
      <trkpt lat="49.25068" lon="1.14114">
        <ele>92.62821</ele>
        <time>2014-08-07T15:27:09Z</time>
      </trkpt>
      <trkpt lat="49.2507" lon="1.1411">
        <ele>92.62821</ele>
        <time>2014-08-07T15:27:14Z</time>
      </trkpt>
      <trkpt lat="49.25074" lon="1.14105">
        <ele>92.62821</ele>
        <time>2014-08-07T15:27:19Z</time>
      </trkpt>
      <trkpt lat="49.25079" lon="1.141">
        <ele>95.079636</ele>
        <time>2014-08-07T15:27:24Z</time>
      </trkpt>
      <trkpt lat="49.25082" lon="1.14097">
        <ele>95.079636</ele>
        <time>2014-08-07T15:27:29Z</time>
      </trkpt>
      <trkpt lat="49.25084" lon="1.14093">
        <ele>95.079636</ele>
        <time>2014-08-07T15:27:34Z</time>
      </trkpt>
      <trkpt lat="49.25086" lon="1.14086">
        <ele>97.4247</ele>
        <time>2014-08-07T15:27:39Z</time>
      </trkpt>
      <trkpt lat="49.25089" lon="1.14082">
        <ele>97.4247</ele>
        <time>2014-08-07T15:27:44Z</time>
      </trkpt>
      <trkpt lat="49.25092" lon="1.14078">
        <ele>97.4247</ele>
        <time>2014-08-07T15:27:49Z</time>
      </trkpt>
      <trkpt lat="49.25097" lon="1.14074">
        <ele>99.57896</ele>
        <time>2014-08-07T15:27:54Z</time>
      </trkpt>
      <trkpt lat="49.25102" lon="1.14068">
        <ele>99.57896</ele>
        <time>2014-08-07T15:27:59Z</time>
      </trkpt>
      <trkpt lat="49.25107" lon="1.14064">
        <ele>101.59463</ele>
        <time>2014-08-07T15:28:04Z</time>
      </trkpt>
      <trkpt lat="49.25111" lon="1.14061">
        <ele>101.59463</ele>
        <time>2014-08-07T15:28:09Z</time>
      </trkpt>
      <trkpt lat="49.25115" lon="1.14059">
        <ele>101.59463</ele>
        <time>2014-08-07T15:28:14Z</time>
      </trkpt>
      <trkpt lat="49.25118" lon="1.14054">
        <ele>103.78009</ele>
        <time>2014-08-07T15:28:19Z</time>
      </trkpt>
      <trkpt lat="49.25121" lon="1.1405">
        <ele>103.78009</ele>
        <time>2014-08-07T15:28:24Z</time>
      </trkpt>
      <trkpt lat="49.25126" lon="1.14046">
        <ele>105.94523</ele>
        <time>2014-08-07T15:28:29Z</time>
      </trkpt>
      <trkpt lat="49.2513" lon="1.14041">
        <ele>105.94523</ele>
        <time>2014-08-07T15:28:34Z</time>
      </trkpt>
      <trkpt lat="49.25134" lon="1.14038">
        <ele>108.02946</ele>
        <time>2014-08-07T15:28:39Z</time>
      </trkpt>
      <trkpt lat="49.25137" lon="1.14033">
        <ele>108.02946</ele>
        <time>2014-08-07T15:28:44Z</time>
      </trkpt>
      <trkpt lat="49.25139" lon="1.14031">
        <ele>108.02946</ele>
        <time>2014-08-07T15:28:49Z</time>
      </trkpt>
      <trkpt lat="49.25142" lon="1.14028">
        <ele>109.97707</ele>
        <time>2014-08-07T15:28:54Z</time>
      </trkpt>
      <trkpt lat="49.25147" lon="1.14025">
        <ele>109.97707</ele>
        <time>2014-08-07T15:28:59Z</time>
      </trkpt>
      <trkpt lat="49.25152" lon="1.14023">
        <ele>111.88116</ele>
        <time>2014-08-07T15:29:04Z</time>
      </trkpt>
      <trkpt lat="49.25157" lon="1.14018">
        <ele>111.88116</ele>
        <time>2014-08-07T15:29:09Z</time>
      </trkpt>
      <trkpt lat="49.25161" lon="1.14014">
        <ele>113.69857</ele>
        <time>2014-08-07T15:29:14Z</time>
      </trkpt>
      <trkpt lat="49.25165" lon="1.1401">
        <ele>113.69857</ele>
        <time>2014-08-07T15:29:19Z</time>
      </trkpt>
      <trkpt lat="49.25167" lon="1.1401">
        <ele>113.69857</ele>
        <time>2014-08-07T15:29:24Z</time>
      </trkpt>
      <trkpt lat="49.25171" lon="1.14008">
        <ele>115.433014</ele>
        <time>2014-08-07T15:29:29Z</time>
      </trkpt>
      <trkpt lat="49.25176" lon="1.14009">
        <ele>115.433014</ele>
        <time>2014-08-07T15:29:34Z</time>
      </trkpt>
      <trkpt lat="49.2518" lon="1.14009">
        <ele>117.03069</ele>
        <time>2014-08-07T15:29:39Z</time>
      </trkpt>
      <trkpt lat="49.25183" lon="1.14009">
        <ele>117.03069</ele>
        <time>2014-08-07T15:29:44Z</time>
      </trkpt>
      <trkpt lat="49.2519" lon="1.1401">
        <ele>118.48555</ele>
        <time>2014-08-07T15:29:49Z</time>
      </trkpt>
      <trkpt lat="49.25195" lon="1.14012">
        <ele>118.48555</ele>
        <time>2014-08-07T15:29:54Z</time>
      </trkpt>
      <trkpt lat="49.25199" lon="1.14013">
        <ele>119.44667</ele>
        <time>2014-08-07T15:29:59Z</time>
      </trkpt>
      <trkpt lat="49.25204" lon="1.14015">
        <ele>119.44667</ele>
        <time>2014-08-07T15:30:04Z</time>
      </trkpt>
      <trkpt lat="49.2521" lon="1.14021">
        <ele>120.06605</ele>
        <time>2014-08-07T15:30:09Z</time>
      </trkpt>
      <trkpt lat="49.25216" lon="1.14022">
        <ele>120.06605</ele>
        <time>2014-08-07T15:30:14Z</time>
      </trkpt>
      <trkpt lat="49.2522" lon="1.14025">
        <ele>120.47118</ele>
        <time>2014-08-07T15:30:19Z</time>
      </trkpt>
      <trkpt lat="49.25225" lon="1.14028">
        <ele>120.47118</ele>
        <time>2014-08-07T15:30:24Z</time>
      </trkpt>
      <trkpt lat="49.2523" lon="1.1403">
        <ele>120.780945</ele>
        <time>2014-08-07T15:30:29Z</time>
      </trkpt>
      <trkpt lat="49.25236" lon="1.14033">
        <ele>120.780945</ele>
        <time>2014-08-07T15:30:34Z</time>
      </trkpt>
      <trkpt lat="49.2524" lon="1.14034">
        <ele>121.07703</ele>
        <time>2014-08-07T15:30:39Z</time>
      </trkpt>
      <trkpt lat="49.25246" lon="1.14036">
        <ele>121.07703</ele>
        <time>2014-08-07T15:30:44Z</time>
      </trkpt>
      <trkpt lat="49.25252" lon="1.14038">
        <ele>121.247925</ele>
        <time>2014-08-07T15:30:49Z</time>
      </trkpt>
      <trkpt lat="49.25256" lon="1.14042">
        <ele>121.247925</ele>
        <time>2014-08-07T15:30:54Z</time>
      </trkpt>
      <trkpt lat="49.25261" lon="1.14046">
        <ele>121.277214</ele>
        <time>2014-08-07T15:30:59Z</time>
      </trkpt>
      <trkpt lat="49.25267" lon="1.1405">
        <ele>121.277214</ele>
        <time>2014-08-07T15:31:04Z</time>
      </trkpt>
      <trkpt lat="49.25272" lon="1.14052">
        <ele>121.29425</ele>
        <time>2014-08-07T15:31:09Z</time>
      </trkpt>
      <trkpt lat="49.25276" lon="1.14054">
        <ele>121.29425</ele>
        <time>2014-08-07T15:31:14Z</time>
      </trkpt>
      <trkpt lat="49.25282" lon="1.14056">
        <ele>121.289276</ele>
        <time>2014-08-07T15:31:19Z</time>
      </trkpt>
      <trkpt lat="49.25288" lon="1.14059">
        <ele>121.289276</ele>
        <time>2014-08-07T15:31:24Z</time>
      </trkpt>
      <trkpt lat="49.25292" lon="1.1406">
        <ele>121.09482</ele>
        <time>2014-08-07T15:31:29Z</time>
      </trkpt>
      <trkpt lat="49.25295" lon="1.14062">
        <ele>121.09482</ele>
        <time>2014-08-07T15:31:34Z</time>
      </trkpt>
      <trkpt lat="49.25301" lon="1.14063">
        <ele>120.75802</ele>
        <time>2014-08-07T15:31:39Z</time>
      </trkpt>
      <trkpt lat="49.25308" lon="1.14067">
        <ele>120.75802</ele>
        <time>2014-08-07T15:31:44Z</time>
      </trkpt>
      <trkpt lat="49.25313" lon="1.14071">
        <ele>120.395004</ele>
        <time>2014-08-07T15:31:49Z</time>
      </trkpt>
      <trkpt lat="49.25322" lon="1.14075">
        <ele>119.99817</ele>
        <time>2014-08-07T15:31:54Z</time>
      </trkpt>
      <trkpt lat="49.25328" lon="1.14078">
        <ele>119.99817</ele>
        <time>2014-08-07T15:31:59Z</time>
      </trkpt>
      <trkpt lat="49.25335" lon="1.14082">
        <ele>119.618164</ele>
        <time>2014-08-07T15:32:04Z</time>
      </trkpt>
      <trkpt lat="49.25339" lon="1.14084">
        <ele>119.618164</ele>
        <time>2014-08-07T15:32:09Z</time>
      </trkpt>
      <trkpt lat="49.25345" lon="1.14085">
        <ele>119.229774</ele>
        <time>2014-08-07T15:32:14Z</time>
      </trkpt>
      <trkpt lat="49.25349" lon="1.14086">
        <ele>119.229774</ele>
        <time>2014-08-07T15:32:19Z</time>
      </trkpt>
      <trkpt lat="49.25355" lon="1.14087">
        <ele>118.88169</ele>
        <time>2014-08-07T15:32:24Z</time>
      </trkpt>
      <trkpt lat="49.25359" lon="1.14084">
        <ele>118.88169</ele>
        <time>2014-08-07T15:32:29Z</time>
      </trkpt>
      <trkpt lat="49.25362" lon="1.14079">
        <ele>118.57561</ele>
        <time>2014-08-07T15:32:34Z</time>
      </trkpt>
      <trkpt lat="49.2536" lon="1.14071">
        <ele>118.57561</ele>
        <time>2014-08-07T15:32:39Z</time>
      </trkpt>
      <trkpt lat="49.25363" lon="1.14066">
        <ele>118.29849</ele>
        <time>2014-08-07T15:32:44Z</time>
      </trkpt>
      <trkpt lat="49.25363" lon="1.14066">
        <ele>118.29849</ele>
        <time>2014-08-07T15:32:49Z</time>
      </trkpt>
      <trkpt lat="49.25362" lon="1.14068">
        <ele>118.29849</ele>
        <time>2014-08-07T15:32:54Z</time>
      </trkpt>
      <trkpt lat="49.25362" lon="1.1407">
        <ele>118.29849</ele>
        <time>2014-08-07T15:32:59Z</time>
      </trkpt>
      <trkpt lat="49.25363" lon="1.1407">
        <ele>118.29849</ele>
        <time>2014-08-07T15:33:04Z</time>
      </trkpt>
      <trkpt lat="49.25363" lon="1.1407">
        <ele>118.29849</ele>
        <time>2014-08-07T15:33:09Z</time>
      </trkpt>
      <trkpt lat="49.25366" lon="1.14071">
        <ele>118.29849</ele>
        <time>2014-08-07T15:33:34Z</time>
      </trkpt>
      <trkpt lat="49.25368" lon="1.14073">
        <ele>118.42723</ele>
        <time>2014-08-07T15:33:39Z</time>
      </trkpt>
      <trkpt lat="49.25367" lon="1.14072">
        <ele>118.42723</ele>
        <time>2014-08-07T15:33:44Z</time>
      </trkpt>
      <trkpt lat="49.25367" lon="1.14072">
        <ele>118.42723</ele>
        <time>2014-08-07T15:33:49Z</time>
      </trkpt>
      <trkpt lat="49.25366" lon="1.14072">
        <ele>118.42723</ele>
        <time>2014-08-07T15:33:54Z</time>
      </trkpt>
      <trkpt lat="49.25366" lon="1.14071">
        <ele>118.42723</ele>
        <time>2014-08-07T15:33:59Z</time>
      </trkpt>
      <trkpt lat="49.25365" lon="1.14069">
        <ele>118.42723</ele>
        <time>2014-08-07T15:34:04Z</time>
      </trkpt>
      <trkpt lat="49.25364" lon="1.14067">
        <ele>118.42723</ele>
        <time>2014-08-07T15:34:09Z</time>
      </trkpt>
      <trkpt lat="49.25363" lon="1.14066">
        <ele>118.42723</ele>
        <time>2014-08-07T15:34:14Z</time>
      </trkpt>
      <trkpt lat="49.25362" lon="1.14067">
        <ele>118.42723</ele>
        <time>2014-08-07T15:34:19Z</time>
      </trkpt>
      <trkpt lat="49.25363" lon="1.14067">
        <ele>118.42723</ele>
        <time>2014-08-07T15:34:24Z</time>
      </trkpt>
      <trkpt lat="49.25364" lon="1.14067">
        <ele>118.42723</ele>
        <time>2014-08-07T15:34:29Z</time>
      </trkpt>
      <trkpt lat="49.25364" lon="1.14064">
        <ele>118.53158</ele>
        <time>2014-08-07T15:34:34Z</time>
      </trkpt>
      <trkpt lat="49.25366" lon="1.14062">
        <ele>118.53158</ele>
        <time>2014-08-07T15:34:39Z</time>
      </trkpt>
      <trkpt lat="49.25367" lon="1.14062">
        <ele>118.53158</ele>
        <time>2014-08-07T15:34:44Z</time>
      </trkpt>
      <trkpt lat="49.25369" lon="1.14061">
        <ele>118.53158</ele>
        <time>2014-08-07T15:34:49Z</time>
      </trkpt>
      <trkpt lat="49.25369" lon="1.14059">
        <ele>118.53158</ele>
        <time>2014-08-07T15:34:54Z</time>
      </trkpt>
      <trkpt lat="49.2537" lon="1.14053">
        <ele>118.93346</ele>
        <time>2014-08-07T15:34:59Z</time>
      </trkpt>
      <trkpt lat="49.2537" lon="1.14048">
        <ele>118.93346</ele>
        <time>2014-08-07T15:35:04Z</time>
      </trkpt>
      <trkpt lat="49.2537" lon="1.1404">
        <ele>118.93346</ele>
        <time>2014-08-07T15:35:09Z</time>
      </trkpt>
      <trkpt lat="49.25372" lon="1.14028">
        <ele>119.28169</ele>
        <time>2014-08-07T15:35:14Z</time>
      </trkpt>
      <trkpt lat="49.25371" lon="1.14018">
        <ele>119.28169</ele>
        <time>2014-08-07T15:35:19Z</time>
      </trkpt>
      <trkpt lat="49.25371" lon="1.14012">
        <ele>119.5104</ele>
        <time>2014-08-07T15:35:24Z</time>
      </trkpt>
      <trkpt lat="49.25373" lon="1.14005">
        <ele>119.5104</ele>
        <time>2014-08-07T15:35:29Z</time>
      </trkpt>
      <trkpt lat="49.25376" lon="1.14">
        <ele>119.6308</ele>
        <time>2014-08-07T15:35:34Z</time>
      </trkpt>
      <trkpt lat="49.25377" lon="1.13993">
        <ele>119.6308</ele>
        <time>2014-08-07T15:35:39Z</time>
      </trkpt>
      <trkpt lat="49.25381" lon="1.13982">
        <ele>119.81204</ele>
        <time>2014-08-07T15:35:44Z</time>
      </trkpt>
      <trkpt lat="49.25383" lon="1.13975">
        <ele>119.81204</ele>
        <time>2014-08-07T15:35:49Z</time>
      </trkpt>
      <trkpt lat="49.25384" lon="1.13965">
        <ele>120.095314</ele>
        <time>2014-08-07T15:35:54Z</time>
      </trkpt>
      <trkpt lat="49.25385" lon="1.1396">
        <ele>120.095314</ele>
        <time>2014-08-07T15:35:59Z</time>
      </trkpt>
      <trkpt lat="49.25385" lon="1.13951">
        <ele>120.388664</ele>
        <time>2014-08-07T15:36:04Z</time>
      </trkpt>
      <trkpt lat="49.25384" lon="1.1394">
        <ele>120.388664</ele>
        <time>2014-08-07T15:36:09Z</time>
      </trkpt>
      <trkpt lat="49.25387" lon="1.13928">
        <ele>120.62122</ele>
        <time>2014-08-07T15:36:14Z</time>
      </trkpt>
      <trkpt lat="49.25388" lon="1.13921">
        <ele>120.62122</ele>
        <time>2014-08-07T15:36:19Z</time>
      </trkpt>
      <trkpt lat="49.25388" lon="1.13915">
        <ele>120.62122</ele>
        <time>2014-08-07T15:36:24Z</time>
      </trkpt>
      <trkpt lat="49.2539" lon="1.13909">
        <ele>120.90032</ele>
        <time>2014-08-07T15:36:29Z</time>
      </trkpt>
      <trkpt lat="49.25394" lon="1.13902">
        <ele>120.90032</ele>
        <time>2014-08-07T15:36:34Z</time>
      </trkpt>
      <trkpt lat="49.25396" lon="1.13894">
        <ele>121.33961</ele>
        <time>2014-08-07T15:36:39Z</time>
      </trkpt>
      <trkpt lat="49.25399" lon="1.13885">
        <ele>121.33961</ele>
        <time>2014-08-07T15:36:44Z</time>
      </trkpt>
      <trkpt lat="49.254" lon="1.13877">
        <ele>121.77002</ele>
        <time>2014-08-07T15:36:49Z</time>
      </trkpt>
      <trkpt lat="49.25402" lon="1.1387">
        <ele>121.77002</ele>
        <time>2014-08-07T15:36:54Z</time>
      </trkpt>
      <trkpt lat="49.25404" lon="1.13865">
        <ele>122.0637</ele>
        <time>2014-08-07T15:36:59Z</time>
      </trkpt>
      <trkpt lat="49.25406" lon="1.13857">
        <ele>122.0637</ele>
        <time>2014-08-07T15:37:04Z</time>
      </trkpt>
      <trkpt lat="49.25407" lon="1.13848">
        <ele>122.361855</ele>
        <time>2014-08-07T15:37:09Z</time>
      </trkpt>
      <trkpt lat="49.25411" lon="1.13835">
        <ele>122.5935</ele>
        <time>2014-08-07T15:37:14Z</time>
      </trkpt>
      <trkpt lat="49.25413" lon="1.13826">
        <ele>122.5935</ele>
        <time>2014-08-07T15:37:19Z</time>
      </trkpt>
      <trkpt lat="49.25415" lon="1.13819">
        <ele>122.79382</ele>
        <time>2014-08-07T15:37:24Z</time>
      </trkpt>
      <trkpt lat="49.25413" lon="1.13807">
        <ele>122.79382</ele>
        <time>2014-08-07T15:37:29Z</time>
      </trkpt>
      <trkpt lat="49.25415" lon="1.13799">
        <ele>123.038704</ele>
        <time>2014-08-07T15:37:34Z</time>
      </trkpt>
      <trkpt lat="49.25416" lon="1.13787">
        <ele>123.038704</ele>
        <time>2014-08-07T15:37:39Z</time>
      </trkpt>
      <trkpt lat="49.25417" lon="1.13778">
        <ele>123.31175</ele>
        <time>2014-08-07T15:37:44Z</time>
      </trkpt>
      <trkpt lat="49.25419" lon="1.13774">
        <ele>123.31175</ele>
        <time>2014-08-07T15:37:49Z</time>
      </trkpt>
      <trkpt lat="49.25421" lon="1.13768">
        <ele>123.31175</ele>
        <time>2014-08-07T15:37:54Z</time>
      </trkpt>
      <trkpt lat="49.25425" lon="1.13755">
        <ele>123.65528</ele>
        <time>2014-08-07T15:37:59Z</time>
      </trkpt>
      <trkpt lat="49.25427" lon="1.13749">
        <ele>123.65528</ele>
        <time>2014-08-07T15:38:04Z</time>
      </trkpt>
      <trkpt lat="49.2543" lon="1.13741">
        <ele>123.97854</ele>
        <time>2014-08-07T15:38:09Z</time>
      </trkpt>
      <trkpt lat="49.25432" lon="1.1373">
        <ele>123.97854</ele>
        <time>2014-08-07T15:38:14Z</time>
      </trkpt>
      <trkpt lat="49.25435" lon="1.13722">
        <ele>124.34153</ele>
        <time>2014-08-07T15:38:19Z</time>
      </trkpt>
      <trkpt lat="49.25436" lon="1.13714">
        <ele>124.34153</ele>
        <time>2014-08-07T15:38:24Z</time>
      </trkpt>
      <trkpt lat="49.25436" lon="1.13707">
        <ele>124.68439</ele>
        <time>2014-08-07T15:38:29Z</time>
      </trkpt>
      <trkpt lat="49.25436" lon="1.13699">
        <ele>124.68439</ele>
        <time>2014-08-07T15:38:34Z</time>
      </trkpt>
      <trkpt lat="49.25438" lon="1.13691">
        <ele>124.96604</ele>
        <time>2014-08-07T15:38:39Z</time>
      </trkpt>
      <trkpt lat="49.25439" lon="1.13684">
        <ele>124.96604</ele>
        <time>2014-08-07T15:38:44Z</time>
      </trkpt>
      <trkpt lat="49.25439" lon="1.13672">
        <ele>125.177376</ele>
        <time>2014-08-07T15:38:49Z</time>
      </trkpt>
      <trkpt lat="49.25439" lon="1.13658">
        <ele>125.36773</ele>
        <time>2014-08-07T15:38:54Z</time>
      </trkpt>
      <trkpt lat="49.25441" lon="1.13649">
        <ele>125.36773</ele>
        <time>2014-08-07T15:38:59Z</time>
      </trkpt>
      <trkpt lat="49.25443" lon="1.13638">
        <ele>125.65487</ele>
        <time>2014-08-07T15:39:04Z</time>
      </trkpt>
      <trkpt lat="49.25448" lon="1.1363">
        <ele>125.65487</ele>
        <time>2014-08-07T15:39:09Z</time>
      </trkpt>
      <trkpt lat="49.25449" lon="1.13622">
        <ele>126.234055</ele>
        <time>2014-08-07T15:39:14Z</time>
      </trkpt>
      <trkpt lat="49.2545" lon="1.13621">
        <ele>126.234055</ele>
        <time>2014-08-07T15:39:19Z</time>
      </trkpt>
      <trkpt lat="49.25453" lon="1.13612">
        <ele>126.234055</ele>
        <time>2014-08-07T15:39:24Z</time>
      </trkpt>
      <trkpt lat="49.25457" lon="1.13603">
        <ele>127.17005</ele>
        <time>2014-08-07T15:39:29Z</time>
      </trkpt>
      <trkpt lat="49.25462" lon="1.13595">
        <ele>127.17005</ele>
        <time>2014-08-07T15:39:34Z</time>
      </trkpt>
      <trkpt lat="49.25466" lon="1.13586">
        <ele>128.16153</ele>
        <time>2014-08-07T15:39:39Z</time>
      </trkpt>
      <trkpt lat="49.25466" lon="1.13576">
        <ele>128.16153</ele>
        <time>2014-08-07T15:39:44Z</time>
      </trkpt>
      <trkpt lat="49.25467" lon="1.13565">
        <ele>129.43349</ele>
        <time>2014-08-07T15:39:49Z</time>
      </trkpt>
      <trkpt lat="49.25467" lon="1.13555">
        <ele>129.43349</ele>
        <time>2014-08-07T15:39:54Z</time>
      </trkpt>
      <trkpt lat="49.25468" lon="1.1355">
        <ele>130.70361</ele>
        <time>2014-08-07T15:39:59Z</time>
      </trkpt>
      <trkpt lat="49.25466" lon="1.13539">
        <ele>130.70361</ele>
        <time>2014-08-07T15:40:04Z</time>
      </trkpt>
      <trkpt lat="49.25468" lon="1.13533">
        <ele>131.53737</ele>
        <time>2014-08-07T15:40:09Z</time>
      </trkpt>
      <trkpt lat="49.2547" lon="1.13524">
        <ele>131.53737</ele>
        <time>2014-08-07T15:40:14Z</time>
      </trkpt>
      <trkpt lat="49.2547" lon="1.13516">
        <ele>132.05215</ele>
        <time>2014-08-07T15:40:19Z</time>
      </trkpt>
      <trkpt lat="49.25471" lon="1.13508">
        <ele>132.05215</ele>
        <time>2014-08-07T15:40:24Z</time>
      </trkpt>
      <trkpt lat="49.25473" lon="1.13499">
        <ele>132.38644</ele>
        <time>2014-08-07T15:40:29Z</time>
      </trkpt>
      <trkpt lat="49.25473" lon="1.13495">
        <ele>132.38644</ele>
        <time>2014-08-07T15:40:34Z</time>
      </trkpt>
      <trkpt lat="49.25475" lon="1.13491">
        <ele>132.38644</ele>
        <time>2014-08-07T15:40:39Z</time>
      </trkpt>
      <trkpt lat="49.25479" lon="1.13479">
        <ele>132.84195</ele>
        <time>2014-08-07T15:40:44Z</time>
      </trkpt>
      <trkpt lat="49.25483" lon="1.13467">
        <ele>132.84195</ele>
        <time>2014-08-07T15:40:49Z</time>
      </trkpt>
      <trkpt lat="49.25485" lon="1.13455">
        <ele>133.25117</ele>
        <time>2014-08-07T15:40:54Z</time>
      </trkpt>
      <trkpt lat="49.25486" lon="1.13442">
        <ele>133.25117</ele>
        <time>2014-08-07T15:40:59Z</time>
      </trkpt>
      <trkpt lat="49.25486" lon="1.13437">
        <ele>133.5887</ele>
        <time>2014-08-07T15:41:04Z</time>
      </trkpt>
      <trkpt lat="49.25486" lon="1.1343">
        <ele>133.5887</ele>
        <time>2014-08-07T15:41:09Z</time>
      </trkpt>
      <trkpt lat="49.25488" lon="1.13423">
        <ele>133.61504</ele>
        <time>2014-08-07T15:41:14Z</time>
      </trkpt>
      <trkpt lat="49.25491" lon="1.13415">
        <ele>133.61504</ele>
        <time>2014-08-07T15:41:19Z</time>
      </trkpt>
      <trkpt lat="49.25491" lon="1.13406">
        <ele>133.42618</ele>
        <time>2014-08-07T15:41:24Z</time>
      </trkpt>
      <trkpt lat="49.25493" lon="1.13398">
        <ele>133.30495</ele>
        <time>2014-08-07T15:41:29Z</time>
      </trkpt>
      <trkpt lat="49.25494" lon="1.13392">
        <ele>133.18372</ele>
        <time>2014-08-07T15:41:34Z</time>
      </trkpt>
      <trkpt lat="49.25496" lon="1.13378">
        <ele>133.08075</ele>
        <time>2014-08-07T15:41:39Z</time>
      </trkpt>
      <trkpt lat="49.25498" lon="1.13367">
        <ele>133.08075</ele>
        <time>2014-08-07T15:41:44Z</time>
      </trkpt>
      <trkpt lat="49.255" lon="1.13361">
        <ele>132.89224</ele>
        <time>2014-08-07T15:41:49Z</time>
      </trkpt>
      <trkpt lat="49.25501" lon="1.13353">
        <ele>132.89224</ele>
        <time>2014-08-07T15:41:54Z</time>
      </trkpt>
      <trkpt lat="49.25506" lon="1.13341">
        <ele>132.8567</ele>
        <time>2014-08-07T15:41:59Z</time>
      </trkpt>
      <trkpt lat="49.25507" lon="1.13329">
        <ele>132.8567</ele>
        <time>2014-08-07T15:42:04Z</time>
      </trkpt>
      <trkpt lat="49.25506" lon="1.13316">
        <ele>132.99287</ele>
        <time>2014-08-07T15:42:09Z</time>
      </trkpt>
      <trkpt lat="49.25507" lon="1.13312">
        <ele>132.99287</ele>
        <time>2014-08-07T15:42:14Z</time>
      </trkpt>
      <trkpt lat="49.2551" lon="1.13306">
        <ele>132.99287</ele>
        <time>2014-08-07T15:42:19Z</time>
      </trkpt>
      <trkpt lat="49.25512" lon="1.13299">
        <ele>133.20235</ele>
        <time>2014-08-07T15:42:24Z</time>
      </trkpt>
      <trkpt lat="49.25514" lon="1.13289">
        <ele>133.20235</ele>
        <time>2014-08-07T15:42:29Z</time>
      </trkpt>
      <trkpt lat="49.25518" lon="1.13279">
        <ele>133.4369</ele>
        <time>2014-08-07T15:42:34Z</time>
      </trkpt>
      <trkpt lat="49.25519" lon="1.1327">
        <ele>133.4369</ele>
        <time>2014-08-07T15:42:39Z</time>
      </trkpt>
      <trkpt lat="49.2552" lon="1.13265">
        <ele>133.42125</ele>
        <time>2014-08-07T15:42:44Z</time>
      </trkpt>
      <trkpt lat="49.25521" lon="1.13257">
        <ele>133.42125</ele>
        <time>2014-08-07T15:42:49Z</time>
      </trkpt>
      <trkpt lat="49.25522" lon="1.13243">
        <ele>133.39093</ele>
        <time>2014-08-07T15:42:54Z</time>
      </trkpt>
      <trkpt lat="49.25522" lon="1.13229">
        <ele>133.52098</ele>
        <time>2014-08-07T15:42:59Z</time>
      </trkpt>
      <trkpt lat="49.25522" lon="1.13223">
        <ele>133.52098</ele>
        <time>2014-08-07T15:43:04Z</time>
      </trkpt>
      <trkpt lat="49.25523" lon="1.13219">
        <ele>133.52098</ele>
        <time>2014-08-07T15:43:09Z</time>
      </trkpt>
      <trkpt lat="49.25526" lon="1.13207">
        <ele>133.36784</ele>
        <time>2014-08-07T15:43:14Z</time>
      </trkpt>
      <trkpt lat="49.25529" lon="1.13198">
        <ele>133.36784</ele>
        <time>2014-08-07T15:43:19Z</time>
      </trkpt>
      <trkpt lat="49.25529" lon="1.1319">
        <ele>133.0257</ele>
        <time>2014-08-07T15:43:24Z</time>
      </trkpt>
      <trkpt lat="49.2553" lon="1.13187">
        <ele>133.0257</ele>
        <time>2014-08-07T15:43:29Z</time>
      </trkpt>
      <trkpt lat="49.25533" lon="1.13176">
        <ele>132.4958</ele>
        <time>2014-08-07T15:43:34Z</time>
      </trkpt>
      <trkpt lat="49.25535" lon="1.13168">
        <ele>132.4958</ele>
        <time>2014-08-07T15:43:39Z</time>
      </trkpt>
      <trkpt lat="49.25537" lon="1.13161">
        <ele>131.72221</ele>
        <time>2014-08-07T15:43:44Z</time>
      </trkpt>
      <trkpt lat="49.25539" lon="1.13152">
        <ele>131.72221</ele>
        <time>2014-08-07T15:43:49Z</time>
      </trkpt>
      <trkpt lat="49.25542" lon="1.13144">
        <ele>130.81227</ele>
        <time>2014-08-07T15:43:54Z</time>
      </trkpt>
      <trkpt lat="49.25544" lon="1.13136">
        <ele>130.81227</ele>
        <time>2014-08-07T15:43:59Z</time>
      </trkpt>
      <trkpt lat="49.25545" lon="1.13124">
        <ele>129.99544</ele>
        <time>2014-08-07T15:44:04Z</time>
      </trkpt>
      <trkpt lat="49.25547" lon="1.13115">
        <ele>129.99544</ele>
        <time>2014-08-07T15:44:09Z</time>
      </trkpt>
      <trkpt lat="49.25548" lon="1.13104">
        <ele>129.08052</ele>
        <time>2014-08-07T15:44:14Z</time>
      </trkpt>
      <trkpt lat="49.25548" lon="1.13096">
        <ele>129.08052</ele>
        <time>2014-08-07T15:44:19Z</time>
      </trkpt>
      <trkpt lat="49.2555" lon="1.13088">
        <ele>128.20761</ele>
        <time>2014-08-07T15:44:24Z</time>
      </trkpt>
      <trkpt lat="49.25551" lon="1.13079">
        <ele>128.20761</ele>
        <time>2014-08-07T15:44:29Z</time>
      </trkpt>
      <trkpt lat="49.25552" lon="1.13072">
        <ele>127.34784</ele>
        <time>2014-08-07T15:44:34Z</time>
      </trkpt>
      <trkpt lat="49.25556" lon="1.13059">
        <ele>126.532</ele>
        <time>2014-08-07T15:44:39Z</time>
      </trkpt>
      <trkpt lat="49.25557" lon="1.1305">
        <ele>126.532</ele>
        <time>2014-08-07T15:44:44Z</time>
      </trkpt>
      <trkpt lat="49.25558" lon="1.13039">
        <ele>125.71635</ele>
        <time>2014-08-07T15:44:49Z</time>
      </trkpt>
      <trkpt lat="49.25559" lon="1.13033">
        <ele>125.71635</ele>
        <time>2014-08-07T15:44:54Z</time>
      </trkpt>
      <trkpt lat="49.2556" lon="1.13024">
        <ele>125.04765</ele>
        <time>2014-08-07T15:44:59Z</time>
      </trkpt>
      <trkpt lat="49.25561" lon="1.13018">
        <ele>125.04765</ele>
        <time>2014-08-07T15:45:04Z</time>
      </trkpt>
      <trkpt lat="49.25565" lon="1.13008">
        <ele>124.329956</ele>
        <time>2014-08-07T15:45:09Z</time>
      </trkpt>
      <trkpt lat="49.25568" lon="1.12998">
        <ele>124.329956</ele>
        <time>2014-08-07T15:45:14Z</time>
      </trkpt>
      <trkpt lat="49.25569" lon="1.12992">
        <ele>123.54027</ele>
        <time>2014-08-07T15:45:19Z</time>
      </trkpt>
      <trkpt lat="49.25571" lon="1.12982">
        <ele>123.54027</ele>
        <time>2014-08-07T15:45:24Z</time>
      </trkpt>
      <trkpt lat="49.25572" lon="1.12974">
        <ele>122.72948</ele>
        <time>2014-08-07T15:45:29Z</time>
      </trkpt>
      <trkpt lat="49.25573" lon="1.12967">
        <ele>122.72948</ele>
        <time>2014-08-07T15:45:34Z</time>
      </trkpt>
      <trkpt lat="49.25574" lon="1.12957">
        <ele>121.901474</ele>
        <time>2014-08-07T15:45:39Z</time>
      </trkpt>
      <trkpt lat="49.25576" lon="1.12947">
        <ele>121.901474</ele>
        <time>2014-08-07T15:45:44Z</time>
      </trkpt>
      <trkpt lat="49.25578" lon="1.12939">
        <ele>121.08868</ele>
        <time>2014-08-07T15:45:49Z</time>
      </trkpt>
      <trkpt lat="49.25581" lon="1.1293">
        <ele>121.08868</ele>
        <time>2014-08-07T15:45:54Z</time>
      </trkpt>
      <trkpt lat="49.25585" lon="1.12922">
        <ele>120.27774</ele>
        <time>2014-08-07T15:45:59Z</time>
      </trkpt>
      <trkpt lat="49.25586" lon="1.12916">
        <ele>120.27774</ele>
        <time>2014-08-07T15:46:04Z</time>
      </trkpt>
      <trkpt lat="49.25588" lon="1.12905">
        <ele>119.4274</ele>
        <time>2014-08-07T15:46:09Z</time>
      </trkpt>
      <trkpt lat="49.25589" lon="1.12897">
        <ele>119.4274</ele>
        <time>2014-08-07T15:46:14Z</time>
      </trkpt>
      <trkpt lat="49.25591" lon="1.12887">
        <ele>118.52829</ele>
        <time>2014-08-07T15:46:19Z</time>
      </trkpt>
      <trkpt lat="49.25592" lon="1.12879">
        <ele>118.52829</ele>
        <time>2014-08-07T15:46:24Z</time>
      </trkpt>
      <trkpt lat="49.25593" lon="1.1287">
        <ele>117.62941</ele>
        <time>2014-08-07T15:46:29Z</time>
      </trkpt>
      <trkpt lat="49.25594" lon="1.12861">
        <ele>117.62941</ele>
        <time>2014-08-07T15:46:34Z</time>
      </trkpt>
      <trkpt lat="49.25596" lon="1.12852">
        <ele>116.76169</ele>
        <time>2014-08-07T15:46:39Z</time>
      </trkpt>
      <trkpt lat="49.25598" lon="1.12845">
        <ele>116.76169</ele>
        <time>2014-08-07T15:46:44Z</time>
      </trkpt>
      <trkpt lat="49.25599" lon="1.12836">
        <ele>115.982414</ele>
        <time>2014-08-07T15:46:49Z</time>
      </trkpt>
      <trkpt lat="49.256" lon="1.12827">
        <ele>115.982414</ele>
        <time>2014-08-07T15:46:54Z</time>
      </trkpt>
      <trkpt lat="49.25603" lon="1.12817">
        <ele>115.286705</ele>
        <time>2014-08-07T15:46:59Z</time>
      </trkpt>
      <trkpt lat="49.25604" lon="1.1281">
        <ele>115.286705</ele>
        <time>2014-08-07T15:47:04Z</time>
      </trkpt>
      <trkpt lat="49.25604" lon="1.12801">
        <ele>114.65533</ele>
        <time>2014-08-07T15:47:09Z</time>
      </trkpt>
      <trkpt lat="49.25607" lon="1.12792">
        <ele>114.65533</ele>
        <time>2014-08-07T15:47:14Z</time>
      </trkpt>
      <trkpt lat="49.25608" lon="1.12782">
        <ele>114.127815</ele>
        <time>2014-08-07T15:47:19Z</time>
      </trkpt>
      <trkpt lat="49.2561" lon="1.12773">
        <ele>114.127815</ele>
        <time>2014-08-07T15:47:24Z</time>
      </trkpt>
      <trkpt lat="49.25613" lon="1.12765">
        <ele>113.58194</ele>
        <time>2014-08-07T15:47:29Z</time>
      </trkpt>
      <trkpt lat="49.25615" lon="1.12756">
        <ele>113.58194</ele>
        <time>2014-08-07T15:47:34Z</time>
      </trkpt>
      <trkpt lat="49.25615" lon="1.12747">
        <ele>113.06294</ele>
        <time>2014-08-07T15:47:39Z</time>
      </trkpt>
      <trkpt lat="49.25618" lon="1.1274">
        <ele>113.06294</ele>
        <time>2014-08-07T15:47:44Z</time>
      </trkpt>
      <trkpt lat="49.2562" lon="1.12731">
        <ele>112.670235</ele>
        <time>2014-08-07T15:47:49Z</time>
      </trkpt>
      <trkpt lat="49.25622" lon="1.12722">
        <ele>112.670235</ele>
        <time>2014-08-07T15:47:54Z</time>
      </trkpt>
      <trkpt lat="49.25624" lon="1.12712">
        <ele>112.42346</ele>
        <time>2014-08-07T15:47:59Z</time>
      </trkpt>
      <trkpt lat="49.25624" lon="1.12705">
        <ele>112.42346</ele>
        <time>2014-08-07T15:48:04Z</time>
      </trkpt>
      <trkpt lat="49.25626" lon="1.12695">
        <ele>112.2683</ele>
        <time>2014-08-07T15:48:09Z</time>
      </trkpt>
      <trkpt lat="49.25629" lon="1.12685">
        <ele>112.2683</ele>
        <time>2014-08-07T15:48:14Z</time>
      </trkpt>
      <trkpt lat="49.25631" lon="1.12678">
        <ele>112.211754</ele>
        <time>2014-08-07T15:48:19Z</time>
      </trkpt>
      <trkpt lat="49.25633" lon="1.12668">
        <ele>112.211754</ele>
        <time>2014-08-07T15:48:24Z</time>
      </trkpt>
      <trkpt lat="49.25635" lon="1.12659">
        <ele>112.1591</ele>
        <time>2014-08-07T15:48:29Z</time>
      </trkpt>
      <trkpt lat="49.25636" lon="1.12651">
        <ele>112.1591</ele>
        <time>2014-08-07T15:48:34Z</time>
      </trkpt>
      <trkpt lat="49.25637" lon="1.12642">
        <ele>112.209885</ele>
        <time>2014-08-07T15:48:39Z</time>
      </trkpt>
      <trkpt lat="49.25638" lon="1.12632">
        <ele>112.209885</ele>
        <time>2014-08-07T15:48:44Z</time>
      </trkpt>
      <trkpt lat="49.2564" lon="1.12626">
        <ele>112.29748</ele>
        <time>2014-08-07T15:48:49Z</time>
      </trkpt>
      <trkpt lat="49.25642" lon="1.12617">
        <ele>112.29748</ele>
        <time>2014-08-07T15:48:54Z</time>
      </trkpt>
      <trkpt lat="49.25643" lon="1.12607">
        <ele>112.44648</ele>
        <time>2014-08-07T15:48:59Z</time>
      </trkpt>
      <trkpt lat="49.25644" lon="1.12598">
        <ele>112.44648</ele>
        <time>2014-08-07T15:49:04Z</time>
      </trkpt>
      <trkpt lat="49.25646" lon="1.12586">
        <ele>112.679504</ele>
        <time>2014-08-07T15:49:09Z</time>
      </trkpt>
      <trkpt lat="49.25648" lon="1.1258">
        <ele>112.679504</ele>
        <time>2014-08-07T15:49:14Z</time>
      </trkpt>
      <trkpt lat="49.25649" lon="1.12571">
        <ele>112.974014</ele>
        <time>2014-08-07T15:49:19Z</time>
      </trkpt>
      <trkpt lat="49.25652" lon="1.12562">
        <ele>112.974014</ele>
        <time>2014-08-07T15:49:24Z</time>
      </trkpt>
      <trkpt lat="49.25654" lon="1.12555">
        <ele>113.30894</ele>
        <time>2014-08-07T15:49:29Z</time>
      </trkpt>
      <trkpt lat="49.25657" lon="1.12546">
        <ele>113.30894</ele>
        <time>2014-08-07T15:49:34Z</time>
      </trkpt>
      <trkpt lat="49.2566" lon="1.12538">
        <ele>113.60701</ele>
        <time>2014-08-07T15:49:39Z</time>
      </trkpt>
      <trkpt lat="49.25662" lon="1.12528">
        <ele>113.60701</ele>
        <time>2014-08-07T15:49:44Z</time>
      </trkpt>
      <trkpt lat="49.25661" lon="1.1252">
        <ele>113.8832</ele>
        <time>2014-08-07T15:49:49Z</time>
      </trkpt>
      <trkpt lat="49.25661" lon="1.12512">
        <ele>113.8832</ele>
        <time>2014-08-07T15:49:54Z</time>
      </trkpt>
      <trkpt lat="49.25663" lon="1.12502">
        <ele>114.223526</ele>
        <time>2014-08-07T15:49:59Z</time>
      </trkpt>
      <trkpt lat="49.25665" lon="1.12492">
        <ele>114.223526</ele>
        <time>2014-08-07T15:50:04Z</time>
      </trkpt>
      <trkpt lat="49.25665" lon="1.12484">
        <ele>114.53458</ele>
        <time>2014-08-07T15:50:09Z</time>
      </trkpt>
      <trkpt lat="49.25668" lon="1.12477">
        <ele>114.53458</ele>
        <time>2014-08-07T15:50:14Z</time>
      </trkpt>
      <trkpt lat="49.2567" lon="1.12467">
        <ele>114.888435</ele>
        <time>2014-08-07T15:50:19Z</time>
      </trkpt>
      <trkpt lat="49.25673" lon="1.12459">
        <ele>114.888435</ele>
        <time>2014-08-07T15:50:24Z</time>
      </trkpt>
      <trkpt lat="49.25677" lon="1.12448">
        <ele>115.250916</ele>
        <time>2014-08-07T15:50:29Z</time>
      </trkpt>
      <trkpt lat="49.25679" lon="1.12443">
        <ele>115.250916</ele>
        <time>2014-08-07T15:50:34Z</time>
      </trkpt>
      <trkpt lat="49.2568" lon="1.12433">
        <ele>115.56154</ele>
        <time>2014-08-07T15:50:39Z</time>
      </trkpt>
      <trkpt lat="49.25681" lon="1.12425">
        <ele>115.56154</ele>
        <time>2014-08-07T15:50:44Z</time>
      </trkpt>
      <trkpt lat="49.25683" lon="1.12414">
        <ele>115.79326</ele>
        <time>2014-08-07T15:50:49Z</time>
      </trkpt>
      <trkpt lat="49.25685" lon="1.12404">
        <ele>115.79326</ele>
        <time>2014-08-07T15:50:54Z</time>
      </trkpt>
      <trkpt lat="49.25686" lon="1.12395">
        <ele>115.99334</ele>
        <time>2014-08-07T15:50:59Z</time>
      </trkpt>
      <trkpt lat="49.25688" lon="1.12386">
        <ele>115.99334</ele>
        <time>2014-08-07T15:51:04Z</time>
      </trkpt>
      <trkpt lat="49.25689" lon="1.12377">
        <ele>116.176895</ele>
        <time>2014-08-07T15:51:09Z</time>
      </trkpt>
      <trkpt lat="49.2569" lon="1.12368">
        <ele>116.176895</ele>
        <time>2014-08-07T15:51:14Z</time>
      </trkpt>
      <trkpt lat="49.25692" lon="1.1236">
        <ele>116.35799</ele>
        <time>2014-08-07T15:51:19Z</time>
      </trkpt>
      <trkpt lat="49.25693" lon="1.1235">
        <ele>116.35799</ele>
        <time>2014-08-07T15:51:24Z</time>
      </trkpt>
      <trkpt lat="49.25695" lon="1.12343">
        <ele>116.50649</ele>
        <time>2014-08-07T15:51:29Z</time>
      </trkpt>
      <trkpt lat="49.25699" lon="1.12333">
        <ele>116.50649</ele>
        <time>2014-08-07T15:51:34Z</time>
      </trkpt>
      <trkpt lat="49.257" lon="1.12322">
        <ele>116.637856</ele>
        <time>2014-08-07T15:51:39Z</time>
      </trkpt>
      <trkpt lat="49.25702" lon="1.12312">
        <ele>116.637856</ele>
        <time>2014-08-07T15:51:44Z</time>
      </trkpt>
      <trkpt lat="49.25703" lon="1.12304">
        <ele>116.73766</ele>
        <time>2014-08-07T15:51:49Z</time>
      </trkpt>
      <trkpt lat="49.25703" lon="1.12295">
        <ele>116.73766</ele>
        <time>2014-08-07T15:51:54Z</time>
      </trkpt>
      <trkpt lat="49.25705" lon="1.12288">
        <ele>116.879166</ele>
        <time>2014-08-07T15:51:59Z</time>
      </trkpt>
      <trkpt lat="49.25706" lon="1.12278">
        <ele>116.879166</ele>
        <time>2014-08-07T15:52:04Z</time>
      </trkpt>
      <trkpt lat="49.25707" lon="1.12269">
        <ele>117.01488</ele>
        <time>2014-08-07T15:52:09Z</time>
      </trkpt>
      <trkpt lat="49.25709" lon="1.12259">
        <ele>117.01488</ele>
        <time>2014-08-07T15:52:14Z</time>
      </trkpt>
      <trkpt lat="49.25711" lon="1.12251">
        <ele>117.100845</ele>
        <time>2014-08-07T15:52:19Z</time>
      </trkpt>
      <trkpt lat="49.25713" lon="1.12243">
        <ele>117.100845</ele>
        <time>2014-08-07T15:52:24Z</time>
      </trkpt>
      <trkpt lat="49.25716" lon="1.12233">
        <ele>117.154205</ele>
        <time>2014-08-07T15:52:29Z</time>
      </trkpt>
      <trkpt lat="49.25718" lon="1.12223">
        <ele>117.154205</ele>
        <time>2014-08-07T15:52:34Z</time>
      </trkpt>
      <trkpt lat="49.25718" lon="1.12214">
        <ele>117.219765</ele>
        <time>2014-08-07T15:52:39Z</time>
      </trkpt>
      <trkpt lat="49.25721" lon="1.12205">
        <ele>117.219765</ele>
        <time>2014-08-07T15:52:44Z</time>
      </trkpt>
      <trkpt lat="49.25725" lon="1.12198">
        <ele>117.194954</ele>
        <time>2014-08-07T15:52:49Z</time>
      </trkpt>
      <trkpt lat="49.25728" lon="1.12191">
        <ele>117.194954</ele>
        <time>2014-08-07T15:52:54Z</time>
      </trkpt>
      <trkpt lat="49.25731" lon="1.1218">
        <ele>117.10033</ele>
        <time>2014-08-07T15:52:59Z</time>
      </trkpt>
      <trkpt lat="49.25736" lon="1.12175">
        <ele>117.10033</ele>
        <time>2014-08-07T15:53:04Z</time>
      </trkpt>
      <trkpt lat="49.25739" lon="1.1217">
        <ele>116.955154</ele>
        <time>2014-08-07T15:53:09Z</time>
      </trkpt>
      <trkpt lat="49.25745" lon="1.12167">
        <ele>116.955154</ele>
        <time>2014-08-07T15:53:14Z</time>
      </trkpt>
      <trkpt lat="49.25752" lon="1.12168">
        <ele>116.74866</ele>
        <time>2014-08-07T15:53:19Z</time>
      </trkpt>
      <trkpt lat="49.25759" lon="1.12169">
        <ele>116.74866</ele>
        <time>2014-08-07T15:53:24Z</time>
      </trkpt>
      <trkpt lat="49.25764" lon="1.1217">
        <ele>116.413414</ele>
        <time>2014-08-07T15:53:29Z</time>
      </trkpt>
      <trkpt lat="49.25771" lon="1.1217">
        <ele>116.413414</ele>
        <time>2014-08-07T15:53:34Z</time>
      </trkpt>
      <trkpt lat="49.25776" lon="1.12169">
        <ele>116.01705</ele>
        <time>2014-08-07T15:53:39Z</time>
      </trkpt>
      <trkpt lat="49.25781" lon="1.12166">
        <ele>116.01705</ele>
        <time>2014-08-07T15:53:44Z</time>
      </trkpt>
      <trkpt lat="49.25786" lon="1.12161">
        <ele>115.55036</ele>
        <time>2014-08-07T15:53:49Z</time>
      </trkpt>
      <trkpt lat="49.2579" lon="1.12157">
        <ele>115.55036</ele>
        <time>2014-08-07T15:53:54Z</time>
      </trkpt>
      <trkpt lat="49.25797" lon="1.12152">
        <ele>115.06269</ele>
        <time>2014-08-07T15:53:59Z</time>
      </trkpt>
      <trkpt lat="49.25801" lon="1.12147">
        <ele>115.06269</ele>
        <time>2014-08-07T15:54:04Z</time>
      </trkpt>
      <trkpt lat="49.25807" lon="1.12139">
        <ele>114.65748</ele>
        <time>2014-08-07T15:54:09Z</time>
      </trkpt>
      <trkpt lat="49.25809" lon="1.12133">
        <ele>114.65748</ele>
        <time>2014-08-07T15:54:14Z</time>
      </trkpt>
      <trkpt lat="49.25814" lon="1.12126">
        <ele>114.3583</ele>
        <time>2014-08-07T15:54:19Z</time>
      </trkpt>
      <trkpt lat="49.25817" lon="1.1212">
        <ele>114.3583</ele>
        <time>2014-08-07T15:54:24Z</time>
      </trkpt>
      <trkpt lat="49.25822" lon="1.12113">
        <ele>114.1723</ele>
        <time>2014-08-07T15:54:29Z</time>
      </trkpt>
      <trkpt lat="49.25827" lon="1.12108">
        <ele>114.1723</ele>
        <time>2014-08-07T15:54:34Z</time>
      </trkpt>
      <trkpt lat="49.25831" lon="1.12106">
        <ele>114.01933</ele>
        <time>2014-08-07T15:54:39Z</time>
      </trkpt>
      <trkpt lat="49.25834" lon="1.12104">
        <ele>114.01933</ele>
        <time>2014-08-07T15:54:44Z</time>
      </trkpt>
      <trkpt lat="49.25838" lon="1.12101">
        <ele>114.01933</ele>
        <time>2014-08-07T15:54:49Z</time>
      </trkpt>
      <trkpt lat="49.25844" lon="1.12095">
        <ele>113.94033</ele>
        <time>2014-08-07T15:54:54Z</time>
      </trkpt>
      <trkpt lat="49.25845" lon="1.12089">
        <ele>113.94033</ele>
        <time>2014-08-07T15:54:59Z</time>
      </trkpt>
      <trkpt lat="49.25846" lon="1.12084">
        <ele>113.94033</ele>
        <time>2014-08-07T15:55:04Z</time>
      </trkpt>
      <trkpt lat="49.25846" lon="1.12074">
        <ele>113.929794</ele>
        <time>2014-08-07T15:55:09Z</time>
      </trkpt>
      <trkpt lat="49.25846" lon="1.12068">
        <ele>113.929794</ele>
        <time>2014-08-07T15:55:14Z</time>
      </trkpt>
      <trkpt lat="49.25843" lon="1.12068">
        <ele>113.929794</ele>
        <time>2014-08-07T15:55:19Z</time>
      </trkpt>
      <trkpt lat="49.25841" lon="1.12061">
        <ele>113.63657</ele>
        <time>2014-08-07T15:55:24Z</time>
      </trkpt>
      <trkpt lat="49.25839" lon="1.12058">
        <ele>113.63657</ele>
        <time>2014-08-07T15:55:29Z</time>
      </trkpt>
      <trkpt lat="49.25841" lon="1.12046">
        <ele>113.211685</ele>
        <time>2014-08-07T15:55:34Z</time>
      </trkpt>
      <trkpt lat="49.2584" lon="1.12035">
        <ele>113.211685</ele>
        <time>2014-08-07T15:55:39Z</time>
      </trkpt>
      <trkpt lat="49.25839" lon="1.12026">
        <ele>112.636894</ele>
        <time>2014-08-07T15:55:44Z</time>
      </trkpt>
      <trkpt lat="49.2584" lon="1.12024">
        <ele>112.636894</ele>
        <time>2014-08-07T15:55:49Z</time>
      </trkpt>
      <trkpt lat="49.25843" lon="1.12014">
        <ele>112.636894</ele>
        <time>2014-08-07T15:55:54Z</time>
      </trkpt>
      <trkpt lat="49.25844" lon="1.12007">
        <ele>111.9822</ele>
        <time>2014-08-07T15:55:59Z</time>
      </trkpt>
      <trkpt lat="49.25845" lon="1.11999">
        <ele>111.9822</ele>
        <time>2014-08-07T15:56:04Z</time>
      </trkpt>
      <trkpt lat="49.25847" lon="1.11991">
        <ele>111.35592</ele>
        <time>2014-08-07T15:56:09Z</time>
      </trkpt>
      <trkpt lat="49.25848" lon="1.11985">
        <ele>111.35592</ele>
        <time>2014-08-07T15:56:14Z</time>
      </trkpt>
      <trkpt lat="49.25851" lon="1.11978">
        <ele>110.771835</ele>
        <time>2014-08-07T15:56:19Z</time>
      </trkpt>
      <trkpt lat="49.25854" lon="1.11971">
        <ele>110.771835</ele>
        <time>2014-08-07T15:56:24Z</time>
      </trkpt>
      <trkpt lat="49.25856" lon="1.11961">
        <ele>110.17056</ele>
        <time>2014-08-07T15:56:29Z</time>
      </trkpt>
      <trkpt lat="49.25858" lon="1.11954">
        <ele>110.17056</ele>
        <time>2014-08-07T15:56:34Z</time>
      </trkpt>
      <trkpt lat="49.25861" lon="1.11947">
        <ele>109.58356</ele>
        <time>2014-08-07T15:56:39Z</time>
      </trkpt>
      <trkpt lat="49.25863" lon="1.1194">
        <ele>109.58356</ele>
        <time>2014-08-07T15:56:44Z</time>
      </trkpt>
      <trkpt lat="49.25865" lon="1.11932">
        <ele>108.982285</ele>
        <time>2014-08-07T15:56:49Z</time>
      </trkpt>
      <trkpt lat="49.25867" lon="1.11925">
        <ele>108.982285</ele>
        <time>2014-08-07T15:56:54Z</time>
      </trkpt>
      <trkpt lat="49.2587" lon="1.11916">
        <ele>108.383545</ele>
        <time>2014-08-07T15:56:59Z</time>
      </trkpt>
      <trkpt lat="49.25872" lon="1.11907">
        <ele>108.383545</ele>
        <time>2014-08-07T15:57:04Z</time>
      </trkpt>
      <trkpt lat="49.25874" lon="1.11897">
        <ele>107.91817</ele>
        <time>2014-08-07T15:57:09Z</time>
      </trkpt>
      <trkpt lat="49.25877" lon="1.11888">
        <ele>107.91817</ele>
        <time>2014-08-07T15:57:14Z</time>
      </trkpt>
      <trkpt lat="49.25878" lon="1.11878">
        <ele>107.53403</ele>
        <time>2014-08-07T15:57:19Z</time>
      </trkpt>
      <trkpt lat="49.2588" lon="1.11871">
        <ele>107.53403</ele>
        <time>2014-08-07T15:57:24Z</time>
      </trkpt>
      <trkpt lat="49.25883" lon="1.1186">
        <ele>107.24025</ele>
        <time>2014-08-07T15:57:29Z</time>
      </trkpt>
      <trkpt lat="49.25883" lon="1.11852">
        <ele>107.24025</ele>
        <time>2014-08-07T15:57:34Z</time>
      </trkpt>
      <trkpt lat="49.25885" lon="1.11844">
        <ele>107.01615</ele>
        <time>2014-08-07T15:57:39Z</time>
      </trkpt>
      <trkpt lat="49.25887" lon="1.11837">
        <ele>107.01615</ele>
        <time>2014-08-07T15:57:44Z</time>
      </trkpt>
      <trkpt lat="49.25889" lon="1.11826">
        <ele>106.87121</ele>
        <time>2014-08-07T15:57:49Z</time>
      </trkpt>
      <trkpt lat="49.2589" lon="1.11817">
        <ele>106.87121</ele>
        <time>2014-08-07T15:57:54Z</time>
      </trkpt>
      <trkpt lat="49.25892" lon="1.11809">
        <ele>106.813934</ele>
        <time>2014-08-07T15:57:59Z</time>
      </trkpt>
      <trkpt lat="49.25894" lon="1.11799">
        <ele>106.813934</ele>
        <time>2014-08-07T15:58:04Z</time>
      </trkpt>
      <trkpt lat="49.25895" lon="1.11791">
        <ele>106.808716</ele>
        <time>2014-08-07T15:58:09Z</time>
      </trkpt>
      <trkpt lat="49.25897" lon="1.11781">
        <ele>106.808716</ele>
        <time>2014-08-07T15:58:14Z</time>
      </trkpt>
      <trkpt lat="49.25899" lon="1.11773">
        <ele>106.80798</ele>
        <time>2014-08-07T15:58:19Z</time>
      </trkpt>
      <trkpt lat="49.25901" lon="1.11763">
        <ele>106.80798</ele>
        <time>2014-08-07T15:58:24Z</time>
      </trkpt>
      <trkpt lat="49.25903" lon="1.11753">
        <ele>106.868515</ele>
        <time>2014-08-07T15:58:29Z</time>
      </trkpt>
      <trkpt lat="49.25905" lon="1.11746">
        <ele>106.868515</ele>
        <time>2014-08-07T15:58:34Z</time>
      </trkpt>
      <trkpt lat="49.25906" lon="1.11737">
        <ele>107.04273</ele>
        <time>2014-08-07T15:58:39Z</time>
      </trkpt>
      <trkpt lat="49.25909" lon="1.11726">
        <ele>107.04273</ele>
        <time>2014-08-07T15:58:44Z</time>
      </trkpt>
      <trkpt lat="49.2591" lon="1.11719">
        <ele>107.278</ele>
        <time>2014-08-07T15:58:49Z</time>
      </trkpt>
      <trkpt lat="49.25912" lon="1.11708">
        <ele>107.278</ele>
        <time>2014-08-07T15:58:54Z</time>
      </trkpt>
      <trkpt lat="49.25912" lon="1.117">
        <ele>107.496544</ele>
        <time>2014-08-07T15:58:59Z</time>
      </trkpt>
      <trkpt lat="49.25913" lon="1.1169">
        <ele>107.496544</ele>
        <time>2014-08-07T15:59:04Z</time>
      </trkpt>
      <trkpt lat="49.25914" lon="1.11684">
        <ele>107.684</ele>
        <time>2014-08-07T15:59:09Z</time>
      </trkpt>
      <trkpt lat="49.25915" lon="1.11675">
        <ele>107.684</ele>
        <time>2014-08-07T15:59:14Z</time>
      </trkpt>
      <trkpt lat="49.25917" lon="1.11666">
        <ele>107.91361</ele>
        <time>2014-08-07T15:59:19Z</time>
      </trkpt>
      <trkpt lat="49.25919" lon="1.11657">
        <ele>107.91361</ele>
        <time>2014-08-07T15:59:24Z</time>
      </trkpt>
      <trkpt lat="49.25921" lon="1.1165">
        <ele>108.20991</ele>
        <time>2014-08-07T15:59:29Z</time>
      </trkpt>
      <trkpt lat="49.25924" lon="1.11641">
        <ele>108.20991</ele>
        <time>2014-08-07T15:59:34Z</time>
      </trkpt>
      <trkpt lat="49.25925" lon="1.11631">
        <ele>108.465706</ele>
        <time>2014-08-07T15:59:39Z</time>
      </trkpt>
      <trkpt lat="49.25926" lon="1.11623">
        <ele>108.465706</ele>
        <time>2014-08-07T15:59:44Z</time>
      </trkpt>
      <trkpt lat="49.25928" lon="1.11611">
        <ele>108.82685</ele>
        <time>2014-08-07T15:59:49Z</time>
      </trkpt>
      <trkpt lat="49.2593" lon="1.11603">
        <ele>108.82685</ele>
        <time>2014-08-07T15:59:54Z</time>
      </trkpt>
      <trkpt lat="49.25932" lon="1.11595">
        <ele>109.18317</ele>
        <time>2014-08-07T15:59:59Z</time>
      </trkpt>
      <trkpt lat="49.25934" lon="1.11584">
        <ele>109.18317</ele>
        <time>2014-08-07T16:00:04Z</time>
      </trkpt>
      <trkpt lat="49.25936" lon="1.11576">
        <ele>109.54792</ele>
        <time>2014-08-07T16:00:09Z</time>
      </trkpt>
      <trkpt lat="49.25938" lon="1.11567">
        <ele>109.54792</ele>
        <time>2014-08-07T16:00:14Z</time>
      </trkpt>
      <trkpt lat="49.2594" lon="1.11558">
        <ele>109.933395</ele>
        <time>2014-08-07T16:00:19Z</time>
      </trkpt>
      <trkpt lat="49.25941" lon="1.1155">
        <ele>109.933395</ele>
        <time>2014-08-07T16:00:24Z</time>
      </trkpt>
      <trkpt lat="49.25942" lon="1.11539">
        <ele>110.322105</ele>
        <time>2014-08-07T16:00:29Z</time>
      </trkpt>
      <trkpt lat="49.25943" lon="1.11532">
        <ele>110.322105</ele>
        <time>2014-08-07T16:00:34Z</time>
      </trkpt>
      <trkpt lat="49.25946" lon="1.11526">
        <ele>110.65464</ele>
        <time>2014-08-07T16:00:39Z</time>
      </trkpt>
      <trkpt lat="49.25947" lon="1.11525">
        <ele>110.65464</ele>
        <time>2014-08-07T16:00:44Z</time>
      </trkpt>
      <trkpt lat="49.25947" lon="1.11525">
        <ele>110.65464</ele>
        <time>2014-08-07T16:00:49Z</time>
      </trkpt>
      <trkpt lat="49.25946" lon="1.11525">
        <ele>110.65464</ele>
        <time>2014-08-07T16:00:54Z</time>
      </trkpt>
      <trkpt lat="49.25946" lon="1.11526">
        <ele>110.65464</ele>
        <time>2014-08-07T16:00:59Z</time>
      </trkpt>
      <trkpt lat="49.25947" lon="1.11525">
        <ele>110.65464</ele>
        <time>2014-08-07T16:01:04Z</time>
      </trkpt>
      <trkpt lat="49.25947" lon="1.11525">
        <ele>110.65464</ele>
        <time>2014-08-07T16:01:09Z</time>
      </trkpt>
      <trkpt lat="49.25948" lon="1.11524">
        <ele>110.65464</ele>
        <time>2014-08-07T16:01:14Z</time>
      </trkpt>
      <trkpt lat="49.25948" lon="1.11524">
        <ele>110.65464</ele>
        <time>2014-08-07T16:01:19Z</time>
      </trkpt>
      <trkpt lat="49.25948" lon="1.11524">
        <ele>110.65464</ele>
        <time>2014-08-07T16:01:24Z</time>
      </trkpt>
      <trkpt lat="49.25948" lon="1.11524">
        <ele>110.65464</ele>
        <time>2014-08-07T16:01:29Z</time>
      </trkpt>
      <trkpt lat="49.25948" lon="1.11525">
        <ele>110.65464</ele>
        <time>2014-08-07T16:01:34Z</time>
      </trkpt>
      <trkpt lat="49.2595" lon="1.11515">
        <ele>110.948204</ele>
        <time>2014-08-07T16:01:39Z</time>
      </trkpt>
      <trkpt lat="49.25951" lon="1.11507">
        <ele>110.948204</ele>
        <time>2014-08-07T16:01:44Z</time>
      </trkpt>
      <trkpt lat="49.25952" lon="1.11497">
        <ele>111.2621</ele>
        <time>2014-08-07T16:01:49Z</time>
      </trkpt>
      <trkpt lat="49.25953" lon="1.11491">
        <ele>111.2621</ele>
        <time>2014-08-07T16:01:54Z</time>
      </trkpt>
      <trkpt lat="49.25955" lon="1.11484">
        <ele>111.608025</ele>
        <time>2014-08-07T16:01:59Z</time>
      </trkpt>
      <trkpt lat="49.25957" lon="1.11474">
        <ele>111.608025</ele>
        <time>2014-08-07T16:02:04Z</time>
      </trkpt>
      <trkpt lat="49.25959" lon="1.11468">
        <ele>112.0544</ele>
        <time>2014-08-07T16:02:09Z</time>
      </trkpt>
      <trkpt lat="49.25961" lon="1.11458">
        <ele>112.0544</ele>
        <time>2014-08-07T16:02:14Z</time>
      </trkpt>
      <trkpt lat="49.25963" lon="1.11451">
        <ele>112.5779</ele>
        <time>2014-08-07T16:02:19Z</time>
      </trkpt>
      <trkpt lat="49.25965" lon="1.11443">
        <ele>112.5779</ele>
        <time>2014-08-07T16:02:24Z</time>
      </trkpt>
      <trkpt lat="49.25968" lon="1.11435">
        <ele>113.21441</ele>
        <time>2014-08-07T16:02:29Z</time>
      </trkpt>
      <trkpt lat="49.2597" lon="1.11426">
        <ele>113.21441</ele>
        <time>2014-08-07T16:02:34Z</time>
      </trkpt>
      <trkpt lat="49.25972" lon="1.1142">
        <ele>113.76629</ele>
        <time>2014-08-07T16:02:39Z</time>
      </trkpt>
      <trkpt lat="49.25975" lon="1.11412">
        <ele>113.76629</ele>
        <time>2014-08-07T16:02:44Z</time>
      </trkpt>
      <trkpt lat="49.25978" lon="1.11404">
        <ele>114.33893</ele>
        <time>2014-08-07T16:02:49Z</time>
      </trkpt>
      <trkpt lat="49.2598" lon="1.11398">
        <ele>114.33893</ele>
        <time>2014-08-07T16:02:54Z</time>
      </trkpt>
      <trkpt lat="49.25982" lon="1.11396">
        <ele>114.33893</ele>
        <time>2014-08-07T16:02:59Z</time>
      </trkpt>
      <trkpt lat="49.25985" lon="1.11388">
        <ele>114.943504</ele>
        <time>2014-08-07T16:03:04Z</time>
      </trkpt>
      <trkpt lat="49.25988" lon="1.11382">
        <ele>114.943504</ele>
        <time>2014-08-07T16:03:09Z</time>
      </trkpt>
      <trkpt lat="49.2599" lon="1.11376">
        <ele>115.5471</ele>
        <time>2014-08-07T16:03:14Z</time>
      </trkpt>
      <trkpt lat="49.25994" lon="1.11371">
        <ele>115.5471</ele>
        <time>2014-08-07T16:03:19Z</time>
      </trkpt>
      <trkpt lat="49.25998" lon="1.11364">
        <ele>116.16247</ele>
        <time>2014-08-07T16:03:24Z</time>
      </trkpt>
      <trkpt lat="49.26001" lon="1.1136">
        <ele>116.16247</ele>
        <time>2014-08-07T16:03:29Z</time>
      </trkpt>
      <trkpt lat="49.26005" lon="1.11356">
        <ele>116.16247</ele>
        <time>2014-08-07T16:03:34Z</time>
      </trkpt>
      <trkpt lat="49.26012" lon="1.11352">
        <ele>116.78706</ele>
        <time>2014-08-07T16:03:39Z</time>
      </trkpt>
      <trkpt lat="49.26019" lon="1.11353">
        <ele>116.78706</ele>
        <time>2014-08-07T16:03:44Z</time>
      </trkpt>
      <trkpt lat="49.26025" lon="1.11354">
        <ele>117.28884</ele>
        <time>2014-08-07T16:03:49Z</time>
      </trkpt>
      <trkpt lat="49.26029" lon="1.11355">
        <ele>117.28884</ele>
        <time>2014-08-07T16:03:54Z</time>
      </trkpt>
      <trkpt lat="49.26035" lon="1.1135">
        <ele>117.7332</ele>
        <time>2014-08-07T16:03:59Z</time>
      </trkpt>
      <trkpt lat="49.26037" lon="1.11345">
        <ele>117.7332</ele>
        <time>2014-08-07T16:04:04Z</time>
      </trkpt>
      <trkpt lat="49.26041" lon="1.11338">
        <ele>118.15212</ele>
        <time>2014-08-07T16:04:09Z</time>
      </trkpt>
      <trkpt lat="49.26042" lon="1.11332">
        <ele>118.15212</ele>
        <time>2014-08-07T16:04:14Z</time>
      </trkpt>
      <trkpt lat="49.26044" lon="1.11323">
        <ele>118.54653</ele>
        <time>2014-08-07T16:04:19Z</time>
      </trkpt>
      <trkpt lat="49.26046" lon="1.11317">
        <ele>118.54653</ele>
        <time>2014-08-07T16:04:24Z</time>
      </trkpt>
      <trkpt lat="49.26048" lon="1.1131">
        <ele>118.87418</ele>
        <time>2014-08-07T16:04:29Z</time>
      </trkpt>
      <trkpt lat="49.2605" lon="1.11302">
        <ele>118.87418</ele>
        <time>2014-08-07T16:04:34Z</time>
      </trkpt>
      <trkpt lat="49.26052" lon="1.11296">
        <ele>119.21146</ele>
        <time>2014-08-07T16:04:39Z</time>
      </trkpt>
      <trkpt lat="49.26054" lon="1.11288">
        <ele>119.21146</ele>
        <time>2014-08-07T16:04:44Z</time>
      </trkpt>
      <trkpt lat="49.26056" lon="1.11283">
        <ele>119.51385</ele>
        <time>2014-08-07T16:04:49Z</time>
      </trkpt>
      <trkpt lat="49.26059" lon="1.11276">
        <ele>119.51385</ele>
        <time>2014-08-07T16:04:54Z</time>
      </trkpt>
      <trkpt lat="49.26063" lon="1.11267">
        <ele>119.855545</ele>
        <time>2014-08-07T16:04:59Z</time>
      </trkpt>
      <trkpt lat="49.26064" lon="1.11261">
        <ele>119.855545</ele>
        <time>2014-08-07T16:05:04Z</time>
      </trkpt>
      <trkpt lat="49.26067" lon="1.11253">
        <ele>120.21878</ele>
        <time>2014-08-07T16:05:09Z</time>
      </trkpt>
      <trkpt lat="49.26068" lon="1.11247">
        <ele>120.21878</ele>
        <time>2014-08-07T16:05:14Z</time>
      </trkpt>
      <trkpt lat="49.26072" lon="1.11239">
        <ele>120.54381</ele>
        <time>2014-08-07T16:05:19Z</time>
      </trkpt>
      <trkpt lat="49.26074" lon="1.11233">
        <ele>120.54381</ele>
        <time>2014-08-07T16:05:24Z</time>
      </trkpt>
      <trkpt lat="49.26077" lon="1.11223">
        <ele>120.847496</ele>
        <time>2014-08-07T16:05:29Z</time>
      </trkpt>
      <trkpt lat="49.26076" lon="1.11215">
        <ele>120.847496</ele>
        <time>2014-08-07T16:05:34Z</time>
      </trkpt>
      <trkpt lat="49.26073" lon="1.11209">
        <ele>121.10232</ele>
        <time>2014-08-07T16:05:39Z</time>
      </trkpt>
      <trkpt lat="49.26068" lon="1.11203">
        <ele>121.10232</ele>
        <time>2014-08-07T16:05:44Z</time>
      </trkpt>
      <trkpt lat="49.26062" lon="1.11199">
        <ele>121.34061</ele>
        <time>2014-08-07T16:05:49Z</time>
      </trkpt>
      <trkpt lat="49.26055" lon="1.11195">
        <ele>121.34061</ele>
        <time>2014-08-07T16:05:54Z</time>
      </trkpt>
      <trkpt lat="49.26048" lon="1.11194">
        <ele>121.505905</ele>
        <time>2014-08-07T16:05:59Z</time>
      </trkpt>
      <trkpt lat="49.26043" lon="1.11196">
        <ele>121.505905</ele>
        <time>2014-08-07T16:06:04Z</time>
      </trkpt>
      <trkpt lat="49.26036" lon="1.11195">
        <ele>121.546165</ele>
        <time>2014-08-07T16:06:09Z</time>
      </trkpt>
      <trkpt lat="49.26032" lon="1.11195">
        <ele>121.546165</ele>
        <time>2014-08-07T16:06:14Z</time>
      </trkpt>
      <trkpt lat="49.26028" lon="1.11198">
        <ele>121.546165</ele>
        <time>2014-08-07T16:06:19Z</time>
      </trkpt>
      <trkpt lat="49.26025" lon="1.11206">
        <ele>121.52882</ele>
        <time>2014-08-07T16:06:24Z</time>
      </trkpt>
      <trkpt lat="49.26025" lon="1.1121">
        <ele>121.52882</ele>
        <time>2014-08-07T16:06:29Z</time>
      </trkpt>
      <trkpt lat="49.26025" lon="1.11209">
        <ele>121.52882</ele>
        <time>2014-08-07T16:06:34Z</time>
      </trkpt>
      <trkpt lat="49.26025" lon="1.11209">
        <ele>121.52882</ele>
        <time>2014-08-07T16:06:39Z</time>
      </trkpt>
      <trkpt lat="49.26026" lon="1.11209">
        <ele>121.52882</ele>
        <time>2014-08-07T16:06:44Z</time>
      </trkpt>
      <trkpt lat="49.26027" lon="1.11209">
        <ele>121.52882</ele>
        <time>2014-08-07T16:06:49Z</time>
      </trkpt>
      <trkpt lat="49.26027" lon="1.11208">
        <ele>121.52882</ele>
        <time>2014-08-07T16:06:54Z</time>
      </trkpt>
      <trkpt lat="49.26027" lon="1.11207">
        <ele>121.52882</ele>
        <time>2014-08-07T16:06:59Z</time>
      </trkpt>
      <trkpt lat="49.26025" lon="1.11201">
        <ele>121.71827</ele>
        <time>2014-08-07T16:07:04Z</time>
      </trkpt>
      <trkpt lat="49.2602" lon="1.11193">
        <ele>121.71827</ele>
        <time>2014-08-07T16:07:09Z</time>
      </trkpt>
      <trkpt lat="49.26015" lon="1.11185">
        <ele>121.81135</ele>
        <time>2014-08-07T16:07:14Z</time>
      </trkpt>
      <trkpt lat="49.26013" lon="1.11179">
        <ele>121.81135</ele>
        <time>2014-08-07T16:07:19Z</time>
      </trkpt>
      <trkpt lat="49.26013" lon="1.11171">
        <ele>121.81564</ele>
        <time>2014-08-07T16:07:24Z</time>
      </trkpt>
      <trkpt lat="49.26012" lon="1.11166">
        <ele>121.81564</ele>
        <time>2014-08-07T16:07:29Z</time>
      </trkpt>
      <trkpt lat="49.26013" lon="1.11157">
        <ele>121.75286</ele>
        <time>2014-08-07T16:07:34Z</time>
      </trkpt>
      <trkpt lat="49.26011" lon="1.11149">
        <ele>121.75286</ele>
        <time>2014-08-07T16:07:39Z</time>
      </trkpt>
      <trkpt lat="49.2601" lon="1.11142">
        <ele>121.71537</ele>
        <time>2014-08-07T16:07:44Z</time>
      </trkpt>
      <trkpt lat="49.26007" lon="1.11134">
        <ele>121.71537</ele>
        <time>2014-08-07T16:07:49Z</time>
      </trkpt>
      <trkpt lat="49.26003" lon="1.11128">
        <ele>121.65899</ele>
        <time>2014-08-07T16:07:54Z</time>
      </trkpt>
      <trkpt lat="49.25998" lon="1.11124">
        <ele>121.65899</ele>
        <time>2014-08-07T16:07:59Z</time>
      </trkpt>
      <trkpt lat="49.25994" lon="1.1112">
        <ele>121.57168</ele>
        <time>2014-08-07T16:08:04Z</time>
      </trkpt>
      <trkpt lat="49.2599" lon="1.11113">
        <ele>121.57168</ele>
        <time>2014-08-07T16:08:09Z</time>
      </trkpt>
      <trkpt lat="49.25985" lon="1.11108">
        <ele>121.37028</ele>
        <time>2014-08-07T16:08:14Z</time>
      </trkpt>
      <trkpt lat="49.25979" lon="1.11107">
        <ele>121.37028</ele>
        <time>2014-08-07T16:08:19Z</time>
      </trkpt>
      <trkpt lat="49.25971" lon="1.11113">
        <ele>121.13661</ele>
        <time>2014-08-07T16:08:24Z</time>
      </trkpt>
      <trkpt lat="49.25967" lon="1.11118">
        <ele>121.13661</ele>
        <time>2014-08-07T16:08:29Z</time>
      </trkpt>
      <trkpt lat="49.25962" lon="1.11121">
        <ele>121.018616</ele>
        <time>2014-08-07T16:08:34Z</time>
      </trkpt>
      <trkpt lat="49.25958" lon="1.11122">
        <ele>121.018616</ele>
        <time>2014-08-07T16:08:39Z</time>
      </trkpt>
      <trkpt lat="49.25952" lon="1.11122">
        <ele>120.93685</ele>
        <time>2014-08-07T16:08:44Z</time>
      </trkpt>
      <trkpt lat="49.25946" lon="1.11125">
        <ele>120.93685</ele>
        <time>2014-08-07T16:08:49Z</time>
      </trkpt>
      <trkpt lat="49.25941" lon="1.11129">
        <ele>120.97614</ele>
        <time>2014-08-07T16:08:54Z</time>
      </trkpt>
      <trkpt lat="49.25938" lon="1.11131">
        <ele>120.97614</ele>
        <time>2014-08-07T16:08:59Z</time>
      </trkpt>
      <trkpt lat="49.2594" lon="1.11132">
        <ele>120.97614</ele>
        <time>2014-08-07T16:09:04Z</time>
      </trkpt>
      <trkpt lat="49.2594" lon="1.11133">
        <ele>120.97614</ele>
        <time>2014-08-07T16:09:09Z</time>
      </trkpt>
      <trkpt lat="49.2594" lon="1.11134">
        <ele>120.97614</ele>
        <time>2014-08-07T16:09:14Z</time>
      </trkpt>
      <trkpt lat="49.2594" lon="1.11133">
        <ele>120.97614</ele>
        <time>2014-08-07T16:09:19Z</time>
      </trkpt>
      <trkpt lat="49.25943" lon="1.11132">
        <ele>120.97614</ele>
        <time>2014-08-07T16:09:24Z</time>
      </trkpt>
      <trkpt lat="49.25943" lon="1.11132">
        <ele>120.97614</ele>
        <time>2014-08-07T16:09:29Z</time>
      </trkpt>
      <trkpt lat="49.25942" lon="1.11132">
        <ele>120.96972</ele>
        <time>2014-08-07T16:09:34Z</time>
      </trkpt>
      <trkpt lat="49.25941" lon="1.11133">
        <ele>120.96972</ele>
        <time>2014-08-07T16:09:39Z</time>
      </trkpt>
      <trkpt lat="49.25941" lon="1.11134">
        <ele>120.96972</ele>
        <time>2014-08-07T16:09:44Z</time>
      </trkpt>
      <trkpt lat="49.25938" lon="1.11136">
        <ele>120.96972</ele>
        <time>2014-08-07T16:09:49Z</time>
      </trkpt>
      <trkpt lat="49.25938" lon="1.11139">
        <ele>120.96972</ele>
        <time>2014-08-07T16:09:54Z</time>
      </trkpt>
      <trkpt lat="49.25938" lon="1.1114">
        <ele>120.96972</ele>
        <time>2014-08-07T16:09:59Z</time>
      </trkpt>
      <trkpt lat="49.25938" lon="1.11141">
        <ele>120.96972</ele>
        <time>2014-08-07T16:10:04Z</time>
      </trkpt>
      <trkpt lat="49.25939" lon="1.11143">
        <ele>120.90731</ele>
        <time>2014-08-07T16:10:09Z</time>
      </trkpt>
      <trkpt lat="49.25941" lon="1.11144">
        <ele>120.90731</ele>
        <time>2014-08-07T16:10:14Z</time>
      </trkpt>
      <trkpt lat="49.25942" lon="1.11143">
        <ele>120.90731</ele>
        <time>2014-08-07T16:10:19Z</time>
      </trkpt>
    </trkseg>
  </trk>
</gpx>